<?xml version='1.0' encoding='UTF-8'?><gpx version="1.1" creator="JPX - https://github.com/jenetics/jpx" xmlns="http://www.topografix.com/GPX/1/1"><trk><trkseg><trkpt lat="45.472694627281534" lon="9.277922437659846"><ele>116.0</ele><time>2026-04-11T06:55:54.561Z</time></trkpt><trkpt lat="45.47276407729621" lon="9.278019728157139"><ele>116.0</ele><time>2026-04-11T06:55:56.561Z</time></trkpt><trkpt lat="45.47260467555576" lon="9.278215910719585"><ele>116.0</ele><time>2026-04-11T06:56:13.56Z</time></trkpt><trkpt lat="45.472687281332114" lon="9.278228829890132"><ele>116.0</ele><time>2026-04-11T06:57:27.998Z</time></trkpt><trkpt lat="45.4727695866124" lon="9.278227858659886"><ele>115.66666666666666</ele><time>2026-04-11T06:57:30.998Z</time></trkpt><trkpt lat="45.47286346659549" lon="9.278230388522514"><ele>115.33333333333333</ele><time>2026-04-11T06:57:33.998Z</time></trkpt><trkpt lat="45.47295022687831" lon="9.278233353719234"><ele>115.0</ele><time>2026-04-11T06:57:35.998Z</time></trkpt><trkpt lat="45.47301625014253" lon="9.278238541006644"><ele>114.66666666666666</ele><time>2026-04-11T06:57:39.998Z</time></trkpt><trkpt lat="45.473088094585776" lon="9.278238065597842"><ele>114.33333333333333</ele><time>2026-04-11T06:57:46.998Z</time></trkpt><trkpt lat="45.47316697585108" lon="9.278254140452539"><ele>114.0</ele><time>2026-04-11T06:57:51.998Z</time></trkpt><trkpt lat="45.47320690822774" lon="9.278360429220282"><ele>114.0</ele><time>2026-04-11T06:57:53.998Z</time></trkpt><trkpt lat="45.47322100481734" lon="9.27851137098344"><ele>114.0</ele><time>2026-04-11T06:57:55.998Z</time></trkpt><trkpt lat="45.473243171387075" lon="9.278626612871546"><ele>114.0</ele><time>2026-04-11T06:57:57.999Z</time></trkpt><trkpt lat="45.47329313248524" lon="9.278724784663787"><ele>114.0</ele><time>2026-04-11T06:57:59.999Z</time></trkpt><trkpt lat="45.4733570857906" lon="9.278850205235003"><ele>114.0</ele><time>2026-04-11T06:58:01.999Z</time></trkpt><trkpt lat="45.47342620055316" lon="9.278973619770614"><ele>113.6</ele><time>2026-04-11T06:58:03.999Z</time></trkpt><trkpt lat="45.473473041695925" lon="9.279103114186357"><ele>113.2</ele><time>2026-04-11T06:58:05.999Z</time></trkpt><trkpt lat="45.473515031220565" lon="9.279230864222017"><ele>112.79999999999998</ele><time>2026-04-11T06:58:07.999Z</time></trkpt><trkpt lat="45.47355535436129" lon="9.279370316981115"><ele>112.39999999999999</ele><time>2026-04-11T06:58:09.999Z</time></trkpt><trkpt lat="45.47360044433791" lon="9.2795050129953"><ele>112.0</ele><time>2026-04-11T06:58:11.999Z</time></trkpt><trkpt lat="45.4736349380301" lon="9.279642102428678"><ele>112.0</ele><time>2026-04-11T06:58:13.999Z</time></trkpt><trkpt lat="45.47369520830855" lon="9.279779651631525"><ele>111.99999999999999</ele><time>2026-04-11T06:58:15.999Z</time></trkpt><trkpt lat="45.47374843092498" lon="9.279921445846725"><ele>111.99999999999999</ele><time>2026-04-11T06:58:17.999Z</time></trkpt><trkpt lat="45.47379378460636" lon="9.280061561021133"><ele>112.0</ele><time>2026-04-11T06:58:19.999Z</time></trkpt><trkpt lat="45.47384293370818" lon="9.280202480267212"><ele>112.0</ele><time>2026-04-11T06:58:21.999Z</time></trkpt><trkpt lat="45.47389710041637" lon="9.28034251466712"><ele>112.19999999999999</ele><time>2026-04-11T06:58:23.999Z</time></trkpt><trkpt lat="45.47394658843962" lon="9.280474641890475"><ele>112.39999999999999</ele><time>2026-04-11T06:58:25.999Z</time></trkpt><trkpt lat="45.47399235224585" lon="9.280595148226045"><ele>112.60000000000001</ele><time>2026-04-11T06:58:27.999Z</time></trkpt><trkpt lat="45.47404318682773" lon="9.280731579968116"><ele>112.80000000000001</ele><time>2026-04-11T06:58:29.999Z</time></trkpt><trkpt lat="45.47409170490663" lon="9.280878950647852"><ele>113.0</ele><time>2026-04-11T06:58:31.999Z</time></trkpt><trkpt lat="45.47414209845667" lon="9.281019241959438"><ele>113.0</ele><time>2026-04-11T06:58:33.999Z</time></trkpt><trkpt lat="45.474195203605376" lon="9.281158519265393"><ele>113.00000000000001</ele><time>2026-04-11T06:58:35.999Z</time></trkpt><trkpt lat="45.47424019568965" lon="9.28128846978878"><ele>113.00000000000001</ele><time>2026-04-11T06:58:37.999Z</time></trkpt><trkpt lat="45.47428828920595" lon="9.28142854129089"><ele>113.0</ele><time>2026-04-11T06:58:39.999Z</time></trkpt><trkpt lat="45.474329508614005" lon="9.281561891990544"><ele>113.0</ele><time>2026-04-11T06:58:41.999Z</time></trkpt><trkpt lat="45.47437134795387" lon="9.281699273854915"><ele>112.80000000000001</ele><time>2026-04-11T06:58:43.999Z</time></trkpt><trkpt lat="45.47439291029163" lon="9.28182882438612"><ele>112.60000000000001</ele><time>2026-04-11T06:58:45.999Z</time></trkpt><trkpt lat="45.47440348890454" lon="9.281993568322408"><ele>112.39999999999999</ele><time>2026-04-11T06:58:47.999Z</time></trkpt><trkpt lat="45.47439654903168" lon="9.282140184102817"><ele>112.19999999999999</ele><time>2026-04-11T06:58:49.999Z</time></trkpt><trkpt lat="45.474391822186796" lon="9.28229553763617"><ele>112.0</ele><time>2026-04-11T06:58:51.999Z</time></trkpt><trkpt lat="45.47436030599633" lon="9.28241518262305"><ele>112.0</ele><time>2026-04-11T06:58:53.999Z</time></trkpt><trkpt lat="45.474343712032905" lon="9.282560044221187"><ele>111.99999999999999</ele><time>2026-04-11T06:58:55.999Z</time></trkpt><trkpt lat="45.474325378827956" lon="9.282714852137333"><ele>111.99999999999999</ele><time>2026-04-11T06:58:57.999Z</time></trkpt><trkpt lat="45.47431035593305" lon="9.282834855832622"><ele>112.0</ele><time>2026-04-11T06:58:59.999Z</time></trkpt><trkpt lat="45.47428762219964" lon="9.282980400198268"><ele>112.0</ele><time>2026-04-11T06:59:01.999Z</time></trkpt><trkpt lat="45.47423933283158" lon="9.283126646952965"><ele>112.6</ele><time>2026-04-11T06:59:03.999Z</time></trkpt><trkpt lat="45.47419495388206" lon="9.283264080300096"><ele>113.19999999999999</ele><time>2026-04-11T06:59:05.999Z</time></trkpt><trkpt lat="45.47415507515601" lon="9.28340961745998"><ele>113.8</ele><time>2026-04-11T06:59:07.999Z</time></trkpt><trkpt lat="45.47411984175239" lon="9.283555263610918"><ele>114.4</ele><time>2026-04-11T06:59:09.999Z</time></trkpt><trkpt lat="45.47408143736179" lon="9.28369356836797"><ele>115.0</ele><time>2026-04-11T06:59:11.999Z</time></trkpt><trkpt lat="45.47403969015123" lon="9.283819117825283"><ele>114.8</ele><time>2026-04-11T06:59:13.999Z</time></trkpt><trkpt lat="45.47401767998382" lon="9.283961550334642"><ele>114.6</ele><time>2026-04-11T06:59:15.999Z</time></trkpt><trkpt lat="45.47401383767076" lon="9.284117650027378"><ele>114.4</ele><time>2026-04-11T06:59:17.999Z</time></trkpt><trkpt lat="45.474000250482014" lon="9.284269668478254"><ele>114.2</ele><time>2026-04-11T06:59:19.999Z</time></trkpt><trkpt lat="45.473997963161565" lon="9.28442045541346"><ele>114.0</ele><time>2026-04-11T06:59:21.998Z</time></trkpt><trkpt lat="45.47400061223319" lon="9.284565934809331"><ele>114.0</ele><time>2026-04-11T06:59:23.998Z</time></trkpt><trkpt lat="45.47400087474158" lon="9.284716223957275"><ele>114.0</ele><time>2026-04-11T06:59:25.998Z</time></trkpt><trkpt lat="45.4739899938843" lon="9.284856800828123"><ele>114.0</ele><time>2026-04-11T06:59:27.998Z</time></trkpt><trkpt lat="45.47397879855908" lon="9.28499914837343"><ele>114.0</ele><time>2026-04-11T06:59:29.998Z</time></trkpt><trkpt lat="45.4739841696281" lon="9.285162096581528"><ele>114.0</ele><time>2026-04-11T06:59:31.998Z</time></trkpt><trkpt lat="45.47398199917314" lon="9.28531600028689"><ele>113.6</ele><time>2026-04-11T06:59:33.998Z</time></trkpt><trkpt lat="45.473971517353" lon="9.285447733840998"><ele>113.2</ele><time>2026-04-11T06:59:35.998Z</time></trkpt><trkpt lat="45.47398166864546" lon="9.285577938263712"><ele>112.79999999999998</ele><time>2026-04-11T06:59:37.998Z</time></trkpt><trkpt lat="45.473984356551135" lon="9.285717910730973"><ele>112.39999999999999</ele><time>2026-04-11T06:59:39.998Z</time></trkpt><trkpt lat="45.47400573492081" lon="9.285846352787978"><ele>112.0</ele><time>2026-04-11T06:59:41.998Z</time></trkpt><trkpt lat="45.47402711449738" lon="9.285967325234692"><ele>111.83333333333334</ele><time>2026-04-11T06:59:43.998Z</time></trkpt><trkpt lat="45.47403562242151" lon="9.286090745050538"><ele>111.66666666666667</ele><time>2026-04-11T06:59:45.998Z</time></trkpt><trkpt lat="45.47407315355172" lon="9.286188259039388"><ele>111.5</ele><time>2026-04-11T06:59:47.998Z</time></trkpt><trkpt lat="45.4741404223531" lon="9.286294957680463"><ele>111.33333333333334</ele><time>2026-04-11T06:59:49.998Z</time></trkpt><trkpt lat="45.47419683897989" lon="9.286391780611526"><ele>111.16666666666667</ele><time>2026-04-11T06:59:51.998Z</time></trkpt><trkpt lat="45.47424849573542" lon="9.286494604919335"><ele>111.0</ele><time>2026-04-11T06:59:53.998Z</time></trkpt><trkpt lat="45.47429033622522" lon="9.286583925550325"><ele>111.0</ele><time>2026-04-11T06:59:55.998Z</time></trkpt><trkpt lat="45.474335362710946" lon="9.286664825492108"><ele>111.0</ele><time>2026-04-11T06:59:57.998Z</time></trkpt><trkpt lat="45.47440057207747" lon="9.286738854494686"><ele>111.0</ele><time>2026-04-11T07:00:00.998Z</time></trkpt><trkpt lat="45.474446014343535" lon="9.286801933642895"><ele>111.0</ele><time>2026-04-11T07:00:02.998Z</time></trkpt><trkpt lat="45.474481006122495" lon="9.28690814443443"><ele>111.0</ele><time>2026-04-11T07:00:04.998Z</time></trkpt><trkpt lat="45.474530259262174" lon="9.287003297907741"><ele>111.0</ele><time>2026-04-11T07:00:06.998Z</time></trkpt><trkpt lat="45.47458615281445" lon="9.287080572616764"><ele>111.33333333333333</ele><time>2026-04-11T07:00:08.998Z</time></trkpt><trkpt lat="45.47464494846111" lon="9.287154381639013"><ele>111.66666666666666</ele><time>2026-04-11T07:00:10.998Z</time></trkpt><trkpt lat="45.4747015353639" lon="9.2872670408301"><ele>112.0</ele><time>2026-04-11T07:00:12.998Z</time></trkpt><trkpt lat="45.47475339407069" lon="9.28737525595669"><ele>112.33333333333333</ele><time>2026-04-11T07:00:15.998Z</time></trkpt><trkpt lat="45.47480629533907" lon="9.287440471419556"><ele>112.66666666666666</ele><time>2026-04-11T07:00:18.998Z</time></trkpt><trkpt lat="45.474838049402585" lon="9.287548330545546"><ele>113.0</ele><time>2026-04-11T07:00:21.998Z</time></trkpt><trkpt lat="45.47482292343609" lon="9.287675861669872"><ele>113.4</ele><time>2026-04-11T07:00:26.998Z</time></trkpt><trkpt lat="45.474869567605325" lon="9.287872744361081"><ele>113.80000000000001</ele><time>2026-04-11T07:00:27.998Z</time></trkpt><trkpt lat="45.47488317880579" lon="9.287975074928696"><ele>114.2</ele><time>2026-04-11T07:00:28.998Z</time></trkpt><trkpt lat="45.474894977865674" lon="9.288134852770085"><ele>114.6</ele><time>2026-04-11T07:00:30.997Z</time></trkpt><trkpt lat="45.47487288625202" lon="9.288261923244704"><ele>115.0</ele><time>2026-04-11T07:00:32.997Z</time></trkpt><trkpt lat="45.47490677899157" lon="9.288371503738489"><ele>114.99999999999999</ele><time>2026-04-11T07:00:35.997Z</time></trkpt><trkpt lat="45.47493446603089" lon="9.288463228617584"><ele>115.0</ele><time>2026-04-11T07:00:37.997Z</time></trkpt><trkpt lat="45.47497261666339" lon="9.288539317861513"><ele>114.99999999999999</ele><time>2026-04-11T07:00:39.997Z</time></trkpt><trkpt lat="45.47502072338816" lon="9.288627270014615"><ele>114.99999999999999</ele><time>2026-04-11T07:00:42.997Z</time></trkpt><trkpt lat="45.4750209696993" lon="9.288717789669542"><ele>115.0</ele><time>2026-04-11T07:00:44.997Z</time></trkpt><trkpt lat="45.474977091798436" lon="9.288786587652474"><ele>114.99999999999999</ele><time>2026-04-11T07:00:46.997Z</time></trkpt><trkpt lat="45.47495809152115" lon="9.288879543941068"><ele>114.99999999999999</ele><time>2026-04-11T07:00:48.997Z</time></trkpt><trkpt lat="45.47501066215824" lon="9.288941694312728"><ele>114.16666666666667</ele><time>2026-04-11T07:00:50.997Z</time></trkpt><trkpt lat="45.47506304155139" lon="9.289006639674179"><ele>113.33333333333334</ele><time>2026-04-11T07:00:52.997Z</time></trkpt><trkpt lat="45.47511930070433" lon="9.289076086351423"><ele>112.5</ele><time>2026-04-11T07:00:54.997Z</time></trkpt><trkpt lat="45.475177400724625" lon="9.28915179870043"><ele>111.66666666666666</ele><time>2026-04-11T07:00:56.997Z</time></trkpt><trkpt lat="45.47524147714712" lon="9.289243527946866"><ele>110.83333333333333</ele><time>2026-04-11T07:00:58.997Z</time></trkpt><trkpt lat="45.475291856792744" lon="9.289334729278623"><ele>110.0</ele><time>2026-04-11T07:01:00.997Z</time></trkpt><trkpt lat="45.47534308081487" lon="9.289455418675914"><ele>110.0</ele><time>2026-04-11T07:01:02.997Z</time></trkpt><trkpt lat="45.475395191083464" lon="9.289578140337932"><ele>110.0</ele><time>2026-04-11T07:01:04.997Z</time></trkpt><trkpt lat="45.475441238905006" lon="9.289696874383255"><ele>110.0</ele><time>2026-04-11T07:01:06.997Z</time></trkpt><trkpt lat="45.47549424158433" lon="9.289825597027992"><ele>110.0</ele><time>2026-04-11T07:01:08.997Z</time></trkpt><trkpt lat="45.47552675219171" lon="9.289964466650883"><ele>110.0</ele><time>2026-04-11T07:01:10.997Z</time></trkpt><trkpt lat="45.475569091074675" lon="9.290099480064454"><ele>110.6</ele><time>2026-04-11T07:01:12.997Z</time></trkpt><trkpt lat="45.47561156492758" lon="9.290231403004054"><ele>111.2</ele><time>2026-04-11T07:01:14.997Z</time></trkpt><trkpt lat="45.47565249803796" lon="9.290364216393634"><ele>111.80000000000001</ele><time>2026-04-11T07:01:16.997Z</time></trkpt><trkpt lat="45.47569175699019" lon="9.290499878846804"><ele>112.4</ele><time>2026-04-11T07:01:18.997Z</time></trkpt><trkpt lat="45.47573114610268" lon="9.290631856778964"><ele>113.0</ele><time>2026-04-11T07:01:20.997Z</time></trkpt><trkpt lat="45.475767060625266" lon="9.290769128298068"><ele>113.0</ele><time>2026-04-11T07:01:22.997Z</time></trkpt><trkpt lat="45.47580714049851" lon="9.290906187565275"><ele>113.00000000000001</ele><time>2026-04-11T07:01:24.997Z</time></trkpt><trkpt lat="45.47584485341004" lon="9.291047037414337"><ele>113.00000000000001</ele><time>2026-04-11T07:01:26.997Z</time></trkpt><trkpt lat="45.475886303324025" lon="9.291183669645456"><ele>113.0</ele><time>2026-04-11T07:01:28.997Z</time></trkpt><trkpt lat="45.47592700184229" lon="9.291317787469804"><ele>113.0</ele><time>2026-04-11T07:01:30.997Z</time></trkpt><trkpt lat="45.47596859101351" lon="9.291449911709474"><ele>113.2</ele><time>2026-04-11T07:01:32.997Z</time></trkpt><trkpt lat="45.47598418102524" lon="9.291537995277748"><ele>113.4</ele><time>2026-04-11T07:01:33.997Z</time></trkpt><trkpt lat="45.476021795333196" lon="9.29167404880143"><ele>113.60000000000001</ele><time>2026-04-11T07:01:35.997Z</time></trkpt><trkpt lat="45.476058794954675" lon="9.291808107101502"><ele>113.80000000000001</ele><time>2026-04-11T07:01:37.997Z</time></trkpt><trkpt lat="45.476096327719745" lon="9.291946767325937"><ele>114.0</ele><time>2026-04-11T07:01:39.997Z</time></trkpt><trkpt lat="45.47613791520894" lon="9.292086168583381"><ele>114.0</ele><time>2026-04-11T07:01:41.996Z</time></trkpt><trkpt lat="45.47618075060112" lon="9.292223339134447"><ele>114.0</ele><time>2026-04-11T07:01:43.996Z</time></trkpt><trkpt lat="45.476221311452804" lon="9.292352533949954"><ele>114.0</ele><time>2026-04-11T07:01:45.996Z</time></trkpt><trkpt lat="45.47625757513432" lon="9.292490765185667"><ele>114.0</ele><time>2026-04-11T07:01:47.996Z</time></trkpt><trkpt lat="45.4762862175445" lon="9.292641530188247"><ele>114.0</ele><time>2026-04-11T07:01:49.996Z</time></trkpt><trkpt lat="45.4763056460027" lon="9.292786572141576"><ele>113.80000000000001</ele><time>2026-04-11T07:01:51.996Z</time></trkpt><trkpt lat="45.47633451292179" lon="9.29293043716599"><ele>113.60000000000001</ele><time>2026-04-11T07:01:53.996Z</time></trkpt><trkpt lat="45.47635037584227" lon="9.293083848024592"><ele>113.4</ele><time>2026-04-11T07:01:55.996Z</time></trkpt><trkpt lat="45.47637517926906" lon="9.293219415103653"><ele>113.2</ele><time>2026-04-11T07:01:57.996Z</time></trkpt><trkpt lat="45.47640136180657" lon="9.293387802098486"><ele>113.0</ele><time>2026-04-11T07:01:59.996Z</time></trkpt><trkpt lat="45.47642804380588" lon="9.293542656345348"><ele>113.5</ele><time>2026-04-11T07:02:01.996Z</time></trkpt><trkpt lat="45.47644497841055" lon="9.293712547995128"><ele>114.0</ele><time>2026-04-11T07:02:03.996Z</time></trkpt><trkpt lat="45.47645097912358" lon="9.29387182723964"><ele>114.5</ele><time>2026-04-11T07:02:05.996Z</time></trkpt><trkpt lat="45.476461093751794" lon="9.294040641898436"><ele>115.0</ele><time>2026-04-11T07:02:07.996Z</time></trkpt><trkpt lat="45.4764779967054" lon="9.294192429521301"><ele>115.0</ele><time>2026-04-11T07:02:09.996Z</time></trkpt><trkpt lat="45.47648857104463" lon="9.294349913119872"><ele>115.0</ele><time>2026-04-11T07:02:11.996Z</time></trkpt><trkpt lat="45.476490340368784" lon="9.294497708969736"><ele>115.0</ele><time>2026-04-11T07:02:13.996Z</time></trkpt><trkpt lat="45.47649530368273" lon="9.294645499870484"><ele>115.0</ele><time>2026-04-11T07:02:15.996Z</time></trkpt><trkpt lat="45.47646798315552" lon="9.294809221945142"><ele>115.0</ele><time>2026-04-11T07:02:17.996Z</time></trkpt><trkpt lat="45.47641429067791" lon="9.294960523843207"><ele>115.0</ele><time>2026-04-11T07:02:19.996Z</time></trkpt><trkpt lat="45.4763604589905" lon="9.295091005435635"><ele>115.0</ele><time>2026-04-11T07:02:21.996Z</time></trkpt><trkpt lat="45.476303794577525" lon="9.295213099565187"><ele>115.0</ele><time>2026-04-11T07:02:23.996Z</time></trkpt><trkpt lat="45.476246696087905" lon="9.295305971580468"><ele>115.0</ele><time>2026-04-11T07:02:25.996Z</time></trkpt><trkpt lat="45.4761771640283" lon="9.295365618749104"><ele>115.0</ele><time>2026-04-11T07:02:28.996Z</time></trkpt><trkpt lat="45.47611745496026" lon="9.295451081654447"><ele>115.16666666666667</ele><time>2026-04-11T07:02:31.996Z</time></trkpt><trkpt lat="45.476043300523244" lon="9.29548253795194"><ele>115.33333333333334</ele><time>2026-04-11T07:02:33.996Z</time></trkpt><trkpt lat="45.475960916162414" lon="9.29551850211729"><ele>115.5</ele><time>2026-04-11T07:02:36.996Z</time></trkpt><trkpt lat="45.47588326678655" lon="9.29556366167538"><ele>115.66666666666666</ele><time>2026-04-11T07:02:39.996Z</time></trkpt><trkpt lat="45.47581007221939" lon="9.295604867271242"><ele>115.83333333333333</ele><time>2026-04-11T07:02:42.996Z</time></trkpt><trkpt lat="45.4757782094403" lon="9.295694808883274"><ele>116.0</ele><time>2026-04-11T07:02:45.996Z</time></trkpt><trkpt lat="45.47576579723483" lon="9.295790747355996"><ele>116.0</ele><time>2026-04-11T07:02:48.996Z</time></trkpt><trkpt lat="45.475842200084884" lon="9.295802070292217"><ele>116.0</ele><time>2026-04-11T07:02:53.995Z</time></trkpt><trkpt lat="45.47592814354109" lon="9.295760177354202"><ele>116.0</ele><time>2026-04-11T07:02:55.995Z</time></trkpt><trkpt lat="45.476033512475894" lon="9.295698165092718"><ele>116.0</ele><time>2026-04-11T07:02:57.995Z</time></trkpt><trkpt lat="45.47614612860034" lon="9.295652445724652"><ele>116.0</ele><time>2026-04-11T07:02:59.995Z</time></trkpt><trkpt lat="45.47624605708716" lon="9.295617795980183"><ele>116.19999999999999</ele><time>2026-04-11T07:03:01.995Z</time></trkpt><trkpt lat="45.47637849089595" lon="9.295635558893784"><ele>116.39999999999999</ele><time>2026-04-11T07:03:03.995Z</time></trkpt><trkpt lat="45.47644765364298" lon="9.295682159960334"><ele>116.6</ele><time>2026-04-11T07:03:04.995Z</time></trkpt><trkpt lat="45.47652593201579" lon="9.295803982803523"><ele>116.8</ele><time>2026-04-11T07:03:06.995Z</time></trkpt><trkpt lat="45.47658290644243" lon="9.29589676593832"><ele>117.0</ele><time>2026-04-11T07:03:08.995Z</time></trkpt><trkpt lat="45.4765960824522" lon="9.296021318196034"><ele>117.0</ele><time>2026-04-11T07:03:10.995Z</time></trkpt><trkpt lat="45.47662143639223" lon="9.2961776928854"><ele>116.99999999999999</ele><time>2026-04-11T07:03:12.995Z</time></trkpt><trkpt lat="45.476638469205184" lon="9.296350613986391"><ele>116.99999999999999</ele><time>2026-04-11T07:03:14.995Z</time></trkpt><trkpt lat="45.47664836092071" lon="9.296442093905293"><ele>117.0</ele><time>2026-04-11T07:03:15.995Z</time></trkpt><trkpt lat="45.47667655733145" lon="9.296610128512246"><ele>117.0</ele><time>2026-04-11T07:03:17.995Z</time></trkpt><trkpt lat="45.47667891902264" lon="9.296703148280217"><ele>117.0</ele><time>2026-04-11T07:03:18.995Z</time></trkpt><trkpt lat="45.47669327959225" lon="9.296877140049432"><ele>117.0</ele><time>2026-04-11T07:03:20.995Z</time></trkpt><trkpt lat="45.47670073617544" lon="9.297066219946789"><ele>117.0</ele><time>2026-04-11T07:03:22.995Z</time></trkpt><trkpt lat="45.47672298068163" lon="9.297224333111307"><ele>117.0</ele><time>2026-04-11T07:03:24.995Z</time></trkpt><trkpt lat="45.476748552437456" lon="9.297358025166343"><ele>116.39999999999999</ele><time>2026-04-11T07:03:26.995Z</time></trkpt><trkpt lat="45.47676619623566" lon="9.297507076328356"><ele>115.79999999999998</ele><time>2026-04-11T07:03:28.995Z</time></trkpt><trkpt lat="45.476780476887924" lon="9.297653658256277"><ele>115.2</ele><time>2026-04-11T07:03:30.995Z</time></trkpt><trkpt lat="45.4768042367113" lon="9.297793160589542"><ele>114.6</ele><time>2026-04-11T07:03:32.995Z</time></trkpt><trkpt lat="45.47682985272216" lon="9.297938078910674"><ele>114.0</ele><time>2026-04-11T07:03:34.995Z</time></trkpt><trkpt lat="45.47685208805452" lon="9.298084822184203"><ele>113.80000000000001</ele><time>2026-04-11T07:03:36.995Z</time></trkpt><trkpt lat="45.476877169260575" lon="9.298229269063393"><ele>113.60000000000001</ele><time>2026-04-11T07:03:38.995Z</time></trkpt><trkpt lat="45.4769079339994" lon="9.298385277087084"><ele>113.4</ele><time>2026-04-11T07:03:40.995Z</time></trkpt><trkpt lat="45.4769003362405" lon="9.298508848373707"><ele>113.2</ele><time>2026-04-11T07:03:42.995Z</time></trkpt><trkpt lat="45.476882079288245" lon="9.298643732139412"><ele>113.0</ele><time>2026-04-11T07:03:44.995Z</time></trkpt><trkpt lat="45.47687807092021" lon="9.29875002690981"><ele>112.99999999999999</ele><time>2026-04-11T07:03:46.995Z</time></trkpt><trkpt lat="45.47689072800461" lon="9.298852650163976"><ele>113.0</ele><time>2026-04-11T07:03:49.995Z</time></trkpt><trkpt lat="45.476915022239304" lon="9.298936709342986"><ele>113.0</ele><time>2026-04-11T07:03:51.995Z</time></trkpt><trkpt lat="45.476955907375974" lon="9.299025937494989"><ele>113.0</ele><time>2026-04-11T07:03:53.995Z</time></trkpt><trkpt lat="45.47698752333927" lon="9.299140177070235"><ele>112.99999999999999</ele><time>2026-04-11T07:03:55.995Z</time></trkpt><trkpt lat="45.477009794694446" lon="9.299277848712052"><ele>113.0</ele><time>2026-04-11T07:03:57.995Z</time></trkpt><trkpt lat="45.47703880071072" lon="9.299408194800321"><ele>113.16666666666666</ele><time>2026-04-11T07:03:59.994Z</time></trkpt><trkpt lat="45.47706822894512" lon="9.29954349437101"><ele>113.33333333333333</ele><time>2026-04-11T07:04:01.994Z</time></trkpt><trkpt lat="45.477094556280406" lon="9.299667328010159"><ele>113.5</ele><time>2026-04-11T07:04:03.994Z</time></trkpt><trkpt lat="45.47711405728392" lon="9.299791585560772"><ele>113.66666666666666</ele><time>2026-04-11T07:04:05.994Z</time></trkpt><trkpt lat="45.477137451279596" lon="9.299921709262128"><ele>113.83333333333333</ele><time>2026-04-11T07:04:07.994Z</time></trkpt><trkpt lat="45.477138207453244" lon="9.300016428982284"><ele>114.0</ele><time>2026-04-11T07:04:08.994Z</time></trkpt><trkpt lat="45.477148890594314" lon="9.300137800390289"><ele>114.0</ele><time>2026-04-11T07:04:10.994Z</time></trkpt><trkpt lat="45.47716233646918" lon="9.30028913770664"><ele>114.0</ele><time>2026-04-11T07:04:12.994Z</time></trkpt><trkpt lat="45.477175803266135" lon="9.300442676767917"><ele>114.0</ele><time>2026-04-11T07:04:14.994Z</time></trkpt><trkpt lat="45.47718622517436" lon="9.300595292732696"><ele>114.0</ele><time>2026-04-11T07:04:16.994Z</time></trkpt><trkpt lat="45.47718237300615" lon="9.30068848027582"><ele>114.0</ele><time>2026-04-11T07:04:17.994Z</time></trkpt><trkpt lat="45.47718107102156" lon="9.300828337629486"><ele>114.0</ele><time>2026-04-11T07:04:19.994Z</time></trkpt><trkpt lat="45.47718898273242" lon="9.300948909908183"><ele>114.0</ele><time>2026-04-11T07:04:21.994Z</time></trkpt><trkpt lat="45.47718761429688" lon="9.301084032288138"><ele>114.0</ele><time>2026-04-11T07:04:23.994Z</time></trkpt><trkpt lat="45.47720053646711" lon="9.301207669056545"><ele>114.0</ele><time>2026-04-11T07:04:25.994Z</time></trkpt><trkpt lat="45.47720778487991" lon="9.301330403142279"><ele>114.0</ele><time>2026-04-11T07:04:27.994Z</time></trkpt><trkpt lat="45.47720856041678" lon="9.301453604875478"><ele>114.0</ele><time>2026-04-11T07:04:29.994Z</time></trkpt><trkpt lat="45.47721277440857" lon="9.301578891766512"><ele>113.80000000000001</ele><time>2026-04-11T07:04:31.994Z</time></trkpt><trkpt lat="45.47721318773798" lon="9.301708069128738"><ele>113.60000000000001</ele><time>2026-04-11T07:04:33.994Z</time></trkpt><trkpt lat="45.47720604067637" lon="9.301848065222792"><ele>113.4</ele><time>2026-04-11T07:04:35.994Z</time></trkpt><trkpt lat="45.477202567535834" lon="9.301985835062405"><ele>113.2</ele><time>2026-04-11T07:04:37.994Z</time></trkpt><trkpt lat="45.47720375545633" lon="9.30210792190099"><ele>113.0</ele><time>2026-04-11T07:04:39.994Z</time></trkpt><trkpt lat="45.477195829437385" lon="9.302244470383968"><ele>112.80000000000001</ele><time>2026-04-11T07:04:41.994Z</time></trkpt><trkpt lat="45.477203416846436" lon="9.302375805795078"><ele>112.60000000000001</ele><time>2026-04-11T07:04:43.994Z</time></trkpt><trkpt lat="45.477198405458566" lon="9.302521097992335"><ele>112.39999999999999</ele><time>2026-04-11T07:04:45.994Z</time></trkpt><trkpt lat="45.477207156100725" lon="9.30266163949342"><ele>112.19999999999999</ele><time>2026-04-11T07:04:47.994Z</time></trkpt><trkpt lat="45.47721292622268" lon="9.302809089852072"><ele>112.0</ele><time>2026-04-11T07:04:49.994Z</time></trkpt><trkpt lat="45.47721936097998" lon="9.302951296003517"><ele>112.00000000000001</ele><time>2026-04-11T07:04:51.994Z</time></trkpt><trkpt lat="45.47722259649157" lon="9.30309789394893"><ele>112.0</ele><time>2026-04-11T07:04:53.994Z</time></trkpt><trkpt lat="45.47724412226172" lon="9.303214678817769"><ele>112.0</ele><time>2026-04-11T07:04:55.994Z</time></trkpt><trkpt lat="45.477235854735895" lon="9.303348615439461"><ele>112.0</ele><time>2026-04-11T07:04:57.994Z</time></trkpt><trkpt lat="45.477228547597555" lon="9.303461433754759"><ele>112.00000000000001</ele><time>2026-04-11T07:04:59.994Z</time></trkpt><trkpt lat="45.47718042469397" lon="9.303537147346288"><ele>112.0</ele><time>2026-04-11T07:05:01.994Z</time></trkpt><trkpt lat="45.47710245319127" lon="9.303562563511335"><ele>112.00000000000001</ele><time>2026-04-11T07:05:03.994Z</time></trkpt><trkpt lat="45.4770314400377" lon="9.303616068555602"><ele>112.0</ele><time>2026-04-11T07:05:05.994Z</time></trkpt><trkpt lat="45.47699066245649" lon="9.303699103927132"><ele>112.0</ele><time>2026-04-11T07:05:07.994Z</time></trkpt><trkpt lat="45.47693988604561" lon="9.30377940160095"><ele>112.0</ele><time>2026-04-11T07:05:09.993Z</time></trkpt><trkpt lat="45.47686434138413" lon="9.303791354409551"><ele>112.00000000000001</ele><time>2026-04-11T07:05:11.993Z</time></trkpt><trkpt lat="45.4767679781966" lon="9.303792098284802"><ele>112.0</ele><time>2026-04-11T07:05:13.993Z</time></trkpt><trkpt lat="45.47667530268831" lon="9.303793235952039"><ele>112.0</ele><time>2026-04-11T07:05:15.993Z</time></trkpt><trkpt lat="45.47657937830096" lon="9.303793415746894"><ele>111.99999999999999</ele><time>2026-04-11T07:05:17.993Z</time></trkpt><trkpt lat="45.476498362129476" lon="9.303803347118912"><ele>111.99999999999999</ele><time>2026-04-11T07:05:19.993Z</time></trkpt><trkpt lat="45.47639801086048" lon="9.303818289903672"><ele>112.0</ele><time>2026-04-11T07:05:21.993Z</time></trkpt><trkpt lat="45.476312493732266" lon="9.303819640988843"><ele>112.0</ele><time>2026-04-11T07:05:23.993Z</time></trkpt><trkpt lat="45.47622038259035" lon="9.303818529922248"><ele>111.8</ele><time>2026-04-11T07:05:25.993Z</time></trkpt><trkpt lat="45.476119006451185" lon="9.303810426645045"><ele>111.6</ele><time>2026-04-11T07:05:27.993Z</time></trkpt><trkpt lat="45.47601487094708" lon="9.303820291495027"><ele>111.39999999999999</ele><time>2026-04-11T07:05:29.993Z</time></trkpt><trkpt lat="45.475911049424646" lon="9.303829715381621"><ele>111.19999999999999</ele><time>2026-04-11T07:05:31.993Z</time></trkpt><trkpt lat="45.47581160635973" lon="9.303825992796463"><ele>111.0</ele><time>2026-04-11T07:05:33.993Z</time></trkpt><trkpt lat="45.47571235016309" lon="9.303836473990303"><ele>111.0</ele><time>2026-04-11T07:05:35.993Z</time></trkpt><trkpt lat="45.4756131529231" lon="9.303835102245193"><ele>111.0</ele><time>2026-04-11T07:05:37.993Z</time></trkpt><trkpt lat="45.475534733588624" lon="9.303842701574231"><ele>111.0</ele><time>2026-04-11T07:05:39.993Z</time></trkpt><trkpt lat="45.47545417075578" lon="9.30384763101108"><ele>111.0</ele><time>2026-04-11T07:05:41.993Z</time></trkpt><trkpt lat="45.47535502268236" lon="9.30382152484389"><ele>111.0</ele><time>2026-04-11T07:05:43.993Z</time></trkpt><trkpt lat="45.4752525634415" lon="9.303790586624629"><ele>111.4</ele><time>2026-04-11T07:05:45.993Z</time></trkpt><trkpt lat="45.47514068514097" lon="9.303790377263178"><ele>111.8</ele><time>2026-04-11T07:05:47.993Z</time></trkpt><trkpt lat="45.47502409006484" lon="9.303782084141694"><ele>112.20000000000002</ele><time>2026-04-11T07:05:49.993Z</time></trkpt><trkpt lat="45.47492575494153" lon="9.303764505784127"><ele>112.60000000000001</ele><time>2026-04-11T07:05:51.993Z</time></trkpt><trkpt lat="45.47485755382929" lon="9.303768855702518"><ele>113.0</ele><time>2026-04-11T07:05:53.993Z</time></trkpt><trkpt lat="45.47483096421332" lon="9.303863213179115"><ele>113.33333333333333</ele><time>2026-04-11T07:05:57.993Z</time></trkpt><trkpt lat="45.474832305770136" lon="9.303955878697161"><ele>113.66666666666666</ele><time>2026-04-11T07:05:59.993Z</time></trkpt><trkpt lat="45.47483050774085" lon="9.304060633109515"><ele>114.0</ele><time>2026-04-11T07:06:02.993Z</time></trkpt><trkpt lat="45.47487826062476" lon="9.304141999918423"><ele>114.33333333333334</ele><time>2026-04-11T07:06:06.993Z</time></trkpt><trkpt lat="45.47495883040191" lon="9.304135040354213"><ele>114.66666666666667</ele><time>2026-04-11T07:06:08.993Z</time></trkpt><trkpt lat="45.47503623043777" lon="9.30413084115701"><ele>115.0</ele><time>2026-04-11T07:06:10.993Z</time></trkpt><trkpt lat="45.475115951538655" lon="9.304126373842243"><ele>115.00000000000001</ele><time>2026-04-11T07:06:12.993Z</time></trkpt><trkpt lat="45.47520142980125" lon="9.304128523682332"><ele>115.0</ele><time>2026-04-11T07:06:14.993Z</time></trkpt><trkpt lat="45.4752873082733" lon="9.304129897317582"><ele>115.0</ele><time>2026-04-11T07:06:16.993Z</time></trkpt><trkpt lat="45.475369528217264" lon="9.304124872645511"><ele>115.0</ele><time>2026-04-11T07:06:18.992Z</time></trkpt><trkpt lat="45.475469989269136" lon="9.304138589660539"><ele>115.00000000000001</ele><time>2026-04-11T07:06:20.992Z</time></trkpt><trkpt lat="45.47554001581246" lon="9.304128759295303"><ele>115.0</ele><time>2026-04-11T07:06:22.992Z</time></trkpt><trkpt lat="45.47561553159839" lon="9.304118891262954"><ele>114.50000000000001</ele><time>2026-04-11T07:06:24.992Z</time></trkpt><trkpt lat="45.475703596279594" lon="9.304122924400113"><ele>114.0</ele><time>2026-04-11T07:06:26.992Z</time></trkpt><trkpt lat="45.47579133789588" lon="9.304128307835459"><ele>113.5</ele><time>2026-04-11T07:06:28.992Z</time></trkpt><trkpt lat="45.475865598287925" lon="9.30411997013487"><ele>113.0</ele><time>2026-04-11T07:06:30.992Z</time></trkpt><trkpt lat="45.475939277840546" lon="9.30411817190129"><ele>112.50000000000001</ele><time>2026-04-11T07:06:32.992Z</time></trkpt><trkpt lat="45.476024745896694" lon="9.30411596774793"><ele>112.0</ele><time>2026-04-11T07:06:34.992Z</time></trkpt><trkpt lat="45.47611901625668" lon="9.304113735773916"><ele>112.0</ele><time>2026-04-11T07:06:36.992Z</time></trkpt><trkpt lat="45.4762136288893" lon="9.30411361672478"><ele>111.99999999999999</ele><time>2026-04-11T07:06:38.992Z</time></trkpt><trkpt lat="45.47631404963882" lon="9.30411647076824"><ele>111.99999999999999</ele><time>2026-04-11T07:06:40.992Z</time></trkpt><trkpt lat="45.47641413558239" lon="9.304117462733352"><ele>112.0</ele><time>2026-04-11T07:06:42.992Z</time></trkpt><trkpt lat="45.47650091681115" lon="9.30411440705472"><ele>112.0</ele><time>2026-04-11T07:06:44.992Z</time></trkpt><trkpt lat="45.47658997703431" lon="9.304117699256327"><ele>112.16666666666667</ele><time>2026-04-11T07:06:46.992Z</time></trkpt><trkpt lat="45.47667151197493" lon="9.304118717792685"><ele>112.33333333333334</ele><time>2026-04-11T07:06:48.992Z</time></trkpt><trkpt lat="45.476749032423264" lon="9.304112820358373"><ele>112.5</ele><time>2026-04-11T07:06:50.992Z</time></trkpt><trkpt lat="45.4768391729355" lon="9.30411821872918"><ele>112.66666666666666</ele><time>2026-04-11T07:06:52.992Z</time></trkpt><trkpt lat="45.47691656335143" lon="9.30412002719801"><ele>112.83333333333333</ele><time>2026-04-11T07:06:54.992Z</time></trkpt><trkpt lat="45.47699724491692" lon="9.30412931922582"><ele>113.0</ele><time>2026-04-11T07:06:56.992Z</time></trkpt><trkpt lat="45.47707752107113" lon="9.304169669587568"><ele>113.49999999999999</ele><time>2026-04-11T07:06:58.992Z</time></trkpt><trkpt lat="45.47714828083393" lon="9.304245422803216"><ele>114.0</ele><time>2026-04-11T07:07:00.992Z</time></trkpt><trkpt lat="45.477222352936536" lon="9.304327570899149"><ele>114.5</ele><time>2026-04-11T07:07:02.992Z</time></trkpt><trkpt lat="45.47728010817739" lon="9.30440602365867"><ele>115.0</ele><time>2026-04-11T07:07:04.992Z</time></trkpt><trkpt lat="45.4773246112474" lon="9.30447840228796"><ele>115.49999999999999</ele><time>2026-04-11T07:07:06.992Z</time></trkpt><trkpt lat="45.47735214767431" lon="9.304591990796478"><ele>116.0</ele><time>2026-04-11T07:07:08.992Z</time></trkpt><trkpt lat="45.47736051055967" lon="9.304740488827646"><ele>115.66666666666666</ele><time>2026-04-11T07:07:11.992Z</time></trkpt><trkpt lat="45.47738033785795" lon="9.304852013545256"><ele>115.33333333333333</ele><time>2026-04-11T07:07:13.992Z</time></trkpt><trkpt lat="45.477386090804806" lon="9.304969933764342"><ele>115.0</ele><time>2026-04-11T07:07:15.992Z</time></trkpt><trkpt lat="45.477404442626174" lon="9.30508297147525"><ele>114.66666666666666</ele><time>2026-04-11T07:07:17.992Z</time></trkpt><trkpt lat="45.477418550888395" lon="9.305203382171262"><ele>114.33333333333333</ele><time>2026-04-11T07:07:19.992Z</time></trkpt><trkpt lat="45.47742015671082" lon="9.305326264126593"><ele>114.0</ele><time>2026-04-11T07:07:21.992Z</time></trkpt><trkpt lat="45.477421108189475" lon="9.30542397575727"><ele>114.0</ele><time>2026-04-11T07:07:23.992Z</time></trkpt><trkpt lat="45.477414201325445" lon="9.30532274296775"><ele>114.0</ele><time>2026-04-11T07:10:04.989Z</time></trkpt><trkpt lat="45.47740198641306" lon="9.30520078190165"><ele>114.0</ele><time>2026-04-11T07:10:07.989Z</time></trkpt><trkpt lat="45.477391081829296" lon="9.305076691321153"><ele>114.0</ele><time>2026-04-11T07:10:09.989Z</time></trkpt><trkpt lat="45.477375632115056" lon="9.304962554333153"><ele>114.0</ele><time>2026-04-11T07:10:11.989Z</time></trkpt><trkpt lat="45.477368688958265" lon="9.304840195259755"><ele>114.0</ele><time>2026-04-11T07:10:13.989Z</time></trkpt><trkpt lat="45.47735865315514" lon="9.304738469708585"><ele>114.33333333333333</ele><time>2026-04-11T07:10:15.989Z</time></trkpt><trkpt lat="45.47740404075195" lon="9.304660534004409"><ele>114.66666666666666</ele><time>2026-04-11T07:10:19.989Z</time></trkpt><trkpt lat="45.477479388344946" lon="9.304643627117231"><ele>115.0</ele><time>2026-04-11T07:10:21.989Z</time></trkpt><trkpt lat="45.477546984906475" lon="9.304604196225338"><ele>115.33333333333333</ele><time>2026-04-11T07:10:24.989Z</time></trkpt><trkpt lat="45.47761440101088" lon="9.304534354756715"><ele>115.66666666666666</ele><time>2026-04-11T07:10:27.989Z</time></trkpt><trkpt lat="45.477694670455094" lon="9.304494128981254"><ele>116.0</ele><time>2026-04-11T07:10:29.989Z</time></trkpt><trkpt lat="45.47780046195081" lon="9.304549017586888"><ele>116.0</ele><time>2026-04-11T07:10:34.989Z</time></trkpt><trkpt lat="45.47785176881117" lon="9.304473167030414"><ele>116.0</ele><time>2026-04-11T07:10:39.989Z</time></trkpt><trkpt lat="45.477853466520216" lon="9.304368859265752"><ele>116.0</ele><time>2026-04-11T07:10:42.989Z</time></trkpt><trkpt lat="45.47791102310207" lon="9.304263438993114"><ele>116.0</ele><time>2026-04-11T07:10:45.989Z</time></trkpt><trkpt lat="45.478003978160665" lon="9.304184865483467"><ele>116.0</ele><time>2026-04-11T07:10:47.989Z</time></trkpt><trkpt lat="45.47810316550272" lon="9.304136616501149"><ele>116.0</ele><time>2026-04-11T07:10:49.989Z</time></trkpt><trkpt lat="45.47819716636959" lon="9.304089021980612"><ele>116.0</ele><time>2026-04-11T07:10:51.989Z</time></trkpt><trkpt lat="45.478298715562154" lon="9.304027638229893"><ele>116.0</ele><time>2026-04-11T07:10:53.989Z</time></trkpt><trkpt lat="45.478390479812894" lon="9.303958253656646"><ele>116.0</ele><time>2026-04-11T07:10:55.989Z</time></trkpt><trkpt lat="45.478486609459445" lon="9.303880986654208"><ele>116.0</ele><time>2026-04-11T07:10:57.988Z</time></trkpt><trkpt lat="45.47854997531257" lon="9.303793019634432"><ele>115.83333333333333</ele><time>2026-04-11T07:10:59.988Z</time></trkpt><trkpt lat="45.47863493877734" lon="9.303746864216617"><ele>115.66666666666666</ele><time>2026-04-11T07:11:01.988Z</time></trkpt><trkpt lat="45.478722641144536" lon="9.303761301030223"><ele>115.5</ele><time>2026-04-11T07:11:03.988Z</time></trkpt><trkpt lat="45.478783324529445" lon="9.303794358351627"><ele>115.33333333333334</ele><time>2026-04-11T07:11:05.988Z</time></trkpt><trkpt lat="45.478839334698776" lon="9.303863725994578"><ele>115.16666666666667</ele><time>2026-04-11T07:11:07.988Z</time></trkpt><trkpt lat="45.478887373459706" lon="9.303936161563973"><ele>115.0</ele><time>2026-04-11T07:11:09.988Z</time></trkpt><trkpt lat="45.47894449982689" lon="9.304027685870482"><ele>115.0</ele><time>2026-04-11T07:11:11.988Z</time></trkpt><trkpt lat="45.47899677991976" lon="9.304144446312241"><ele>115.0</ele><time>2026-04-11T07:11:13.988Z</time></trkpt><trkpt lat="45.47904125676774" lon="9.304272467788305"><ele>115.0</ele><time>2026-04-11T07:11:15.988Z</time></trkpt><trkpt lat="45.479078094315064" lon="9.304392641255596"><ele>115.0</ele><time>2026-04-11T07:11:17.988Z</time></trkpt><trkpt lat="45.47913670081842" lon="9.30450653517267"><ele>115.0</ele><time>2026-04-11T07:11:19.988Z</time></trkpt><trkpt lat="45.47917950448421" lon="9.304646704464721"><ele>114.8</ele><time>2026-04-11T07:11:21.988Z</time></trkpt><trkpt lat="45.479223390657225" lon="9.304790867092677"><ele>114.6</ele><time>2026-04-11T07:11:23.988Z</time></trkpt><trkpt lat="45.479262741064616" lon="9.304928688244534"><ele>114.4</ele><time>2026-04-11T07:11:25.988Z</time></trkpt><trkpt lat="45.47929422611634" lon="9.305075959601584"><ele>114.2</ele><time>2026-04-11T07:11:27.988Z</time></trkpt><trkpt lat="45.47931348461867" lon="9.305210027211022"><ele>114.0</ele><time>2026-04-11T07:11:29.988Z</time></trkpt><trkpt lat="45.479352938375314" lon="9.305349878741076"><ele>114.0</ele><time>2026-04-11T07:11:31.988Z</time></trkpt><trkpt lat="45.47936512086972" lon="9.305445444681535"><ele>114.0</ele><time>2026-04-11T07:11:32.988Z</time></trkpt><trkpt lat="45.479388955554775" lon="9.305577623704234"><ele>114.0</ele><time>2026-04-11T07:11:34.988Z</time></trkpt><trkpt lat="45.47941820338563" lon="9.305721550621644"><ele>114.0</ele><time>2026-04-11T07:11:36.988Z</time></trkpt><trkpt lat="45.4794467632454" lon="9.305877617081501"><ele>114.0</ele><time>2026-04-11T07:11:38.988Z</time></trkpt><trkpt lat="45.479474651804395" lon="9.306039960067334"><ele>114.2</ele><time>2026-04-11T07:11:40.988Z</time></trkpt><trkpt lat="45.479498237483504" lon="9.306192670288011"><ele>114.4</ele><time>2026-04-11T07:11:42.988Z</time></trkpt><trkpt lat="45.479521459935526" lon="9.306341648301391"><ele>114.6</ele><time>2026-04-11T07:11:44.988Z</time></trkpt><trkpt lat="45.47953199127291" lon="9.306502221223372"><ele>114.8</ele><time>2026-04-11T07:11:46.988Z</time></trkpt><trkpt lat="45.4795434118145" lon="9.306658089507915"><ele>115.0</ele><time>2026-04-11T07:11:48.988Z</time></trkpt><trkpt lat="45.479555191404366" lon="9.306818919639978"><ele>115.0</ele><time>2026-04-11T07:11:50.988Z</time></trkpt><trkpt lat="45.47956629404968" lon="9.306979836186454"><ele>115.0</ele><time>2026-04-11T07:11:52.988Z</time></trkpt><trkpt lat="45.47958702381829" lon="9.307139767602173"><ele>115.0</ele><time>2026-04-11T07:11:54.988Z</time></trkpt><trkpt lat="45.47959491308849" lon="9.307294755485064"><ele>115.0</ele><time>2026-04-11T07:11:56.988Z</time></trkpt><trkpt lat="45.47960249722256" lon="9.307463199014643"><ele>114.8</ele><time>2026-04-11T07:11:58.988Z</time></trkpt><trkpt lat="45.47962240134517" lon="9.30762424561853"><ele>114.6</ele><time>2026-04-11T07:12:00.988Z</time></trkpt><trkpt lat="45.47964020757453" lon="9.307779343506587"><ele>114.4</ele><time>2026-04-11T07:12:02.988Z</time></trkpt><trkpt lat="45.47965195215984" lon="9.307931218509102"><ele>114.2</ele><time>2026-04-11T07:12:04.988Z</time></trkpt><trkpt lat="45.47964158270385" lon="9.308044843494011"><ele>114.0</ele><time>2026-04-11T07:12:06.987Z</time></trkpt><trkpt lat="45.479670072123724" lon="9.308149442521641"><ele>114.0</ele><time>2026-04-11T07:12:08.987Z</time></trkpt><trkpt lat="45.47969009307526" lon="9.308274074061424"><ele>114.0</ele><time>2026-04-11T07:12:10.987Z</time></trkpt><trkpt lat="45.47970241144155" lon="9.308435204123818"><ele>114.0</ele><time>2026-04-11T07:12:12.987Z</time></trkpt><trkpt lat="45.47972136108845" lon="9.308532290808321"><ele>114.0</ele><time>2026-04-11T07:12:13.987Z</time></trkpt><trkpt lat="45.47976132413203" lon="9.308687546971107"><ele>114.0</ele><time>2026-04-11T07:12:15.987Z</time></trkpt><trkpt lat="45.47977651304585" lon="9.308846971061135"><ele>114.5</ele><time>2026-04-11T07:12:17.987Z</time></trkpt><trkpt lat="45.479779125005706" lon="9.309026537497616"><ele>115.0</ele><time>2026-04-11T07:12:19.987Z</time></trkpt><trkpt lat="45.47981336638334" lon="9.309179992514453"><ele>115.5</ele><time>2026-04-11T07:12:21.987Z</time></trkpt><trkpt lat="45.479834858344105" lon="9.309339186728982"><ele>116.0</ele><time>2026-04-11T07:12:23.987Z</time></trkpt><trkpt lat="45.479840489376855" lon="9.309491693905006"><ele>116.0</ele><time>2026-04-11T07:12:25.987Z</time></trkpt><trkpt lat="45.47986029555781" lon="9.30966138086468"><ele>116.0</ele><time>2026-04-11T07:12:27.987Z</time></trkpt><trkpt lat="45.479877278345974" lon="9.309811898244906"><ele>116.0</ele><time>2026-04-11T07:12:29.987Z</time></trkpt><trkpt lat="45.47990388463372" lon="9.309969510578028"><ele>116.0</ele><time>2026-04-11T07:12:31.987Z</time></trkpt><trkpt lat="45.47993237900745" lon="9.310116017162413"><ele>116.0</ele><time>2026-04-11T07:12:33.987Z</time></trkpt><trkpt lat="45.47996097055751" lon="9.310258043153505"><ele>115.75</ele><time>2026-04-11T07:12:35.987Z</time></trkpt><trkpt lat="45.47999405067107" lon="9.310412143546708"><ele>115.5</ele><time>2026-04-11T07:12:37.987Z</time></trkpt><trkpt lat="45.479997925594" lon="9.310571072157563"><ele>115.25</ele><time>2026-04-11T07:12:39.987Z</time></trkpt><trkpt lat="45.48001207659439" lon="9.31073718822483"><ele>115.0</ele><time>2026-04-11T07:12:41.987Z</time></trkpt><trkpt lat="45.48003323460454" lon="9.310890117941844"><ele>115.0</ele><time>2026-04-11T07:12:43.987Z</time></trkpt><trkpt lat="45.480047923822696" lon="9.31103045906739"><ele>115.0</ele><time>2026-04-11T07:12:45.987Z</time></trkpt><trkpt lat="45.48006140439689" lon="9.311190105338236"><ele>115.0</ele><time>2026-04-11T07:12:47.987Z</time></trkpt><trkpt lat="45.480077280027004" lon="9.311335301033868"><ele>115.0</ele><time>2026-04-11T07:12:49.987Z</time></trkpt><trkpt lat="45.480088307941706" lon="9.311474021154607"><ele>115.0</ele><time>2026-04-11T07:12:51.987Z</time></trkpt><trkpt lat="45.48009794035573" lon="9.311622004894334"><ele>115.0</ele><time>2026-04-11T07:12:53.987Z</time></trkpt><trkpt lat="45.48011410612609" lon="9.311762604685438"><ele>115.0</ele><time>2026-04-11T07:12:55.987Z</time></trkpt><trkpt lat="45.48013572638337" lon="9.311910357361109"><ele>115.0</ele><time>2026-04-11T07:12:57.987Z</time></trkpt><trkpt lat="45.480153657003385" lon="9.312047218435234"><ele>115.0</ele><time>2026-04-11T07:12:59.987Z</time></trkpt><trkpt lat="45.480176512573145" lon="9.312189486180387"><ele>115.0</ele><time>2026-04-11T07:13:01.987Z</time></trkpt><trkpt lat="45.48019782805456" lon="9.312334238699439"><ele>115.2</ele><time>2026-04-11T07:13:03.987Z</time></trkpt><trkpt lat="45.48021722073224" lon="9.312473368284772"><ele>115.4</ele><time>2026-04-11T07:13:05.987Z</time></trkpt><trkpt lat="45.48024056811738" lon="9.312616371103314"><ele>115.6</ele><time>2026-04-11T07:13:07.987Z</time></trkpt><trkpt lat="45.4802593028685" lon="9.312753412438516"><ele>115.8</ele><time>2026-04-11T07:13:09.987Z</time></trkpt><trkpt lat="45.48027537399633" lon="9.312899363405494"><ele>116.0</ele><time>2026-04-11T07:13:11.987Z</time></trkpt><trkpt lat="45.48028758743877" lon="9.313046042018106"><ele>115.6</ele><time>2026-04-11T07:13:13.987Z</time></trkpt><trkpt lat="45.480308681716195" lon="9.313178824738664"><ele>115.19999999999999</ele><time>2026-04-11T07:13:15.987Z</time></trkpt><trkpt lat="45.480309476295034" lon="9.313321294111558"><ele>114.80000000000001</ele><time>2026-04-11T07:13:17.986Z</time></trkpt><trkpt lat="45.48027416641341" lon="9.313457090756833"><ele>114.4</ele><time>2026-04-11T07:13:19.986Z</time></trkpt><trkpt lat="45.48022929159388" lon="9.313595389115932"><ele>114.0</ele><time>2026-04-11T07:13:21.986Z</time></trkpt><trkpt lat="45.480234232063296" lon="9.313743494521521"><ele>114.0</ele><time>2026-04-11T07:13:23.986Z</time></trkpt><trkpt lat="45.48030909173085" lon="9.313839964959913"><ele>114.0</ele><time>2026-04-11T07:13:25.986Z</time></trkpt><trkpt lat="45.48040458937448" lon="9.313913621208986"><ele>114.0</ele><time>2026-04-11T07:13:27.986Z</time></trkpt><trkpt lat="45.480455061463" lon="9.314044277402626"><ele>114.0</ele><time>2026-04-11T07:13:29.986Z</time></trkpt><trkpt lat="45.4804686323542" lon="9.31419586047866"><ele>114.0</ele><time>2026-04-11T07:13:31.986Z</time></trkpt><trkpt lat="45.480490019616" lon="9.314353850025173"><ele>114.4</ele><time>2026-04-11T07:13:33.986Z</time></trkpt><trkpt lat="45.48051415186473" lon="9.314499045406109"><ele>114.80000000000001</ele><time>2026-04-11T07:13:35.986Z</time></trkpt><trkpt lat="45.480536787995895" lon="9.314643184048945"><ele>115.19999999999999</ele><time>2026-04-11T07:13:37.986Z</time></trkpt><trkpt lat="45.480559006307864" lon="9.314788089687546"><ele>115.6</ele><time>2026-04-11T07:13:39.986Z</time></trkpt><trkpt lat="45.48056633848503" lon="9.3149473153158"><ele>116.0</ele><time>2026-04-11T07:13:41.986Z</time></trkpt><trkpt lat="45.48059814846315" lon="9.315062320008048"><ele>116.0</ele><time>2026-04-11T07:13:43.986Z</time></trkpt><trkpt lat="45.48061437872161" lon="9.315236621904843"><ele>116.0</ele><time>2026-04-11T07:13:45.986Z</time></trkpt><trkpt lat="45.48062138242404" lon="9.315381770495208"><ele>116.0</ele><time>2026-04-11T07:13:47.986Z</time></trkpt><trkpt lat="45.4806415134831" lon="9.315541246979652"><ele>116.0</ele><time>2026-04-11T07:13:49.986Z</time></trkpt><trkpt lat="45.480667593139685" lon="9.31569048683394"><ele>116.0</ele><time>2026-04-11T07:13:51.986Z</time></trkpt><trkpt lat="45.48069424368221" lon="9.315837806434454"><ele>116.0</ele><time>2026-04-11T07:13:53.986Z</time></trkpt><trkpt lat="45.48071516737388" lon="9.31599494777595"><ele>116.0</ele><time>2026-04-11T07:13:55.986Z</time></trkpt><trkpt lat="45.48074199857254" lon="9.316141258979867"><ele>116.0</ele><time>2026-04-11T07:13:57.986Z</time></trkpt><trkpt lat="45.4807591534463" lon="9.316286041163616"><ele>116.0</ele><time>2026-04-11T07:13:59.986Z</time></trkpt><trkpt lat="45.48077614067374" lon="9.31643330907198"><ele>116.0</ele><time>2026-04-11T07:14:01.986Z</time></trkpt><trkpt lat="45.48080086389361" lon="9.316583873820132"><ele>116.0</ele><time>2026-04-11T07:14:03.986Z</time></trkpt><trkpt lat="45.48082705870092" lon="9.316716081336004"><ele>116.0</ele><time>2026-04-11T07:14:05.986Z</time></trkpt><trkpt lat="45.4808515715776" lon="9.316864054949612"><ele>116.0</ele><time>2026-04-11T07:14:07.986Z</time></trkpt><trkpt lat="45.48086763682357" lon="9.317019202810298"><ele>116.0</ele><time>2026-04-11T07:14:09.986Z</time></trkpt><trkpt lat="45.48088325859648" lon="9.31716465467119"><ele>116.0</ele><time>2026-04-11T07:14:11.986Z</time></trkpt><trkpt lat="45.480902043588486" lon="9.317318192260368"><ele>116.0</ele><time>2026-04-11T07:14:13.986Z</time></trkpt><trkpt lat="45.480921265462655" lon="9.317455570188915"><ele>116.0</ele><time>2026-04-11T07:14:15.986Z</time></trkpt><trkpt lat="45.48094613085454" lon="9.317596325266761"><ele>116.0</ele><time>2026-04-11T07:14:17.986Z</time></trkpt><trkpt lat="45.48097100556056" lon="9.317737187356398"><ele>116.0</ele><time>2026-04-11T07:14:19.986Z</time></trkpt><trkpt lat="45.480991359497395" lon="9.317895112695279"><ele>116.0</ele><time>2026-04-11T07:14:21.986Z</time></trkpt><trkpt lat="45.48101204778254" lon="9.318043886839888"><ele>116.0</ele><time>2026-04-11T07:14:23.986Z</time></trkpt><trkpt lat="45.48103759160574" lon="9.318188899726083"><ele>116.0</ele><time>2026-04-11T07:14:25.986Z</time></trkpt><trkpt lat="45.481057813292395" lon="9.318319494240619"><ele>116.0</ele><time>2026-04-11T07:14:27.985Z</time></trkpt><trkpt lat="45.481077058287575" lon="9.318476473013751"><ele>116.0</ele><time>2026-04-11T07:14:29.985Z</time></trkpt><trkpt lat="45.48109832179249" lon="9.31863925389713"><ele>116.0</ele><time>2026-04-11T07:14:31.985Z</time></trkpt><trkpt lat="45.48111914282589" lon="9.318775639450237"><ele>115.8</ele><time>2026-04-11T07:14:33.985Z</time></trkpt><trkpt lat="45.481133908818386" lon="9.318913924729381"><ele>115.6</ele><time>2026-04-11T07:14:35.985Z</time></trkpt><trkpt lat="45.48113794908875" lon="9.319063727098577"><ele>115.4</ele><time>2026-04-11T07:14:37.985Z</time></trkpt><trkpt lat="45.4811543652404" lon="9.319202888153052"><ele>115.2</ele><time>2026-04-11T07:14:39.985Z</time></trkpt><trkpt lat="45.48118385308018" lon="9.319348245328921"><ele>115.0</ele><time>2026-04-11T07:14:41.985Z</time></trkpt><trkpt lat="45.481203290369976" lon="9.319496902522427"><ele>115.0</ele><time>2026-04-11T07:14:43.985Z</time></trkpt><trkpt lat="45.481219165896604" lon="9.319644428678211"><ele>115.0</ele><time>2026-04-11T07:14:45.985Z</time></trkpt><trkpt lat="45.48124989932726" lon="9.31978876102511"><ele>115.0</ele><time>2026-04-11T07:14:47.985Z</time></trkpt><trkpt lat="45.48126435138403" lon="9.319921115129691"><ele>115.0</ele><time>2026-04-11T07:14:49.985Z</time></trkpt><trkpt lat="45.481285043419945" lon="9.320069004441981"><ele>115.0</ele><time>2026-04-11T07:14:51.985Z</time></trkpt><trkpt lat="45.48130009677982" lon="9.320224616072371"><ele>115.0</ele><time>2026-04-11T07:14:53.985Z</time></trkpt><trkpt lat="45.48133993940896" lon="9.320370185178044"><ele>115.0</ele><time>2026-04-11T07:14:55.985Z</time></trkpt><trkpt lat="45.48136778200576" lon="9.320497246827172"><ele>115.0</ele><time>2026-04-11T07:14:57.985Z</time></trkpt><trkpt lat="45.481396476973806" lon="9.320660054424064"><ele>115.0</ele><time>2026-04-11T07:14:59.985Z</time></trkpt><trkpt lat="45.481442652988115" lon="9.320819222007753"><ele>115.0</ele><time>2026-04-11T07:15:01.985Z</time></trkpt><trkpt lat="45.481467635909425" lon="9.320965814420864"><ele>115.0</ele><time>2026-04-11T07:15:03.985Z</time></trkpt><trkpt lat="45.4814969982396" lon="9.321119914955384"><ele>115.0</ele><time>2026-04-11T07:15:05.985Z</time></trkpt><trkpt lat="45.481510047331014" lon="9.321273442606046"><ele>115.0</ele><time>2026-04-11T07:15:07.985Z</time></trkpt><trkpt lat="45.48151791549421" lon="9.321440991244401"><ele>115.0</ele><time>2026-04-11T07:15:09.985Z</time></trkpt><trkpt lat="45.4815349042455" lon="9.321601126081966"><ele>115.2</ele><time>2026-04-11T07:15:11.985Z</time></trkpt><trkpt lat="45.481535153958134" lon="9.321751955398284"><ele>115.4</ele><time>2026-04-11T07:15:13.985Z</time></trkpt><trkpt lat="45.48153898942134" lon="9.32190538090772"><ele>115.6</ele><time>2026-04-11T07:15:15.985Z</time></trkpt><trkpt lat="45.481544899988016" lon="9.322060381114465"><ele>115.8</ele><time>2026-04-11T07:15:17.985Z</time></trkpt><trkpt lat="45.481553464367884" lon="9.322200895615001"><ele>116.0</ele><time>2026-04-11T07:15:19.985Z</time></trkpt><trkpt lat="45.481560275422666" lon="9.322351657047099"><ele>116.0</ele><time>2026-04-11T07:15:21.985Z</time></trkpt><trkpt lat="45.48155941319124" lon="9.322507282002222"><ele>116.0</ele><time>2026-04-11T07:15:23.985Z</time></trkpt><trkpt lat="45.48156819490279" lon="9.322646282106183"><ele>116.0</ele><time>2026-04-11T07:15:25.985Z</time></trkpt><trkpt lat="45.481574029061335" lon="9.322762449706588"><ele>116.0</ele><time>2026-04-11T07:15:27.985Z</time></trkpt><trkpt lat="45.481570177490994" lon="9.322884706382805"><ele>116.0</ele><time>2026-04-11T07:15:29.985Z</time></trkpt><trkpt lat="45.481575771679815" lon="9.323009192990892"><ele>116.0</ele><time>2026-04-11T07:15:31.985Z</time></trkpt><trkpt lat="45.48156785238215" lon="9.323142260644914"><ele>116.0</ele><time>2026-04-11T07:15:33.985Z</time></trkpt><trkpt lat="45.48155349489752" lon="9.323281308149266"><ele>116.0</ele><time>2026-04-11T07:15:35.984Z</time></trkpt><trkpt lat="45.48152813419678" lon="9.323430185505455"><ele>116.0</ele><time>2026-04-11T07:15:37.984Z</time></trkpt><trkpt lat="45.481509860178456" lon="9.323565201641545"><ele>116.0</ele><time>2026-04-11T07:15:39.984Z</time></trkpt><trkpt lat="45.481515464067954" lon="9.323719326761275"><ele>116.0</ele><time>2026-04-11T07:15:41.984Z</time></trkpt><trkpt lat="45.481505222701564" lon="9.323866258094519"><ele>116.0</ele><time>2026-04-11T07:15:43.984Z</time></trkpt><trkpt lat="45.48149498826293" lon="9.324029629392195"><ele>116.0</ele><time>2026-04-11T07:15:45.984Z</time></trkpt><trkpt lat="45.48149482183612" lon="9.324178843790236"><ele>116.0</ele><time>2026-04-11T07:15:47.984Z</time></trkpt><trkpt lat="45.481490551501956" lon="9.324349847352755"><ele>116.0</ele><time>2026-04-11T07:15:49.984Z</time></trkpt><trkpt lat="45.481479810361684" lon="9.324491632464229"><ele>116.0</ele><time>2026-04-11T07:15:51.984Z</time></trkpt><trkpt lat="45.48147797685212" lon="9.324638833468562"><ele>116.0</ele><time>2026-04-11T07:15:53.984Z</time></trkpt><trkpt lat="45.48148092476768" lon="9.324785600527923"><ele>116.0</ele><time>2026-04-11T07:15:55.984Z</time></trkpt><trkpt lat="45.4814895090138" lon="9.324945603726219"><ele>116.0</ele><time>2026-04-11T07:15:57.984Z</time></trkpt><trkpt lat="45.481502360629435" lon="9.325100266260224"><ele>116.0</ele><time>2026-04-11T07:15:59.984Z</time></trkpt><trkpt lat="45.481519969472835" lon="9.325252979750887"><ele>115.99999999999999</ele><time>2026-04-11T07:16:01.984Z</time></trkpt><trkpt lat="45.48154226591972" lon="9.325376592880009"><ele>116.0</ele><time>2026-04-11T07:16:03.984Z</time></trkpt><trkpt lat="45.481545658198456" lon="9.325525297204816"><ele>116.0</ele><time>2026-04-11T07:16:05.984Z</time></trkpt><trkpt lat="45.48156054222102" lon="9.325668540619258"><ele>116.0</ele><time>2026-04-11T07:16:07.984Z</time></trkpt><trkpt lat="45.48157538482472" lon="9.325760730657594"><ele>115.99999999999999</ele><time>2026-04-11T07:16:09.984Z</time></trkpt><trkpt lat="45.48164564246175" lon="9.325785633433425"><ele>116.0</ele><time>2026-04-11T07:16:12.984Z</time></trkpt><trkpt lat="45.48175188329145" lon="9.325763419168215"><ele>115.99999999999999</ele><time>2026-04-11T07:16:17.984Z</time></trkpt><trkpt lat="45.4818075622082" lon="9.325703222991168"><ele>116.0</ele><time>2026-04-11T07:16:19.984Z</time></trkpt><trkpt lat="45.48186664979928" lon="9.32562948578492"><ele>116.0</ele><time>2026-04-11T07:16:23.984Z</time></trkpt><trkpt lat="45.48196127657309" lon="9.325561559689541"><ele>116.0</ele><time>2026-04-11T07:16:25.984Z</time></trkpt><trkpt lat="45.4820217586741" lon="9.325466390552874"><ele>115.99999999999999</ele><time>2026-04-11T07:16:27.984Z</time></trkpt><trkpt lat="45.482099416561645" lon="9.325370350674831"><ele>116.0</ele><time>2026-04-11T07:16:29.984Z</time></trkpt><trkpt lat="45.482147016248426" lon="9.325291161833208"><ele>115.99999999999999</ele><time>2026-04-11T07:16:31.984Z</time></trkpt><trkpt lat="45.48223086484926" lon="9.325307464378092"><ele>116.0</ele><time>2026-04-11T07:16:33.984Z</time></trkpt><trkpt lat="45.4822626866367" lon="9.325396116788522"><ele>116.0</ele><time>2026-04-11T07:16:35.984Z</time></trkpt><trkpt lat="45.482292260273944" lon="9.3254989400019"><ele>116.0</ele><time>2026-04-11T07:16:37.984Z</time></trkpt><trkpt lat="45.482339763764706" lon="9.325596205569099"><ele>115.99999999999999</ele><time>2026-04-11T07:16:39.984Z</time></trkpt><trkpt lat="45.48235941705126" lon="9.325684529539762"><ele>116.0</ele><time>2026-04-11T07:16:40.984Z</time></trkpt><trkpt lat="45.48240273583408" lon="9.325815850065212"><ele>116.16666666666666</ele><time>2026-04-11T07:16:42.984Z</time></trkpt><trkpt lat="45.482431364207784" lon="9.325940735890102"><ele>116.33333333333333</ele><time>2026-04-11T07:16:44.984Z</time></trkpt><trkpt lat="45.48246341413113" lon="9.326038848794237"><ele>116.5</ele><time>2026-04-11T07:16:46.983Z</time></trkpt><trkpt lat="45.482512003561794" lon="9.326135157502891"><ele>116.66666666666666</ele><time>2026-04-11T07:16:49.983Z</time></trkpt><trkpt lat="45.48258865536026" lon="9.3261572365954"><ele>116.83333333333333</ele><time>2026-04-11T07:16:51.983Z</time></trkpt><trkpt lat="45.482651859281425" lon="9.326122216284825"><ele>117.0</ele><time>2026-04-11T07:16:53.983Z</time></trkpt><trkpt lat="45.48272034428616" lon="9.326098606253733"><ele>117.0</ele><time>2026-04-11T07:16:55.983Z</time></trkpt><trkpt lat="45.482806023451154" lon="9.326059449081095"><ele>116.99999999999999</ele><time>2026-04-11T07:16:57.983Z</time></trkpt><trkpt lat="45.48288957925679" lon="9.326010811191221"><ele>116.99999999999999</ele><time>2026-04-11T07:16:59.983Z</time></trkpt><trkpt lat="45.48298447187912" lon="9.325996453578837"><ele>117.0</ele><time>2026-04-11T07:17:01.983Z</time></trkpt><trkpt lat="45.483081767311866" lon="9.325958724803513"><ele>117.0</ele><time>2026-04-11T07:17:03.983Z</time></trkpt><trkpt lat="45.48316205599547" lon="9.325929658114202"><ele>117.6</ele><time>2026-04-11T07:17:05.983Z</time></trkpt><trkpt lat="45.48322406361404" lon="9.325897633376078"><ele>118.19999999999999</ele><time>2026-04-11T07:17:07.983Z</time></trkpt><trkpt lat="45.48334610233632" lon="9.325886890904311"><ele>118.8</ele><time>2026-04-11T07:17:10.983Z</time></trkpt><trkpt lat="45.48343802599867" lon="9.32585616240837"><ele>119.4</ele><time>2026-04-11T07:17:12.983Z</time></trkpt><trkpt lat="45.483519673953374" lon="9.325773786594642"><ele>120.0</ele><time>2026-04-11T07:17:14.983Z</time></trkpt><trkpt lat="45.48362325668279" lon="9.325723865211765"><ele>119.8</ele><time>2026-04-11T07:17:16.983Z</time></trkpt><trkpt lat="45.483833003584074" lon="9.325723511604465"><ele>119.6</ele><time>2026-04-11T07:17:21.983Z</time></trkpt><trkpt lat="45.48389568352687" lon="9.325713483162158"><ele>119.4</ele><time>2026-04-11T07:17:25.983Z</time></trkpt><trkpt lat="45.483929787203294" lon="9.325809109936992"><ele>119.2</ele><time>2026-04-11T07:17:26.983Z</time></trkpt><trkpt lat="45.483966764275486" lon="9.325925437712254"><ele>119.0</ele><time>2026-04-11T07:17:28.983Z</time></trkpt><trkpt lat="45.48400187553003" lon="9.326021658661974"><ele>118.99999999999999</ele><time>2026-04-11T07:17:30.983Z</time></trkpt><trkpt lat="45.48405915679492" lon="9.326117657673876"><ele>119.0</ele><time>2026-04-11T07:17:32.983Z</time></trkpt><trkpt lat="45.484096612560776" lon="9.326239221453603"><ele>119.0</ele><time>2026-04-11T07:17:34.983Z</time></trkpt><trkpt lat="45.48412415991667" lon="9.326329269788472"><ele>119.0</ele><time>2026-04-11T07:17:36.983Z</time></trkpt><trkpt lat="45.48415434093657" lon="9.326465228670047"><ele>118.99999999999999</ele><time>2026-04-11T07:17:38.983Z</time></trkpt><trkpt lat="45.484189125648975" lon="9.326563025853899"><ele>119.0</ele><time>2026-04-11T07:17:40.983Z</time></trkpt><trkpt lat="45.484228605117565" lon="9.326674802919328"><ele>119.16666666666666</ele><time>2026-04-11T07:17:43.983Z</time></trkpt><trkpt lat="45.484275715334554" lon="9.326759634682002"><ele>119.33333333333333</ele><time>2026-04-11T07:17:49.983Z</time></trkpt><trkpt lat="45.48428578366224" lon="9.326856994834765"><ele>119.5</ele><time>2026-04-11T07:17:51.983Z</time></trkpt><trkpt lat="45.48431661256805" lon="9.326970396621057"><ele>119.66666666666666</ele><time>2026-04-11T07:17:53.983Z</time></trkpt><trkpt lat="45.48432532015796" lon="9.327093666848095"><ele>119.83333333333333</ele><time>2026-04-11T07:17:55.982Z</time></trkpt><trkpt lat="45.48436616002752" lon="9.32725726736136"><ele>120.0</ele><time>2026-04-11T07:17:57.982Z</time></trkpt><trkpt lat="45.48439610693361" lon="9.327399873836006"><ele>120.0</ele><time>2026-04-11T07:17:59.982Z</time></trkpt><trkpt lat="45.48444473782831" lon="9.327537759559945"><ele>120.0</ele><time>2026-04-11T07:18:01.982Z</time></trkpt><trkpt lat="45.48444922717849" lon="9.327634232702314"><ele>120.0</ele><time>2026-04-11T07:18:02.982Z</time></trkpt><trkpt lat="45.48447801701621" lon="9.327815459869282"><ele>120.0</ele><time>2026-04-11T07:18:04.982Z</time></trkpt><trkpt lat="45.48449496191999" lon="9.327903786932982"><ele>120.0</ele><time>2026-04-11T07:18:05.982Z</time></trkpt><trkpt lat="45.48452662274153" lon="9.328053222813883"><ele>120.4</ele><time>2026-04-11T07:18:07.982Z</time></trkpt><trkpt lat="45.48456573526016" lon="9.328190121608708"><ele>120.8</ele><time>2026-04-11T07:18:09.982Z</time></trkpt><trkpt lat="45.48458233383512" lon="9.328311219236193"><ele>121.19999999999999</ele><time>2026-04-11T07:18:11.999Z</time></trkpt><trkpt lat="45.48456352261189" lon="9.32842423598722"><ele>121.6</ele><time>2026-04-11T07:18:14.999Z</time></trkpt><trkpt lat="45.48453639788143" lon="9.32856292704231"><ele>122.0</ele><time>2026-04-11T07:18:17.999Z</time></trkpt><trkpt lat="45.484431396243714" lon="9.328642816091454"><ele>122.0</ele><time>2026-04-11T07:18:19.999Z</time></trkpt><trkpt lat="45.48432452612838" lon="9.328665930161542"><ele>121.99999999999999</ele><time>2026-04-11T07:18:21.999Z</time></trkpt><trkpt lat="45.48422749643714" lon="9.32872592554854"><ele>121.99999999999999</ele><time>2026-04-11T07:18:23.999Z</time></trkpt><trkpt lat="45.48412321100253" lon="9.328763474191755"><ele>122.0</ele><time>2026-04-11T07:18:25.999Z</time></trkpt><trkpt lat="45.484016574396755" lon="9.328780016213496"><ele>122.0</ele><time>2026-04-11T07:18:27.999Z</time></trkpt><trkpt lat="45.483913327133735" lon="9.328840570138373"><ele>122.0</ele><time>2026-04-11T07:18:29.999Z</time></trkpt><trkpt lat="45.48380452961167" lon="9.328883936890856"><ele>121.99999999999999</ele><time>2026-04-11T07:18:31.999Z</time></trkpt><trkpt lat="45.483695229664285" lon="9.328926852908824"><ele>121.99999999999999</ele><time>2026-04-11T07:18:33.999Z</time></trkpt><trkpt lat="45.48358561437812" lon="9.328966924859513"><ele>122.0</ele><time>2026-04-11T07:18:35.999Z</time></trkpt><trkpt lat="45.48348617338408" lon="9.329007338762448"><ele>122.0</ele><time>2026-04-11T07:18:37.999Z</time></trkpt><trkpt lat="45.48337464813022" lon="9.329030330554556"><ele>121.49999999999999</ele><time>2026-04-11T07:18:39.999Z</time></trkpt><trkpt lat="45.483278941501084" lon="9.329067510243549"><ele>121.0</ele><time>2026-04-11T07:18:41.999Z</time></trkpt><trkpt lat="45.48318429331431" lon="9.329090192983262"><ele>120.5</ele><time>2026-04-11T07:18:43.999Z</time></trkpt><trkpt lat="45.48311618496254" lon="9.329106137182666"><ele>120.0</ele><time>2026-04-11T07:18:45.999Z</time></trkpt><trkpt lat="45.4830429868036" lon="9.3291269596138"><ele>119.49999999999999</ele><time>2026-04-11T07:18:48.999Z</time></trkpt><trkpt lat="45.48303392345489" lon="9.329243114586045"><ele>119.0</ele><time>2026-04-11T07:18:50.999Z</time></trkpt><trkpt lat="45.48306302401558" lon="9.32936768151989"><ele>119.0</ele><time>2026-04-11T07:18:52.999Z</time></trkpt><trkpt lat="45.48309510732395" lon="9.329490101567362"><ele>119.0</ele><time>2026-04-11T07:18:54.999Z</time></trkpt><trkpt lat="45.48309036822933" lon="9.329626608194376"><ele>119.0</ele><time>2026-04-11T07:18:56.999Z</time></trkpt><trkpt lat="45.48310329169348" lon="9.329749406761582"><ele>119.0</ele><time>2026-04-11T07:18:59Z</time></trkpt><trkpt lat="45.483089903558984" lon="9.329890006105543"><ele>119.0</ele><time>2026-04-11T07:19:01Z</time></trkpt><trkpt lat="45.48307223621661" lon="9.330049826698366"><ele>118.6</ele><time>2026-04-11T07:19:03Z</time></trkpt><trkpt lat="45.48305885994454" lon="9.330200752377172"><ele>118.2</ele><time>2026-04-11T07:19:05Z</time></trkpt><trkpt lat="45.4830465242193" lon="9.330345962954915"><ele>117.79999999999998</ele><time>2026-04-11T07:19:07Z</time></trkpt><trkpt lat="45.48303648375415" lon="9.330500919950838"><ele>117.39999999999999</ele><time>2026-04-11T07:19:09.001Z</time></trkpt><trkpt lat="45.48302445512928" lon="9.330651231574132"><ele>117.0</ele><time>2026-04-11T07:19:11Z</time></trkpt><trkpt lat="45.48301176168544" lon="9.330807829680142"><ele>117.0</ele><time>2026-04-11T07:19:13Z</time></trkpt><trkpt lat="45.48300643083075" lon="9.33095619672747"><ele>116.99999999999999</ele><time>2026-04-11T07:19:15Z</time></trkpt><trkpt lat="45.482997184093534" lon="9.331103584277793"><ele>116.99999999999999</ele><time>2026-04-11T07:19:17Z</time></trkpt><trkpt lat="45.48297702346181" lon="9.331214080745504"><ele>117.0</ele><time>2026-04-11T07:19:19Z</time></trkpt><trkpt lat="45.482942565162894" lon="9.3313204204998"><ele>117.0</ele><time>2026-04-11T07:19:21Z</time></trkpt><trkpt lat="45.48287862788719" lon="9.331421905943344"><ele>117.0</ele><time>2026-04-11T07:19:23Z</time></trkpt><trkpt lat="45.48288197475749" lon="9.331552512956033"><ele>116.99999999999999</ele><time>2026-04-11T07:19:25Z</time></trkpt><trkpt lat="45.48292256117609" lon="9.331681081542879"><ele>116.99999999999999</ele><time>2026-04-11T07:19:27Z</time></trkpt><trkpt lat="45.482962750804745" lon="9.331810980729468"><ele>117.0</ele><time>2026-04-11T07:19:29Z</time></trkpt><trkpt lat="45.48298307861191" lon="9.331954760707255"><ele>117.0</ele><time>2026-04-11T07:19:31Z</time></trkpt><trkpt lat="45.483012575267594" lon="9.3320978523693"><ele>117.0</ele><time>2026-04-11T07:19:33Z</time></trkpt><trkpt lat="45.48303902410199" lon="9.332240635969706"><ele>116.99999999999999</ele><time>2026-04-11T07:19:35Z</time></trkpt><trkpt lat="45.483072635059024" lon="9.33238181242601"><ele>116.99999999999999</ele><time>2026-04-11T07:19:37Z</time></trkpt><trkpt lat="45.483089326977165" lon="9.332527028746153"><ele>117.0</ele><time>2026-04-11T07:19:39Z</time></trkpt><trkpt lat="45.48304826939199" lon="9.332667624011314"><ele>117.0</ele><time>2026-04-11T07:19:41Z</time></trkpt><trkpt lat="45.48302725423809" lon="9.332802138902055"><ele>117.0</ele><time>2026-04-11T07:19:43Z</time></trkpt><trkpt lat="45.48304794813045" lon="9.332956561749358"><ele>116.99999999999999</ele><time>2026-04-11T07:19:45Z</time></trkpt><trkpt lat="45.48310893252549" lon="9.333066005125925"><ele>116.99999999999999</ele><time>2026-04-11T07:19:47Z</time></trkpt><trkpt lat="45.483185254660775" lon="9.333159866350107"><ele>117.0</ele><time>2026-04-11T07:19:49Z</time></trkpt><trkpt lat="45.48325488904994" lon="9.333271136050636"><ele>117.0</ele><time>2026-04-11T07:19:51Z</time></trkpt><trkpt lat="45.483300787704366" lon="9.333424971464138"><ele>117.0</ele><time>2026-04-11T07:19:53Z</time></trkpt><trkpt lat="45.483312631665676" lon="9.333588731569955"><ele>116.99999999999999</ele><time>2026-04-11T07:19:55Z</time></trkpt><trkpt lat="45.48334350309273" lon="9.333732441933249"><ele>116.99999999999999</ele><time>2026-04-11T07:19:57Z</time></trkpt><trkpt lat="45.48336704885415" lon="9.333853013695386"><ele>117.0</ele><time>2026-04-11T07:19:58.999Z</time></trkpt><trkpt lat="45.483390704773285" lon="9.333983386401792"><ele>117.0</ele><time>2026-04-11T07:20:00.999Z</time></trkpt><trkpt lat="45.48335480806101" lon="9.334092569509256"><ele>117.0</ele><time>2026-04-11T07:20:02.999Z</time></trkpt><trkpt lat="45.483297028282784" lon="9.334175060986013"><ele>116.99999999999999</ele><time>2026-04-11T07:20:04.999Z</time></trkpt><trkpt lat="45.48321312310306" lon="9.33426784477246"><ele>116.99999999999999</ele><time>2026-04-11T07:20:06.999Z</time></trkpt><trkpt lat="45.4831367653634" lon="9.334363409614175"><ele>117.0</ele><time>2026-04-11T07:20:08.999Z</time></trkpt><trkpt lat="45.483062028327154" lon="9.334481997667021"><ele>117.0</ele><time>2026-04-11T07:20:10.999Z</time></trkpt><trkpt lat="45.48298823322659" lon="9.334604728005607"><ele>117.19999999999999</ele><time>2026-04-11T07:20:12.999Z</time></trkpt><trkpt lat="45.48291045129121" lon="9.334702197142626"><ele>117.39999999999999</ele><time>2026-04-11T07:20:14.999Z</time></trkpt><trkpt lat="45.48283403152212" lon="9.33481051957205"><ele>117.60000000000001</ele><time>2026-04-11T07:20:16.999Z</time></trkpt><trkpt lat="45.482787223283516" lon="9.334960390801808"><ele>117.80000000000001</ele><time>2026-04-11T07:20:18.999Z</time></trkpt><trkpt lat="45.48284252325493" lon="9.335092362363525"><ele>118.0</ele><time>2026-04-11T07:20:20.999Z</time></trkpt><trkpt lat="45.48293940846327" lon="9.335155666561716"><ele>118.0</ele><time>2026-04-11T07:20:22.999Z</time></trkpt><trkpt lat="45.48300568403031" lon="9.335260201643576"><ele>118.00000000000001</ele><time>2026-04-11T07:20:24.999Z</time></trkpt><trkpt lat="45.48301386637612" lon="9.335407321987153"><ele>118.00000000000001</ele><time>2026-04-11T07:20:26.999Z</time></trkpt><trkpt lat="45.48300647766764" lon="9.335553207956504"><ele>118.0</ele><time>2026-04-11T07:20:28.999Z</time></trkpt><trkpt lat="45.48300688196156" lon="9.335709391422785"><ele>118.0</ele><time>2026-04-11T07:20:30.999Z</time></trkpt><trkpt lat="45.48300672526431" lon="9.335860283298103"><ele>117.80000000000001</ele><time>2026-04-11T07:20:32.999Z</time></trkpt><trkpt lat="45.483008984049945" lon="9.336016352328182"><ele>117.60000000000001</ele><time>2026-04-11T07:20:34.999Z</time></trkpt><trkpt lat="45.48301822567956" lon="9.336174466700513"><ele>117.39999999999999</ele><time>2026-04-11T07:20:36.999Z</time></trkpt><trkpt lat="45.48302351484024" lon="9.33633528841985"><ele>117.19999999999999</ele><time>2026-04-11T07:20:38.999Z</time></trkpt><trkpt lat="45.48303236384745" lon="9.336492612065117"><ele>117.0</ele><time>2026-04-11T07:20:40.999Z</time></trkpt><trkpt lat="45.48304202111139" lon="9.336651340223408"><ele>117.0</ele><time>2026-04-11T07:20:42.999Z</time></trkpt><trkpt lat="45.48304760203848" lon="9.336814043825063"><ele>117.0</ele><time>2026-04-11T07:20:44.999Z</time></trkpt><trkpt lat="45.48306592996899" lon="9.336978240972392"><ele>117.0</ele><time>2026-04-11T07:20:46.999Z</time></trkpt><trkpt lat="45.483066700838904" lon="9.337137531084087"><ele>117.0</ele><time>2026-04-11T07:20:48.999Z</time></trkpt><trkpt lat="45.48307318853559" lon="9.337299019262256"><ele>117.0</ele><time>2026-04-11T07:20:50.999Z</time></trkpt><trkpt lat="45.48307552792864" lon="9.337460689913032"><ele>116.99999999999999</ele><time>2026-04-11T07:20:52.999Z</time></trkpt><trkpt lat="45.48307701162261" lon="9.337617044335826"><ele>116.99999999999999</ele><time>2026-04-11T07:20:54.999Z</time></trkpt><trkpt lat="45.483081588562875" lon="9.337758317461645"><ele>117.0</ele><time>2026-04-11T07:20:56.999Z</time></trkpt><trkpt lat="45.48309307321219" lon="9.337907534164083"><ele>117.0</ele><time>2026-04-11T07:20:58.999Z</time></trkpt><trkpt lat="45.48311507479408" lon="9.338068224084834"><ele>117.6</ele><time>2026-04-11T07:21:00.999Z</time></trkpt><trkpt lat="45.483130711630146" lon="9.338227526350785"><ele>118.19999999999999</ele><time>2026-04-11T07:21:02.999Z</time></trkpt><trkpt lat="45.48313744491506" lon="9.338384004839575"><ele>118.8</ele><time>2026-04-11T07:21:05Z</time></trkpt><trkpt lat="45.483145799948645" lon="9.338536434496618"><ele>119.4</ele><time>2026-04-11T07:21:07Z</time></trkpt><trkpt lat="45.48315851869587" lon="9.338693286168628"><ele>120.0</ele><time>2026-04-11T07:21:09Z</time></trkpt><trkpt lat="45.483164555906136" lon="9.338835719694556"><ele>119.25</ele><time>2026-04-11T07:21:11Z</time></trkpt><trkpt lat="45.483170264213754" lon="9.339009809883192"><ele>118.5</ele><time>2026-04-11T07:21:13Z</time></trkpt><trkpt lat="45.483166464794415" lon="9.339184490633041"><ele>117.75</ele><time>2026-04-11T07:21:15Z</time></trkpt><trkpt lat="45.48316164394047" lon="9.339349585029456"><ele>117.0</ele><time>2026-04-11T07:21:17Z</time></trkpt><trkpt lat="45.483152816732876" lon="9.339508205613877"><ele>117.0</ele><time>2026-04-11T07:21:19Z</time></trkpt><trkpt lat="45.48315443484374" lon="9.33966464410523"><ele>116.99999999999999</ele><time>2026-04-11T07:21:21Z</time></trkpt><trkpt lat="45.483150950241225" lon="9.339827392669847"><ele>116.99999999999999</ele><time>2026-04-11T07:21:23Z</time></trkpt><trkpt lat="45.48315245014514" lon="9.339982681288658"><ele>117.0</ele><time>2026-04-11T07:21:25Z</time></trkpt><trkpt lat="45.483147073613466" lon="9.340146403942546"><ele>117.0</ele><time>2026-04-11T07:21:27Z</time></trkpt><trkpt lat="45.48315701472921" lon="9.340310588028663"><ele>116.8</ele><time>2026-04-11T07:21:29Z</time></trkpt><trkpt lat="45.48315838846334" lon="9.340464646147282"><ele>116.6</ele><time>2026-04-11T07:21:31Z</time></trkpt><trkpt lat="45.48315942850881" lon="9.340609642337625"><ele>116.39999999999999</ele><time>2026-04-11T07:21:33Z</time></trkpt><trkpt lat="45.483159360784775" lon="9.340768444595138"><ele>116.19999999999999</ele><time>2026-04-11T07:21:35Z</time></trkpt><trkpt lat="45.483165250760365" lon="9.34092378767666"><ele>116.0</ele><time>2026-04-11T07:21:37Z</time></trkpt><trkpt lat="45.48317464031523" lon="9.341074421874453"><ele>116.0</ele><time>2026-04-11T07:21:39Z</time></trkpt><trkpt lat="45.48318251516668" lon="9.341203263262358"><ele>116.0</ele><time>2026-04-11T07:21:41Z</time></trkpt><trkpt lat="45.483189895620825" lon="9.341340874830433"><ele>116.0</ele><time>2026-04-11T07:21:43Z</time></trkpt><trkpt lat="45.4831998448103" lon="9.341486664028615"><ele>116.0</ele><time>2026-04-11T07:21:45Z</time></trkpt><trkpt lat="45.483201803597595" lon="9.341637448737755"><ele>116.0</ele><time>2026-04-11T07:21:47Z</time></trkpt><trkpt lat="45.48321886996167" lon="9.341782982989306"><ele>116.0</ele><time>2026-04-11T07:21:49Z</time></trkpt><trkpt lat="45.4832170358716" lon="9.341936856532064"><ele>116.0</ele><time>2026-04-11T07:21:51Z</time></trkpt><trkpt lat="45.483220319181356" lon="9.34208736236723"><ele>116.0</ele><time>2026-04-11T07:21:53Z</time></trkpt><trkpt lat="45.48322593224387" lon="9.342235417013068"><ele>116.0</ele><time>2026-04-11T07:21:55Z</time></trkpt><trkpt lat="45.48323984756292" lon="9.342378021560311"><ele>116.0</ele><time>2026-04-11T07:21:57Z</time></trkpt><trkpt lat="45.48324924495241" lon="9.342530862814025"><ele>116.0</ele><time>2026-04-11T07:21:59Z</time></trkpt><trkpt lat="45.483276675312126" lon="9.342681997522982"><ele>116.0</ele><time>2026-04-11T07:22:01Z</time></trkpt><trkpt lat="45.48328966930394" lon="9.342808780479125"><ele>116.0</ele><time>2026-04-11T07:22:03Z</time></trkpt><trkpt lat="45.48330100760749" lon="9.342965305817458"><ele>116.0</ele><time>2026-04-11T07:22:05Z</time></trkpt><trkpt lat="45.48332454155822" lon="9.343113139153433"><ele>116.0</ele><time>2026-04-11T07:22:07Z</time></trkpt><trkpt lat="45.483324668294905" lon="9.343278498702244"><ele>116.0</ele><time>2026-04-11T07:22:09Z</time></trkpt><trkpt lat="45.48333034825046" lon="9.343436016611822"><ele>116.0</ele><time>2026-04-11T07:22:11Z</time></trkpt><trkpt lat="45.483313619938386" lon="9.343585547582668"><ele>116.0</ele><time>2026-04-11T07:22:13Z</time></trkpt><trkpt lat="45.48330745315171" lon="9.343736412500753"><ele>116.0</ele><time>2026-04-11T07:22:15Z</time></trkpt><trkpt lat="45.483289612203464" lon="9.343883110051856"><ele>116.0</ele><time>2026-04-11T07:22:17Z</time></trkpt><trkpt lat="45.48327063498007" lon="9.34397035384021"><ele>115.75</ele><time>2026-04-11T07:22:17.999Z</time></trkpt><trkpt lat="45.48321527915722" lon="9.344111016395996"><ele>115.5</ele><time>2026-04-11T07:22:19.999Z</time></trkpt><trkpt lat="45.48312905287638" lon="9.344219684054597"><ele>115.25</ele><time>2026-04-11T07:22:21.999Z</time></trkpt><trkpt lat="45.48302558782806" lon="9.344299659578665"><ele>115.0</ele><time>2026-04-11T07:22:23.999Z</time></trkpt><trkpt lat="45.48292335238572" lon="9.344349451580653"><ele>115.4</ele><time>2026-04-11T07:22:25.999Z</time></trkpt><trkpt lat="45.48281211266292" lon="9.34439084994712"><ele>115.8</ele><time>2026-04-11T07:22:27.999Z</time></trkpt><trkpt lat="45.482701794000185" lon="9.344437071432043"><ele>116.19999999999999</ele><time>2026-04-11T07:22:29.999Z</time></trkpt><trkpt lat="45.48259696911725" lon="9.344480567021204"><ele>116.6</ele><time>2026-04-11T07:22:31.999Z</time></trkpt><trkpt lat="45.48249233520385" lon="9.344525905977095"><ele>117.0</ele><time>2026-04-11T07:22:33.999Z</time></trkpt><trkpt lat="45.482377179496346" lon="9.344556749841134"><ele>117.0</ele><time>2026-04-11T07:22:35.999Z</time></trkpt><trkpt lat="45.48226639211584" lon="9.344575889300117"><ele>116.99999999999999</ele><time>2026-04-11T07:22:37.999Z</time></trkpt><trkpt lat="45.48216702503767" lon="9.344582432611453"><ele>116.99999999999999</ele><time>2026-04-11T07:22:39.999Z</time></trkpt><trkpt lat="45.48206501438405" lon="9.3445577690442"><ele>117.0</ele><time>2026-04-11T07:22:41.999Z</time></trkpt><trkpt lat="45.481970777354675" lon="9.34451606688941"><ele>117.0</ele><time>2026-04-11T07:22:43.999Z</time></trkpt><trkpt lat="45.481871913947955" lon="9.344478376851988"><ele>116.6</ele><time>2026-04-11T07:22:45.999Z</time></trkpt><trkpt lat="45.481791292394206" lon="9.344463998541812"><ele>116.19999999999999</ele><time>2026-04-11T07:22:47.999Z</time></trkpt><trkpt lat="45.48168070016885" lon="9.344552234114296"><ele>115.8</ele><time>2026-04-11T07:22:50.999Z</time></trkpt><trkpt lat="45.48159365487084" lon="9.344646802675914"><ele>115.4</ele><time>2026-04-11T07:22:52.999Z</time></trkpt><trkpt lat="45.48155168103692" lon="9.344734884859728"><ele>115.0</ele><time>2026-04-11T07:22:54.999Z</time></trkpt><trkpt lat="45.48152909598986" lon="9.344859568466564"><ele>115.0</ele><time>2026-04-11T07:22:56.999Z</time></trkpt><trkpt lat="45.48149652353112" lon="9.344965662709594"><ele>115.0</ele><time>2026-04-11T07:22:58.999Z</time></trkpt><trkpt lat="45.4814220430888" lon="9.345058524757034"><ele>115.0</ele><time>2026-04-11T07:23:00.999Z</time></trkpt><trkpt lat="45.48132538949064" lon="9.345123778912583"><ele>115.0</ele><time>2026-04-11T07:23:02.999Z</time></trkpt><trkpt lat="45.48123858086184" lon="9.345192541683794"><ele>115.0</ele><time>2026-04-11T07:23:04.999Z</time></trkpt><trkpt lat="45.481145632851494" lon="9.345260788212158"><ele>114.83333333333334</ele><time>2026-04-11T07:23:06.999Z</time></trkpt><trkpt lat="45.481059483586534" lon="9.345331330666985"><ele>114.66666666666667</ele><time>2026-04-11T07:23:08.999Z</time></trkpt><trkpt lat="45.48099038969838" lon="9.345398663599243"><ele>114.5</ele><time>2026-04-11T07:23:11Z</time></trkpt><trkpt lat="45.48093390440614" lon="9.345472739901867"><ele>114.33333333333334</ele><time>2026-04-11T07:23:13Z</time></trkpt><trkpt lat="45.48089009203817" lon="9.345547861141569"><ele>114.16666666666667</ele><time>2026-04-11T07:23:15Z</time></trkpt><trkpt lat="45.48082930552731" lon="9.345633078694515"><ele>114.0</ele><time>2026-04-11T07:23:18Z</time></trkpt><trkpt lat="45.480789247867" lon="9.345704209943401"><ele>113.66666666666667</ele><time>2026-04-11T07:23:21Z</time></trkpt><trkpt lat="45.48073891974324" lon="9.34578484761723"><ele>113.33333333333334</ele><time>2026-04-11T07:24:29Z</time></trkpt><trkpt lat="45.48070466929465" lon="9.345869480267522"><ele>113.0</ele><time>2026-04-11T07:24:31Z</time></trkpt><trkpt lat="45.48066533383538" lon="9.345964891729972"><ele>112.66666666666667</ele><time>2026-04-11T07:24:33Z</time></trkpt><trkpt lat="45.480633176975786" lon="9.346070222166569"><ele>112.33333333333334</ele><time>2026-04-11T07:24:35Z</time></trkpt><trkpt lat="45.48059658939976" lon="9.346192981828525"><ele>112.0</ele><time>2026-04-11T07:24:37Z</time></trkpt><trkpt lat="45.480565558487264" lon="9.346328435371644"><ele>111.6</ele><time>2026-04-11T07:24:39Z</time></trkpt><trkpt lat="45.480546724330146" lon="9.346471224324135"><ele>111.19999999999999</ele><time>2026-04-11T07:24:41Z</time></trkpt><trkpt lat="45.480525151287836" lon="9.346622573545318"><ele>110.8</ele><time>2026-04-11T07:24:43Z</time></trkpt><trkpt lat="45.480515865060944" lon="9.346777775760085"><ele>110.4</ele><time>2026-04-11T07:24:45Z</time></trkpt><trkpt lat="45.48052032438994" lon="9.346935983141664"><ele>110.0</ele><time>2026-04-11T07:24:47Z</time></trkpt><trkpt lat="45.48052688767577" lon="9.347099612632059"><ele>110.5</ele><time>2026-04-11T07:24:49Z</time></trkpt><trkpt lat="45.480542082792" lon="9.347258946315637"><ele>111.0</ele><time>2026-04-11T07:24:50.999Z</time></trkpt><trkpt lat="45.48055733303491" lon="9.347425575700033"><ele>111.5</ele><time>2026-04-11T07:24:52.999Z</time></trkpt><trkpt lat="45.4805747333772" lon="9.347602394299944"><ele>112.0</ele><time>2026-04-11T07:24:54.999Z</time></trkpt><trkpt lat="45.4805949336942" lon="9.347780845143753"><ele>112.0</ele><time>2026-04-11T07:24:56.999Z</time></trkpt><trkpt lat="45.48062392410523" lon="9.347945317746976"><ele>111.99999999999999</ele><time>2026-04-11T07:24:58.999Z</time></trkpt><trkpt lat="45.480637971989196" lon="9.348032874869736"><ele>111.99999999999999</ele><time>2026-04-11T07:24:59.999Z</time></trkpt><trkpt lat="45.4806643644809" lon="9.348201020087144"><ele>112.0</ele><time>2026-04-11T07:25:01.999Z</time></trkpt><trkpt lat="45.480686368976166" lon="9.348363491696375"><ele>112.0</ele><time>2026-04-11T07:25:03.999Z</time></trkpt><trkpt lat="45.48071081596422" lon="9.34853233718877"><ele>112.0</ele><time>2026-04-11T07:25:05.999Z</time></trkpt><trkpt lat="45.48073457855173" lon="9.34870936054223"><ele>111.99999999999999</ele><time>2026-04-11T07:25:07.999Z</time></trkpt><trkpt lat="45.480759299019745" lon="9.348886461754473"><ele>111.99999999999999</ele><time>2026-04-11T07:25:09.999Z</time></trkpt><trkpt lat="45.48078314761555" lon="9.349055956006268"><ele>112.0</ele><time>2026-04-11T07:25:11.999Z</time></trkpt><trkpt lat="45.48079706441693" lon="9.34915535688855"><ele>112.0</ele><time>2026-04-11T07:25:12.999Z</time></trkpt><trkpt lat="45.48082809356568" lon="9.349321856721783"><ele>112.0</ele><time>2026-04-11T07:25:14.999Z</time></trkpt><trkpt lat="45.48084941779919" lon="9.349500998662574"><ele>111.99999999999999</ele><time>2026-04-11T07:25:17.001Z</time></trkpt><trkpt lat="45.480875685557734" lon="9.349685162300844"><ele>111.99999999999999</ele><time>2026-04-11T07:25:19.001Z</time></trkpt><trkpt lat="45.480899100870076" lon="9.349847417798344"><ele>112.0</ele><time>2026-04-11T07:25:21Z</time></trkpt><trkpt lat="45.48091260427962" lon="9.349935309796235"><ele>112.0</ele><time>2026-04-11T07:25:22Z</time></trkpt><trkpt lat="45.48093144544583" lon="9.350116937080259"><ele>112.0</ele><time>2026-04-11T07:25:24.001Z</time></trkpt><trkpt lat="45.480944883906496" lon="9.350211054020104"><ele>111.99999999999999</ele><time>2026-04-11T07:25:25.001Z</time></trkpt><trkpt lat="45.48097325965538" lon="9.350384473885667"><ele>111.99999999999999</ele><time>2026-04-11T07:25:27Z</time></trkpt><trkpt lat="45.48099515549699" lon="9.350555874062168"><ele>112.0</ele><time>2026-04-11T07:25:29.001Z</time></trkpt><trkpt lat="45.48102092063592" lon="9.3507287207431"><ele>112.0</ele><time>2026-04-11T07:25:31Z</time></trkpt><trkpt lat="45.48104235718837" lon="9.350910764743304"><ele>112.25</ele><time>2026-04-11T07:25:33Z</time></trkpt><trkpt lat="45.48106486436403" lon="9.35106593982034"><ele>112.5</ele><time>2026-04-11T07:25:35Z</time></trkpt><trkpt lat="45.48108447809136" lon="9.351243237143219"><ele>112.75</ele><time>2026-04-11T07:25:37Z</time></trkpt><trkpt lat="45.48111447826479" lon="9.351409620098616"><ele>113.0</ele><time>2026-04-11T07:25:39Z</time></trkpt><trkpt lat="45.481132806803" lon="9.351571654021619"><ele>112.60000000000001</ele><time>2026-04-11T07:25:41Z</time></trkpt><trkpt lat="45.4811110267041" lon="9.351730167024137"><ele>112.20000000000002</ele><time>2026-04-11T07:25:43Z</time></trkpt><trkpt lat="45.48107347761904" lon="9.351873106905087"><ele>111.8</ele><time>2026-04-11T07:25:45Z</time></trkpt><trkpt lat="45.4810704186512" lon="9.352020628059064"><ele>111.4</ele><time>2026-04-11T07:25:47Z</time></trkpt><trkpt lat="45.481135879079204" lon="9.352122778548566"><ele>111.0</ele><time>2026-04-11T07:25:49Z</time></trkpt><trkpt lat="45.48123633025825" lon="9.352206377268992"><ele>111.8</ele><time>2026-04-11T07:25:51Z</time></trkpt><trkpt lat="45.481319411896216" lon="9.352302619458639"><ele>112.6</ele><time>2026-04-11T07:25:53Z</time></trkpt><trkpt lat="45.481397358419855" lon="9.352402948877936"><ele>113.4</ele><time>2026-04-11T07:25:55Z</time></trkpt><trkpt lat="45.48148982787379" lon="9.352494476746246"><ele>114.2</ele><time>2026-04-11T07:25:57Z</time></trkpt><trkpt lat="45.48157906420882" lon="9.352549649225088"><ele>115.0</ele><time>2026-04-11T07:25:59Z</time></trkpt><trkpt lat="45.48167502988388" lon="9.352585212637543"><ele>115.0</ele><time>2026-04-11T07:26:01Z</time></trkpt><trkpt lat="45.48177127395971" lon="9.352598133487898"><ele>115.0</ele><time>2026-04-11T07:26:03Z</time></trkpt><trkpt lat="45.48189052935001" lon="9.352547285467425"><ele>115.0</ele><time>2026-04-11T07:26:06Z</time></trkpt><trkpt lat="45.48180081182508" lon="9.352559843799828"><ele>115.0</ele><time>2026-04-11T07:26:14Z</time></trkpt><trkpt lat="45.48171705476276" lon="9.352578573608113"><ele>115.0</ele><time>2026-04-11T07:26:16Z</time></trkpt><trkpt lat="45.481623518538726" lon="9.352558171357467"><ele>115.0</ele><time>2026-04-11T07:26:18Z</time></trkpt><trkpt lat="45.481529883054066" lon="9.352512158543048"><ele>115.0</ele><time>2026-04-11T07:26:20Z</time></trkpt><trkpt lat="45.48144247804323" lon="9.35243836462893"><ele>115.0</ele><time>2026-04-11T07:26:22Z</time></trkpt><trkpt lat="45.48136413066336" lon="9.352330596062293"><ele>115.0</ele><time>2026-04-11T07:26:24Z</time></trkpt><trkpt lat="45.48130238100284" lon="9.352211955706343"><ele>115.0</ele><time>2026-04-11T07:26:26Z</time></trkpt><trkpt lat="45.481279059366415" lon="9.352081587934471"><ele>114.6</ele><time>2026-04-11T07:26:28Z</time></trkpt><trkpt lat="45.48126912049954" lon="9.351936471087"><ele>114.2</ele><time>2026-04-11T07:26:30Z</time></trkpt><trkpt lat="45.48121794589456" lon="9.351817572298879"><ele>113.80000000000001</ele><time>2026-04-11T07:26:32Z</time></trkpt><trkpt lat="45.481129237516264" lon="9.351791271772425"><ele>113.4</ele><time>2026-04-11T07:26:34Z</time></trkpt><trkpt lat="45.481033989512646" lon="9.35186759347872"><ele>113.0</ele><time>2026-04-11T07:26:36Z</time></trkpt><trkpt lat="45.480943513062" lon="9.35194602011045"><ele>112.99999999999999</ele><time>2026-04-11T07:26:38Z</time></trkpt><trkpt lat="45.480838550547844" lon="9.351995415198886"><ele>113.0</ele><time>2026-04-11T07:26:40Z</time></trkpt><trkpt lat="45.48077418306176" lon="9.35201556956395"><ele>113.0</ele><time>2026-04-11T07:26:40.999Z</time></trkpt><trkpt lat="45.48071094592833" lon="9.352033813581581"><ele>113.0</ele><time>2026-04-11T07:26:41.999Z</time></trkpt><trkpt lat="45.480648729361214" lon="9.352050914237488"><ele>112.99999999999999</ele><time>2026-04-11T07:26:42.999Z</time></trkpt><trkpt lat="45.48052894886072" lon="9.352091566646413"><ele>113.0</ele><time>2026-04-11T07:26:44.999Z</time></trkpt><trkpt lat="45.480401711792496" lon="9.352088429877574"><ele>113.0</ele><time>2026-04-11T07:26:46.999Z</time></trkpt><trkpt lat="45.4802925014563" lon="9.352140346466715"><ele>113.00000000000001</ele><time>2026-04-11T07:26:48.999Z</time></trkpt><trkpt lat="45.4801778915744" lon="9.352167847639112"><ele>113.00000000000001</ele><time>2026-04-11T07:26:50.999Z</time></trkpt><trkpt lat="45.48011623234912" lon="9.352186833631349"><ele>113.0</ele><time>2026-04-11T07:26:51.999Z</time></trkpt><trkpt lat="45.480004771630995" lon="9.352197631091707"><ele>113.0</ele><time>2026-04-11T07:26:53.999Z</time></trkpt><trkpt lat="45.4798927511696" lon="9.352215690678378"><ele>113.0</ele><time>2026-04-11T07:26:55.999Z</time></trkpt><trkpt lat="45.47977588710028" lon="9.352180703299195"><ele>113.0</ele><time>2026-04-11T07:26:57.999Z</time></trkpt><trkpt lat="45.47968658722679" lon="9.35207127886269"><ele>113.0</ele><time>2026-04-11T07:26:59.999Z</time></trkpt><trkpt lat="45.4796363358063" lon="9.351912798556176"><ele>113.0</ele><time>2026-04-11T07:27:01.999Z</time></trkpt><trkpt lat="45.479607327735536" lon="9.351739546100758"><ele>113.25</ele><time>2026-04-11T07:27:03.999Z</time></trkpt><trkpt lat="45.479572350182465" lon="9.351568099075909"><ele>113.5</ele><time>2026-04-11T07:27:05.999Z</time></trkpt><trkpt lat="45.47954041706307" lon="9.3513971026106"><ele>113.75</ele><time>2026-04-11T07:27:07.999Z</time></trkpt><trkpt lat="45.4794956396344" lon="9.351234833499035"><ele>114.0</ele><time>2026-04-11T07:27:09.999Z</time></trkpt><trkpt lat="45.479404022785396" lon="9.35112690614488"><ele>113.5</ele><time>2026-04-11T07:27:11.999Z</time></trkpt><trkpt lat="45.47928844222395" lon="9.351093296150587"><ele>113.0</ele><time>2026-04-11T07:27:13.999Z</time></trkpt><trkpt lat="45.479177914648275" lon="9.351126643763402"><ele>112.5</ele><time>2026-04-11T07:27:15.999Z</time></trkpt><trkpt lat="45.479081764512465" lon="9.351218617635567"><ele>112.0</ele><time>2026-04-11T07:27:17.999Z</time></trkpt><trkpt lat="45.478987221554284" lon="9.35129073429175"><ele>112.39999999999999</ele><time>2026-04-11T07:27:19.999Z</time></trkpt><trkpt lat="45.47890678569521" lon="9.351381625238057"><ele>112.79999999999998</ele><time>2026-04-11T07:27:22.001Z</time></trkpt><trkpt lat="45.47883020960387" lon="9.351458836786675"><ele>113.2</ele><time>2026-04-11T07:27:24.001Z</time></trkpt><trkpt lat="45.478733522217475" lon="9.35153487783281"><ele>113.6</ele><time>2026-04-11T07:27:26Z</time></trkpt><trkpt lat="45.47863858380807" lon="9.35161011622731"><ele>114.0</ele><time>2026-04-11T07:27:28Z</time></trkpt><trkpt lat="45.478520099959155" lon="9.351658861604594"><ele>114.0</ele><time>2026-04-11T07:27:30.001Z</time></trkpt><trkpt lat="45.47840827303512" lon="9.351693992793487"><ele>114.0</ele><time>2026-04-11T07:27:32.001Z</time></trkpt><trkpt lat="45.47834446119944" lon="9.35170810961137"><ele>114.0</ele><time>2026-04-11T07:27:33.001Z</time></trkpt><trkpt lat="45.478277065086075" lon="9.351723821642313"><ele>114.0</ele><time>2026-04-11T07:27:34.001Z</time></trkpt><trkpt lat="45.47815659085467" lon="9.351751687277007"><ele>114.0</ele><time>2026-04-11T07:27:36.001Z</time></trkpt><trkpt lat="45.47804295847011" lon="9.351785284851085"><ele>114.25</ele><time>2026-04-11T07:27:38.001Z</time></trkpt><trkpt lat="45.47792921201767" lon="9.351825461936922"><ele>114.5</ele><time>2026-04-11T07:27:40.001Z</time></trkpt><trkpt lat="45.47782755104859" lon="9.35187094703398"><ele>114.75</ele><time>2026-04-11T07:27:42.001Z</time></trkpt><trkpt lat="45.47770414027836" lon="9.351903190238426"><ele>115.0</ele><time>2026-04-11T07:27:44.001Z</time></trkpt><trkpt lat="45.47758747698943" lon="9.351937709650066"><ele>115.0</ele><time>2026-04-11T07:27:46.001Z</time></trkpt><trkpt lat="45.47746552632303" lon="9.351973707459244"><ele>115.0</ele><time>2026-04-11T07:27:48.001Z</time></trkpt><trkpt lat="45.477383348923496" lon="9.352033812918558"><ele>115.0</ele><time>2026-04-11T07:27:50.001Z</time></trkpt><trkpt lat="45.47732001447659" lon="9.352049785361038"><ele>115.0</ele><time>2026-04-11T07:27:51.001Z</time></trkpt><trkpt lat="45.477212506681646" lon="9.352080507355874"><ele>115.0</ele><time>2026-04-11T07:27:53.001Z</time></trkpt><trkpt lat="45.47711668803137" lon="9.352126404358428"><ele>114.8</ele><time>2026-04-11T07:27:55.001Z</time></trkpt><trkpt lat="45.47703476994887" lon="9.352208939228445"><ele>114.6</ele><time>2026-04-11T07:27:57.001Z</time></trkpt><trkpt lat="45.476956670000504" lon="9.352311561201143"><ele>114.4</ele><time>2026-04-11T07:27:59Z</time></trkpt><trkpt lat="45.47692026171572" lon="9.352387127865827"><ele>114.2</ele><time>2026-04-11T07:28:00Z</time></trkpt><trkpt lat="45.476864543580675" lon="9.352525857108038"><ele>114.0</ele><time>2026-04-11T07:28:02Z</time></trkpt><trkpt lat="45.476813153563356" lon="9.352665351335629"><ele>114.0</ele><time>2026-04-11T07:28:04Z</time></trkpt><trkpt lat="45.47676501976177" lon="9.352794597682681"><ele>114.0</ele><time>2026-04-11T07:28:06Z</time></trkpt><trkpt lat="45.476727337910816" lon="9.352936986675605"><ele>114.0</ele><time>2026-04-11T07:28:08Z</time></trkpt><trkpt lat="45.47668900333271" lon="9.353016719801216"><ele>114.0</ele><time>2026-04-11T07:28:09Z</time></trkpt><trkpt lat="45.47664018688811" lon="9.353165288840245"><ele>114.0</ele><time>2026-04-11T07:28:11Z</time></trkpt><trkpt lat="45.476596096835685" lon="9.35331533856273"><ele>114.0</ele><time>2026-04-11T07:28:13Z</time></trkpt><trkpt lat="45.47653800618007" lon="9.353473584124755"><ele>114.0</ele><time>2026-04-11T07:28:15Z</time></trkpt><trkpt lat="45.476486571326426" lon="9.353623969068323"><ele>114.0</ele><time>2026-04-11T07:28:17Z</time></trkpt><trkpt lat="45.476443305413916" lon="9.35377702691195"><ele>114.0</ele><time>2026-04-11T07:28:19Z</time></trkpt><trkpt lat="45.476429628132095" lon="9.35392552657597"><ele>113.80000000000001</ele><time>2026-04-11T07:28:21Z</time></trkpt><trkpt lat="45.476413470712345" lon="9.354080692437874"><ele>113.60000000000001</ele><time>2026-04-11T07:28:23Z</time></trkpt><trkpt lat="45.47639259209384" lon="9.354241282702855"><ele>113.4</ele><time>2026-04-11T07:28:25Z</time></trkpt><trkpt lat="45.47638127474149" lon="9.35438191347918"><ele>113.2</ele><time>2026-04-11T07:28:27Z</time></trkpt><trkpt lat="45.47637520091316" lon="9.35453968569844"><ele>113.0</ele><time>2026-04-11T07:28:29Z</time></trkpt><trkpt lat="45.476382112121826" lon="9.354687505855262"><ele>113.0</ele><time>2026-04-11T07:28:31Z</time></trkpt><trkpt lat="45.47640605704074" lon="9.354833563717483"><ele>113.00000000000001</ele><time>2026-04-11T07:28:33Z</time></trkpt><trkpt lat="45.476419622705066" lon="9.354986217489856"><ele>113.00000000000001</ele><time>2026-04-11T07:28:35Z</time></trkpt><trkpt lat="45.47643641125364" lon="9.35513483523588"><ele>113.0</ele><time>2026-04-11T07:28:37Z</time></trkpt><trkpt lat="45.47645005265788" lon="9.355293174234772"><ele>113.0</ele><time>2026-04-11T07:28:39Z</time></trkpt><trkpt lat="45.476475666851236" lon="9.355442568126536"><ele>113.4</ele><time>2026-04-11T07:28:41Z</time></trkpt><trkpt lat="45.47645764756554" lon="9.355589509405084"><ele>113.80000000000001</ele><time>2026-04-11T07:28:43Z</time></trkpt><trkpt lat="45.476407133870445" lon="9.355706817726464"><ele>114.2</ele><time>2026-04-11T07:28:45Z</time></trkpt><trkpt lat="45.4763115691878" lon="9.355793385984594"><ele>114.6</ele><time>2026-04-11T07:28:47Z</time></trkpt><trkpt lat="45.47620088173851" lon="9.355830890024349"><ele>115.0</ele><time>2026-04-11T07:28:49Z</time></trkpt><trkpt lat="45.476104297159516" lon="9.35586630604226"><ele>115.0</ele><time>2026-04-11T07:28:51Z</time></trkpt><trkpt lat="45.47605339665928" lon="9.355919223062992"><ele>115.0</ele><time>2026-04-11T07:28:53Z</time></trkpt><trkpt lat="45.4759507643139" lon="9.355925535292451"><ele>115.0</ele><time>2026-04-11T07:28:56Z</time></trkpt><trkpt lat="45.47587081298126" lon="9.35594824991684"><ele>115.0</ele><time>2026-04-11T07:28:58Z</time></trkpt><trkpt lat="45.4757611472526" lon="9.35598537272672"><ele>115.0</ele><time>2026-04-11T07:29:00Z</time></trkpt><trkpt lat="45.475645727835726" lon="9.356017647476795"><ele>115.0</ele><time>2026-04-11T07:29:02Z</time></trkpt><trkpt lat="45.475528472629264" lon="9.35604515481855"><ele>115.0</ele><time>2026-04-11T07:29:04Z</time></trkpt><trkpt lat="45.4754607875421" lon="9.35605609914172"><ele>115.0</ele><time>2026-04-11T07:29:05Z</time></trkpt><trkpt lat="45.47539018374215" lon="9.356073180344175"><ele>115.0</ele><time>2026-04-11T07:29:06Z</time></trkpt><trkpt lat="45.475265759928256" lon="9.356113326137303"><ele>115.0</ele><time>2026-04-11T07:29:07.999Z</time></trkpt><trkpt lat="45.4752022209788" lon="9.356123778518231"><ele>114.6</ele><time>2026-04-11T07:29:08.999Z</time></trkpt><trkpt lat="45.47509272559748" lon="9.356156708703029"><ele>114.2</ele><time>2026-04-11T07:29:10.999Z</time></trkpt><trkpt lat="45.474995411124404" lon="9.356182732580587"><ele>113.80000000000001</ele><time>2026-04-11T07:29:12.999Z</time></trkpt><trkpt lat="45.47490170166275" lon="9.356219136415842"><ele>113.4</ele><time>2026-04-11T07:29:14.999Z</time></trkpt><trkpt lat="45.474800895519735" lon="9.356235878358193"><ele>113.0</ele><time>2026-04-11T07:29:16.999Z</time></trkpt><trkpt lat="45.47470064279269" lon="9.356255622585186"><ele>112.99999999999999</ele><time>2026-04-11T07:29:18.999Z</time></trkpt><trkpt lat="45.474620251504795" lon="9.356299322597222"><ele>113.0</ele><time>2026-04-11T07:29:20.999Z</time></trkpt><trkpt lat="45.47457764298003" lon="9.356373781357073"><ele>113.0</ele><time>2026-04-11T07:29:22.999Z</time></trkpt><trkpt lat="45.47456188756512" lon="9.356486970419772"><ele>113.0</ele><time>2026-04-11T07:29:24.999Z</time></trkpt><trkpt lat="45.4745738792702" lon="9.356631675837939"><ele>112.99999999999999</ele><time>2026-04-11T07:29:26.999Z</time></trkpt><trkpt lat="45.474573199304125" lon="9.356754422395472"><ele>113.0</ele><time>2026-04-11T07:29:29Z</time></trkpt><trkpt lat="45.47458807315591" lon="9.356903589725944"><ele>113.0</ele><time>2026-04-11T07:29:31.001Z</time></trkpt><trkpt lat="45.47460056000239" lon="9.357061368735934"><ele>113.00000000000001</ele><time>2026-04-11T07:29:33.001Z</time></trkpt><trkpt lat="45.47461166981641" lon="9.357216078659855"><ele>113.00000000000001</ele><time>2026-04-11T07:29:35Z</time></trkpt><trkpt lat="45.474626966892025" lon="9.35737564726829"><ele>113.0</ele><time>2026-04-11T07:29:37.001Z</time></trkpt><trkpt lat="45.474642509789206" lon="9.357536961022603"><ele>113.0</ele><time>2026-04-11T07:29:39.001Z</time></trkpt><trkpt lat="45.47464742676494" lon="9.357697879538758"><ele>112.75</ele><time>2026-04-11T07:29:41Z</time></trkpt><trkpt lat="45.47466243448712" lon="9.357854971743405"><ele>112.5</ele><time>2026-04-11T07:29:43Z</time></trkpt><trkpt lat="45.47466422141079" lon="9.358016126750009"><ele>112.25</ele><time>2026-04-11T07:29:45Z</time></trkpt><trkpt lat="45.474669213358055" lon="9.358182078959517"><ele>112.0</ele><time>2026-04-11T07:29:47Z</time></trkpt><trkpt lat="45.47466992846724" lon="9.358343113491394"><ele>112.0</ele><time>2026-04-11T07:29:49Z</time></trkpt><trkpt lat="45.47469376296101" lon="9.358493268120572"><ele>111.99999999999999</ele><time>2026-04-11T07:29:51Z</time></trkpt><trkpt lat="45.47469706323935" lon="9.358645537032942"><ele>111.99999999999999</ele><time>2026-04-11T07:29:53Z</time></trkpt><trkpt lat="45.47463986460547" lon="9.358776212537077"><ele>112.0</ele><time>2026-04-11T07:29:55Z</time></trkpt><trkpt lat="45.47454572854188" lon="9.358844112347718"><ele>112.0</ele><time>2026-04-11T07:29:57Z</time></trkpt><trkpt lat="45.4744730901459" lon="9.35895357194812"><ele>111.8</ele><time>2026-04-11T07:29:59Z</time></trkpt><trkpt lat="45.47447204040117" lon="9.359117695301283"><ele>111.6</ele><time>2026-04-11T07:30:01Z</time></trkpt><trkpt lat="45.4744918875998" lon="9.359262134047055"><ele>111.39999999999999</ele><time>2026-04-11T07:30:03Z</time></trkpt><trkpt lat="45.47450309894723" lon="9.359421079629044"><ele>111.19999999999999</ele><time>2026-04-11T07:30:05Z</time></trkpt><trkpt lat="45.47450903263209" lon="9.359574997396448"><ele>111.0</ele><time>2026-04-11T07:30:07Z</time></trkpt><trkpt lat="45.474518592197136" lon="9.359738533503103"><ele>111.0</ele><time>2026-04-11T07:30:09Z</time></trkpt><trkpt lat="45.47452194526424" lon="9.359903294116158"><ele>111.0</ele><time>2026-04-11T07:30:11Z</time></trkpt><trkpt lat="45.47453439952904" lon="9.360061127517508"><ele>111.0</ele><time>2026-04-11T07:30:13Z</time></trkpt><trkpt lat="45.474544610791234" lon="9.360229065037988"><ele>111.0</ele><time>2026-04-11T07:30:15Z</time></trkpt><trkpt lat="45.47455028962555" lon="9.360402683290038"><ele>111.0</ele><time>2026-04-11T07:30:17Z</time></trkpt><trkpt lat="45.47455128958922" lon="9.36056391634356"><ele>111.0</ele><time>2026-04-11T07:30:19Z</time></trkpt><trkpt lat="45.47454917929763" lon="9.360726962409169"><ele>111.0</ele><time>2026-04-11T07:30:21Z</time></trkpt><trkpt lat="45.4745488907248" lon="9.360894323147578"><ele>111.0</ele><time>2026-04-11T07:30:23Z</time></trkpt><trkpt lat="45.474542184386024" lon="9.36105674006382"><ele>111.0</ele><time>2026-04-11T07:30:25Z</time></trkpt><trkpt lat="45.47453227677611" lon="9.36114701287971"><ele>111.0</ele><time>2026-04-11T07:30:26Z</time></trkpt><trkpt lat="45.47452525700818" lon="9.361301226172289"><ele>111.0</ele><time>2026-04-11T07:30:28Z</time></trkpt><trkpt lat="45.47452361946673" lon="9.361442037008297"><ele>111.0</ele><time>2026-04-11T07:30:30Z</time></trkpt><trkpt lat="45.47451616148246" lon="9.361575024418256"><ele>111.0</ele><time>2026-04-11T07:30:32Z</time></trkpt><trkpt lat="45.47447426768816" lon="9.361680643527126"><ele>111.0</ele><time>2026-04-11T07:30:33.999Z</time></trkpt><trkpt lat="45.474403052567496" lon="9.361755630373237"><ele>111.0</ele><time>2026-04-11T07:30:35.999Z</time></trkpt><trkpt lat="45.47430479429242" lon="9.361767951498065"><ele>111.0</ele><time>2026-04-11T07:30:37.999Z</time></trkpt><trkpt lat="45.47420081082109" lon="9.361775630326989"><ele>111.0</ele><time>2026-04-11T07:30:39.999Z</time></trkpt><trkpt lat="45.47408060633079" lon="9.361798624120938"><ele>111.0</ele><time>2026-04-11T07:30:41.999Z</time></trkpt><trkpt lat="45.473975532487884" lon="9.361855215408191"><ele>111.0</ele><time>2026-04-11T07:30:43.999Z</time></trkpt><trkpt lat="45.47387343231969" lon="9.361921648737841"><ele>111.0</ele><time>2026-04-11T07:30:45.999Z</time></trkpt><trkpt lat="45.47376368942405" lon="9.361999359064999"><ele>111.0</ele><time>2026-04-11T07:30:47.999Z</time></trkpt><trkpt lat="45.47366622897367" lon="9.36207880060924"><ele>111.0</ele><time>2026-04-11T07:30:49.999Z</time></trkpt><trkpt lat="45.47357494427791" lon="9.362179358078702"><ele>111.0</ele><time>2026-04-11T07:30:51.999Z</time></trkpt><trkpt lat="45.473487437663195" lon="9.362272620483699"><ele>111.0</ele><time>2026-04-11T07:30:53.999Z</time></trkpt><trkpt lat="45.47339186492091" lon="9.362366460207463"><ele>111.0</ele><time>2026-04-11T07:30:55.999Z</time></trkpt><trkpt lat="45.47333647836468" lon="9.36241405597017"><ele>111.0</ele><time>2026-04-11T07:30:56.999Z</time></trkpt><trkpt lat="45.47324201810562" lon="9.362490413236474"><ele>111.0</ele><time>2026-04-11T07:30:58.999Z</time></trkpt><trkpt lat="45.47315522666145" lon="9.362576159220131"><ele>111.0</ele><time>2026-04-11T07:31:00.999Z</time></trkpt><trkpt lat="45.47307162690572" lon="9.362660503044946"><ele>111.0</ele><time>2026-04-11T07:31:02.999Z</time></trkpt><trkpt lat="45.4729771538832" lon="9.362734516877776"><ele>111.0</ele><time>2026-04-11T07:31:04.999Z</time></trkpt><trkpt lat="45.47289917659498" lon="9.362806229450475"><ele>111.0</ele><time>2026-04-11T07:31:06.999Z</time></trkpt><trkpt lat="45.47282998411183" lon="9.362878737997502"><ele>111.0</ele><time>2026-04-11T07:31:08.999Z</time></trkpt><trkpt lat="45.472770031219625" lon="9.362949432277924"><ele>111.19999999999999</ele><time>2026-04-11T07:31:10.999Z</time></trkpt><trkpt lat="45.47273571609841" lon="9.363044843670785"><ele>111.39999999999999</ele><time>2026-04-11T07:31:12.999Z</time></trkpt><trkpt lat="45.472744824844106" lon="9.363169874633597"><ele>111.6</ele><time>2026-04-11T07:31:14.999Z</time></trkpt><trkpt lat="45.47277160738264" lon="9.363302155390777"><ele>111.8</ele><time>2026-04-11T07:31:16.999Z</time></trkpt><trkpt lat="45.472795260971516" lon="9.363442310974213"><ele>112.0</ele><time>2026-04-11T07:31:18.999Z</time></trkpt><trkpt lat="45.47281879068122" lon="9.363572212917306"><ele>112.0</ele><time>2026-04-11T07:31:20.999Z</time></trkpt><trkpt lat="45.472845167088636" lon="9.363715288382837"><ele>111.99999999999999</ele><time>2026-04-11T07:31:22.999Z</time></trkpt><trkpt lat="45.472874748615084" lon="9.36384962334382"><ele>111.99999999999999</ele><time>2026-04-11T07:31:24.999Z</time></trkpt><trkpt lat="45.47290147220274" lon="9.363999549266687"><ele>112.0</ele><time>2026-04-11T07:31:26.999Z</time></trkpt><trkpt lat="45.47292542316906" lon="9.364150505244595"><ele>112.0</ele><time>2026-04-11T07:31:28.999Z</time></trkpt><trkpt lat="45.47295185024973" lon="9.364304440046142"><ele>111.8</ele><time>2026-04-11T07:31:30.999Z</time></trkpt><trkpt lat="45.472980625128656" lon="9.36445615652672"><ele>111.6</ele><time>2026-04-11T07:31:32.999Z</time></trkpt><trkpt lat="45.473013065940506" lon="9.364600587601629"><ele>111.39999999999999</ele><time>2026-04-11T07:31:35.001Z</time></trkpt><trkpt lat="45.47304033103278" lon="9.364761978921559"><ele>111.19999999999999</ele><time>2026-04-11T07:31:37.001Z</time></trkpt><trkpt lat="45.473064956560926" lon="9.364920467141115"><ele>111.0</ele><time>2026-04-11T07:31:39.001Z</time></trkpt><trkpt lat="45.47308559408737" lon="9.365075044340285"><ele>111.0</ele><time>2026-04-11T07:31:41.001Z</time></trkpt><trkpt lat="45.47311627435963" lon="9.365227113682716"><ele>111.0</ele><time>2026-04-11T07:31:43.001Z</time></trkpt><trkpt lat="45.47313852338985" lon="9.365383511568796"><ele>111.0</ele><time>2026-04-11T07:31:45.001Z</time></trkpt><trkpt lat="45.47316243475875" lon="9.365533711606405"><ele>111.0</ele><time>2026-04-11T07:31:47.001Z</time></trkpt><trkpt lat="45.47317959273432" lon="9.365687550429982"><ele>111.0</ele><time>2026-04-11T07:31:49.001Z</time></trkpt><trkpt lat="45.47321626330731" lon="9.36583235424705"><ele>110.8</ele><time>2026-04-11T07:31:51.001Z</time></trkpt><trkpt lat="45.47323562505163" lon="9.36599400698385"><ele>110.6</ele><time>2026-04-11T07:31:53.001Z</time></trkpt><trkpt lat="45.47325982219689" lon="9.366148862137367"><ele>110.4</ele><time>2026-04-11T07:31:55.001Z</time></trkpt><trkpt lat="45.47328204876256" lon="9.366300868338138"><ele>110.2</ele><time>2026-04-11T07:31:57.001Z</time></trkpt><trkpt lat="45.473312412460416" lon="9.366446286130191"><ele>110.0</ele><time>2026-04-11T07:31:59.001Z</time></trkpt><trkpt lat="45.47334106085143" lon="9.366594876372293"><ele>109.2</ele><time>2026-04-11T07:32:01.001Z</time></trkpt><trkpt lat="45.47337214233933" lon="9.366747504750363"><ele>108.4</ele><time>2026-04-11T07:32:03.001Z</time></trkpt><trkpt lat="45.473388663111564" lon="9.366910887159507"><ele>107.6</ele><time>2026-04-11T07:32:05.001Z</time></trkpt><trkpt lat="45.473418685059706" lon="9.36705924481906"><ele>106.8</ele><time>2026-04-11T07:32:07.001Z</time></trkpt><trkpt lat="45.473440964011985" lon="9.367217367223107"><ele>106.0</ele><time>2026-04-11T07:32:09.001Z</time></trkpt><trkpt lat="45.47347022002471" lon="9.367367926405922"><ele>106.0</ele><time>2026-04-11T07:32:11.001Z</time></trkpt><trkpt lat="45.47349932268294" lon="9.367518931548727"><ele>106.0</ele><time>2026-04-11T07:32:13.001Z</time></trkpt><trkpt lat="45.473519589041075" lon="9.367670331176837"><ele>106.0</ele><time>2026-04-11T07:32:15.001Z</time></trkpt><trkpt lat="45.47353525344726" lon="9.367811721532966"><ele>106.0</ele><time>2026-04-11T07:32:17Z</time></trkpt><trkpt lat="45.47356542261555" lon="9.36794544774523"><ele>106.0</ele><time>2026-04-11T07:32:19Z</time></trkpt><trkpt lat="45.473589738289576" lon="9.368092653178351"><ele>106.19999999999999</ele><time>2026-04-11T07:32:21Z</time></trkpt><trkpt lat="45.47361704834126" lon="9.368241849648097"><ele>106.39999999999999</ele><time>2026-04-11T07:32:23Z</time></trkpt><trkpt lat="45.47363849532542" lon="9.36838966392326"><ele>106.6</ele><time>2026-04-11T07:32:25Z</time></trkpt><trkpt lat="45.47366491770541" lon="9.368526108362168"><ele>106.8</ele><time>2026-04-11T07:32:27Z</time></trkpt><trkpt lat="45.47368844619568" lon="9.368655882204946"><ele>107.0</ele><time>2026-04-11T07:32:29Z</time></trkpt><trkpt lat="45.47371183321174" lon="9.368774237187267"><ele>107.19999999999999</ele><time>2026-04-11T07:32:31Z</time></trkpt><trkpt lat="45.47373237956521" lon="9.368905483251993"><ele>107.39999999999999</ele><time>2026-04-11T07:32:33Z</time></trkpt><trkpt lat="45.47375252324378" lon="9.369040365695467"><ele>107.60000000000001</ele><time>2026-04-11T07:32:35Z</time></trkpt><trkpt lat="45.47377143556719" lon="9.3691752649462"><ele>107.80000000000001</ele><time>2026-04-11T07:32:37Z</time></trkpt><trkpt lat="45.47379600046537" lon="9.369314529121171"><ele>108.0</ele><time>2026-04-11T07:32:39Z</time></trkpt><trkpt lat="45.473795083054945" lon="9.369434207216301"><ele>108.0</ele><time>2026-04-11T07:32:41Z</time></trkpt><trkpt lat="45.473744911705374" lon="9.369498873175754"><ele>108.00000000000001</ele><time>2026-04-11T07:32:43Z</time></trkpt><trkpt lat="45.47364087622737" lon="9.369494931872284"><ele>108.00000000000001</ele><time>2026-04-11T07:32:45Z</time></trkpt><trkpt lat="45.47352524263214" lon="9.369499227060391"><ele>108.0</ele><time>2026-04-11T07:32:47Z</time></trkpt><trkpt lat="45.4734083419135" lon="9.36951807631963"><ele>108.0</ele><time>2026-04-11T07:32:49Z</time></trkpt><trkpt lat="45.47334534483115" lon="9.369522572129526"><ele>108.0</ele><time>2026-04-11T07:32:50Z</time></trkpt><trkpt lat="45.473225579008016" lon="9.369547059942871"><ele>108.0</ele><time>2026-04-11T07:32:52Z</time></trkpt><trkpt lat="45.473123482345315" lon="9.36962473316287"><ele>108.0</ele><time>2026-04-11T07:32:54Z</time></trkpt><trkpt lat="45.47308052404004" lon="9.369780251109914"><ele>108.0</ele><time>2026-04-11T07:32:56Z</time></trkpt><trkpt lat="45.47309101765573" lon="9.369946910631171"><ele>108.2</ele><time>2026-04-11T07:32:58Z</time></trkpt><trkpt lat="45.47311168867923" lon="9.370103350552258"><ele>108.4</ele><time>2026-04-11T07:33:00Z</time></trkpt><trkpt lat="45.47312978914367" lon="9.3702562379262"><ele>108.60000000000001</ele><time>2026-04-11T07:33:02Z</time></trkpt><trkpt lat="45.473144862479515" lon="9.370407356123021"><ele>108.80000000000001</ele><time>2026-04-11T07:33:04Z</time></trkpt><trkpt lat="45.47315109743059" lon="9.370568070455121"><ele>109.0</ele><time>2026-04-11T07:33:06Z</time></trkpt><trkpt lat="45.4731654113148" lon="9.370723997663722"><ele>109.25</ele><time>2026-04-11T07:33:08Z</time></trkpt><trkpt lat="45.473178571470505" lon="9.370883969631079"><ele>109.5</ele><time>2026-04-11T07:33:10Z</time></trkpt><trkpt lat="45.473189236382126" lon="9.371045896165056"><ele>109.75</ele><time>2026-04-11T07:33:12Z</time></trkpt><trkpt lat="45.473215852006234" lon="9.371203188645243"><ele>110.0</ele><time>2026-04-11T07:33:14Z</time></trkpt><trkpt lat="45.47322769988446" lon="9.37136390563126"><ele>110.0</ele><time>2026-04-11T07:33:16Z</time></trkpt><trkpt lat="45.47323703984216" lon="9.371524392001756"><ele>110.0</ele><time>2026-04-11T07:33:18Z</time></trkpt><trkpt lat="45.473258827361455" lon="9.37167949412784"><ele>110.0</ele><time>2026-04-11T07:33:20Z</time></trkpt><trkpt lat="45.473243234727164" lon="9.371837889891486"><ele>110.0</ele><time>2026-04-11T07:33:22Z</time></trkpt><trkpt lat="45.47316615173309" lon="9.371964302009287"><ele>110.0</ele><time>2026-04-11T07:33:24Z</time></trkpt><trkpt lat="45.473065555182174" lon="9.372032308580815"><ele>110.0</ele><time>2026-04-11T07:33:25.999Z</time></trkpt><trkpt lat="45.47295597385915" lon="9.37205063893345"><ele>110.0</ele><time>2026-04-11T07:33:27.999Z</time></trkpt><trkpt lat="45.4728385092381" lon="9.3720538699934"><ele>110.0</ele><time>2026-04-11T07:33:29.999Z</time></trkpt><trkpt lat="45.47272958145821" lon="9.372060018147163"><ele>110.0</ele><time>2026-04-11T07:33:31.999Z</time></trkpt><trkpt lat="45.472627768431714" lon="9.372075025723463"><ele>110.0</ele><time>2026-04-11T07:33:33.999Z</time></trkpt><trkpt lat="45.472525664797935" lon="9.372092196920278"><ele>110.0</ele><time>2026-04-11T07:33:35.999Z</time></trkpt><trkpt lat="45.472417283343475" lon="9.372117678684845"><ele>110.0</ele><time>2026-04-11T07:33:37.999Z</time></trkpt><trkpt lat="45.472308733498146" lon="9.372130510718554"><ele>110.0</ele><time>2026-04-11T07:33:40Z</time></trkpt><trkpt lat="45.47219531577903" lon="9.372144596547262"><ele>110.0</ele><time>2026-04-11T07:33:42Z</time></trkpt><trkpt lat="45.472087837859284" lon="9.37215381082614"><ele>110.0</ele><time>2026-04-11T07:33:44Z</time></trkpt><trkpt lat="45.471980910936715" lon="9.372170118621206"><ele>110.0</ele><time>2026-04-11T07:33:45.999Z</time></trkpt><trkpt lat="45.471865285069846" lon="9.372204254140867"><ele>110.0</ele><time>2026-04-11T07:33:48Z</time></trkpt><trkpt lat="45.47180138265513" lon="9.372210040858095"><ele>110.0</ele><time>2026-04-11T07:33:49Z</time></trkpt><trkpt lat="45.47168640432975" lon="9.372232603604365"><ele>110.0</ele><time>2026-04-11T07:33:50.999Z</time></trkpt><trkpt lat="45.4715751078216" lon="9.372269359854828"><ele>110.0</ele><time>2026-04-11T07:33:52.999Z</time></trkpt><trkpt lat="45.47146788468834" lon="9.37229719821383"><ele>110.0</ele><time>2026-04-11T07:33:54.998Z</time></trkpt><trkpt lat="45.47136061640214" lon="9.372345746201615"><ele>110.0</ele><time>2026-04-11T07:33:56.998Z</time></trkpt><trkpt lat="45.47125966100161" lon="9.372403299549704"><ele>110.0</ele><time>2026-04-11T07:33:58.998Z</time></trkpt><trkpt lat="45.471140084572916" lon="9.372419218909181"><ele>110.2</ele><time>2026-04-11T07:34:00.998Z</time></trkpt><trkpt lat="45.471041002787345" lon="9.372474675762529"><ele>110.4</ele><time>2026-04-11T07:34:02.998Z</time></trkpt><trkpt lat="45.47093252889481" lon="9.372517301983008"><ele>110.6</ele><time>2026-04-11T07:34:04.998Z</time></trkpt><trkpt lat="45.470831174120434" lon="9.372556683842483"><ele>110.8</ele><time>2026-04-11T07:34:06.998Z</time></trkpt><trkpt lat="45.470731578148545" lon="9.372616005810979"><ele>111.0</ele><time>2026-04-11T07:34:08.998Z</time></trkpt><trkpt lat="45.47061788667312" lon="9.372654885896877"><ele>111.0</ele><time>2026-04-11T07:34:10.997Z</time></trkpt><trkpt lat="45.470502408041234" lon="9.372691219690411"><ele>111.0</ele><time>2026-04-11T07:34:12.997Z</time></trkpt><trkpt lat="45.47040254831872" lon="9.372734185315403"><ele>111.0</ele><time>2026-04-11T07:34:14.997Z</time></trkpt><trkpt lat="45.47030252920789" lon="9.372786879855765"><ele>111.0</ele><time>2026-04-11T07:34:16.997Z</time></trkpt><trkpt lat="45.470185421337085" lon="9.372813080563606"><ele>111.0</ele><time>2026-04-11T07:34:18.997Z</time></trkpt><trkpt lat="45.47008219549877" lon="9.37285264576625"><ele>110.75</ele><time>2026-04-11T07:34:20.997Z</time></trkpt><trkpt lat="45.46996810889323" lon="9.372893525983374"><ele>110.5</ele><time>2026-04-11T07:34:22.997Z</time></trkpt><trkpt lat="45.469855724813456" lon="9.37293175469549"><ele>110.25</ele><time>2026-04-11T07:34:24.997Z</time></trkpt><trkpt lat="45.469756205241886" lon="9.372985624574158"><ele>110.0</ele><time>2026-04-11T07:34:26.997Z</time></trkpt><trkpt lat="45.46964359488684" lon="9.37302769254914"><ele>110.0</ele><time>2026-04-11T07:34:28.997Z</time></trkpt><trkpt lat="45.46953114725209" lon="9.373076585080419"><ele>110.0</ele><time>2026-04-11T07:34:30.997Z</time></trkpt><trkpt lat="45.46943747425767" lon="9.373118092330124"><ele>110.0</ele><time>2026-04-11T07:34:32.997Z</time></trkpt><trkpt lat="45.46934914737181" lon="9.37315679148578"><ele>110.0</ele><time>2026-04-11T07:34:34.997Z</time></trkpt><trkpt lat="45.469240931527665" lon="9.373199782746713"><ele>110.0</ele><time>2026-04-11T07:34:36.997Z</time></trkpt><trkpt lat="45.469142010334565" lon="9.373232126010844"><ele>110.0</ele><time>2026-04-11T07:34:38.997Z</time></trkpt><trkpt lat="45.46903954544066" lon="9.373260559609863"><ele>110.0</ele><time>2026-04-11T07:34:40.997Z</time></trkpt><trkpt lat="45.46893967336751" lon="9.373284124323318"><ele>110.0</ele><time>2026-04-11T07:34:42.997Z</time></trkpt><trkpt lat="45.46883915019456" lon="9.373308064998916"><ele>110.0</ele><time>2026-04-11T07:34:44.997Z</time></trkpt><trkpt lat="45.46874250254341" lon="9.37332310057333"><ele>110.0</ele><time>2026-04-11T07:34:46.996Z</time></trkpt><trkpt lat="45.46865906969167" lon="9.373332865951415"><ele>110.16666666666666</ele><time>2026-04-11T07:34:48.996Z</time></trkpt><trkpt lat="45.46858033381178" lon="9.37335158103871"><ele>110.33333333333333</ele><time>2026-04-11T07:34:50.996Z</time></trkpt><trkpt lat="45.46850374326979" lon="9.373371178237242"><ele>110.5</ele><time>2026-04-11T07:34:52.996Z</time></trkpt><trkpt lat="45.468425284162755" lon="9.373418064546772"><ele>110.66666666666666</ele><time>2026-04-11T07:34:54.996Z</time></trkpt><trkpt lat="45.46837079148887" lon="9.37352185316363"><ele>110.83333333333333</ele><time>2026-04-11T07:34:56.996Z</time></trkpt><trkpt lat="45.46835874597886" lon="9.373656577410806"><ele>111.0</ele><time>2026-04-11T07:34:58.996Z</time></trkpt><trkpt lat="45.46839519576273" lon="9.373811916890428"><ele>110.8</ele><time>2026-04-11T07:35:00.996Z</time></trkpt><trkpt lat="45.468417361056446" lon="9.373966450536242"><ele>110.6</ele><time>2026-04-11T07:35:02.996Z</time></trkpt><trkpt lat="45.46843664079721" lon="9.374117654945934"><ele>110.4</ele><time>2026-04-11T07:35:04.996Z</time></trkpt><trkpt lat="45.468464337261395" lon="9.374260876283502"><ele>110.2</ele><time>2026-04-11T07:35:06.996Z</time></trkpt><trkpt lat="45.468488039845916" lon="9.37441238539816"><ele>110.0</ele><time>2026-04-11T07:35:08.996Z</time></trkpt><trkpt lat="45.46851340262129" lon="9.374569420539052"><ele>109.8</ele><time>2026-04-11T07:35:10.996Z</time></trkpt><trkpt lat="45.46854595508471" lon="9.374724939390834"><ele>109.6</ele><time>2026-04-11T07:35:12.996Z</time></trkpt><trkpt lat="45.4685744913993" lon="9.374876909070311"><ele>109.4</ele><time>2026-04-11T07:35:14.996Z</time></trkpt><trkpt lat="45.46860507761707" lon="9.375030223773772"><ele>109.2</ele><time>2026-04-11T07:35:16.996Z</time></trkpt><trkpt lat="45.46864547654776" lon="9.375171006526283"><ele>109.0</ele><time>2026-04-11T07:35:18.996Z</time></trkpt><trkpt lat="45.46868788042616" lon="9.375315210920204"><ele>109.0</ele><time>2026-04-11T07:35:20.996Z</time></trkpt><trkpt lat="45.46873163328493" lon="9.375458875416605"><ele>109.0</ele><time>2026-04-11T07:35:22.996Z</time></trkpt><trkpt lat="45.46877664728203" lon="9.375609615108127"><ele>109.0</ele><time>2026-04-11T07:35:24.996Z</time></trkpt><trkpt lat="45.46882059640639" lon="9.375754404161233"><ele>109.0</ele><time>2026-04-11T07:35:26.996Z</time></trkpt><trkpt lat="45.46885760564463" lon="9.375901431980957"><ele>109.0</ele><time>2026-04-11T07:35:28.996Z</time></trkpt><trkpt lat="45.46888809622003" lon="9.376058180041275"><ele>109.2</ele><time>2026-04-11T07:35:30.996Z</time></trkpt><trkpt lat="45.46891904257084" lon="9.376194961918223"><ele>109.4</ele><time>2026-04-11T07:35:32.996Z</time></trkpt><trkpt lat="45.46895680031073" lon="9.37634644425027"><ele>109.6</ele><time>2026-04-11T07:35:34.996Z</time></trkpt><trkpt lat="45.46898346188019" lon="9.376498489918628"><ele>109.8</ele><time>2026-04-11T07:35:36.996Z</time></trkpt><trkpt lat="45.4690103603622" lon="9.376659149367097"><ele>110.0</ele><time>2026-04-11T07:35:38.996Z</time></trkpt><trkpt lat="45.46904408457083" lon="9.37680690743872"><ele>109.8</ele><time>2026-04-11T07:35:40.996Z</time></trkpt><trkpt lat="45.46906921906336" lon="9.376955514021539"><ele>109.6</ele><time>2026-04-11T07:35:42.996Z</time></trkpt><trkpt lat="45.46909021105407" lon="9.37711642812915"><ele>109.4</ele><time>2026-04-11T07:35:44.995Z</time></trkpt><trkpt lat="45.469120097306856" lon="9.377269085109019"><ele>109.2</ele><time>2026-04-11T07:35:46.997Z</time></trkpt><trkpt lat="45.46914571690708" lon="9.377429669077017"><ele>109.0</ele><time>2026-04-11T07:35:48.997Z</time></trkpt><trkpt lat="45.4691747819866" lon="9.377584439039484"><ele>109.0</ele><time>2026-04-11T07:35:50.998Z</time></trkpt><trkpt lat="45.46920247879348" lon="9.37773327712306"><ele>109.0</ele><time>2026-04-11T07:35:52.998Z</time></trkpt><trkpt lat="45.46923330603205" lon="9.377886798052982"><ele>109.0</ele><time>2026-04-11T07:35:54.998Z</time></trkpt><trkpt lat="45.469262649093736" lon="9.378036258327898"><ele>109.0</ele><time>2026-04-11T07:35:56.998Z</time></trkpt><trkpt lat="45.46928039403848" lon="9.378195559736454"><ele>109.0</ele><time>2026-04-11T07:35:58.998Z</time></trkpt><trkpt lat="45.46928973178692" lon="9.37835268170731"><ele>109.2</ele><time>2026-04-11T07:36:00.998Z</time></trkpt><trkpt lat="45.46929555780611" lon="9.378508542513956"><ele>109.4</ele><time>2026-04-11T07:36:02.998Z</time></trkpt><trkpt lat="45.46928473220315" lon="9.378666694970764"><ele>109.6</ele><time>2026-04-11T07:36:04.998Z</time></trkpt><trkpt lat="45.46927138284298" lon="9.378823561024603"><ele>109.8</ele><time>2026-04-11T07:36:06.998Z</time></trkpt><trkpt lat="45.46926351048401" lon="9.378980040953117"><ele>110.0</ele><time>2026-04-11T07:36:08.998Z</time></trkpt><trkpt lat="45.46924471048003" lon="9.379140930843946"><ele>109.6</ele><time>2026-04-11T07:36:10.998Z</time></trkpt><trkpt lat="45.469223489291586" lon="9.37930539450776"><ele>109.2</ele><time>2026-04-11T07:36:12.998Z</time></trkpt><trkpt lat="45.46920388893931" lon="9.379459021762354"><ele>108.80000000000001</ele><time>2026-04-11T07:36:14.998Z</time></trkpt><trkpt lat="45.46918302141824" lon="9.379614386116664"><ele>108.4</ele><time>2026-04-11T07:36:16.998Z</time></trkpt><trkpt lat="45.46915637065464" lon="9.379765542424948"><ele>108.0</ele><time>2026-04-11T07:36:18.998Z</time></trkpt><trkpt lat="45.469117451116375" lon="9.379906160928739"><ele>107.80000000000001</ele><time>2026-04-11T07:36:20.997Z</time></trkpt><trkpt lat="45.46905739056516" lon="9.38005115975193"><ele>107.60000000000001</ele><time>2026-04-11T07:36:22.997Z</time></trkpt><trkpt lat="45.469000890282615" lon="9.380186782493995"><ele>107.39999999999999</ele><time>2026-04-11T07:36:24.997Z</time></trkpt><trkpt lat="45.46895612068309" lon="9.380321777110716"><ele>107.19999999999999</ele><time>2026-04-11T07:36:26.997Z</time></trkpt><trkpt lat="45.46890134266443" lon="9.380455959751853"><ele>107.0</ele><time>2026-04-11T07:36:28.997Z</time></trkpt><trkpt lat="45.46885248312389" lon="9.380589009888206"><ele>107.0</ele><time>2026-04-11T07:36:30.997Z</time></trkpt><trkpt lat="45.468798101067385" lon="9.380727522498828"><ele>106.99999999999999</ele><time>2026-04-11T07:36:32.997Z</time></trkpt><trkpt lat="45.46874898588044" lon="9.380872075431741"><ele>106.99999999999999</ele><time>2026-04-11T07:36:34.997Z</time></trkpt><trkpt lat="45.468712002582166" lon="9.381012976988611"><ele>107.0</ele><time>2026-04-11T07:36:36.997Z</time></trkpt><trkpt lat="45.46869111752931" lon="9.381169343264004"><ele>107.0</ele><time>2026-04-11T07:36:38.997Z</time></trkpt><trkpt lat="45.46867757866603" lon="9.38132590748675"><ele>107.39999999999999</ele><time>2026-04-11T07:36:40.997Z</time></trkpt><trkpt lat="45.468679048243565" lon="9.381479011044542"><ele>107.79999999999998</ele><time>2026-04-11T07:36:42.997Z</time></trkpt><trkpt lat="45.468678227186054" lon="9.381621776019104"><ele>108.2</ele><time>2026-04-11T07:36:44.997Z</time></trkpt><trkpt lat="45.4686425038527" lon="9.38175492766771"><ele>108.6</ele><time>2026-04-11T07:36:46.997Z</time></trkpt><trkpt lat="45.468585017717345" lon="9.381879825986593"><ele>109.0</ele><time>2026-04-11T07:36:48.997Z</time></trkpt><trkpt lat="45.468536170649244" lon="9.382001854298379"><ele>109.0</ele><time>2026-04-11T07:36:50.997Z</time></trkpt><trkpt lat="45.4685099359305" lon="9.382131536349466"><ele>109.0</ele><time>2026-04-11T07:36:52.997Z</time></trkpt><trkpt lat="45.4685381918411" lon="9.382261218842329"><ele>109.0</ele><time>2026-04-11T07:36:54.997Z</time></trkpt><trkpt lat="45.46861484093948" lon="9.382324120876998"><ele>109.0</ele><time>2026-04-11T07:36:56.997Z</time></trkpt><trkpt lat="45.46871766036135" lon="9.382303755997883"><ele>109.0</ele><time>2026-04-11T07:36:58.997Z</time></trkpt><trkpt lat="45.46879768254846" lon="9.382220952682932"><ele>109.0</ele><time>2026-04-11T07:37:00.997Z</time></trkpt><trkpt lat="45.46888803448619" lon="9.38213096502498"><ele>109.0</ele><time>2026-04-11T07:37:02.997Z</time></trkpt><trkpt lat="45.46898599198749" lon="9.38207691179321"><ele>109.0</ele><time>2026-04-11T07:37:04.997Z</time></trkpt><trkpt lat="45.46908816420532" lon="9.382046214049945"><ele>109.0</ele><time>2026-04-11T07:37:06.997Z</time></trkpt><trkpt lat="45.469190449623106" lon="9.382018350276523"><ele>109.0</ele><time>2026-04-11T07:37:08.997Z</time></trkpt><trkpt lat="45.469304886128974" lon="9.38200455871427"><ele>109.0</ele><time>2026-04-11T07:37:10.997Z</time></trkpt><trkpt lat="45.469401819296706" lon="9.381969289674396"><ele>109.0</ele><time>2026-04-11T07:37:12.997Z</time></trkpt><trkpt lat="45.469508598471535" lon="9.381946250385791"><ele>109.0</ele><time>2026-04-11T07:37:14.997Z</time></trkpt><trkpt lat="45.469613476121836" lon="9.381919041955557"><ele>109.0</ele><time>2026-04-11T07:37:16.997Z</time></trkpt><trkpt lat="45.46972274693051" lon="9.381903217336978"><ele>109.0</ele><time>2026-04-11T07:37:18.997Z</time></trkpt><trkpt lat="45.469831253745646" lon="9.381875979409918"><ele>109.0</ele><time>2026-04-11T07:37:20.997Z</time></trkpt><trkpt lat="45.46993482831124" lon="9.381860983998001"><ele>109.0</ele><time>2026-04-11T07:37:22.996Z</time></trkpt><trkpt lat="45.47004644423976" lon="9.381832032456689"><ele>109.0</ele><time>2026-04-11T07:37:24.996Z</time></trkpt><trkpt lat="45.470157372312826" lon="9.381812538137327"><ele>109.0</ele><time>2026-04-11T07:37:26.996Z</time></trkpt><trkpt lat="45.4702609230474" lon="9.38178246235605"><ele>109.0</ele><time>2026-04-11T07:37:28.996Z</time></trkpt><trkpt lat="45.47036567135317" lon="9.38175903914938"><ele>109.2</ele><time>2026-04-11T07:37:30.996Z</time></trkpt><trkpt lat="45.470471511700545" lon="9.381730593595442"><ele>109.4</ele><time>2026-04-11T07:37:32.996Z</time></trkpt><trkpt lat="45.470571705063236" lon="9.381705320694117"><ele>109.6</ele><time>2026-04-11T07:37:34.996Z</time></trkpt><trkpt lat="45.470677468418806" lon="9.381684316995043"><ele>109.8</ele><time>2026-04-11T07:37:36.996Z</time></trkpt><trkpt lat="45.47078125025363" lon="9.381662175139084"><ele>110.0</ele><time>2026-04-11T07:37:38.996Z</time></trkpt><trkpt lat="45.47088832104854" lon="9.381639107007764"><ele>110.0</ele><time>2026-04-11T07:37:40.996Z</time></trkpt><trkpt lat="45.4709932406357" lon="9.381621392233836"><ele>110.0</ele><time>2026-04-11T07:37:42.996Z</time></trkpt><trkpt lat="45.471099551273944" lon="9.381602122798403"><ele>110.0</ele><time>2026-04-11T07:37:44.996Z</time></trkpt><trkpt lat="45.471211518773686" lon="9.381580977704418"><ele>110.0</ele><time>2026-04-11T07:37:46.996Z</time></trkpt><trkpt lat="45.47132099985705" lon="9.381565071500193"><ele>110.0</ele><time>2026-04-11T07:37:48.996Z</time></trkpt><trkpt lat="45.471428277010425" lon="9.381543010425561"><ele>110.0</ele><time>2026-04-11T07:37:50.996Z</time></trkpt><trkpt lat="45.47153817861293" lon="9.381523103976043"><ele>110.0</ele><time>2026-04-11T07:37:52.998Z</time></trkpt><trkpt lat="45.471639062098774" lon="9.381497943055853"><ele>110.0</ele><time>2026-04-11T07:37:54.997Z</time></trkpt><trkpt lat="45.47174753912952" lon="9.38148149621899"><ele>110.0</ele><time>2026-04-11T07:37:56.997Z</time></trkpt><trkpt lat="45.47185422575878" lon="9.381464083595977"><ele>110.0</ele><time>2026-04-11T07:37:58.998Z</time></trkpt><trkpt lat="45.47195744826958" lon="9.381443273894893"><ele>110.0</ele><time>2026-04-11T07:38:00.998Z</time></trkpt><trkpt lat="45.47206229508949" lon="9.381420514226297"><ele>110.0</ele><time>2026-04-11T07:38:02.998Z</time></trkpt><trkpt lat="45.472167258501784" lon="9.381399362428034"><ele>110.0</ele><time>2026-04-11T07:38:04.997Z</time></trkpt><trkpt lat="45.472273315823045" lon="9.381381508462324"><ele>110.0</ele><time>2026-04-11T07:38:06.997Z</time></trkpt><trkpt lat="45.47238005779749" lon="9.381356615864428"><ele>110.0</ele><time>2026-04-11T07:38:08.997Z</time></trkpt><trkpt lat="45.47249024548021" lon="9.381335886852014"><ele>109.8</ele><time>2026-04-11T07:38:10.997Z</time></trkpt><trkpt lat="45.47259580750347" lon="9.381322128194519"><ele>109.6</ele><time>2026-04-11T07:38:12.997Z</time></trkpt><trkpt lat="45.47270087769648" lon="9.381304980864419"><ele>109.4</ele><time>2026-04-11T07:38:14.997Z</time></trkpt><trkpt lat="45.47281312127872" lon="9.381291714722312"><ele>109.2</ele><time>2026-04-11T07:38:16.997Z</time></trkpt><trkpt lat="45.47291983404315" lon="9.381279884856651"><ele>109.0</ele><time>2026-04-11T07:38:18.997Z</time></trkpt><trkpt lat="45.47302444673969" lon="9.381268561099969"><ele>108.6</ele><time>2026-04-11T07:38:20.997Z</time></trkpt><trkpt lat="45.47312957137035" lon="9.381250388924519"><ele>108.2</ele><time>2026-04-11T07:38:22.997Z</time></trkpt><trkpt lat="45.47323655943905" lon="9.381239786397524"><ele>107.79999999999998</ele><time>2026-04-11T07:38:24.997Z</time></trkpt><trkpt lat="45.47334489949628" lon="9.3812302182102"><ele>107.39999999999999</ele><time>2026-04-11T07:38:26.997Z</time></trkpt><trkpt lat="45.4734506820778" lon="9.38121284743552"><ele>107.0</ele><time>2026-04-11T07:38:28.997Z</time></trkpt><trkpt lat="45.47355880112064" lon="9.38119779499337"><ele>107.0</ele><time>2026-04-11T07:38:30.997Z</time></trkpt><trkpt lat="45.473668171879005" lon="9.381183704124085"><ele>106.99999999999999</ele><time>2026-04-11T07:38:32.997Z</time></trkpt><trkpt lat="45.473775129125826" lon="9.381161296996455"><ele>106.99999999999999</ele><time>2026-04-11T07:38:34.997Z</time></trkpt><trkpt lat="45.473886772179476" lon="9.381150030763663"><ele>107.0</ele><time>2026-04-11T07:38:36.997Z</time></trkpt><trkpt lat="45.47399662424257" lon="9.381136029077389"><ele>107.0</ele><time>2026-04-11T07:38:38.996Z</time></trkpt><trkpt lat="45.47410521078893" lon="9.381120769454801"><ele>107.39999999999999</ele><time>2026-04-11T07:38:40.996Z</time></trkpt><trkpt lat="45.47421323374525" lon="9.381109472026045"><ele>107.79999999999998</ele><time>2026-04-11T07:38:42.996Z</time></trkpt><trkpt lat="45.47431494331079" lon="9.3810901676582"><ele>108.2</ele><time>2026-04-11T07:38:44.996Z</time></trkpt><trkpt lat="45.474420229484885" lon="9.381074249418148"><ele>108.6</ele><time>2026-04-11T07:38:46.996Z</time></trkpt><trkpt lat="45.474527818347994" lon="9.381059307030695"><ele>109.0</ele><time>2026-04-11T07:38:48.996Z</time></trkpt><trkpt lat="45.474631242164115" lon="9.381042274795195"><ele>109.0</ele><time>2026-04-11T07:38:50.996Z</time></trkpt><trkpt lat="45.47474625208561" lon="9.381037578023463"><ele>109.0</ele><time>2026-04-11T07:38:52.996Z</time></trkpt><trkpt lat="45.47485371181316" lon="9.38102072011769"><ele>109.0</ele><time>2026-04-11T07:38:54.996Z</time></trkpt><trkpt lat="45.474958661490724" lon="9.38100898532208"><ele>109.0</ele><time>2026-04-11T07:38:56.996Z</time></trkpt><trkpt lat="45.47506496495889" lon="9.380992541711732"><ele>109.0</ele><time>2026-04-11T07:38:58.996Z</time></trkpt><trkpt lat="45.47517282312417" lon="9.38097880643989"><ele>109.0</ele><time>2026-04-11T07:39:00.996Z</time></trkpt><trkpt lat="45.475280654589504" lon="9.380962723270812"><ele>109.0</ele><time>2026-04-11T07:39:02.996Z</time></trkpt><trkpt lat="45.47539072969297" lon="9.380948883173932"><ele>109.0</ele><time>2026-04-11T07:39:04.996Z</time></trkpt><trkpt lat="45.47549818727664" lon="9.380932347228478"><ele>109.0</ele><time>2026-04-11T07:39:06.996Z</time></trkpt><trkpt lat="45.47560618334486" lon="9.380917388653279"><ele>109.0</ele><time>2026-04-11T07:39:08.996Z</time></trkpt><trkpt lat="45.47571323182954" lon="9.380898940460126"><ele>109.0</ele><time>2026-04-11T07:39:10.996Z</time></trkpt><trkpt lat="45.475821004212754" lon="9.380883489558574"><ele>109.0</ele><time>2026-04-11T07:39:12.996Z</time></trkpt><trkpt lat="45.475930367349164" lon="9.380868839234061"><ele>109.0</ele><time>2026-04-11T07:39:14.996Z</time></trkpt><trkpt lat="45.47603820586217" lon="9.380856818060684"><ele>109.0</ele><time>2026-04-11T07:39:16.996Z</time></trkpt><trkpt lat="45.47614990779223" lon="9.380839222548092"><ele>109.0</ele><time>2026-04-11T07:39:18.996Z</time></trkpt><trkpt lat="45.476264824781566" lon="9.380827510929102"><ele>109.0</ele><time>2026-04-11T07:39:20.996Z</time></trkpt><trkpt lat="45.4763722180462" lon="9.38081253415138"><ele>109.0</ele><time>2026-04-11T07:39:22.996Z</time></trkpt><trkpt lat="45.47648684471369" lon="9.380801014316036"><ele>109.0</ele><time>2026-04-11T07:39:24.996Z</time></trkpt><trkpt lat="45.47659349260942" lon="9.38078435363307"><ele>109.0</ele><time>2026-04-11T07:39:26.996Z</time></trkpt><trkpt lat="45.47670546665982" lon="9.380771689652427"><ele>109.0</ele><time>2026-04-11T07:39:28.996Z</time></trkpt><trkpt lat="45.476819402697664" lon="9.380764933419837"><ele>109.0</ele><time>2026-04-11T07:39:30.996Z</time></trkpt><trkpt lat="45.47693425940126" lon="9.380766554437349"><ele>109.0</ele><time>2026-04-11T07:39:32.996Z</time></trkpt><trkpt lat="45.47705200097907" lon="9.380774100227589"><ele>109.0</ele><time>2026-04-11T07:39:34.996Z</time></trkpt><trkpt lat="45.47716422601142" lon="9.380787905376941"><ele>109.0</ele><time>2026-04-11T07:39:36.996Z</time></trkpt><trkpt lat="45.47727881303064" lon="9.380806084914552"><ele>108.75</ele><time>2026-04-11T07:39:38.995Z</time></trkpt><trkpt lat="45.47739695635136" lon="9.380833146297174"><ele>108.5</ele><time>2026-04-11T07:39:40.995Z</time></trkpt><trkpt lat="45.477508473998874" lon="9.38086391546909"><ele>108.25</ele><time>2026-04-11T07:39:42.995Z</time></trkpt><trkpt lat="45.47762254714776" lon="9.380890420524352"><ele>108.0</ele><time>2026-04-11T07:39:44.995Z</time></trkpt><trkpt lat="45.477738612393395" lon="9.38092386596845"><ele>108.0</ele><time>2026-04-11T07:39:46.995Z</time></trkpt><trkpt lat="45.47784778634921" lon="9.380952655392083"><ele>108.0</ele><time>2026-04-11T07:39:48.995Z</time></trkpt><trkpt lat="45.477963716336816" lon="9.38098647888754"><ele>108.0</ele><time>2026-04-11T07:39:50.995Z</time></trkpt><trkpt lat="45.478079121072405" lon="9.38101754830468"><ele>108.0</ele><time>2026-04-11T07:39:52.995Z</time></trkpt><trkpt lat="45.4781911872588" lon="9.381048543341441"><ele>108.5</ele><time>2026-04-11T07:39:54.995Z</time></trkpt><trkpt lat="45.47830536047268" lon="9.381084292390314"><ele>109.0</ele><time>2026-04-11T07:39:56.995Z</time></trkpt><trkpt lat="45.47842140239246" lon="9.381115440909054"><ele>109.5</ele><time>2026-04-11T07:39:58.997Z</time></trkpt><trkpt lat="45.47853780895936" lon="9.381144909890564"><ele>110.0</ele><time>2026-04-11T07:40:00.997Z</time></trkpt><trkpt lat="45.478655948666734" lon="9.381178239692044"><ele>110.0</ele><time>2026-04-11T07:40:02.998Z</time></trkpt><trkpt lat="45.47876923118189" lon="9.381210047514074"><ele>110.0</ele><time>2026-04-11T07:40:04.997Z</time></trkpt><trkpt lat="45.4788867769651" lon="9.381240441365186"><ele>110.0</ele><time>2026-04-11T07:40:06.997Z</time></trkpt><trkpt lat="45.47900311881713" lon="9.381268804866005"><ele>110.0</ele><time>2026-04-11T07:40:08.998Z</time></trkpt><trkpt lat="45.47911859341157" lon="9.381303049374404"><ele>110.0</ele><time>2026-04-11T07:40:10.997Z</time></trkpt><trkpt lat="45.47923623747725" lon="9.381335236147537"><ele>110.0</ele><time>2026-04-11T07:40:12.997Z</time></trkpt><trkpt lat="45.47934894393043" lon="9.381349445234276"><ele>110.0</ele><time>2026-04-11T07:40:14.997Z</time></trkpt><trkpt lat="45.479461772664756" lon="9.381353102377616"><ele>110.0</ele><time>2026-04-11T07:40:16.997Z</time></trkpt><trkpt lat="45.47958106656777" lon="9.381365288110413"><ele>110.5</ele><time>2026-04-11T07:40:18.997Z</time></trkpt><trkpt lat="45.47969817668347" lon="9.381368923159748"><ele>111.0</ele><time>2026-04-11T07:40:20.997Z</time></trkpt><trkpt lat="45.47980993926845" lon="9.381349727748727"><ele>111.5</ele><time>2026-04-11T07:40:22.997Z</time></trkpt><trkpt lat="45.47991986844478" lon="9.381334757602959"><ele>112.0</ele><time>2026-04-11T07:40:24.997Z</time></trkpt><trkpt lat="45.48003101474577" lon="9.381313039370395"><ele>112.0</ele><time>2026-04-11T07:40:26.997Z</time></trkpt><trkpt lat="45.48014478995408" lon="9.381283025430921"><ele>112.0</ele><time>2026-04-11T07:40:28.997Z</time></trkpt><trkpt lat="45.48025813150536" lon="9.381245225586763"><ele>112.0</ele><time>2026-04-11T07:40:30.997Z</time></trkpt><trkpt lat="45.48036582615897" lon="9.381195360590942"><ele>112.0</ele><time>2026-04-11T07:40:32.997Z</time></trkpt><trkpt lat="45.48046800169726" lon="9.381129158984432"><ele>112.0</ele><time>2026-04-11T07:40:34.997Z</time></trkpt><trkpt lat="45.48058411486312" lon="9.381085068075679"><ele>112.0</ele><time>2026-04-11T07:40:36.997Z</time></trkpt><trkpt lat="45.48069279856011" lon="9.381017573218628"><ele>112.0</ele><time>2026-04-11T07:40:38.997Z</time></trkpt><trkpt lat="45.480794240054884" lon="9.380944673571978"><ele>112.0</ele><time>2026-04-11T07:40:40.997Z</time></trkpt><trkpt lat="45.48089924723691" lon="9.380870501764365"><ele>112.0</ele><time>2026-04-11T07:40:42.996Z</time></trkpt><trkpt lat="45.48098536910638" lon="9.380775633207795"><ele>111.99999999999999</ele><time>2026-04-11T07:40:44.996Z</time></trkpt><trkpt lat="45.48104504239634" lon="9.380732992105967"><ele>111.99999999999999</ele><time>2026-04-11T07:40:45.996Z</time></trkpt><trkpt lat="45.48113549093816" lon="9.380630419306895"><ele>112.0</ele><time>2026-04-11T07:40:47.996Z</time></trkpt><trkpt lat="45.481237853015955" lon="9.380550510068199"><ele>112.0</ele><time>2026-04-11T07:40:49.996Z</time></trkpt><trkpt lat="45.48131989945236" lon="9.380451493129227"><ele>111.8</ele><time>2026-04-11T07:40:51.996Z</time></trkpt><trkpt lat="45.48141166493071" lon="9.380362129950223"><ele>111.6</ele><time>2026-04-11T07:40:53.996Z</time></trkpt><trkpt lat="45.48150589647197" lon="9.380285008846519"><ele>111.39999999999999</ele><time>2026-04-11T07:40:55.996Z</time></trkpt><trkpt lat="45.48160140056505" lon="9.380206813141998"><ele>111.19999999999999</ele><time>2026-04-11T07:40:57.996Z</time></trkpt><trkpt lat="45.48170272061152" lon="9.380125876201605"><ele>111.0</ele><time>2026-04-11T07:40:59.996Z</time></trkpt><trkpt lat="45.48180334621247" lon="9.380047668897879"><ele>111.0</ele><time>2026-04-11T07:41:01.996Z</time></trkpt><trkpt lat="45.481898491681854" lon="9.379977527526087"><ele>111.0</ele><time>2026-04-11T07:41:03.996Z</time></trkpt><trkpt lat="45.48199637926234" lon="9.379915368128515"><ele>111.0</ele><time>2026-04-11T07:41:05.996Z</time></trkpt><trkpt lat="45.48211066518005" lon="9.379883003778373"><ele>111.0</ele><time>2026-04-11T07:41:07.996Z</time></trkpt><trkpt lat="45.48221675881899" lon="9.379863616795479"><ele>111.0</ele><time>2026-04-11T07:41:09.996Z</time></trkpt><trkpt lat="45.48231537399038" lon="9.379851891373388"><ele>111.0</ele><time>2026-04-11T07:41:11.996Z</time></trkpt><trkpt lat="45.48239721888984" lon="9.379845032044209"><ele>111.0</ele><time>2026-04-11T07:41:13.996Z</time></trkpt><trkpt lat="45.48249709678458" lon="9.379849623944398"><ele>111.0</ele><time>2026-04-11T07:41:16.996Z</time></trkpt><trkpt lat="45.482585730868436" lon="9.379873338266355"><ele>111.0</ele><time>2026-04-11T07:41:18.996Z</time></trkpt><trkpt lat="45.48267480442668" lon="9.379901418614319"><ele>111.0</ele><time>2026-04-11T07:41:20.996Z</time></trkpt><trkpt lat="45.482759311166845" lon="9.379938741100482"><ele>111.0</ele><time>2026-04-11T07:41:22.996Z</time></trkpt><trkpt lat="45.48283584572792" lon="9.379992363622588"><ele>111.0</ele><time>2026-04-11T07:41:24.996Z</time></trkpt><trkpt lat="45.48290019624705" lon="9.380090034624251"><ele>111.0</ele><time>2026-04-11T07:41:26.996Z</time></trkpt><trkpt lat="45.48294125881661" lon="9.38021817237571"><ele>111.0</ele><time>2026-04-11T07:41:28.996Z</time></trkpt><trkpt lat="45.482953936371935" lon="9.380329051332062"><ele>111.0</ele><time>2026-04-11T07:41:30.996Z</time></trkpt><trkpt lat="45.48303849951847" lon="9.380433076079598"><ele>111.25</ele><time>2026-04-11T07:41:33.996Z</time></trkpt><trkpt lat="45.483159635985714" lon="9.380498369854488"><ele>111.5</ele><time>2026-04-11T07:41:36.996Z</time></trkpt><trkpt lat="45.483275895393255" lon="9.380531180057327"><ele>111.75</ele><time>2026-04-11T07:41:38.996Z</time></trkpt><trkpt lat="45.4833796478306" lon="9.380568293588114"><ele>112.0</ele><time>2026-04-11T07:41:40.996Z</time></trkpt><trkpt lat="45.48346869617367" lon="9.380614397139"><ele>112.39999999999999</ele><time>2026-04-11T07:41:42.996Z</time></trkpt><trkpt lat="45.48354772259605" lon="9.38069969678642"><ele>112.79999999999998</ele><time>2026-04-11T07:41:44.995Z</time></trkpt><trkpt lat="45.48359712402966" lon="9.380823125145456"><ele>113.2</ele><time>2026-04-11T07:41:46.995Z</time></trkpt><trkpt lat="45.48364652896802" lon="9.380921510056647"><ele>113.6</ele><time>2026-04-11T07:41:48.995Z</time></trkpt><trkpt lat="45.48369281846191" lon="9.381059804730054"><ele>114.0</ele><time>2026-04-11T07:41:50.995Z</time></trkpt><trkpt lat="45.48373928057972" lon="9.381204268008675"><ele>114.2</ele><time>2026-04-11T07:41:52.995Z</time></trkpt><trkpt lat="45.48376744878761" lon="9.38135560766358"><ele>114.4</ele><time>2026-04-11T07:41:54.995Z</time></trkpt><trkpt lat="45.48378236436988" lon="9.381516244075348"><ele>114.6</ele><time>2026-04-11T07:41:56.995Z</time></trkpt><trkpt lat="45.48380014467465" lon="9.38166570423711"><ele>114.8</ele><time>2026-04-11T07:41:58.995Z</time></trkpt><trkpt lat="45.483803926889564" lon="9.381817956135531"><ele>115.0</ele><time>2026-04-11T07:42:00.995Z</time></trkpt><trkpt lat="45.483814507240886" lon="9.381978176130133"><ele>115.0</ele><time>2026-04-11T07:42:02.995Z</time></trkpt><trkpt lat="45.48381879373947" lon="9.382130062867718"><ele>115.0</ele><time>2026-04-11T07:42:04.997Z</time></trkpt><trkpt lat="45.48382514388143" lon="9.382289649403088"><ele>115.0</ele><time>2026-04-11T07:42:06.997Z</time></trkpt><trkpt lat="45.483834351170856" lon="9.382427776637245"><ele>115.0</ele><time>2026-04-11T07:42:08.997Z</time></trkpt><trkpt lat="45.48384199080858" lon="9.382580674879987"><ele>115.0</ele><time>2026-04-11T07:42:10.997Z</time></trkpt><trkpt lat="45.483843932033025" lon="9.382727320018002"><ele>114.8</ele><time>2026-04-11T07:42:12.997Z</time></trkpt><trkpt lat="45.48385103435457" lon="9.382866654025094"><ele>114.6</ele><time>2026-04-11T07:42:14.997Z</time></trkpt><trkpt lat="45.483858713558526" lon="9.383001930923681"><ele>114.4</ele><time>2026-04-11T07:42:16.997Z</time></trkpt><trkpt lat="45.48386593845585" lon="9.383149880960968"><ele>114.2</ele><time>2026-04-11T07:42:18.997Z</time></trkpt><trkpt lat="45.48386758266069" lon="9.383301684270082"><ele>114.0</ele><time>2026-04-11T07:42:20.997Z</time></trkpt><trkpt lat="45.483867884437096" lon="9.383453059775245"><ele>114.0</ele><time>2026-04-11T07:42:22.997Z</time></trkpt><trkpt lat="45.48385652058592" lon="9.383614180151605"><ele>114.0</ele><time>2026-04-11T07:42:24.997Z</time></trkpt><trkpt lat="45.48385532822462" lon="9.383759493052189"><ele>114.0</ele><time>2026-04-11T07:42:26.997Z</time></trkpt><trkpt lat="45.483852805779314" lon="9.38390698330451"><ele>114.0</ele><time>2026-04-11T07:42:28.997Z</time></trkpt><trkpt lat="45.48385259138866" lon="9.38407085585308"><ele>114.0</ele><time>2026-04-11T07:42:30.997Z</time></trkpt><trkpt lat="45.483848542181654" lon="9.384230106408573"><ele>114.0</ele><time>2026-04-11T07:42:32.997Z</time></trkpt><trkpt lat="45.483845593667134" lon="9.384386665575757"><ele>114.0</ele><time>2026-04-11T07:42:34.997Z</time></trkpt><trkpt lat="45.48382330296495" lon="9.384541356789054"><ele>114.0</ele><time>2026-04-11T07:42:36.997Z</time></trkpt><trkpt lat="45.48381117260353" lon="9.384693383526322"><ele>114.0</ele><time>2026-04-11T07:42:38.997Z</time></trkpt><trkpt lat="45.483808344749995" lon="9.384847871854555"><ele>114.0</ele><time>2026-04-11T07:42:40.997Z</time></trkpt><trkpt lat="45.483805905684896" lon="9.385006748310303"><ele>114.2</ele><time>2026-04-11T07:42:42.996Z</time></trkpt><trkpt lat="45.48380551382896" lon="9.38516889721643"><ele>114.4</ele><time>2026-04-11T07:42:44.996Z</time></trkpt><trkpt lat="45.483806737556144" lon="9.385313697969654"><ele>114.6</ele><time>2026-04-11T07:42:46.996Z</time></trkpt><trkpt lat="45.48380460788958" lon="9.385460528960989"><ele>114.8</ele><time>2026-04-11T07:42:48.996Z</time></trkpt><trkpt lat="45.483795493741866" lon="9.385617267227506"><ele>115.0</ele><time>2026-04-11T07:42:50.996Z</time></trkpt><trkpt lat="45.48379461289544" lon="9.385767251122331"><ele>115.0</ele><time>2026-04-11T07:42:52.996Z</time></trkpt><trkpt lat="45.48378746494269" lon="9.385923912671721"><ele>115.0</ele><time>2026-04-11T07:42:54.996Z</time></trkpt><trkpt lat="45.48379199358433" lon="9.386069424255927"><ele>115.0</ele><time>2026-04-11T07:42:56.996Z</time></trkpt><trkpt lat="45.48378344546063" lon="9.38622493180295"><ele>115.0</ele><time>2026-04-11T07:42:58.996Z</time></trkpt><trkpt lat="45.4837686706103" lon="9.386381995111568"><ele>115.0</ele><time>2026-04-11T07:43:00.996Z</time></trkpt><trkpt lat="45.48376197429858" lon="9.386533705667901"><ele>115.0</ele><time>2026-04-11T07:43:02.996Z</time></trkpt><trkpt lat="45.48376102865643" lon="9.386685599585183"><ele>115.0</ele><time>2026-04-11T07:43:04.996Z</time></trkpt><trkpt lat="45.48375685786888" lon="9.386837193409438"><ele>115.0</ele><time>2026-04-11T07:43:06.996Z</time></trkpt><trkpt lat="45.483765163448524" lon="9.386988486355836"><ele>115.0</ele><time>2026-04-11T07:43:08.996Z</time></trkpt><trkpt lat="45.48375777487383" lon="9.387156588199954"><ele>115.0</ele><time>2026-04-11T07:43:10.996Z</time></trkpt><trkpt lat="45.48375954849066" lon="9.38730952308476"><ele>115.2</ele><time>2026-04-11T07:43:12.996Z</time></trkpt><trkpt lat="45.48376167233471" lon="9.38745015174881"><ele>115.4</ele><time>2026-04-11T07:43:14.996Z</time></trkpt><trkpt lat="45.483763048619515" lon="9.387599160004031"><ele>115.6</ele><time>2026-04-11T07:43:16.996Z</time></trkpt><trkpt lat="45.48376329218334" lon="9.38776964875517"><ele>115.8</ele><time>2026-04-11T07:43:18.996Z</time></trkpt><trkpt lat="45.48376685505998" lon="9.387924718158558"><ele>116.0</ele><time>2026-04-11T07:43:20.996Z</time></trkpt><trkpt lat="45.483769833414804" lon="9.38808293645513"><ele>115.8</ele><time>2026-04-11T07:43:22.996Z</time></trkpt><trkpt lat="45.48377642299226" lon="9.388231609927974"><ele>115.6</ele><time>2026-04-11T07:43:24.996Z</time></trkpt><trkpt lat="45.48378973041345" lon="9.388385674991639"><ele>115.4</ele><time>2026-04-11T07:43:26.996Z</time></trkpt><trkpt lat="45.48378739876394" lon="9.388541510170233"><ele>115.2</ele><time>2026-04-11T07:43:28.996Z</time></trkpt><trkpt lat="45.483782154356156" lon="9.388701986404278"><ele>115.0</ele><time>2026-04-11T07:43:30.996Z</time></trkpt><trkpt lat="45.483774031973255" lon="9.388851692503671"><ele>115.0</ele><time>2026-04-11T07:43:32.996Z</time></trkpt><trkpt lat="45.48377567222987" lon="9.388999395722504"><ele>115.0</ele><time>2026-04-11T07:43:34.996Z</time></trkpt><trkpt lat="45.483779800926676" lon="9.389146224087716"><ele>115.0</ele><time>2026-04-11T07:43:36.996Z</time></trkpt><trkpt lat="45.48378844068365" lon="9.389297047048363"><ele>115.0</ele><time>2026-04-11T07:43:38.996Z</time></trkpt><trkpt lat="45.48378783161417" lon="9.389445999648638"><ele>115.0</ele><time>2026-04-11T07:43:40.996Z</time></trkpt><trkpt lat="45.483792667211524" lon="9.389591453049762"><ele>115.25</ele><time>2026-04-11T07:43:42.996Z</time></trkpt><trkpt lat="45.483794014640736" lon="9.389758636149876"><ele>115.5</ele><time>2026-04-11T07:43:44.995Z</time></trkpt><trkpt lat="45.48379256029823" lon="9.38991417587247"><ele>115.75</ele><time>2026-04-11T07:43:46.995Z</time></trkpt><trkpt lat="45.483800594757604" lon="9.390067985899147"><ele>116.0</ele><time>2026-04-11T07:43:48.995Z</time></trkpt><trkpt lat="45.48380126782108" lon="9.390233523359177"><ele>116.0</ele><time>2026-04-11T07:43:50.995Z</time></trkpt><trkpt lat="45.483799771100664" lon="9.390389370481328"><ele>116.0</ele><time>2026-04-11T07:43:52.995Z</time></trkpt><trkpt lat="45.483797162565786" lon="9.390552108342899"><ele>116.0</ele><time>2026-04-11T07:43:54.995Z</time></trkpt><trkpt lat="45.48380039402628" lon="9.390702794921323"><ele>116.0</ele><time>2026-04-11T07:43:56.995Z</time></trkpt><trkpt lat="45.483796786856836" lon="9.390873788673632"><ele>116.0</ele><time>2026-04-11T07:43:58.995Z</time></trkpt><trkpt lat="45.483799244999496" lon="9.390964135710439"><ele>115.6</ele><time>2026-04-11T07:43:59.995Z</time></trkpt><trkpt lat="45.483803933093036" lon="9.391125754980171"><ele>115.19999999999999</ele><time>2026-04-11T07:44:01.995Z</time></trkpt><trkpt lat="45.48380411733262" lon="9.391294216120787"><ele>114.80000000000001</ele><time>2026-04-11T07:44:03.995Z</time></trkpt><trkpt lat="45.48380007077046" lon="9.391387231649862"><ele>114.4</ele><time>2026-04-11T07:44:04.995Z</time></trkpt><trkpt lat="45.48379560548388" lon="9.39154848441948"><ele>114.0</ele><time>2026-04-11T07:44:06.995Z</time></trkpt><trkpt lat="45.48379563034524" lon="9.39171396526097"><ele>113.5</ele><time>2026-04-11T07:44:08.995Z</time></trkpt><trkpt lat="45.48379481437839" lon="9.391885077649903"><ele>113.0</ele><time>2026-04-11T07:44:10.997Z</time></trkpt><trkpt lat="45.48378930483191" lon="9.392060097012145"><ele>112.5</ele><time>2026-04-11T07:44:12.997Z</time></trkpt><trkpt lat="45.48379967958966" lon="9.392223794901296"><ele>112.0</ele><time>2026-04-11T07:44:14.997Z</time></trkpt><trkpt lat="45.483796333524516" lon="9.39239188761378"><ele>112.0</ele><time>2026-04-11T07:44:16.996Z</time></trkpt><trkpt lat="45.48379109020447" lon="9.39248296956644"><ele>111.99999999999999</ele><time>2026-04-11T07:44:17.996Z</time></trkpt><trkpt lat="45.48379493634842" lon="9.392647941727034"><ele>111.99999999999999</ele><time>2026-04-11T07:44:19.997Z</time></trkpt><trkpt lat="45.48379149348059" lon="9.392808994069423"><ele>112.0</ele><time>2026-04-11T07:44:21.997Z</time></trkpt><trkpt lat="45.483788568797024" lon="9.392961173850729"><ele>112.0</ele><time>2026-04-11T07:44:23.996Z</time></trkpt><trkpt lat="45.48378697676198" lon="9.393112888680237"><ele>112.19999999999999</ele><time>2026-04-11T07:44:25.996Z</time></trkpt><trkpt lat="45.48378485896466" lon="9.393262945289477"><ele>112.39999999999999</ele><time>2026-04-11T07:44:27.996Z</time></trkpt><trkpt lat="45.48374969168944" lon="9.39340758431913"><ele>112.60000000000001</ele><time>2026-04-11T07:44:29.996Z</time></trkpt><trkpt lat="45.48370208500995" lon="9.393470391583058"><ele>112.80000000000001</ele><time>2026-04-11T07:44:30.996Z</time></trkpt><trkpt lat="45.48362397516546" lon="9.393551451260105"><ele>113.0</ele><time>2026-04-11T07:44:32.996Z</time></trkpt><trkpt lat="45.4835353370451" lon="9.393603252650673"><ele>113.2</ele><time>2026-04-11T07:44:34.996Z</time></trkpt><trkpt lat="45.48343564225358" lon="9.39366989429997"><ele>113.4</ele><time>2026-04-11T07:44:36.996Z</time></trkpt><trkpt lat="45.48336696683354" lon="9.393766411670166"><ele>113.60000000000001</ele><time>2026-04-11T07:44:38.996Z</time></trkpt><trkpt lat="45.483328018989845" lon="9.393843525377243"><ele>113.80000000000001</ele><time>2026-04-11T07:44:39.996Z</time></trkpt><trkpt lat="45.483295350212614" lon="9.393923791762738"><ele>114.0</ele><time>2026-04-11T07:44:40.996Z</time></trkpt><trkpt lat="45.483234010087244" lon="9.394068708586612"><ele>114.25</ele><time>2026-04-11T07:44:42.996Z</time></trkpt><trkpt lat="45.48317085838249" lon="9.394215477489709"><ele>114.5</ele><time>2026-04-11T07:44:44.996Z</time></trkpt><trkpt lat="45.48310241900361" lon="9.394368604522155"><ele>114.75</ele><time>2026-04-11T07:44:46.996Z</time></trkpt><trkpt lat="45.4830501490606" lon="9.394517498960939"><ele>115.0</ele><time>2026-04-11T07:44:48.996Z</time></trkpt><trkpt lat="45.482987061241076" lon="9.394667609295645"><ele>114.25</ele><time>2026-04-11T07:44:50.996Z</time></trkpt><trkpt lat="45.48293735400449" lon="9.39481662410663"><ele>113.5</ele><time>2026-04-11T07:44:52.996Z</time></trkpt><trkpt lat="45.48289358188218" lon="9.394965860021435"><ele>112.75</ele><time>2026-04-11T07:44:54.996Z</time></trkpt><trkpt lat="45.482855414099596" lon="9.395122914097621"><ele>112.0</ele><time>2026-04-11T07:44:56.996Z</time></trkpt><trkpt lat="45.48282725324877" lon="9.395275269439729"><ele>112.0</ele><time>2026-04-11T07:44:58.996Z</time></trkpt><trkpt lat="45.48280313881386" lon="9.39542862891018"><ele>111.99999999999999</ele><time>2026-04-11T07:45:00.996Z</time></trkpt><trkpt lat="45.48276738749335" lon="9.395605499916492"><ele>111.99999999999999</ele><time>2026-04-11T07:45:02.996Z</time></trkpt><trkpt lat="45.482741780996264" lon="9.39569094777732"><ele>112.0</ele><time>2026-04-11T07:45:03.996Z</time></trkpt><trkpt lat="45.48271417793301" lon="9.395772216569878"><ele>112.0</ele><time>2026-04-11T07:45:04.996Z</time></trkpt><trkpt lat="45.48266369130312" lon="9.395929605373157"><ele>112.0</ele><time>2026-04-11T07:45:06.996Z</time></trkpt><trkpt lat="45.48260291828581" lon="9.39608326842851"><ele>112.0</ele><time>2026-04-11T07:45:08.996Z</time></trkpt><trkpt lat="45.48253522865068" lon="9.396225508775341"><ele>112.0</ele><time>2026-04-11T07:45:10.996Z</time></trkpt><trkpt lat="45.48247066525337" lon="9.396368532257497"><ele>112.0</ele><time>2026-04-11T07:45:12.996Z</time></trkpt><trkpt lat="45.482407889721706" lon="9.396500922034516"><ele>112.25</ele><time>2026-04-11T07:45:14.996Z</time></trkpt><trkpt lat="45.48234573429221" lon="9.396641240021411"><ele>112.5</ele><time>2026-04-11T07:45:16.996Z</time></trkpt><trkpt lat="45.48228354693588" lon="9.396781084800923"><ele>112.75</ele><time>2026-04-11T07:45:18.996Z</time></trkpt><trkpt lat="45.482225554026435" lon="9.39691696426131"><ele>113.0</ele><time>2026-04-11T07:45:20.996Z</time></trkpt><trkpt lat="45.48216273298598" lon="9.397048695035908"><ele>112.80000000000001</ele><time>2026-04-11T07:45:22.995Z</time></trkpt><trkpt lat="45.48210578958912" lon="9.397186534118198"><ele>112.60000000000001</ele><time>2026-04-11T07:45:24.995Z</time></trkpt><trkpt lat="45.482063173051856" lon="9.397330737145742"><ele>112.39999999999999</ele><time>2026-04-11T07:45:26.995Z</time></trkpt><trkpt lat="45.48201927635488" lon="9.397480707333516"><ele>112.19999999999999</ele><time>2026-04-11T07:45:28.995Z</time></trkpt><trkpt lat="45.48198090003699" lon="9.397631995646057"><ele>112.0</ele><time>2026-04-11T07:45:30.995Z</time></trkpt><trkpt lat="45.48194482110139" lon="9.397790179426647"><ele>112.5</ele><time>2026-04-11T07:45:32.995Z</time></trkpt><trkpt lat="45.4819207166504" lon="9.397948237531848"><ele>113.0</ele><time>2026-04-11T07:45:34.995Z</time></trkpt><trkpt lat="45.481885233260094" lon="9.39810832599929"><ele>113.5</ele><time>2026-04-11T07:45:36.995Z</time></trkpt><trkpt lat="45.48184204894709" lon="9.39826711111396"><ele>114.0</ele><time>2026-04-11T07:45:38.995Z</time></trkpt><trkpt lat="45.481809507316434" lon="9.398425446928435"><ele>114.0</ele><time>2026-04-11T07:45:40.995Z</time></trkpt><trkpt lat="45.48177412484941" lon="9.398579941171734"><ele>114.0</ele><time>2026-04-11T07:45:42.995Z</time></trkpt><trkpt lat="45.48173784762245" lon="9.398663307628135"><ele>114.0</ele><time>2026-04-11T07:45:43.995Z</time></trkpt><trkpt lat="45.481677662362" lon="9.398812116254653"><ele>114.0</ele><time>2026-04-11T07:45:45.995Z</time></trkpt><trkpt lat="45.48160142699371" lon="9.398954724550746"><ele>114.0</ele><time>2026-04-11T07:45:47.995Z</time></trkpt><trkpt lat="45.481526040449886" lon="9.399083810970227"><ele>113.25</ele><time>2026-04-11T07:45:49.995Z</time></trkpt><trkpt lat="45.48144259966293" lon="9.399211685636066"><ele>112.5</ele><time>2026-04-11T07:45:51.995Z</time></trkpt><trkpt lat="45.48136929367333" lon="9.399337765618208"><ele>111.75</ele><time>2026-04-11T07:45:53.995Z</time></trkpt><trkpt lat="45.481304391044105" lon="9.399471068206559"><ele>111.0</ele><time>2026-04-11T07:45:55.995Z</time></trkpt><trkpt lat="45.48124152868603" lon="9.399604798669632"><ele>110.6</ele><time>2026-04-11T07:45:57.995Z</time></trkpt><trkpt lat="45.48117968065949" lon="9.399731591647862"><ele>110.19999999999999</ele><time>2026-04-11T07:45:59.995Z</time></trkpt><trkpt lat="45.48112170804994" lon="9.399859334937652"><ele>109.80000000000001</ele><time>2026-04-11T07:46:01.995Z</time></trkpt><trkpt lat="45.48107993076075" lon="9.399992102223212"><ele>109.4</ele><time>2026-04-11T07:46:03.995Z</time></trkpt><trkpt lat="45.481049745303466" lon="9.4001289380458"><ele>109.0</ele><time>2026-04-11T07:46:05.995Z</time></trkpt><trkpt lat="45.48099689041926" lon="9.400271997797912"><ele>109.0</ele><time>2026-04-11T07:46:07.995Z</time></trkpt><trkpt lat="45.48096615088725" lon="9.400409401364712"><ele>109.0</ele><time>2026-04-11T07:46:09.995Z</time></trkpt><trkpt lat="45.48092339360581" lon="9.400554313563685"><ele>109.0</ele><time>2026-04-11T07:46:11.995Z</time></trkpt><trkpt lat="45.48089033867506" lon="9.400692800774314"><ele>109.0</ele><time>2026-04-11T07:46:13.995Z</time></trkpt><trkpt lat="45.480863971535136" lon="9.400837043142436"><ele>109.0</ele><time>2026-04-11T07:46:15.997Z</time></trkpt><trkpt lat="45.48082932553737" lon="9.400991866597519"><ele>109.5</ele><time>2026-04-11T07:46:17.997Z</time></trkpt><trkpt lat="45.4808093926294" lon="9.401149768122878"><ele>110.0</ele><time>2026-04-11T07:46:19.997Z</time></trkpt><trkpt lat="45.48078156890104" lon="9.401305218506703"><ele>110.5</ele><time>2026-04-11T07:46:21.997Z</time></trkpt><trkpt lat="45.48074763178406" lon="9.401464950916322"><ele>111.0</ele><time>2026-04-11T07:46:23.997Z</time></trkpt><trkpt lat="45.480729980251006" lon="9.401629417006822"><ele>111.0</ele><time>2026-04-11T07:46:25.997Z</time></trkpt><trkpt lat="45.48068803903185" lon="9.401789818549014"><ele>111.0</ele><time>2026-04-11T07:46:27.996Z</time></trkpt><trkpt lat="45.48065619269758" lon="9.401942963612509"><ele>111.0</ele><time>2026-04-11T07:46:29.996Z</time></trkpt><trkpt lat="45.48060765345442" lon="9.402078733318632"><ele>111.0</ele><time>2026-04-11T07:46:31.996Z</time></trkpt><trkpt lat="45.48056607837492" lon="9.4022147895085"><ele>111.0</ele><time>2026-04-11T07:46:33.996Z</time></trkpt><trkpt lat="45.48052118844799" lon="9.402340889093786"><ele>111.0</ele><time>2026-04-11T07:46:35.996Z</time></trkpt><trkpt lat="45.480440921790944" lon="9.402464248594548"><ele>111.0</ele><time>2026-04-11T07:46:37.996Z</time></trkpt><trkpt lat="45.480376685465394" lon="9.402584957494469"><ele>111.0</ele><time>2026-04-11T07:46:39.996Z</time></trkpt><trkpt lat="45.480327054393406" lon="9.402717142910348"><ele>111.0</ele><time>2026-04-11T07:46:41.996Z</time></trkpt><trkpt lat="45.480299392853354" lon="9.40281953280189"><ele>111.0</ele><time>2026-04-11T07:46:43.996Z</time></trkpt><trkpt lat="45.48024541550542" lon="9.402917486869317"><ele>110.8</ele><time>2026-04-11T07:46:45.996Z</time></trkpt><trkpt lat="45.48021731212398" lon="9.403029462480442"><ele>110.6</ele><time>2026-04-11T07:46:47.996Z</time></trkpt><trkpt lat="45.48015507772723" lon="9.403153365386316"><ele>110.4</ele><time>2026-04-11T07:46:49.996Z</time></trkpt><trkpt lat="45.48010028559458" lon="9.403275048476145"><ele>110.2</ele><time>2026-04-11T07:46:51.996Z</time></trkpt><trkpt lat="45.48001470675778" lon="9.403383149626427"><ele>110.0</ele><time>2026-04-11T07:46:53.996Z</time></trkpt><trkpt lat="45.479902186156245" lon="9.40344822868724"><ele>110.0</ele><time>2026-04-11T07:46:55.996Z</time></trkpt><trkpt lat="45.479802118166695" lon="9.403495415036529"><ele>110.0</ele><time>2026-04-11T07:46:57.996Z</time></trkpt><trkpt lat="45.47969896678172" lon="9.403533030869417"><ele>110.0</ele><time>2026-04-11T07:46:59.996Z</time></trkpt><trkpt lat="45.479598794922694" lon="9.403617644038032"><ele>110.0</ele><time>2026-04-11T07:47:01.996Z</time></trkpt><trkpt lat="45.47948494457763" lon="9.4036769625889"><ele>110.0</ele><time>2026-04-11T07:47:03.996Z</time></trkpt><trkpt lat="45.4794025944563" lon="9.403763364513441"><ele>109.8</ele><time>2026-04-11T07:47:05.996Z</time></trkpt><trkpt lat="45.47933680772894" lon="9.403880819406677"><ele>109.6</ele><time>2026-04-11T07:47:07.996Z</time></trkpt><trkpt lat="45.47934146785232" lon="9.404031741420102"><ele>109.4</ele><time>2026-04-11T07:47:09.996Z</time></trkpt><trkpt lat="45.47937715218359" lon="9.40417077704792"><ele>109.2</ele><time>2026-04-11T07:47:11.996Z</time></trkpt><trkpt lat="45.47942013198787" lon="9.404301207250551"><ele>109.0</ele><time>2026-04-11T07:47:13.996Z</time></trkpt><trkpt lat="45.479458045858706" lon="9.404450922940104"><ele>109.0</ele><time>2026-04-11T07:47:15.996Z</time></trkpt><trkpt lat="45.47950018375707" lon="9.40458052031662"><ele>109.0</ele><time>2026-04-11T07:47:17.996Z</time></trkpt><trkpt lat="45.47954065844945" lon="9.404716165911339"><ele>109.0</ele><time>2026-04-11T07:47:19.996Z</time></trkpt><trkpt lat="45.479584982688074" lon="9.404872490886017"><ele>109.0</ele><time>2026-04-11T07:47:21.996Z</time></trkpt><trkpt lat="45.47963138093259" lon="9.405015263863069"><ele>109.0</ele><time>2026-04-11T07:47:23.996Z</time></trkpt><trkpt lat="45.47966901053354" lon="9.405137770112786"><ele>109.00000000000001</ele><time>2026-04-11T07:47:25.996Z</time></trkpt><trkpt lat="45.4797205766309" lon="9.40526103936839"><ele>109.0</ele><time>2026-04-11T07:47:27.996Z</time></trkpt><trkpt lat="45.47974479832662" lon="9.405346497774408"><ele>109.0</ele><time>2026-04-11T07:47:28.996Z</time></trkpt><trkpt lat="45.47978610554013" lon="9.405471680052276"><ele>109.0</ele><time>2026-04-11T07:47:30.995Z</time></trkpt><trkpt lat="45.479804754556056" lon="9.405576238985638"><ele>109.00000000000001</ele><time>2026-04-11T07:47:32.995Z</time></trkpt><trkpt lat="45.47981273177864" lon="9.405703662845335"><ele>109.0</ele><time>2026-04-11T07:47:34.995Z</time></trkpt><trkpt lat="45.479848087484946" lon="9.405819803054047"><ele>109.0</ele><time>2026-04-11T07:47:36.995Z</time></trkpt><trkpt lat="45.47988360104406" lon="9.405934101211791"><ele>109.0</ele><time>2026-04-11T07:47:38.995Z</time></trkpt><trkpt lat="45.479920451671504" lon="9.406077403181456"><ele>109.0</ele><time>2026-04-11T07:47:40.995Z</time></trkpt><trkpt lat="45.47994852307623" lon="9.406224166240671"><ele>109.0</ele><time>2026-04-11T07:47:42.995Z</time></trkpt><trkpt lat="45.479964122082166" lon="9.406358045948753"><ele>109.0</ele><time>2026-04-11T07:47:44.995Z</time></trkpt><trkpt lat="45.47999308667688" lon="9.40651169928005"><ele>109.2</ele><time>2026-04-11T07:47:46.995Z</time></trkpt><trkpt lat="45.48002153852884" lon="9.406648624083783"><ele>109.4</ele><time>2026-04-11T07:47:48.995Z</time></trkpt><trkpt lat="45.48004473438065" lon="9.406812380029168"><ele>109.6</ele><time>2026-04-11T07:47:50.995Z</time></trkpt><trkpt lat="45.48007054037432" lon="9.406948791741534"><ele>109.8</ele><time>2026-04-11T07:47:52.995Z</time></trkpt><trkpt lat="45.480082814201154" lon="9.407093953859446"><ele>110.0</ele><time>2026-04-11T07:47:54.995Z</time></trkpt><trkpt lat="45.480115863619154" lon="9.407235058695747"><ele>109.99999999999999</ele><time>2026-04-11T07:47:56.995Z</time></trkpt><trkpt lat="45.48014110119405" lon="9.407351256558513"><ele>110.0</ele><time>2026-04-11T07:47:58.995Z</time></trkpt><trkpt lat="45.480165895111256" lon="9.407458864541633"><ele>110.0</ele><time>2026-04-11T07:48:00.995Z</time></trkpt><trkpt lat="45.480179424006174" lon="9.407565670539851"><ele>110.0</ele><time>2026-04-11T07:48:02.995Z</time></trkpt><trkpt lat="45.480179725100456" lon="9.407656214442824"><ele>109.99999999999999</ele><time>2026-04-11T07:48:04.995Z</time></trkpt><trkpt lat="45.480182453278395" lon="9.407749314178174"><ele>110.0</ele><time>2026-04-11T07:48:06.995Z</time></trkpt><trkpt lat="45.48018436071768" lon="9.4078659665093"><ele>109.99999999999999</ele><time>2026-04-11T07:48:08.995Z</time></trkpt><trkpt lat="45.48020948855477" lon="9.40798066242333"><ele>110.0</ele><time>2026-04-11T07:48:10.995Z</time></trkpt><trkpt lat="45.48022810308744" lon="9.408106229485641"><ele>110.0</ele><time>2026-04-11T07:48:12.995Z</time></trkpt><trkpt lat="45.48024788408852" lon="9.408221723290588"><ele>110.0</ele><time>2026-04-11T07:48:14.995Z</time></trkpt><trkpt lat="45.480265478434426" lon="9.408326522849176"><ele>109.99999999999999</ele><time>2026-04-11T07:48:16.995Z</time></trkpt><trkpt lat="45.48028841354042" lon="9.408446657797388"><ele>110.0</ele><time>2026-04-11T07:48:18.995Z</time></trkpt><trkpt lat="45.480301701341716" lon="9.408550638971231"><ele>110.16666666666666</ele><time>2026-04-11T07:48:20.995Z</time></trkpt><trkpt lat="45.480303939456476" lon="9.408669819209603"><ele>110.33333333333333</ele><time>2026-04-11T07:48:23.996Z</time></trkpt><trkpt lat="45.48031734794152" lon="9.408763158789863"><ele>110.5</ele><time>2026-04-11T07:48:25.997Z</time></trkpt><trkpt lat="45.48034072825583" lon="9.408849603448598"><ele>110.66666666666666</ele><time>2026-04-11T07:48:28.996Z</time></trkpt><trkpt lat="45.480360806542734" lon="9.408979016272044"><ele>110.83333333333333</ele><time>2026-04-11T07:48:31.996Z</time></trkpt><trkpt lat="45.4803814163387" lon="9.409099766996531"><ele>111.0</ele><time>2026-04-11T07:48:33.997Z</time></trkpt><trkpt lat="45.480423991948754" lon="9.40919613593322"><ele>111.0</ele><time>2026-04-11T07:48:35.997Z</time></trkpt><trkpt lat="45.480469780243546" lon="9.409271375174303"><ele>111.0</ele><time>2026-04-11T07:48:37.997Z</time></trkpt><trkpt lat="45.48052672778578" lon="9.409402013273326"><ele>111.0</ele><time>2026-04-11T07:48:39.997Z</time></trkpt><trkpt lat="45.48057596197314" lon="9.409525268840838"><ele>111.0</ele><time>2026-04-11T07:48:41.997Z</time></trkpt><trkpt lat="45.480610046815144" lon="9.409667208360206"><ele>111.0</ele><time>2026-04-11T07:48:43.997Z</time></trkpt><trkpt lat="45.48063273322863" lon="9.409789938599163"><ele>111.0</ele><time>2026-04-11T07:48:45.997Z</time></trkpt><trkpt lat="45.48067294735976" lon="9.409952102924192"><ele>111.0</ele><time>2026-04-11T07:48:47.997Z</time></trkpt><trkpt lat="45.48069742579776" lon="9.410079780862208"><ele>111.0</ele><time>2026-04-11T07:48:49.997Z</time></trkpt><trkpt lat="45.48077063009275" lon="9.410192642972753"><ele>111.0</ele><time>2026-04-11T07:48:51.996Z</time></trkpt><trkpt lat="45.48078816789229" lon="9.41031108216246"><ele>111.0</ele><time>2026-04-11T07:48:53.996Z</time></trkpt><trkpt lat="45.480822530551144" lon="9.41043027105983"><ele>110.8</ele><time>2026-04-11T07:48:55.996Z</time></trkpt><trkpt lat="45.48085769450976" lon="9.410557659027399"><ele>110.6</ele><time>2026-04-11T07:48:57.996Z</time></trkpt><trkpt lat="45.48089274619455" lon="9.410672425886442"><ele>110.4</ele><time>2026-04-11T07:48:59.996Z</time></trkpt><trkpt lat="45.48092967306165" lon="9.41081383458754"><ele>110.2</ele><time>2026-04-11T07:49:01.996Z</time></trkpt><trkpt lat="45.48096975739399" lon="9.410948731613427"><ele>110.0</ele><time>2026-04-11T07:49:03.996Z</time></trkpt><trkpt lat="45.48099790865143" lon="9.411072316552126"><ele>110.0</ele><time>2026-04-11T07:49:05.996Z</time></trkpt><trkpt lat="45.48102832811201" lon="9.411222550334129"><ele>110.0</ele><time>2026-04-11T07:49:07.996Z</time></trkpt><trkpt lat="45.48103617590823" lon="9.411365948557979"><ele>110.0</ele><time>2026-04-11T07:49:09.996Z</time></trkpt><trkpt lat="45.480980676274754" lon="9.411503680819406"><ele>110.0</ele><time>2026-04-11T07:49:11.996Z</time></trkpt><trkpt lat="45.48090665304926" lon="9.411598453233731"><ele>110.0</ele><time>2026-04-11T07:49:13.996Z</time></trkpt><trkpt lat="45.48083696941469" lon="9.411713473822493"><ele>110.0</ele><time>2026-04-11T07:49:15.996Z</time></trkpt><trkpt lat="45.4807654262259" lon="9.411823547240484"><ele>110.0</ele><time>2026-04-11T07:49:17.996Z</time></trkpt><trkpt lat="45.48071593616809" lon="9.411943986906866"><ele>110.0</ele><time>2026-04-11T07:49:19.996Z</time></trkpt><trkpt lat="45.48067774662426" lon="9.41206853009784"><ele>110.0</ele><time>2026-04-11T07:49:21.996Z</time></trkpt><trkpt lat="45.48065199293176" lon="9.412217494038925"><ele>110.0</ele><time>2026-04-11T07:49:23.996Z</time></trkpt><trkpt lat="45.48063645995942" lon="9.412351486986754"><ele>110.16666666666666</ele><time>2026-04-11T07:49:25.996Z</time></trkpt><trkpt lat="45.480631185648384" lon="9.412471100535166"><ele>110.33333333333333</ele><time>2026-04-11T07:49:27.996Z</time></trkpt><trkpt lat="45.48062296558191" lon="9.412591896921674"><ele>110.5</ele><time>2026-04-11T07:49:29.996Z</time></trkpt><trkpt lat="45.48061505259662" lon="9.412714450184593"><ele>110.66666666666666</ele><time>2026-04-11T07:49:31.996Z</time></trkpt><trkpt lat="45.48063149985698" lon="9.412837091710879"><ele>110.83333333333333</ele><time>2026-04-11T07:49:33.996Z</time></trkpt><trkpt lat="45.480604403764744" lon="9.412952189609141"><ele>111.0</ele><time>2026-04-11T07:49:35.996Z</time></trkpt><trkpt lat="45.480623404040095" lon="9.413077248441326"><ele>111.0</ele><time>2026-04-11T07:49:37.996Z</time></trkpt><trkpt lat="45.480637407111395" lon="9.413211457067868"><ele>111.0</ele><time>2026-04-11T07:49:39.996Z</time></trkpt><trkpt lat="45.48064332781592" lon="9.413363503232882"><ele>111.0</ele><time>2026-04-11T07:49:41.996Z</time></trkpt><trkpt lat="45.48065116256293" lon="9.413511419512735"><ele>111.0</ele><time>2026-04-11T07:49:43.996Z</time></trkpt><trkpt lat="45.48065573415586" lon="9.413650810304748"><ele>111.0</ele><time>2026-04-11T07:49:45.996Z</time></trkpt><trkpt lat="45.48066135410237" lon="9.413785527120185"><ele>111.0</ele><time>2026-04-11T07:49:47.996Z</time></trkpt><trkpt lat="45.48066497644878" lon="9.413918656832012"><ele>111.0</ele><time>2026-04-11T07:49:49.996Z</time></trkpt><trkpt lat="45.480672841179135" lon="9.414050884702863"><ele>111.0</ele><time>2026-04-11T07:49:51.996Z</time></trkpt><trkpt lat="45.480697707536244" lon="9.414189799711263"><ele>111.0</ele><time>2026-04-11T07:49:53.995Z</time></trkpt><trkpt lat="45.48071616182405" lon="9.414324843192592"><ele>111.0</ele><time>2026-04-11T07:49:55.995Z</time></trkpt><trkpt lat="45.48074945927431" lon="9.414455176427973"><ele>111.0</ele><time>2026-04-11T07:49:57.995Z</time></trkpt><trkpt lat="45.480749366541595" lon="9.414599720674397"><ele>111.0</ele><time>2026-04-11T07:49:59.995Z</time></trkpt><trkpt lat="45.48078702829181" lon="9.414723531113067"><ele>111.0</ele><time>2026-04-11T07:50:01.995Z</time></trkpt><trkpt lat="45.480846455572916" lon="9.414791979091797"><ele>111.0</ele><time>2026-04-11T07:50:03.995Z</time></trkpt><trkpt lat="45.480870873071055" lon="9.41487797360943"><ele>111.0</ele><time>2026-04-11T07:50:06.995Z</time></trkpt><trkpt lat="45.48088652316952" lon="9.414976057395151"><ele>111.0</ele><time>2026-04-11T07:50:08.995Z</time></trkpt><trkpt lat="45.480893678090034" lon="9.415098131759432"><ele>111.0</ele><time>2026-04-11T07:50:10.995Z</time></trkpt><trkpt lat="45.48088996961289" lon="9.415220747495754"><ele>111.0</ele><time>2026-04-11T07:50:12.995Z</time></trkpt><trkpt lat="45.48086016457856" lon="9.415344324363122"><ele>111.0</ele><time>2026-04-11T07:50:14.995Z</time></trkpt><trkpt lat="45.48082657619932" lon="9.415473505689755"><ele>111.0</ele><time>2026-04-11T07:50:16.995Z</time></trkpt><trkpt lat="45.48079883319589" lon="9.415609303346038"><ele>111.0</ele><time>2026-04-11T07:50:18.995Z</time></trkpt><trkpt lat="45.480763489831496" lon="9.415746350055135"><ele>111.0</ele><time>2026-04-11T07:50:20.995Z</time></trkpt><trkpt lat="45.48073488741907" lon="9.415874573307278"><ele>111.0</ele><time>2026-04-11T07:50:22.995Z</time></trkpt><trkpt lat="45.48070411639859" lon="9.416013017838244"><ele>111.0</ele><time>2026-04-11T07:50:24.995Z</time></trkpt><trkpt lat="45.480685994491914" lon="9.416146248257855"><ele>111.0</ele><time>2026-04-11T07:50:26.995Z</time></trkpt><trkpt lat="45.48064939574456" lon="9.416295290258244"><ele>111.0</ele><time>2026-04-11T07:50:28.997Z</time></trkpt><trkpt lat="45.48063911601668" lon="9.416438318919829"><ele>111.0</ele><time>2026-04-11T07:50:30.997Z</time></trkpt><trkpt lat="45.480625940838735" lon="9.41658596246157"><ele>111.0</ele><time>2026-04-11T07:50:32.997Z</time></trkpt><trkpt lat="45.48059705951589" lon="9.41674228434183"><ele>111.0</ele><time>2026-04-11T07:50:34.996Z</time></trkpt><trkpt lat="45.48058362875091" lon="9.416893137605427"><ele>111.0</ele><time>2026-04-11T07:50:36.996Z</time></trkpt><trkpt lat="45.480572733782324" lon="9.417044926676398"><ele>111.0</ele><time>2026-04-11T07:50:38.997Z</time></trkpt><trkpt lat="45.480557327032244" lon="9.417210648501062"><ele>110.6</ele><time>2026-04-11T07:50:40.996Z</time></trkpt><trkpt lat="45.48055159537153" lon="9.417360455553576"><ele>110.19999999999999</ele><time>2026-04-11T07:50:42.996Z</time></trkpt><trkpt lat="45.480548820013134" lon="9.417498544646277"><ele>109.80000000000001</ele><time>2026-04-11T07:50:44.996Z</time></trkpt><trkpt lat="45.48053518970449" lon="9.417638956059859"><ele>109.4</ele><time>2026-04-11T07:50:46.996Z</time></trkpt><trkpt lat="45.48053121413468" lon="9.417781621286663"><ele>109.0</ele><time>2026-04-11T07:50:48.996Z</time></trkpt><trkpt lat="45.48052786301788" lon="9.417928926810093"><ele>109.0</ele><time>2026-04-11T07:50:50.996Z</time></trkpt><trkpt lat="45.48051861893495" lon="9.41807672175823"><ele>109.0</ele><time>2026-04-11T07:50:52.996Z</time></trkpt><trkpt lat="45.4805148599279" lon="9.418209636798476"><ele>109.0</ele><time>2026-04-11T07:50:54.996Z</time></trkpt><trkpt lat="45.48050915197197" lon="9.418345314813896"><ele>109.0</ele><time>2026-04-11T07:50:56.996Z</time></trkpt><trkpt lat="45.48050511057559" lon="9.418493286972579"><ele>109.0</ele><time>2026-04-11T07:50:58.996Z</time></trkpt><trkpt lat="45.480504719417645" lon="9.41863651732366"><ele>109.0</ele><time>2026-04-11T07:51:00.996Z</time></trkpt><trkpt lat="45.48050094318475" lon="9.418787157389282"><ele>109.0</ele><time>2026-04-11T07:51:02.996Z</time></trkpt><trkpt lat="45.48049564791955" lon="9.418944172986793"><ele>109.0</ele><time>2026-04-11T07:51:04.996Z</time></trkpt><trkpt lat="45.48049629706213" lon="9.419094297042275"><ele>109.0</ele><time>2026-04-11T07:51:06.996Z</time></trkpt><trkpt lat="45.4804962150317" lon="9.419245740500854"><ele>109.0</ele><time>2026-04-11T07:51:08.996Z</time></trkpt><trkpt lat="45.480488548213415" lon="9.419401844381976"><ele>109.0</ele><time>2026-04-11T07:51:10.996Z</time></trkpt><trkpt lat="45.480478847444985" lon="9.41955787042551"><ele>109.0</ele><time>2026-04-11T07:51:12.996Z</time></trkpt><trkpt lat="45.480474549910625" lon="9.419713655118532"><ele>109.0</ele><time>2026-04-11T07:51:14.996Z</time></trkpt><trkpt lat="45.48047217136343" lon="9.41986800827751"><ele>109.0</ele><time>2026-04-11T07:51:16.996Z</time></trkpt><trkpt lat="45.48046682089176" lon="9.420021436357343"><ele>109.0</ele><time>2026-04-11T07:51:18.996Z</time></trkpt><trkpt lat="45.4804631042609" lon="9.420155079750378"><ele>109.0</ele><time>2026-04-11T07:51:20.996Z</time></trkpt><trkpt lat="45.48045790896051" lon="9.420299742057871"><ele>109.0</ele><time>2026-04-11T07:51:22.996Z</time></trkpt><trkpt lat="45.48045450198131" lon="9.420443770152028"><ele>109.0</ele><time>2026-04-11T07:51:24.996Z</time></trkpt><trkpt lat="45.480442606203" lon="9.420601807506943"><ele>109.0</ele><time>2026-04-11T07:51:26.995Z</time></trkpt><trkpt lat="45.480439990182724" lon="9.420758444979512"><ele>109.0</ele><time>2026-04-11T07:51:28.995Z</time></trkpt><trkpt lat="45.48043598663933" lon="9.420917361171302"><ele>109.0</ele><time>2026-04-11T07:51:30.995Z</time></trkpt><trkpt lat="45.48043415502376" lon="9.421075614995146"><ele>109.0</ele><time>2026-04-11T07:51:32.995Z</time></trkpt><trkpt lat="45.48042912770927" lon="9.421228799305227"><ele>109.0</ele><time>2026-04-11T07:51:34.995Z</time></trkpt><trkpt lat="45.480426971451344" lon="9.421381927196993"><ele>109.0</ele><time>2026-04-11T07:51:36.995Z</time></trkpt><trkpt lat="45.480427360557655" lon="9.421532370797227"><ele>109.0</ele><time>2026-04-11T07:51:38.995Z</time></trkpt><trkpt lat="45.48042020451916" lon="9.421686301908373"><ele>109.0</ele><time>2026-04-11T07:51:40.995Z</time></trkpt><trkpt lat="45.480415807515556" lon="9.421836711228865"><ele>109.0</ele><time>2026-04-11T07:51:42.995Z</time></trkpt><trkpt lat="45.480421692030326" lon="9.421986818176194"><ele>109.0</ele><time>2026-04-11T07:51:44.995Z</time></trkpt><trkpt lat="45.48041058952162" lon="9.422148406589994"><ele>109.0</ele><time>2026-04-11T07:51:46.995Z</time></trkpt><trkpt lat="45.48040222955215" lon="9.422304450936496"><ele>109.0</ele><time>2026-04-11T07:51:48.995Z</time></trkpt><trkpt lat="45.48040267911928" lon="9.422461025631216"><ele>109.0</ele><time>2026-04-11T07:51:50.995Z</time></trkpt><trkpt lat="45.480398423172055" lon="9.422621968578364"><ele>109.0</ele><time>2026-04-11T07:51:52.995Z</time></trkpt><trkpt lat="45.480392873214306" lon="9.422775985784765"><ele>109.0</ele><time>2026-04-11T07:51:54.995Z</time></trkpt><trkpt lat="45.48039335572915" lon="9.422930656166786"><ele>109.0</ele><time>2026-04-11T07:51:56.995Z</time></trkpt><trkpt lat="45.480383921766226" lon="9.423084173702449"><ele>109.0</ele><time>2026-04-11T07:51:58.995Z</time></trkpt><trkpt lat="45.48038365318241" lon="9.423234480572102"><ele>108.80000000000001</ele><time>2026-04-11T07:52:00.995Z</time></trkpt><trkpt lat="45.48037184207481" lon="9.423389677991999"><ele>108.60000000000001</ele><time>2026-04-11T07:52:02.995Z</time></trkpt><trkpt lat="45.48037498959779" lon="9.42353955339409"><ele>108.4</ele><time>2026-04-11T07:52:04.995Z</time></trkpt><trkpt lat="45.48036499187831" lon="9.423700656043605"><ele>108.2</ele><time>2026-04-11T07:52:06.995Z</time></trkpt><trkpt lat="45.480359985222535" lon="9.423857617749583"><ele>108.0</ele><time>2026-04-11T07:52:08.995Z</time></trkpt><trkpt lat="45.480351095330214" lon="9.424016427461442"><ele>108.60000000000001</ele><time>2026-04-11T07:52:10.995Z</time></trkpt><trkpt lat="45.48035195351139" lon="9.424167994048418"><ele>109.20000000000002</ele><time>2026-04-11T07:52:12.995Z</time></trkpt><trkpt lat="45.480338939549696" lon="9.424325433142268"><ele>109.8</ele><time>2026-04-11T07:52:14.995Z</time></trkpt><trkpt lat="45.48033891291472" lon="9.424479603447047"><ele>110.4</ele><time>2026-04-11T07:52:16.995Z</time></trkpt><trkpt lat="45.48033304088632" lon="9.424631977656707"><ele>111.0</ele><time>2026-04-11T07:52:18.995Z</time></trkpt><trkpt lat="45.480327370408645" lon="9.424781292886523"><ele>111.0</ele><time>2026-04-11T07:52:20.995Z</time></trkpt><trkpt lat="45.48032030841032" lon="9.42493535760543"><ele>111.0</ele><time>2026-04-11T07:52:22.995Z</time></trkpt><trkpt lat="45.480320429249815" lon="9.425084455684699"><ele>111.0</ele><time>2026-04-11T07:52:24.995Z</time></trkpt><trkpt lat="45.48031726513992" lon="9.425240059619846"><ele>111.0</ele><time>2026-04-11T07:52:26.994Z</time></trkpt><trkpt lat="45.48031292615254" lon="9.42539566546321"><ele>111.0</ele><time>2026-04-11T07:52:28.994Z</time></trkpt><trkpt lat="45.48031073421315" lon="9.425550705919964"><ele>110.0</ele><time>2026-04-11T07:52:30.994Z</time></trkpt><trkpt lat="45.48030266544751" lon="9.425711294135581"><ele>109.0</ele><time>2026-04-11T07:52:32.994Z</time></trkpt><trkpt lat="45.48029389522806" lon="9.425863881747643"><ele>108.0</ele><time>2026-04-11T07:52:34.996Z</time></trkpt><trkpt lat="45.48028626973007" lon="9.426007947246465"><ele>107.0</ele><time>2026-04-11T07:52:36.997Z</time></trkpt><trkpt lat="45.48027409111582" lon="9.426141556062657"><ele>106.0</ele><time>2026-04-11T07:52:38.997Z</time></trkpt><trkpt lat="45.48026319966663" lon="9.426265161534655"><ele>106.28571428571429</ele><time>2026-04-11T07:52:40.996Z</time></trkpt><trkpt lat="45.48024588888369" lon="9.426379497509876"><ele>106.57142857142857</ele><time>2026-04-11T07:52:42.996Z</time></trkpt><trkpt lat="45.48022865493719" lon="9.426476918074604"><ele>106.85714285714286</ele><time>2026-04-11T07:52:46.996Z</time></trkpt><trkpt lat="45.48020204005545" lon="9.426571941338766"><ele>107.14285714285714</ele><time>2026-04-11T07:52:58.996Z</time></trkpt><trkpt lat="45.480159005208655" lon="9.426651949294802"><ele>107.42857142857142</ele><time>2026-04-11T07:53:00.996Z</time></trkpt><trkpt lat="45.480135132956065" lon="9.426739013250774"><ele>107.71428571428571</ele><time>2026-04-11T07:53:02.996Z</time></trkpt><trkpt lat="45.48012939374437" lon="9.426848611967172"><ele>108.0</ele><time>2026-04-11T07:53:04.996Z</time></trkpt><trkpt lat="45.480164800405966" lon="9.426939087814365"><ele>108.0</ele><time>2026-04-11T07:53:06.996Z</time></trkpt><trkpt lat="45.48020115483475" lon="9.427036134446949"><ele>108.0</ele><time>2026-04-11T07:53:08.996Z</time></trkpt><trkpt lat="45.48024130672802" lon="9.427124031566708"><ele>108.0</ele><time>2026-04-11T07:53:10.996Z</time></trkpt><trkpt lat="45.480279018674985" lon="9.427236172792247"><ele>108.0</ele><time>2026-04-11T07:53:12.996Z</time></trkpt><trkpt lat="45.48031157354065" lon="9.427355909127167"><ele>108.0</ele><time>2026-04-11T07:53:14.996Z</time></trkpt><trkpt lat="45.48033956346311" lon="9.427489038994588"><ele>108.0</ele><time>2026-04-11T07:53:16.996Z</time></trkpt><trkpt lat="45.480346591369205" lon="9.427627412067066"><ele>108.60000000000001</ele><time>2026-04-11T07:53:18.996Z</time></trkpt><trkpt lat="45.48035633451638" lon="9.427762505034758"><ele>109.20000000000002</ele><time>2026-04-11T07:53:20.996Z</time></trkpt><trkpt lat="45.48036824932234" lon="9.427901447797009"><ele>109.8</ele><time>2026-04-11T07:53:22.996Z</time></trkpt><trkpt lat="45.4803825421145" lon="9.428034152463688"><ele>110.4</ele><time>2026-04-11T07:53:24.996Z</time></trkpt><trkpt lat="45.48039783096442" lon="9.428172348211625"><ele>111.0</ele><time>2026-04-11T07:53:26.996Z</time></trkpt><trkpt lat="45.480397235204734" lon="9.428314399617339"><ele>110.8</ele><time>2026-04-11T07:53:28.996Z</time></trkpt><trkpt lat="45.480412564721604" lon="9.4284456670968"><ele>110.6</ele><time>2026-04-11T07:53:30.996Z</time></trkpt><trkpt lat="45.48043072055508" lon="9.428570003589217"><ele>110.4</ele><time>2026-04-11T07:53:32.996Z</time></trkpt><trkpt lat="45.480456035620584" lon="9.428707924475455"><ele>110.2</ele><time>2026-04-11T07:53:34.996Z</time></trkpt><trkpt lat="45.48046067029767" lon="9.428853846075906"><ele>110.0</ele><time>2026-04-11T07:53:36.996Z</time></trkpt><trkpt lat="45.480459142235524" lon="9.429002626054297"><ele>110.0</ele><time>2026-04-11T07:53:38.996Z</time></trkpt><trkpt lat="45.48046053868923" lon="9.429158177306661"><ele>110.0</ele><time>2026-04-11T07:53:40.996Z</time></trkpt><trkpt lat="45.480464715274785" lon="9.42931809610414"><ele>110.0</ele><time>2026-04-11T07:53:42.996Z</time></trkpt><trkpt lat="45.48046254367233" lon="9.42945321830937"><ele>110.0</ele><time>2026-04-11T07:53:44.995Z</time></trkpt><trkpt lat="45.48044959966527" lon="9.429581198759285"><ele>110.0</ele><time>2026-04-11T07:53:46.995Z</time></trkpt><trkpt lat="45.480467906903385" lon="9.429710148351397"><ele>109.8</ele><time>2026-04-11T07:53:48.995Z</time></trkpt><trkpt lat="45.48047706925508" lon="9.429846577992818"><ele>109.6</ele><time>2026-04-11T07:53:50.995Z</time></trkpt><trkpt lat="45.48048218122556" lon="9.430008797739228"><ele>109.4</ele><time>2026-04-11T07:53:52.995Z</time></trkpt><trkpt lat="45.48047765275325" lon="9.43010062084925"><ele>109.2</ele><time>2026-04-11T07:53:53.995Z</time></trkpt><trkpt lat="45.480399940473646" lon="9.430226244537218"><ele>109.0</ele><time>2026-04-11T07:53:55.995Z</time></trkpt><trkpt lat="45.48030338949835" lon="9.430315541863042"><ele>109.33333333333334</ele><time>2026-04-11T07:53:57.995Z</time></trkpt><trkpt lat="45.48023888110652" lon="9.430363041760689"><ele>109.66666666666667</ele><time>2026-04-11T07:53:58.995Z</time></trkpt><trkpt lat="45.48016767589876" lon="9.430404131842858"><ele>110.0</ele><time>2026-04-11T07:53:59.995Z</time></trkpt><trkpt lat="45.48007555437319" lon="9.43047473976384"><ele>110.33333333333334</ele><time>2026-04-11T07:54:01.995Z</time></trkpt><trkpt lat="45.48000594044245" lon="9.430545587551547"><ele>110.66666666666667</ele><time>2026-04-11T07:54:03.995Z</time></trkpt><trkpt lat="45.479924450482216" lon="9.430569110880612"><ele>111.0</ele><time>2026-04-11T07:54:05.995Z</time></trkpt><trkpt lat="45.47986096217062" lon="9.430609294677042"><ele>111.0</ele><time>2026-04-11T07:54:07.995Z</time></trkpt><trkpt lat="45.47979361549062" lon="9.430696847201903"><ele>111.0</ele><time>2026-04-11T07:54:08.995Z</time></trkpt><trkpt lat="45.47974102658417" lon="9.430756122616204"><ele>111.0</ele><time>2026-04-11T07:54:09.995Z</time></trkpt><trkpt lat="45.47964027444481" lon="9.430803886258389"><ele>111.0</ele><time>2026-04-11T07:54:10.995Z</time></trkpt><trkpt lat="45.47956720909607" lon="9.430882531293129"><ele>111.0</ele><time>2026-04-11T07:54:11.995Z</time></trkpt><trkpt lat="45.47948044791042" lon="9.430947050237053"><ele>110.6</ele><time>2026-04-11T07:54:13.995Z</time></trkpt><trkpt lat="45.4793816092542" lon="9.431031639933348"><ele>110.19999999999999</ele><time>2026-04-11T07:54:15.995Z</time></trkpt><trkpt lat="45.47932145576349" lon="9.431078223067995"><ele>109.80000000000001</ele><time>2026-04-11T07:54:16.995Z</time></trkpt><trkpt lat="45.479227791188436" lon="9.431143029783623"><ele>109.4</ele><time>2026-04-11T07:54:18.995Z</time></trkpt><trkpt lat="45.47913665043755" lon="9.431210576682124"><ele>109.0</ele><time>2026-04-11T07:54:20.995Z</time></trkpt><trkpt lat="45.4790584197228" lon="9.431282005201158"><ele>108.83333333333334</ele><time>2026-04-11T07:54:22.995Z</time></trkpt><trkpt lat="45.4790176128992" lon="9.431364491063912"><ele>108.66666666666667</ele><time>2026-04-11T07:54:24.995Z</time></trkpt><trkpt lat="45.47904074948522" lon="9.43147834523128"><ele>108.5</ele><time>2026-04-11T07:54:27.995Z</time></trkpt><trkpt lat="45.47907110190971" lon="9.431559835400638"><ele>108.33333333333334</ele><time>2026-04-11T07:54:29.995Z</time></trkpt><trkpt lat="45.479121934452294" lon="9.431686347844076"><ele>108.16666666666667</ele><time>2026-04-11T07:54:32.995Z</time></trkpt><trkpt lat="45.47921929382546" lon="9.431790847986987"><ele>108.0</ele><time>2026-04-11T07:54:34.995Z</time></trkpt><trkpt lat="45.479268849247454" lon="9.431873539069528"><ele>108.0</ele><time>2026-04-11T07:54:35.995Z</time></trkpt><trkpt lat="45.47929520738081" lon="9.431970110264926"><ele>108.0</ele><time>2026-04-11T07:54:36.995Z</time></trkpt><trkpt lat="45.47933989313774" lon="9.432134418606061"><ele>108.0</ele><time>2026-04-11T07:54:38.995Z</time></trkpt><trkpt lat="45.47937494099599" lon="9.432215083958868"><ele>108.0</ele><time>2026-04-11T07:54:39.996Z</time></trkpt><trkpt lat="45.47940085644735" lon="9.432300492384286"><ele>108.0</ele><time>2026-04-11T07:54:40.996Z</time></trkpt><trkpt lat="45.4794020426729" lon="9.432393043993558"><ele>108.0</ele><time>2026-04-11T07:54:41.996Z</time></trkpt><trkpt lat="45.47945614205355" lon="9.432551280088033"><ele>108.0</ele><time>2026-04-11T07:54:43.996Z</time></trkpt><trkpt lat="45.47950250800353" lon="9.432697084993249"><ele>108.00000000000001</ele><time>2026-04-11T07:54:45.996Z</time></trkpt><trkpt lat="45.4795309508163" lon="9.432848469096072"><ele>108.00000000000001</ele><time>2026-04-11T07:54:47.996Z</time></trkpt><trkpt lat="45.479565752545184" lon="9.432987755505213"><ele>108.0</ele><time>2026-04-11T07:54:49.996Z</time></trkpt><trkpt lat="45.47961109841818" lon="9.433141453466735"><ele>108.0</ele><time>2026-04-11T07:54:51.997Z</time></trkpt><trkpt lat="45.47965267903108" lon="9.433293893768942"><ele>108.0</ele><time>2026-04-11T07:54:53.997Z</time></trkpt><trkpt lat="45.47970432787565" lon="9.433424290305087"><ele>108.00000000000001</ele><time>2026-04-11T07:54:55.997Z</time></trkpt><trkpt lat="45.47971834913443" lon="9.433576604962422"><ele>108.00000000000001</ele><time>2026-04-11T07:54:57.997Z</time></trkpt><trkpt lat="45.479757898033064" lon="9.433690387853252"><ele>108.0</ele><time>2026-04-11T07:54:59.996Z</time></trkpt><trkpt lat="45.47980338636956" lon="9.433778846072618"><ele>108.0</ele><time>2026-04-11T07:55:01.996Z</time></trkpt><trkpt lat="45.479864329909844" lon="9.433843025026095"><ele>108.60000000000001</ele><time>2026-04-11T07:55:03.996Z</time></trkpt><trkpt lat="45.47991065930678" lon="9.43391481562669"><ele>109.20000000000002</ele><time>2026-04-11T07:55:05.996Z</time></trkpt><trkpt lat="45.479962953861424" lon="9.43404164982441"><ele>109.8</ele><time>2026-04-11T07:55:07.996Z</time></trkpt><trkpt lat="45.480046178624505" lon="9.434149189904078"><ele>110.4</ele><time>2026-04-11T07:55:09.996Z</time></trkpt><trkpt lat="45.480111118686416" lon="9.434278588367786"><ele>111.0</ele><time>2026-04-11T07:55:11.996Z</time></trkpt><trkpt lat="45.48014381192799" lon="9.43443128968548"><ele>111.0</ele><time>2026-04-11T07:55:13.996Z</time></trkpt><trkpt lat="45.48018052975702" lon="9.434557426699442"><ele>111.0</ele><time>2026-04-11T07:55:15.996Z</time></trkpt><trkpt lat="45.480185980485544" lon="9.434679682157242"><ele>111.0</ele><time>2026-04-11T07:55:17.996Z</time></trkpt><trkpt lat="45.4802239882597" lon="9.434772917969603"><ele>111.0</ele><time>2026-04-11T07:55:19.996Z</time></trkpt><trkpt lat="45.48029430769348" lon="9.434775669849913"><ele>111.0</ele><time>2026-04-11T07:55:22.996Z</time></trkpt><trkpt lat="45.48035631374688" lon="9.434709080384245"><ele>111.0</ele><time>2026-04-11T07:55:24.996Z</time></trkpt><trkpt lat="45.480438662255075" lon="9.434666935980363"><ele>110.33333333333333</ele><time>2026-04-11T07:55:26.996Z</time></trkpt><trkpt lat="45.4805112208344" lon="9.434656771420446"><ele>109.66666666666666</ele><time>2026-04-11T07:55:28.996Z</time></trkpt><trkpt lat="45.48056333171285" lon="9.43471564028965"><ele>109.0</ele><time>2026-04-11T07:55:30.996Z</time></trkpt><trkpt lat="45.48059451684403" lon="9.434827258909763"><ele>108.33333333333333</ele><time>2026-04-11T07:55:32.996Z</time></trkpt><trkpt lat="45.48060465358067" lon="9.434961392949177"><ele>107.66666666666666</ele><time>2026-04-11T07:55:34.996Z</time></trkpt><trkpt lat="45.480610517501354" lon="9.435103014699255"><ele>107.0</ele><time>2026-04-11T07:55:36.996Z</time></trkpt><trkpt lat="45.480616300059786" lon="9.435247390239056"><ele>107.0</ele><time>2026-04-11T07:55:38.996Z</time></trkpt><trkpt lat="45.480623952667706" lon="9.435388322525496"><ele>106.99999999999999</ele><time>2026-04-11T07:55:40.996Z</time></trkpt><trkpt lat="45.48063070459595" lon="9.435534800601395"><ele>106.99999999999999</ele><time>2026-04-11T07:55:42.996Z</time></trkpt><trkpt lat="45.4806383366729" lon="9.435678027335394"><ele>107.0</ele><time>2026-04-11T07:55:44.996Z</time></trkpt><trkpt lat="45.480643682531955" lon="9.43582332249396"><ele>107.0</ele><time>2026-04-11T07:55:46.996Z</time></trkpt><trkpt lat="45.48064868665269" lon="9.435973281331833"><ele>107.0</ele><time>2026-04-11T07:55:48.996Z</time></trkpt><trkpt lat="45.480656724488135" lon="9.436122699052813"><ele>106.99999999999999</ele><time>2026-04-11T07:55:50.996Z</time></trkpt><trkpt lat="45.48066084198805" lon="9.43627160346144"><ele>106.99999999999999</ele><time>2026-04-11T07:55:52.996Z</time></trkpt><trkpt lat="45.480669943376334" lon="9.436425188500651"><ele>107.0</ele><time>2026-04-11T07:55:54.996Z</time></trkpt><trkpt lat="45.480695689115" lon="9.436572501255496"><ele>107.0</ele><time>2026-04-11T07:55:56.996Z</time></trkpt><trkpt lat="45.480752239099004" lon="9.436690319047266"><ele>107.0</ele><time>2026-04-11T07:55:58.996Z</time></trkpt><trkpt lat="45.4807882043337" lon="9.436829838426034"><ele>106.99999999999999</ele><time>2026-04-11T07:56:00.995Z</time></trkpt><trkpt lat="45.48079129167802" lon="9.436976581776797"><ele>106.99999999999999</ele><time>2026-04-11T07:56:02.995Z</time></trkpt><trkpt lat="45.480766322970595" lon="9.437125120909869"><ele>107.0</ele><time>2026-04-11T07:56:04.995Z</time></trkpt><trkpt lat="45.4807465125371" lon="9.437275173150326"><ele>107.0</ele><time>2026-04-11T07:56:06.995Z</time></trkpt><trkpt lat="45.48072917487588" lon="9.437435141215891"><ele>107.0</ele><time>2026-04-11T07:56:08.995Z</time></trkpt><trkpt lat="45.48071792720553" lon="9.437591225965893"><ele>106.99999999999999</ele><time>2026-04-11T07:56:10.995Z</time></trkpt><trkpt lat="45.480714798297505" lon="9.437742505562133"><ele>106.99999999999999</ele><time>2026-04-11T07:56:12.995Z</time></trkpt><trkpt lat="45.480717545439" lon="9.43788650072521"><ele>107.0</ele><time>2026-04-11T07:56:14.995Z</time></trkpt><trkpt lat="45.480692599817075" lon="9.438031200313603"><ele>107.0</ele><time>2026-04-11T07:56:16.995Z</time></trkpt><trkpt lat="45.48062887120737" lon="9.438146062855498"><ele>107.0</ele><time>2026-04-11T07:56:18.995Z</time></trkpt><trkpt lat="45.48052682746514" lon="9.43821955681086"><ele>107.0</ele><time>2026-04-11T07:56:20.995Z</time></trkpt><trkpt lat="45.48041748006569" lon="9.438261327309487"><ele>107.0</ele><time>2026-04-11T07:56:22.995Z</time></trkpt><trkpt lat="45.480308320174444" lon="9.438301657801732"><ele>107.0</ele><time>2026-04-11T07:56:24.995Z</time></trkpt><trkpt lat="45.480192666734425" lon="9.43833533886295"><ele>107.0</ele><time>2026-04-11T07:56:26.995Z</time></trkpt><trkpt lat="45.48009455518908" lon="9.438369843356103"><ele>106.99999999999999</ele><time>2026-04-11T07:56:28.995Z</time></trkpt><trkpt lat="45.479993689411366" lon="9.438401141728496"><ele>106.99999999999999</ele><time>2026-04-11T07:56:30.995Z</time></trkpt><trkpt lat="45.47989898104406" lon="9.438446797727918"><ele>107.0</ele><time>2026-04-11T07:56:32.995Z</time></trkpt><trkpt lat="45.47978536742939" lon="9.438492740380786"><ele>107.0</ele><time>2026-04-11T07:56:34.995Z</time></trkpt><trkpt lat="45.47967797699239" lon="9.438533843411276"><ele>107.0</ele><time>2026-04-11T07:56:36.995Z</time></trkpt><trkpt lat="45.47958056033652" lon="9.438576346607878"><ele>106.99999999999999</ele><time>2026-04-11T07:56:38.995Z</time></trkpt><trkpt lat="45.47947156470191" lon="9.438600443622024"><ele>106.99999999999999</ele><time>2026-04-11T07:56:40.995Z</time></trkpt><trkpt lat="45.47936906861245" lon="9.43864413845815"><ele>107.0</ele><time>2026-04-11T07:56:42.995Z</time></trkpt><trkpt lat="45.47926442264237" lon="9.438684666595528"><ele>107.0</ele><time>2026-04-11T07:56:44.995Z</time></trkpt><trkpt lat="45.47915790825667" lon="9.438726909872"><ele>107.0</ele><time>2026-04-11T07:56:46.996Z</time></trkpt><trkpt lat="45.47905538291861" lon="9.438767468191982"><ele>106.99999999999999</ele><time>2026-04-11T07:56:48.996Z</time></trkpt><trkpt lat="45.47898745616386" lon="9.438788801651581"><ele>106.99999999999999</ele><time>2026-04-11T07:56:49.996Z</time></trkpt><trkpt lat="45.4789223104485" lon="9.43880333872764"><ele>107.0</ele><time>2026-04-11T07:56:50.996Z</time></trkpt><trkpt lat="45.47881067424028" lon="9.438833151951293"><ele>107.0</ele><time>2026-04-11T07:56:52.996Z</time></trkpt><trkpt lat="45.47868967678019" lon="9.438872030131815"><ele>107.0</ele><time>2026-04-11T07:56:54.996Z</time></trkpt><trkpt lat="45.47859168377301" lon="9.438906597836786"><ele>106.99999999999999</ele><time>2026-04-11T07:56:56.996Z</time></trkpt><trkpt lat="45.4784841644332" lon="9.438944342574093"><ele>106.99999999999999</ele><time>2026-04-11T07:56:58.996Z</time></trkpt><trkpt lat="45.47842187586326" lon="9.438960322457795"><ele>107.0</ele><time>2026-04-11T07:56:59.996Z</time></trkpt><trkpt lat="45.478317598500226" lon="9.439002624281159"><ele>107.0</ele><time>2026-04-11T07:57:01.996Z</time></trkpt><trkpt lat="45.47819857532598" lon="9.439041159374536"><ele>107.0</ele><time>2026-04-11T07:57:03.996Z</time></trkpt><trkpt lat="45.478093203661594" lon="9.439078016286933"><ele>106.99999999999999</ele><time>2026-04-11T07:57:05.996Z</time></trkpt><trkpt lat="45.4779905959317" lon="9.439113640763793"><ele>106.99999999999999</ele><time>2026-04-11T07:57:07.996Z</time></trkpt><trkpt lat="45.47787114079146" lon="9.439151420362425"><ele>107.0</ele><time>2026-04-11T07:57:09.996Z</time></trkpt><trkpt lat="45.47776393894837" lon="9.439180768393344"><ele>107.0</ele><time>2026-04-11T07:57:11.996Z</time></trkpt><trkpt lat="45.47766265348413" lon="9.439218292558138"><ele>107.0</ele><time>2026-04-11T07:57:13.996Z</time></trkpt><trkpt lat="45.47755884111457" lon="9.43924730999865"><ele>106.99999999999999</ele><time>2026-04-11T07:57:15.996Z</time></trkpt><trkpt lat="45.47746057251803" lon="9.439292573820557"><ele>106.99999999999999</ele><time>2026-04-11T07:57:17.996Z</time></trkpt><trkpt lat="45.47737236853022" lon="9.439317019555817"><ele>107.0</ele><time>2026-04-11T07:57:19.996Z</time></trkpt><trkpt lat="45.47727671977518" lon="9.439360428824921"><ele>107.0</ele><time>2026-04-11T07:57:21.996Z</time></trkpt><trkpt lat="45.4771604307187" lon="9.43939875197217"><ele>107.19999999999999</ele><time>2026-04-11T07:57:23.996Z</time></trkpt><trkpt lat="45.47706022672459" lon="9.439430109031528"><ele>107.39999999999999</ele><time>2026-04-11T07:57:25.996Z</time></trkpt><trkpt lat="45.476945051535054" lon="9.439456015702365"><ele>107.60000000000001</ele><time>2026-04-11T07:57:27.996Z</time></trkpt><trkpt lat="45.4768645967857" lon="9.439501515192859"><ele>107.80000000000001</ele><time>2026-04-11T07:57:29.996Z</time></trkpt><trkpt lat="45.47678034752007" lon="9.43954085487727"><ele>108.0</ele><time>2026-04-11T07:57:31.996Z</time></trkpt><trkpt lat="45.476755052147034" lon="9.439669560884415"><ele>108.0</ele><time>2026-04-11T07:57:33.996Z</time></trkpt><trkpt lat="45.476730115717245" lon="9.439787605274757"><ele>108.0</ele><time>2026-04-11T07:57:35.996Z</time></trkpt><trkpt lat="45.476690203064166" lon="9.43988255004183"><ele>108.0</ele><time>2026-04-11T07:57:37.996Z</time></trkpt><trkpt lat="45.4766866543595" lon="9.440003726177245"><ele>108.0</ele><time>2026-04-11T07:57:39.996Z</time></trkpt><trkpt lat="45.47671959283583" lon="9.440105169947149"><ele>108.0</ele><time>2026-04-11T07:57:41.996Z</time></trkpt><trkpt lat="45.476758830297264" lon="9.44022220615638"><ele>108.0</ele><time>2026-04-11T07:57:43.996Z</time></trkpt><trkpt lat="45.47680293524903" lon="9.440350954130635"><ele>108.0</ele><time>2026-04-11T07:57:45.996Z</time></trkpt><trkpt lat="45.47682894689393" lon="9.440458583976124"><ele>108.00000000000001</ele><time>2026-04-11T07:57:47.996Z</time></trkpt><trkpt lat="45.476872506215884" lon="9.440590847777273"><ele>108.00000000000001</ele><time>2026-04-11T07:57:49.996Z</time></trkpt><trkpt lat="45.476927200546434" lon="9.440729180796211"><ele>108.0</ele><time>2026-04-11T07:57:51.996Z</time></trkpt><trkpt lat="45.47697536500305" lon="9.440868268434063"><ele>108.0</ele><time>2026-04-11T07:57:53.996Z</time></trkpt><trkpt lat="45.477010122667316" lon="9.440990785769177"><ele>108.0</ele><time>2026-04-11T07:57:55.995Z</time></trkpt><trkpt lat="45.477060788198926" lon="9.441104304524583"><ele>108.0</ele><time>2026-04-11T07:57:57.995Z</time></trkpt><trkpt lat="45.47709640493679" lon="9.441236919738213"><ele>108.0</ele><time>2026-04-11T07:57:59.995Z</time></trkpt><trkpt lat="45.47714027615751" lon="9.441352404741943"><ele>108.0</ele><time>2026-04-11T07:58:01.995Z</time></trkpt><trkpt lat="45.47717360700763" lon="9.441456815959791"><ele>108.0</ele><time>2026-04-11T07:58:03.995Z</time></trkpt><trkpt lat="45.4771959498545" lon="9.441570335320433"><ele>108.0</ele><time>2026-04-11T07:58:05.995Z</time></trkpt><trkpt lat="45.47723121941736" lon="9.441688690069318"><ele>107.80000000000001</ele><time>2026-04-11T07:58:07.995Z</time></trkpt><trkpt lat="45.47726893886008" lon="9.441786100544187"><ele>107.60000000000001</ele><time>2026-04-11T07:58:09.995Z</time></trkpt><trkpt lat="45.477305431936166" lon="9.441879855250173"><ele>107.39999999999999</ele><time>2026-04-11T07:58:11.995Z</time></trkpt><trkpt lat="45.47733491049083" lon="9.441994327305848"><ele>107.19999999999999</ele><time>2026-04-11T07:58:14.995Z</time></trkpt><trkpt lat="45.47733546345498" lon="9.442149292670857"><ele>107.0</ele><time>2026-04-11T07:58:16.995Z</time></trkpt><trkpt lat="45.47733765583259" lon="9.442307557942668"><ele>106.8</ele><time>2026-04-11T07:58:18.995Z</time></trkpt><trkpt lat="45.477296676705755" lon="9.442447861660725"><ele>106.6</ele><time>2026-04-11T07:58:20.995Z</time></trkpt><trkpt lat="45.477234643290316" lon="9.44256636938454"><ele>106.39999999999999</ele><time>2026-04-11T07:58:22.995Z</time></trkpt><trkpt lat="45.477162229540994" lon="9.44263894791604"><ele>106.19999999999999</ele><time>2026-04-11T07:58:24.995Z</time></trkpt><trkpt lat="45.47707173053808" lon="9.44267879357829"><ele>106.0</ele><time>2026-04-11T07:58:26.995Z</time></trkpt><trkpt lat="45.47697696569699" lon="9.44271372328456"><ele>106.00000000000001</ele><time>2026-04-11T07:58:28.995Z</time></trkpt><trkpt lat="45.476901758051774" lon="9.44276203219413"><ele>106.0</ele><time>2026-04-11T07:58:30.995Z</time></trkpt><trkpt lat="45.47681217882089" lon="9.442809974822753"><ele>106.0</ele><time>2026-04-11T07:58:32.995Z</time></trkpt><trkpt lat="45.47672675995642" lon="9.442838411558862"><ele>106.0</ele><time>2026-04-11T07:58:34.995Z</time></trkpt><trkpt lat="45.476647648914856" lon="9.442866336648883"><ele>106.00000000000001</ele><time>2026-04-11T07:58:36.995Z</time></trkpt><trkpt lat="45.47656546294617" lon="9.442881452512086"><ele>106.0</ele><time>2026-04-11T07:58:38.995Z</time></trkpt><trkpt lat="45.47646552531217" lon="9.442905166701264"><ele>106.00000000000001</ele><time>2026-04-11T07:58:40.995Z</time></trkpt><trkpt lat="45.476381223313915" lon="9.442934340962113"><ele>106.0</ele><time>2026-04-11T07:58:42.995Z</time></trkpt><trkpt lat="45.476303645897495" lon="9.442968513385756"><ele>106.0</ele><time>2026-04-11T07:58:44.995Z</time></trkpt><trkpt lat="45.47621836597782" lon="9.442988078794672"><ele>106.0</ele><time>2026-04-11T07:58:46.995Z</time></trkpt><trkpt lat="45.47614112285359" lon="9.443012634440356"><ele>106.00000000000001</ele><time>2026-04-11T07:58:48.995Z</time></trkpt><trkpt lat="45.476060119162916" lon="9.443032028162001"><ele>106.0</ele><time>2026-04-11T07:58:51.996Z</time></trkpt><trkpt lat="45.476002039278626" lon="9.4430705256952"><ele>105.8</ele><time>2026-04-11T07:58:53.996Z</time></trkpt><trkpt lat="45.47593261665025" lon="9.443087079250386"><ele>105.6</ele><time>2026-04-11T07:58:55.996Z</time></trkpt><trkpt lat="45.47584631734253" lon="9.443200987779829"><ele>105.4</ele><time>2026-04-11T07:58:58.996Z</time></trkpt><trkpt lat="45.475839124521876" lon="9.443314562248151"><ele>105.2</ele><time>2026-04-11T07:59:00.996Z</time></trkpt><trkpt lat="45.4758487924243" lon="9.443437245475454"><ele>105.0</ele><time>2026-04-11T07:59:02.996Z</time></trkpt><trkpt lat="45.47581845621437" lon="9.443605766146693"><ele>105.0</ele><time>2026-04-11T07:59:04.996Z</time></trkpt><trkpt lat="45.47581578712337" lon="9.443748798681874"><ele>105.0</ele><time>2026-04-11T07:59:06.996Z</time></trkpt><trkpt lat="45.475826458218684" lon="9.443902028157044"><ele>105.0</ele><time>2026-04-11T07:59:08.996Z</time></trkpt><trkpt lat="45.4758266510669" lon="9.444078805062084"><ele>105.0</ele><time>2026-04-11T07:59:10.996Z</time></trkpt><trkpt lat="45.47582973916965" lon="9.44422668949315"><ele>105.0</ele><time>2026-04-11T07:59:12.996Z</time></trkpt><trkpt lat="45.47581441250876" lon="9.444388603501281"><ele>105.0</ele><time>2026-04-11T07:59:14.996Z</time></trkpt><trkpt lat="45.47578684741958" lon="9.444547135090007"><ele>105.0</ele><time>2026-04-11T07:59:16.996Z</time></trkpt><trkpt lat="45.47578344521216" lon="9.444707818857237"><ele>105.0</ele><time>2026-04-11T07:59:18.996Z</time></trkpt><trkpt lat="45.47576560112325" lon="9.44487733401154"><ele>105.0</ele><time>2026-04-11T07:59:20.996Z</time></trkpt><trkpt lat="45.47574972167576" lon="9.44504037351287"><ele>105.0</ele><time>2026-04-11T07:59:22.996Z</time></trkpt><trkpt lat="45.47573008863478" lon="9.445186453851523"><ele>105.0</ele><time>2026-04-11T07:59:24.996Z</time></trkpt><trkpt lat="45.47570500994987" lon="9.445311991819729"><ele>105.0</ele><time>2026-04-11T07:59:26.996Z</time></trkpt><trkpt lat="45.475688694584804" lon="9.44543679838806"><ele>105.0</ele><time>2026-04-11T07:59:28.996Z</time></trkpt><trkpt lat="45.47567733430306" lon="9.445572763563565"><ele>105.0</ele><time>2026-04-11T07:59:30.996Z</time></trkpt><trkpt lat="45.475673248103774" lon="9.445690926316352"><ele>105.0</ele><time>2026-04-11T07:59:32.996Z</time></trkpt><trkpt lat="45.475668933087235" lon="9.445803756206717"><ele>105.0</ele><time>2026-04-11T07:59:34.996Z</time></trkpt><trkpt lat="45.475686178585086" lon="9.445911582574672"><ele>105.0</ele><time>2026-04-11T07:59:36.996Z</time></trkpt><trkpt lat="45.47574004659411" lon="9.445966847727073"><ele>105.0</ele><time>2026-04-11T07:59:38.996Z</time></trkpt><trkpt lat="45.47583309820805" lon="9.445979799891846"><ele>105.0</ele><time>2026-04-11T07:59:40.996Z</time></trkpt><trkpt lat="45.475938567423455" lon="9.445984487619972"><ele>105.0</ele><time>2026-04-11T07:59:42.996Z</time></trkpt><trkpt lat="45.47603207249622" lon="9.44599134273062"><ele>105.0</ele><time>2026-04-11T07:59:44.996Z</time></trkpt><trkpt lat="45.47610939006486" lon="9.446034397088164"><ele>105.0</ele><time>2026-04-11T07:59:46.996Z</time></trkpt><trkpt lat="45.476150560355634" lon="9.446164806214528"><ele>105.0</ele><time>2026-04-11T07:59:48.995Z</time></trkpt><trkpt lat="45.47614634547679" lon="9.446329580208284"><ele>105.0</ele><time>2026-04-11T07:59:50.995Z</time></trkpt><trkpt lat="45.47613215351247" lon="9.446507576294756"><ele>105.0</ele><time>2026-04-11T07:59:52.995Z</time></trkpt><trkpt lat="45.47611692103311" lon="9.446668713860578"><ele>105.0</ele><time>2026-04-11T07:59:54.995Z</time></trkpt><trkpt lat="45.476098236094934" lon="9.446830359409494"><ele>105.0</ele><time>2026-04-11T07:59:56.995Z</time></trkpt><trkpt lat="45.476075709655" lon="9.446989520480225"><ele>105.0</ele><time>2026-04-11T07:59:58.995Z</time></trkpt><trkpt lat="45.47602934399399" lon="9.447141232099154"><ele>105.0</ele><time>2026-04-11T08:00:00.995Z</time></trkpt><trkpt lat="45.475938432026474" lon="9.44726075213465"><ele>105.0</ele><time>2026-04-11T08:00:02.995Z</time></trkpt><trkpt lat="45.4758810033585" lon="9.447298582462277"><ele>105.0</ele><time>2026-04-11T08:00:03.995Z</time></trkpt><trkpt lat="45.47577399976447" lon="9.447337256785325"><ele>105.0</ele><time>2026-04-11T08:00:05.995Z</time></trkpt><trkpt lat="45.475656625868794" lon="9.447394346148455"><ele>105.0</ele><time>2026-04-11T08:00:07.995Z</time></trkpt><trkpt lat="45.47556062751372" lon="9.44746181432594"><ele>105.0</ele><time>2026-04-11T08:00:09.995Z</time></trkpt><trkpt lat="45.475458611629776" lon="9.44752847209804"><ele>105.0</ele><time>2026-04-11T08:00:11.995Z</time></trkpt><trkpt lat="45.47536832061946" lon="9.447603367887368"><ele>105.0</ele><time>2026-04-11T08:00:13.995Z</time></trkpt><trkpt lat="45.47531411575349" lon="9.447718333257322"><ele>105.0</ele><time>2026-04-11T08:00:15.995Z</time></trkpt><trkpt lat="45.47529260069116" lon="9.447840200058009"><ele>105.0</ele><time>2026-04-11T08:00:17.995Z</time></trkpt><trkpt lat="45.47529251052384" lon="9.447952404377322"><ele>105.0</ele><time>2026-04-11T08:00:19.995Z</time></trkpt><trkpt lat="45.47527532313848" lon="9.448050333074278"><ele>105.0</ele><time>2026-04-11T08:00:21.995Z</time></trkpt><trkpt lat="45.475273288397396" lon="9.448172466084058"><ele>105.0</ele><time>2026-04-11T08:00:23.995Z</time></trkpt><trkpt lat="45.475288867251244" lon="9.448297664357607"><ele>105.0</ele><time>2026-04-11T08:00:25.995Z</time></trkpt><trkpt lat="45.475288970879554" lon="9.448431172635988"><ele>105.0</ele><time>2026-04-11T08:00:27.995Z</time></trkpt><trkpt lat="45.475288240629155" lon="9.448534078448766"><ele>105.0</ele><time>2026-04-11T08:00:29.995Z</time></trkpt><trkpt lat="45.475292090432625" lon="9.448653408715012"><ele>105.0</ele><time>2026-04-11T08:00:31.995Z</time></trkpt><trkpt lat="45.475305188060176" lon="9.44878787028075"><ele>105.0</ele><time>2026-04-11T08:00:33.995Z</time></trkpt><trkpt lat="45.47531358449984" lon="9.448907775075076"><ele>105.0</ele><time>2026-04-11T08:00:35.995Z</time></trkpt><trkpt lat="45.47532126741579" lon="9.449038416799251"><ele>105.0</ele><time>2026-04-11T08:00:37.995Z</time></trkpt><trkpt lat="45.47533254348742" lon="9.449164533376111"><ele>105.0</ele><time>2026-04-11T08:00:39.995Z</time></trkpt><trkpt lat="45.47534893070277" lon="9.44930617717774"><ele>105.0</ele><time>2026-04-11T08:00:41.995Z</time></trkpt><trkpt lat="45.47536552908564" lon="9.449450309223515"><ele>105.0</ele><time>2026-04-11T08:00:43.995Z</time></trkpt><trkpt lat="45.47537641905543" lon="9.449586907326694"><ele>105.0</ele><time>2026-04-11T08:00:45.995Z</time></trkpt><trkpt lat="45.47537689550304" lon="9.449724405977635"><ele>105.0</ele><time>2026-04-11T08:00:47.995Z</time></trkpt><trkpt lat="45.47536609241666" lon="9.44986238408767"><ele>105.0</ele><time>2026-04-11T08:00:49.994Z</time></trkpt><trkpt lat="45.47530494898691" lon="9.449937731296258"><ele>105.0</ele><time>2026-04-11T08:00:51.994Z</time></trkpt><trkpt lat="45.47524533003358" lon="9.44998638141372"><ele>105.0</ele><time>2026-04-11T08:00:53.994Z</time></trkpt><trkpt lat="45.475168155075266" lon="9.450032081032107"><ele>105.0</ele><time>2026-04-11T08:00:56.994Z</time></trkpt><trkpt lat="45.47508854823035" lon="9.450052436857838"><ele>105.0</ele><time>2026-04-11T08:00:58.996Z</time></trkpt><trkpt lat="45.47499534229684" lon="9.450091683492245"><ele>105.0</ele><time>2026-04-11T08:01:00.996Z</time></trkpt><trkpt lat="45.47493933758551" lon="9.450195390201046"><ele>105.0</ele><time>2026-04-11T08:01:02.996Z</time></trkpt><trkpt lat="45.47490930861759" lon="9.450317652651359"><ele>105.0</ele><time>2026-04-11T08:01:04.996Z</time></trkpt><trkpt lat="45.474891088035754" lon="9.450466407840462"><ele>105.0</ele><time>2026-04-11T08:01:06.996Z</time></trkpt><trkpt lat="45.47489985499293" lon="9.450602873739147"><ele>105.0</ele><time>2026-04-11T08:01:08.996Z</time></trkpt><trkpt lat="45.474915718578764" lon="9.45072172452471"><ele>105.0</ele><time>2026-04-11T08:01:10.996Z</time></trkpt><trkpt lat="45.47495378078254" lon="9.450828030646965"><ele>105.0</ele><time>2026-04-11T08:01:12.996Z</time></trkpt><trkpt lat="45.47498602542359" lon="9.450955183850976"><ele>105.0</ele><time>2026-04-11T08:01:14.996Z</time></trkpt><trkpt lat="45.475017836132324" lon="9.45106906015988"><ele>105.0</ele><time>2026-04-11T08:01:16.996Z</time></trkpt><trkpt lat="45.475048839567805" lon="9.45117380929497"><ele>105.0</ele><time>2026-04-11T08:01:18.996Z</time></trkpt><trkpt lat="45.47507490532715" lon="9.451265293508543"><ele>105.0</ele><time>2026-04-11T08:01:20.996Z</time></trkpt><trkpt lat="45.47510124222522" lon="9.451355557670766"><ele>105.0</ele><time>2026-04-11T08:01:22.996Z</time></trkpt><trkpt lat="45.47513201928894" lon="9.451449961434472"><ele>105.0</ele><time>2026-04-11T08:01:24.996Z</time></trkpt><trkpt lat="45.47516496814796" lon="9.45155292731452"><ele>105.0</ele><time>2026-04-11T08:01:26.996Z</time></trkpt><trkpt lat="45.475190001252734" lon="9.451661460474119"><ele>105.0</ele><time>2026-04-11T08:01:28.996Z</time></trkpt><trkpt lat="45.47520552284679" lon="9.451770778419668"><ele>105.0</ele><time>2026-04-11T08:01:30.996Z</time></trkpt><trkpt lat="45.47521259582998" lon="9.451882394520746"><ele>105.0</ele><time>2026-04-11T08:01:32.996Z</time></trkpt><trkpt lat="45.47521985439128" lon="9.451996881450757"><ele>105.0</ele><time>2026-04-11T08:01:34.996Z</time></trkpt><trkpt lat="45.475230482579995" lon="9.45210656854213"><ele>105.0</ele><time>2026-04-11T08:01:36.996Z</time></trkpt><trkpt lat="45.47524223668682" lon="9.452220391692414"><ele>105.0</ele><time>2026-04-11T08:01:38.996Z</time></trkpt><trkpt lat="45.47525001998602" lon="9.45234119750807"><ele>105.0</ele><time>2026-04-11T08:01:40.996Z</time></trkpt><trkpt lat="45.47526029833172" lon="9.45245620879498"><ele>105.0</ele><time>2026-04-11T08:01:42.996Z</time></trkpt><trkpt lat="45.47527239908067" lon="9.452592896606514"><ele>104.83333333333333</ele><time>2026-04-11T08:01:45.996Z</time></trkpt><trkpt lat="45.475280788840976" lon="9.452721311774468"><ele>104.66666666666666</ele><time>2026-04-11T08:01:48.996Z</time></trkpt><trkpt lat="45.47527932525364" lon="9.452813584815352"><ele>104.5</ele><time>2026-04-11T08:01:50.996Z</time></trkpt><trkpt lat="45.475230394852" lon="9.45288596539664"><ele>104.33333333333333</ele><time>2026-04-11T08:01:52.996Z</time></trkpt><trkpt lat="45.47515663040801" lon="9.452917102713544"><ele>104.16666666666666</ele><time>2026-04-11T08:01:54.996Z</time></trkpt><trkpt lat="45.47507994949574" lon="9.452942412132245"><ele>104.0</ele><time>2026-04-11T08:01:56.996Z</time></trkpt><trkpt lat="45.47500142174594" lon="9.45296707443391"><ele>103.99999999999999</ele><time>2026-04-11T08:01:58.996Z</time></trkpt><trkpt lat="45.4749221316277" lon="9.452996646826708"><ele>104.0</ele><time>2026-04-11T08:02:00.996Z</time></trkpt><trkpt lat="45.474833528952196" lon="9.453015538316047"><ele>104.0</ele><time>2026-04-11T08:02:02.995Z</time></trkpt><trkpt lat="45.47475576075786" lon="9.453043545400824"><ele>104.0</ele><time>2026-04-11T08:02:04.995Z</time></trkpt><trkpt lat="45.47467656190167" lon="9.453068305697899"><ele>103.99999999999999</ele><time>2026-04-11T08:02:06.995Z</time></trkpt><trkpt lat="45.47459162781855" lon="9.453097236503627"><ele>104.0</ele><time>2026-04-11T08:02:08.995Z</time></trkpt><trkpt lat="45.474504201625756" lon="9.453120509060453"><ele>104.16666666666666</ele><time>2026-04-11T08:02:10.995Z</time></trkpt><trkpt lat="45.4744233669107" lon="9.45314105204217"><ele>104.33333333333333</ele><time>2026-04-11T08:02:12.995Z</time></trkpt><trkpt lat="45.47434790884317" lon="9.453151111036728"><ele>104.5</ele><time>2026-04-11T08:02:14.995Z</time></trkpt><trkpt lat="45.47428345130334" lon="9.453167973784637"><ele>104.66666666666666</ele><time>2026-04-11T08:02:16.995Z</time></trkpt><trkpt lat="45.47420220025215" lon="9.453190619791936"><ele>104.83333333333333</ele><time>2026-04-11T08:02:18.995Z</time></trkpt><trkpt lat="45.474111874773634" lon="9.453200476336615"><ele>105.0</ele><time>2026-04-11T08:02:20.995Z</time></trkpt><trkpt lat="45.474026984045835" lon="9.453211943503574"><ele>105.0</ele><time>2026-04-11T08:02:22.995Z</time></trkpt><trkpt lat="45.473942839414484" lon="9.453234677658312"><ele>105.0</ele><time>2026-04-11T08:02:24.995Z</time></trkpt><trkpt lat="45.4738621094997" lon="9.453241582237151"><ele>105.0</ele><time>2026-04-11T08:02:26.995Z</time></trkpt><trkpt lat="45.47378824664167" lon="9.4532286510238"><ele>105.0</ele><time>2026-04-11T08:02:28.995Z</time></trkpt><trkpt lat="45.47369119618916" lon="9.453240149584712"><ele>105.0</ele><time>2026-04-11T08:02:31.995Z</time></trkpt><trkpt lat="45.47360777718362" lon="9.453250254716618"><ele>105.0</ele><time>2026-04-11T08:02:33.995Z</time></trkpt><trkpt lat="45.47352057260318" lon="9.453254303567746"><ele>105.0</ele><time>2026-04-11T08:02:35.995Z</time></trkpt><trkpt lat="45.473432839484914" lon="9.453268079539471"><ele>105.0</ele><time>2026-04-11T08:02:37.995Z</time></trkpt><trkpt lat="45.473346891383635" lon="9.453280912512852"><ele>105.0</ele><time>2026-04-11T08:02:39.995Z</time></trkpt><trkpt lat="45.473259556317274" lon="9.45328957978896"><ele>105.0</ele><time>2026-04-11T08:02:41.995Z</time></trkpt><trkpt lat="45.47317848361045" lon="9.453299526074835"><ele>105.0</ele><time>2026-04-11T08:02:43.995Z</time></trkpt><trkpt lat="45.47309392804177" lon="9.45331276115592"><ele>105.0</ele><time>2026-04-11T08:02:45.995Z</time></trkpt><trkpt lat="45.47300373362393" lon="9.453321518775596"><ele>104.66666666666667</ele><time>2026-04-11T08:02:47.995Z</time></trkpt><trkpt lat="45.47291044311898" lon="9.45333853441254"><ele>104.33333333333334</ele><time>2026-04-11T08:02:49.995Z</time></trkpt><trkpt lat="45.47282197064903" lon="9.453357766073195"><ele>104.0</ele><time>2026-04-11T08:02:51.995Z</time></trkpt><trkpt lat="45.472735586239246" lon="9.453377460577915"><ele>103.66666666666667</ele><time>2026-04-11T08:02:53.995Z</time></trkpt><trkpt lat="45.472645388279076" lon="9.453388676840804"><ele>103.33333333333334</ele><time>2026-04-11T08:02:55.995Z</time></trkpt><trkpt lat="45.47256246981942" lon="9.45340663168099"><ele>103.0</ele><time>2026-04-11T08:02:57.995Z</time></trkpt><trkpt lat="45.4724784679801" lon="9.453424060267388"><ele>103.00000000000001</ele><time>2026-04-11T08:02:59.995Z</time></trkpt><trkpt lat="45.47239336054885" lon="9.453435957384384"><ele>103.0</ele><time>2026-04-11T08:03:01.995Z</time></trkpt><trkpt lat="45.47230854337" lon="9.453452992778665"><ele>103.0</ele><time>2026-04-11T08:03:03.995Z</time></trkpt><trkpt lat="45.472230288344825" lon="9.453434982510869"><ele>103.0</ele><time>2026-04-11T08:03:05.996Z</time></trkpt><trkpt lat="45.47217306119636" lon="9.453364871901917"><ele>103.00000000000001</ele><time>2026-04-11T08:03:07.996Z</time></trkpt><trkpt lat="45.47214424042852" lon="9.453251608078672"><ele>103.0</ele><time>2026-04-11T08:03:09.996Z</time></trkpt><trkpt lat="45.472120509228155" lon="9.453124989575056"><ele>103.0</ele><time>2026-04-11T08:03:11.996Z</time></trkpt><trkpt lat="45.472089608093576" lon="9.453001185351614"><ele>103.0</ele><time>2026-04-11T08:03:13.996Z</time></trkpt><trkpt lat="45.47205143355" lon="9.452879786571609"><ele>103.0</ele><time>2026-04-11T08:03:15.996Z</time></trkpt><trkpt lat="45.472016091464724" lon="9.452748900976994"><ele>103.0</ele><time>2026-04-11T08:03:17.996Z</time></trkpt><trkpt lat="45.47197901154558" lon="9.452621204134052"><ele>103.0</ele><time>2026-04-11T08:03:19.996Z</time></trkpt><trkpt lat="45.47194433455159" lon="9.452494426678722"><ele>103.00000000000001</ele><time>2026-04-11T08:03:21.996Z</time></trkpt><trkpt lat="45.471882443584704" lon="9.452396215142539"><ele>103.0</ele><time>2026-04-11T08:03:23.996Z</time></trkpt><trkpt lat="45.471789890240174" lon="9.45234834875191"><ele>103.0</ele><time>2026-04-11T08:03:25.996Z</time></trkpt><trkpt lat="45.471704658663576" lon="9.45232485791723"><ele>103.0</ele><time>2026-04-11T08:03:27.996Z</time></trkpt><trkpt lat="45.47162244083531" lon="9.452287931479049"><ele>103.00000000000001</ele><time>2026-04-11T08:03:29.996Z</time></trkpt><trkpt lat="45.4715490655648" lon="9.452248424321116"><ele>103.0</ele><time>2026-04-11T08:03:31.996Z</time></trkpt><trkpt lat="45.471490985492224" lon="9.452207344780408"><ele>103.00000000000001</ele><time>2026-04-11T08:03:33.996Z</time></trkpt><trkpt lat="45.4714241310929" lon="9.452204682213234"><ele>103.0</ele><time>2026-04-11T08:03:35.996Z</time></trkpt><trkpt lat="45.47136911891503" lon="9.452257010186262"><ele>103.0</ele><time>2026-04-11T08:03:37.996Z</time></trkpt><trkpt lat="45.47128704285544" lon="9.452315837602093"><ele>103.0</ele><time>2026-04-11T08:03:39.996Z</time></trkpt><trkpt lat="45.471216993319516" lon="9.452371214977637"><ele>103.00000000000001</ele><time>2026-04-11T08:03:41.996Z</time></trkpt><trkpt lat="45.471128855507324" lon="9.452423657825237"><ele>103.0</ele><time>2026-04-11T08:03:43.996Z</time></trkpt><trkpt lat="45.47104914034598" lon="9.452458070911938"><ele>103.16666666666667</ele><time>2026-04-11T08:03:45.996Z</time></trkpt><trkpt lat="45.4709858070815" lon="9.452475926641434"><ele>103.33333333333334</ele><time>2026-04-11T08:03:47.996Z</time></trkpt><trkpt lat="45.47092908328349" lon="9.452516006475706"><ele>103.5</ele><time>2026-04-11T08:03:49.996Z</time></trkpt><trkpt lat="45.47084610523192" lon="9.452573284335086"><ele>103.66666666666666</ele><time>2026-04-11T08:03:51.996Z</time></trkpt><trkpt lat="45.47076245599009" lon="9.452608258208787"><ele>103.83333333333333</ele><time>2026-04-11T08:03:53.995Z</time></trkpt><trkpt lat="45.47067778195539" lon="9.452643391865365"><ele>104.0</ele><time>2026-04-11T08:03:55.995Z</time></trkpt><trkpt lat="45.470591532385924" lon="9.452688012549254"><ele>103.99999999999999</ele><time>2026-04-11T08:03:57.995Z</time></trkpt><trkpt lat="45.470517427276405" lon="9.452733669472059"><ele>104.0</ele><time>2026-04-11T08:03:59.995Z</time></trkpt><trkpt lat="45.47044943224115" lon="9.452777005501044"><ele>104.0</ele><time>2026-04-11T08:04:01.995Z</time></trkpt><trkpt lat="45.470363983803416" lon="9.452833973671074"><ele>104.0</ele><time>2026-04-11T08:04:03.995Z</time></trkpt><trkpt lat="45.47029466074025" lon="9.45288866918274"><ele>103.99999999999999</ele><time>2026-04-11T08:04:05.995Z</time></trkpt><trkpt lat="45.470226885713494" lon="9.452947105386965"><ele>104.0</ele><time>2026-04-11T08:04:07.995Z</time></trkpt><trkpt lat="45.470167591512315" lon="9.452992260975153"><ele>103.66666666666666</ele><time>2026-04-11T08:04:09.995Z</time></trkpt><trkpt lat="45.47010114629089" lon="9.453029605114818"><ele>103.33333333333333</ele><time>2026-04-11T08:04:12.995Z</time></trkpt><trkpt lat="45.47002209300266" lon="9.453066868277839"><ele>103.0</ele><time>2026-04-11T08:04:15.995Z</time></trkpt><trkpt lat="45.46996360272683" lon="9.453116795539612"><ele>102.66666666666666</ele><time>2026-04-11T08:04:17.995Z</time></trkpt><trkpt lat="45.46990386805508" lon="9.45315567641881"><ele>102.33333333333333</ele><time>2026-04-11T08:04:19.995Z</time></trkpt><trkpt lat="45.46982418585986" lon="9.453219672850206"><ele>102.0</ele><time>2026-04-11T08:04:21.995Z</time></trkpt><trkpt lat="45.46975454789685" lon="9.453299931579469"><ele>102.0</ele><time>2026-04-11T08:04:23.995Z</time></trkpt><trkpt lat="45.469680138279536" lon="9.453350774992856"><ele>102.0</ele><time>2026-04-11T08:04:25.995Z</time></trkpt><trkpt lat="45.46961648681398" lon="9.453411341261017"><ele>102.0</ele><time>2026-04-11T08:04:27.995Z</time></trkpt><trkpt lat="45.46954987251078" lon="9.453475203274422"><ele>102.0</ele><time>2026-04-11T08:04:29.995Z</time></trkpt><trkpt lat="45.46948077079827" lon="9.453539553184799"><ele>102.0</ele><time>2026-04-11T08:04:31.995Z</time></trkpt><trkpt lat="45.46940195639687" lon="9.453611762887919"><ele>102.0</ele><time>2026-04-11T08:04:33.995Z</time></trkpt><trkpt lat="45.469321881824825" lon="9.453659568052133"><ele>102.0</ele><time>2026-04-11T08:04:35.995Z</time></trkpt><trkpt lat="45.46924920874966" lon="9.453727462580389"><ele>102.0</ele><time>2026-04-11T08:04:37.995Z</time></trkpt><trkpt lat="45.46916197273674" lon="9.453795020922666"><ele>102.0</ele><time>2026-04-11T08:04:39.995Z</time></trkpt><trkpt lat="45.46906646898778" lon="9.453876227804887"><ele>102.0</ele><time>2026-04-11T08:04:41.995Z</time></trkpt><trkpt lat="45.46898645628035" lon="9.453985851820615"><ele>102.0</ele><time>2026-04-11T08:04:43.995Z</time></trkpt><trkpt lat="45.46891431940695" lon="9.45409159191286"><ele>102.0</ele><time>2026-04-11T08:04:45.995Z</time></trkpt><trkpt lat="45.46884977597403" lon="9.454190662419125"><ele>102.0</ele><time>2026-04-11T08:04:47.995Z</time></trkpt><trkpt lat="45.46878647673498" lon="9.454259485944997"><ele>102.0</ele><time>2026-04-11T08:04:49.995Z</time></trkpt><trkpt lat="45.46872266899263" lon="9.454331378339702"><ele>102.0</ele><time>2026-04-11T08:04:51.995Z</time></trkpt><trkpt lat="45.46866747091198" lon="9.454380580841274"><ele>102.0</ele><time>2026-04-11T08:04:53.994Z</time></trkpt><trkpt lat="45.468597799042655" lon="9.454403275067984"><ele>102.0</ele><time>2026-04-11T08:04:55.994Z</time></trkpt><trkpt lat="45.46852165589523" lon="9.4544013248795"><ele>101.85714285714286</ele><time>2026-04-11T08:04:59.994Z</time></trkpt><trkpt lat="45.468445226051706" lon="9.454412088747882"><ele>101.71428571428572</ele><time>2026-04-11T08:05:03.994Z</time></trkpt><trkpt lat="45.46837772374933" lon="9.45440341393378"><ele>101.57142857142857</ele><time>2026-04-11T08:05:06.994Z</time></trkpt><trkpt lat="45.46844919975139" lon="9.454358030871123"><ele>101.42857142857143</ele><time>2026-04-11T08:08:08.999Z</time></trkpt><trkpt lat="45.468384073561886" lon="9.454355551688183"><ele>101.28571428571428</ele><time>2026-04-11T08:08:26.999Z</time></trkpt><trkpt lat="45.46832224838542" lon="9.454322044086839"><ele>101.14285714285714</ele><time>2026-04-11T08:08:40.999Z</time></trkpt><trkpt lat="45.46825166641539" lon="9.454317664441634"><ele>101.0</ele><time>2026-04-11T08:08:44.998Z</time></trkpt><trkpt lat="45.46814296007315" lon="9.45432876011437"><ele>101.0</ele><time>2026-04-11T08:08:46.998Z</time></trkpt><trkpt lat="45.468031105122364" lon="9.45440799247095"><ele>101.0</ele><time>2026-04-11T08:08:48.998Z</time></trkpt><trkpt lat="45.467975297762216" lon="9.454455583206618"><ele>101.0</ele><time>2026-04-11T08:08:49.998Z</time></trkpt><trkpt lat="45.46789230270246" lon="9.454555264179458"><ele>101.0</ele><time>2026-04-11T08:08:51.998Z</time></trkpt><trkpt lat="45.46782222648564" lon="9.454657211277793"><ele>101.0</ele><time>2026-04-11T08:08:53.998Z</time></trkpt><trkpt lat="45.46774937989848" lon="9.454725062999191"><ele>100.99999999999999</ele><time>2026-04-11T08:08:55.998Z</time></trkpt><trkpt lat="45.46765909510686" lon="9.454745854613089"><ele>101.0</ele><time>2026-04-11T08:08:57.998Z</time></trkpt><trkpt lat="45.46757770504054" lon="9.454740965202252"><ele>101.0</ele><time>2026-04-11T08:08:59.998Z</time></trkpt><trkpt lat="45.46749796744785" lon="9.454724085376332"><ele>101.0</ele><time>2026-04-11T08:09:01.998Z</time></trkpt><trkpt lat="45.46741032967637" lon="9.454706860002622"><ele>100.99999999999999</ele><time>2026-04-11T08:09:03.998Z</time></trkpt><trkpt lat="45.46733532558" lon="9.454687543570655"><ele>101.0</ele><time>2026-04-11T08:09:05.998Z</time></trkpt><trkpt lat="45.467258131926606" lon="9.45464360124784"><ele>100.83333333333333</ele><time>2026-04-11T08:09:07.998Z</time></trkpt><trkpt lat="45.46717567183828" lon="9.454596371831407"><ele>100.66666666666666</ele><time>2026-04-11T08:09:09.998Z</time></trkpt><trkpt lat="45.46709464900685" lon="9.454531460553024"><ele>100.5</ele><time>2026-04-11T08:09:11.998Z</time></trkpt><trkpt lat="45.46701505656411" lon="9.454465829211378"><ele>100.33333333333334</ele><time>2026-04-11T08:09:13.998Z</time></trkpt><trkpt lat="45.46694710033393" lon="9.454401918231504"><ele>100.16666666666667</ele><time>2026-04-11T08:09:15.998Z</time></trkpt><trkpt lat="45.46687057418454" lon="9.454344739047908"><ele>100.0</ele><time>2026-04-11T08:09:17.998Z</time></trkpt><trkpt lat="45.46679818263501" lon="9.454274143418834"><ele>100.33333333333334</ele><time>2026-04-11T08:09:19.998Z</time></trkpt><trkpt lat="45.466721123502076" lon="9.454205452513417"><ele>100.66666666666667</ele><time>2026-04-11T08:09:21.999Z</time></trkpt><trkpt lat="45.466641384523165" lon="9.45414313254837"><ele>101.0</ele><time>2026-04-11T08:09:23.999Z</time></trkpt><trkpt lat="45.466570599936595" lon="9.454070723630773"><ele>101.33333333333334</ele><time>2026-04-11T08:09:25.999Z</time></trkpt><trkpt lat="45.46649135151784" lon="9.454000134608295"><ele>101.66666666666667</ele><time>2026-04-11T08:09:27.999Z</time></trkpt><trkpt lat="45.46642618951332" lon="9.453933167202356"><ele>102.0</ele><time>2026-04-11T08:09:29.999Z</time></trkpt><trkpt lat="45.46635961574185" lon="9.453867794053917"><ele>102.0</ele><time>2026-04-11T08:09:31.999Z</time></trkpt><trkpt lat="45.466292658840246" lon="9.453794585696404"><ele>102.0</ele><time>2026-04-11T08:09:33.999Z</time></trkpt><trkpt lat="45.4662043931998" lon="9.45372596312177"><ele>102.0</ele><time>2026-04-11T08:09:35.999Z</time></trkpt><trkpt lat="45.4661342118116" lon="9.4536547367495"><ele>102.0</ele><time>2026-04-11T08:09:37.999Z</time></trkpt><trkpt lat="45.46605557310072" lon="9.45359329009302"><ele>102.0</ele><time>2026-04-11T08:09:39.999Z</time></trkpt><trkpt lat="45.46597823853391" lon="9.453530656345622"><ele>101.66666666666667</ele><time>2026-04-11T08:09:41.999Z</time></trkpt><trkpt lat="45.465897925763315" lon="9.453464517740576"><ele>101.33333333333334</ele><time>2026-04-11T08:09:43.999Z</time></trkpt><trkpt lat="45.46582967489175" lon="9.453403684895322"><ele>101.0</ele><time>2026-04-11T08:09:45.999Z</time></trkpt><trkpt lat="45.4657648682353" lon="9.45336000890306"><ele>100.66666666666667</ele><time>2026-04-11T08:09:47.999Z</time></trkpt><trkpt lat="45.465696713518426" lon="9.453296077790725"><ele>100.33333333333334</ele><time>2026-04-11T08:09:49.999Z</time></trkpt><trkpt lat="45.465626546011976" lon="9.453232754428605"><ele>100.0</ele><time>2026-04-11T08:09:51.999Z</time></trkpt><trkpt lat="45.46555313196354" lon="9.453172449959641"><ele>100.00000000000001</ele><time>2026-04-11T08:09:53.999Z</time></trkpt><trkpt lat="45.46548530685159" lon="9.453099541587669"><ele>100.0</ele><time>2026-04-11T08:09:55.999Z</time></trkpt><trkpt lat="45.46541182142736" lon="9.453034527594843"><ele>100.0</ele><time>2026-04-11T08:09:57.999Z</time></trkpt><trkpt lat="45.46533757776074" lon="9.45296351682667"><ele>100.0</ele><time>2026-04-11T08:09:59.999Z</time></trkpt><trkpt lat="45.46526586172808" lon="9.45289642153987"><ele>100.00000000000001</ele><time>2026-04-11T08:10:01.999Z</time></trkpt><trkpt lat="45.46519438911186" lon="9.452822770952407"><ele>100.0</ele><time>2026-04-11T08:10:03.999Z</time></trkpt><trkpt lat="45.46513043609269" lon="9.452753340450572"><ele>100.16666666666667</ele><time>2026-04-11T08:10:05.999Z</time></trkpt><trkpt lat="45.46506640272544" lon="9.45268168800641"><ele>100.33333333333334</ele><time>2026-04-11T08:10:07.999Z</time></trkpt><trkpt lat="45.465002888829076" lon="9.452610920868917"><ele>100.5</ele><time>2026-04-11T08:10:09.999Z</time></trkpt><trkpt lat="45.46494050030072" lon="9.452536868077091"><ele>100.66666666666666</ele><time>2026-04-11T08:10:11.999Z</time></trkpt><trkpt lat="45.464878154196306" lon="9.452468572880148"><ele>100.83333333333333</ele><time>2026-04-11T08:10:13.999Z</time></trkpt><trkpt lat="45.4648108569084" lon="9.4523978837206"><ele>101.0</ele><time>2026-04-11T08:10:15.999Z</time></trkpt><trkpt lat="45.464741158312435" lon="9.45231961348921"><ele>100.99999999999999</ele><time>2026-04-11T08:10:17.999Z</time></trkpt><trkpt lat="45.46467099196901" lon="9.452241955799908"><ele>101.0</ele><time>2026-04-11T08:10:19.999Z</time></trkpt><trkpt lat="45.46460290401906" lon="9.452168824469295"><ele>101.0</ele><time>2026-04-11T08:10:21.999Z</time></trkpt><trkpt lat="45.46454133408689" lon="9.452097130248912"><ele>101.0</ele><time>2026-04-11T08:10:23.999Z</time></trkpt><trkpt lat="45.46447156587889" lon="9.452024030480304"><ele>100.99999999999999</ele><time>2026-04-11T08:10:25.999Z</time></trkpt><trkpt lat="45.46440078538936" lon="9.451945620048438"><ele>101.0</ele><time>2026-04-11T08:10:27.999Z</time></trkpt><trkpt lat="45.464326257701224" lon="9.451863045668352"><ele>101.33333333333333</ele><time>2026-04-11T08:10:29.999Z</time></trkpt><trkpt lat="45.46425306467346" lon="9.451783161512934"><ele>101.66666666666666</ele><time>2026-04-11T08:10:31.999Z</time></trkpt><trkpt lat="45.46418494567736" lon="9.451702380965873"><ele>102.0</ele><time>2026-04-11T08:10:33.999Z</time></trkpt><trkpt lat="45.46412062586669" lon="9.45163553124603"><ele>102.33333333333334</ele><time>2026-04-11T08:10:35.999Z</time></trkpt><trkpt lat="45.46405091634093" lon="9.451555351864723"><ele>102.66666666666667</ele><time>2026-04-11T08:10:37.999Z</time></trkpt><trkpt lat="45.46397290572995" lon="9.451480589593016"><ele>103.0</ele><time>2026-04-11T08:10:39.999Z</time></trkpt><trkpt lat="45.463900263054455" lon="9.451409488693182"><ele>103.0</ele><time>2026-04-11T08:10:41.999Z</time></trkpt><trkpt lat="45.46382660113087" lon="9.451331883823391"><ele>103.0</ele><time>2026-04-11T08:10:43.999Z</time></trkpt><trkpt lat="45.463754498511925" lon="9.451254576417822"><ele>103.0</ele><time>2026-04-11T08:10:45.999Z</time></trkpt><trkpt lat="45.46367449967139" lon="9.451173218371428"><ele>103.0</ele><time>2026-04-11T08:10:47.999Z</time></trkpt><trkpt lat="45.463593748304056" lon="9.451091260206704"><ele>103.0</ele><time>2026-04-11T08:10:49.998Z</time></trkpt><trkpt lat="45.46351536227211" lon="9.451004091819357"><ele>102.80000000000001</ele><time>2026-04-11T08:10:51.998Z</time></trkpt><trkpt lat="45.4634366274117" lon="9.450915556420556"><ele>102.6</ele><time>2026-04-11T08:10:53.998Z</time></trkpt><trkpt lat="45.46335516302793" lon="9.450827994047149"><ele>102.4</ele><time>2026-04-11T08:10:55.998Z</time></trkpt><trkpt lat="45.46327800351351" lon="9.450745226581585"><ele>102.19999999999999</ele><time>2026-04-11T08:10:57.998Z</time></trkpt><trkpt lat="45.463202668254795" lon="9.45065240799968"><ele>102.0</ele><time>2026-04-11T08:10:59.998Z</time></trkpt><trkpt lat="45.463120938558426" lon="9.450564001531623"><ele>102.0</ele><time>2026-04-11T08:11:01.998Z</time></trkpt><trkpt lat="45.46304106910223" lon="9.450475769276785"><ele>102.0</ele><time>2026-04-11T08:11:03.998Z</time></trkpt><trkpt lat="45.46296276786554" lon="9.450383161346277"><ele>102.0</ele><time>2026-04-11T08:11:05.998Z</time></trkpt><trkpt lat="45.46288451418228" lon="9.450292011305155"><ele>102.0</ele><time>2026-04-11T08:11:07.998Z</time></trkpt><trkpt lat="45.46280741863874" lon="9.450199457515295"><ele>102.0</ele><time>2026-04-11T08:11:09.998Z</time></trkpt><trkpt lat="45.46273420145126" lon="9.450105958727166"><ele>102.0</ele><time>2026-04-11T08:11:11.998Z</time></trkpt><trkpt lat="45.462657265138716" lon="9.450011014255425"><ele>102.0</ele><time>2026-04-11T08:11:13.998Z</time></trkpt><trkpt lat="45.46258522865251" lon="9.449916031657413"><ele>102.0</ele><time>2026-04-11T08:11:15.998Z</time></trkpt><trkpt lat="45.46250785992517" lon="9.449823409866378"><ele>102.0</ele><time>2026-04-11T08:11:17.998Z</time></trkpt><trkpt lat="45.462431925911304" lon="9.44972732094119"><ele>102.0</ele><time>2026-04-11T08:11:19.998Z</time></trkpt><trkpt lat="45.462360582599494" lon="9.449641138092785"><ele>101.6</ele><time>2026-04-11T08:11:21.998Z</time></trkpt><trkpt lat="45.46228327786364" lon="9.44955052023985"><ele>101.19999999999999</ele><time>2026-04-11T08:11:23.998Z</time></trkpt><trkpt lat="45.462205705066935" lon="9.44946643975805"><ele>100.8</ele><time>2026-04-11T08:11:25.998Z</time></trkpt><trkpt lat="45.46211920864213" lon="9.449377752854673"><ele>100.4</ele><time>2026-04-11T08:11:27.999Z</time></trkpt><trkpt lat="45.4620418792898" lon="9.449290462653373"><ele>100.0</ele><time>2026-04-11T08:11:29.999Z</time></trkpt><trkpt lat="45.46196053127037" lon="9.44919736947188"><ele>99.8</ele><time>2026-04-11T08:11:31.999Z</time></trkpt><trkpt lat="45.46187554874379" lon="9.44910968668624"><ele>99.6</ele><time>2026-04-11T08:11:33.999Z</time></trkpt><trkpt lat="45.46179609326903" lon="9.449029251483763"><ele>99.4</ele><time>2026-04-11T08:11:35.999Z</time></trkpt><trkpt lat="45.461723434802174" lon="9.448950180425495"><ele>99.2</ele><time>2026-04-11T08:11:37.999Z</time></trkpt><trkpt lat="45.46165190587534" lon="9.448877040099882"><ele>99.0</ele><time>2026-04-11T08:11:39.999Z</time></trkpt><trkpt lat="45.4615856282491" lon="9.448813943953267"><ele>99.0</ele><time>2026-04-11T08:11:41.999Z</time></trkpt><trkpt lat="45.46151519265732" lon="9.448739884512264"><ele>99.0</ele><time>2026-04-11T08:11:43.999Z</time></trkpt><trkpt lat="45.46144288521782" lon="9.448673712360176"><ele>99.0</ele><time>2026-04-11T08:11:45.999Z</time></trkpt><trkpt lat="45.46135753178157" lon="9.448582803630938"><ele>99.0</ele><time>2026-04-11T08:11:47.999Z</time></trkpt><trkpt lat="45.461285781777846" lon="9.448503791919649"><ele>99.0</ele><time>2026-04-11T08:11:49.999Z</time></trkpt><trkpt lat="45.46120980091263" lon="9.448435947657677"><ele>99.0</ele><time>2026-04-11T08:11:51.999Z</time></trkpt><trkpt lat="45.461147809332914" lon="9.448373467132951"><ele>99.0</ele><time>2026-04-11T08:11:53.999Z</time></trkpt><trkpt lat="45.46109005807799" lon="9.448317283073582"><ele>99.0</ele><time>2026-04-11T08:11:55.999Z</time></trkpt><trkpt lat="45.46103535720801" lon="9.448264968276849"><ele>99.0</ele><time>2026-04-11T08:11:57.999Z</time></trkpt><trkpt lat="45.4609552526012" lon="9.448191527323635"><ele>99.0</ele><time>2026-04-11T08:12:00.999Z</time></trkpt><trkpt lat="45.460903080377925" lon="9.448127817392164"><ele>99.0</ele><time>2026-04-11T08:12:02.999Z</time></trkpt><trkpt lat="45.46086111016668" lon="9.448044156478245"><ele>99.0</ele><time>2026-04-11T08:12:04.999Z</time></trkpt><trkpt lat="45.460828005595985" lon="9.44793490771725"><ele>99.33333333333333</ele><time>2026-04-11T08:12:06.999Z</time></trkpt><trkpt lat="45.46079299534115" lon="9.447820877469546"><ele>99.66666666666666</ele><time>2026-04-11T08:12:08.999Z</time></trkpt><trkpt lat="45.460750798722714" lon="9.447714771519333"><ele>100.0</ele><time>2026-04-11T08:12:10.999Z</time></trkpt><trkpt lat="45.460690310468" lon="9.447624782985415"><ele>100.33333333333333</ele><time>2026-04-11T08:12:12.999Z</time></trkpt><trkpt lat="45.460621626247026" lon="9.44755365451746"><ele>100.66666666666666</ele><time>2026-04-11T08:12:14.999Z</time></trkpt><trkpt lat="45.460542788757245" lon="9.447488401550721"><ele>101.0</ele><time>2026-04-11T08:12:16.999Z</time></trkpt><trkpt lat="45.46046663298062" lon="9.447437804533527"><ele>100.83333333333333</ele><time>2026-04-11T08:12:18.999Z</time></trkpt><trkpt lat="45.46038376176591" lon="9.44738141820145"><ele>100.66666666666666</ele><time>2026-04-11T08:12:20.999Z</time></trkpt><trkpt lat="45.460307478614496" lon="9.447343931128637"><ele>100.5</ele><time>2026-04-11T08:12:22.999Z</time></trkpt><trkpt lat="45.460232844571586" lon="9.447305823806799"><ele>100.33333333333334</ele><time>2026-04-11T08:12:24.999Z</time></trkpt><trkpt lat="45.4601677329161" lon="9.447268780519595"><ele>100.16666666666667</ele><time>2026-04-11T08:12:26.999Z</time></trkpt><trkpt lat="45.46010403633147" lon="9.447227190403758"><ele>100.0</ele><time>2026-04-11T08:12:28.999Z</time></trkpt><trkpt lat="45.46004987684282" lon="9.447174596549312"><ele>100.33333333333334</ele><time>2026-04-11T08:12:30.999Z</time></trkpt><trkpt lat="45.45999323056505" lon="9.44709028837962"><ele>100.66666666666667</ele><time>2026-04-11T08:12:33.999Z</time></trkpt><trkpt lat="45.459933658104575" lon="9.447028002767846"><ele>101.0</ele><time>2026-04-11T08:12:36.999Z</time></trkpt><trkpt lat="45.45986542054397" lon="9.446962388862643"><ele>101.33333333333334</ele><time>2026-04-11T08:12:39.999Z</time></trkpt><trkpt lat="45.45980579803181" lon="9.446895154490214"><ele>101.66666666666667</ele><time>2026-04-11T08:12:41.999Z</time></trkpt><trkpt lat="45.459739066050304" lon="9.446835354539337"><ele>102.0</ele><time>2026-04-11T08:12:43.999Z</time></trkpt><trkpt lat="45.45969066088298" lon="9.446769579522883"><ele>102.0</ele><time>2026-04-11T08:12:45.999Z</time></trkpt><trkpt lat="45.45962594776131" lon="9.446744462119115"><ele>102.0</ele><time>2026-04-11T08:12:48.999Z</time></trkpt><trkpt lat="45.45958165170089" lon="9.446808882174327"><ele>102.0</ele><time>2026-04-11T08:12:50.999Z</time></trkpt><trkpt lat="45.4595540302662" lon="9.446900792461191"><ele>102.0</ele><time>2026-04-11T08:12:52.999Z</time></trkpt><trkpt lat="45.45951266829192" lon="9.447021471768158"><ele>102.0</ele><time>2026-04-11T08:12:55.999Z</time></trkpt><trkpt lat="45.459479687972525" lon="9.447150068270712"><ele>102.0</ele><time>2026-04-11T08:12:58.999Z</time></trkpt><trkpt lat="45.459437359041296" lon="9.447260507791093"><ele>101.83333333333333</ele><time>2026-04-11T08:13:01.999Z</time></trkpt><trkpt lat="45.459407617339565" lon="9.447376386857336"><ele>101.66666666666666</ele><time>2026-04-11T08:13:04.999Z</time></trkpt><trkpt lat="45.45936593371539" lon="9.447489601903817"><ele>101.5</ele><time>2026-04-11T08:13:07.999Z</time></trkpt><trkpt lat="45.45933512859056" lon="9.447578508920401"><ele>101.33333333333333</ele><time>2026-04-11T08:13:09.999Z</time></trkpt><trkpt lat="45.459311484108696" lon="9.447676002817534"><ele>101.16666666666666</ele><time>2026-04-11T08:13:11.999Z</time></trkpt><trkpt lat="45.45927700080654" lon="9.44777973897535"><ele>101.0</ele><time>2026-04-11T08:13:13.999Z</time></trkpt><trkpt lat="45.45924095226265" lon="9.447882345923974"><ele>101.0</ele><time>2026-04-11T08:13:15.999Z</time></trkpt><trkpt lat="45.459174991228714" lon="9.44794322632429"><ele>101.0</ele><time>2026-04-11T08:13:17.999Z</time></trkpt><trkpt lat="45.45907430923987" lon="9.447899033157372"><ele>101.0</ele><time>2026-04-11T08:13:19.999Z</time></trkpt><trkpt lat="45.45898468163292" lon="9.447856896492665"><ele>101.0</ele><time>2026-04-11T08:13:21.999Z</time></trkpt><trkpt lat="45.45888660288165" lon="9.447824183001233"><ele>101.0</ele><time>2026-04-11T08:13:23.999Z</time></trkpt><trkpt lat="45.458786383776236" lon="9.44776729593325"><ele>101.25</ele><time>2026-04-11T08:13:25.999Z</time></trkpt><trkpt lat="45.4586903772445" lon="9.447702701215265"><ele>101.5</ele><time>2026-04-11T08:13:27.998Z</time></trkpt><trkpt lat="45.458600607131324" lon="9.447606995758907"><ele>101.75</ele><time>2026-04-11T08:13:29.998Z</time></trkpt><trkpt lat="45.45852009612335" lon="9.44748578207296"><ele>102.0</ele><time>2026-04-11T08:13:31.998Z</time></trkpt><trkpt lat="45.45845119552702" lon="9.447354264995681"><ele>102.0</ele><time>2026-04-11T08:13:34Z</time></trkpt><trkpt lat="45.45837437230235" lon="9.44722232635141"><ele>102.0</ele><time>2026-04-11T08:13:36Z</time></trkpt><trkpt lat="45.45829772606272" lon="9.44709023427323"><ele>102.0</ele><time>2026-04-11T08:13:38Z</time></trkpt><trkpt lat="45.45821601603699" lon="9.446967734687442"><ele>102.0</ele><time>2026-04-11T08:13:40Z</time></trkpt><trkpt lat="45.45814048161149" lon="9.446845631355723"><ele>101.8</ele><time>2026-04-11T08:13:42Z</time></trkpt><trkpt lat="45.45807509867071" lon="9.446715205798158"><ele>101.6</ele><time>2026-04-11T08:13:44Z</time></trkpt><trkpt lat="45.45801443550525" lon="9.446574885478523"><ele>101.39999999999999</ele><time>2026-04-11T08:13:46Z</time></trkpt><trkpt lat="45.45796089241473" lon="9.446443366612373"><ele>101.19999999999999</ele><time>2026-04-11T08:13:48Z</time></trkpt><trkpt lat="45.45791108451172" lon="9.44630767652022"><ele>101.0</ele><time>2026-04-11T08:13:50Z</time></trkpt><trkpt lat="45.457869570974125" lon="9.446194125994198"><ele>100.8</ele><time>2026-04-11T08:13:52Z</time></trkpt><trkpt lat="45.45783093356463" lon="9.446062123106612"><ele>100.6</ele><time>2026-04-11T08:13:54Z</time></trkpt><trkpt lat="45.4577903163966" lon="9.445946116631792"><ele>100.4</ele><time>2026-04-11T08:13:56Z</time></trkpt><trkpt lat="45.45774916922535" lon="9.445825413470054"><ele>100.2</ele><time>2026-04-11T08:13:58Z</time></trkpt><trkpt lat="45.45771209889433" lon="9.44571507300441"><ele>100.0</ele><time>2026-04-11T08:14:00Z</time></trkpt><trkpt lat="45.45768151964236" lon="9.445597566662888"><ele>100.00000000000001</ele><time>2026-04-11T08:14:02Z</time></trkpt><trkpt lat="45.45770014749581" lon="9.445488629684512"><ele>100.0</ele><time>2026-04-11T08:14:04Z</time></trkpt><trkpt lat="45.45775055642834" lon="9.445417147659292"><ele>100.0</ele><time>2026-04-11T08:14:06Z</time></trkpt><trkpt lat="45.45781291676005" lon="9.445339693300907"><ele>100.0</ele><time>2026-04-11T08:14:08Z</time></trkpt><trkpt lat="45.45784046976276" lon="9.44521761781867"><ele>100.00000000000001</ele><time>2026-04-11T08:14:10Z</time></trkpt><trkpt lat="45.45780788728626" lon="9.445092315556142"><ele>100.0</ele><time>2026-04-11T08:14:12Z</time></trkpt><trkpt lat="45.45777001764924" lon="9.444964474052801"><ele>99.8</ele><time>2026-04-11T08:14:14Z</time></trkpt><trkpt lat="45.45774324465403" lon="9.444824616573628"><ele>99.6</ele><time>2026-04-11T08:14:15.999Z</time></trkpt><trkpt lat="45.457729309015996" lon="9.444679471806417"><ele>99.4</ele><time>2026-04-11T08:14:17.999Z</time></trkpt><trkpt lat="45.457705113393594" lon="9.444528044869617"><ele>99.2</ele><time>2026-04-11T08:14:19.999Z</time></trkpt><trkpt lat="45.457682307153455" lon="9.44437478686061"><ele>99.0</ele><time>2026-04-11T08:14:21.999Z</time></trkpt><trkpt lat="45.4576533049357" lon="9.444223389425145"><ele>98.5</ele><time>2026-04-11T08:14:23.999Z</time></trkpt><trkpt lat="45.45760617862817" lon="9.444088325051881"><ele>98.0</ele><time>2026-04-11T08:14:25.999Z</time></trkpt><trkpt lat="45.45756224731214" lon="9.443940198301524"><ele>97.5</ele><time>2026-04-11T08:14:27.999Z</time></trkpt><trkpt lat="45.4575269767944" lon="9.443779035348546"><ele>97.0</ele><time>2026-04-11T08:14:29.999Z</time></trkpt><trkpt lat="45.457491260395464" lon="9.443617474217595"><ele>96.75</ele><time>2026-04-11T08:14:31.999Z</time></trkpt><trkpt lat="45.45744749130991" lon="9.443459682502592"><ele>96.5</ele><time>2026-04-11T08:14:33.999Z</time></trkpt><trkpt lat="45.457411235114" lon="9.443299721550268"><ele>96.25</ele><time>2026-04-11T08:14:35.999Z</time></trkpt><trkpt lat="45.45736979091633" lon="9.443133892249527"><ele>96.0</ele><time>2026-04-11T08:14:37.999Z</time></trkpt><trkpt lat="45.45732990697067" lon="9.4429669614514"><ele>96.4</ele><time>2026-04-11T08:14:39.999Z</time></trkpt><trkpt lat="45.457303348685805" lon="9.442885431692575"><ele>96.8</ele><time>2026-04-11T08:14:40.999Z</time></trkpt><trkpt lat="45.45726486658152" lon="9.44272855643405"><ele>97.2</ele><time>2026-04-11T08:14:42.999Z</time></trkpt><trkpt lat="45.457213838121625" lon="9.442572445377072"><ele>97.60000000000001</ele><time>2026-04-11T08:14:44.999Z</time></trkpt><trkpt lat="45.45716031255955" lon="9.442420928306628"><ele>98.0</ele><time>2026-04-11T08:14:46.999Z</time></trkpt><trkpt lat="45.45709474715018" lon="9.442275981374621"><ele>98.25</ele><time>2026-04-11T08:14:48.999Z</time></trkpt><trkpt lat="45.457016122068474" lon="9.442150817957994"><ele>98.5</ele><time>2026-04-11T08:14:50.999Z</time></trkpt><trkpt lat="45.4569336702649" lon="9.442025400961516"><ele>98.75</ele><time>2026-04-11T08:14:52.999Z</time></trkpt><trkpt lat="45.45684635181217" lon="9.44191024475111"><ele>99.0</ele><time>2026-04-11T08:14:54.999Z</time></trkpt><trkpt lat="45.45675260123809" lon="9.441802709640866"><ele>99.0</ele><time>2026-04-11T08:14:56.999Z</time></trkpt><trkpt lat="45.456701494161415" lon="9.441746251868706"><ele>99.0</ele><time>2026-04-11T08:14:57.999Z</time></trkpt><trkpt lat="45.45660250220607" lon="9.441663915794953"><ele>99.0</ele><time>2026-04-11T08:14:59.999Z</time></trkpt><trkpt lat="45.456503350297595" lon="9.441590604583393"><ele>99.0</ele><time>2026-04-11T08:15:01.999Z</time></trkpt><trkpt lat="45.45640127379431" lon="9.441536665854352"><ele>99.0</ele><time>2026-04-11T08:15:03.999Z</time></trkpt><trkpt lat="45.45627815261641" lon="9.441496891232935"><ele>99.0</ele><time>2026-04-11T08:15:05.999Z</time></trkpt><trkpt lat="45.456168482963626" lon="9.44146645794139"><ele>99.0</ele><time>2026-04-11T08:15:07.999Z</time></trkpt><trkpt lat="45.45606198292265" lon="9.441452826476235"><ele>99.0</ele><time>2026-04-11T08:15:09.999Z</time></trkpt><trkpt lat="45.455944681367555" lon="9.44144001976296"><ele>99.0</ele><time>2026-04-11T08:15:11.999Z</time></trkpt><trkpt lat="45.45583228266322" lon="9.44144794452071"><ele>99.0</ele><time>2026-04-11T08:15:13.999Z</time></trkpt><trkpt lat="45.45571493457969" lon="9.441463389599598"><ele>99.0</ele><time>2026-04-11T08:15:15.999Z</time></trkpt><trkpt lat="45.455603898731276" lon="9.441479228674893"><ele>99.0</ele><time>2026-04-11T08:15:17.999Z</time></trkpt><trkpt lat="45.455484118575306" lon="9.441507276395548"><ele>99.0</ele><time>2026-04-11T08:15:19.999Z</time></trkpt><trkpt lat="45.455370124540586" lon="9.441532325963282"><ele>99.0</ele><time>2026-04-11T08:15:21.999Z</time></trkpt><trkpt lat="45.45525998632443" lon="9.441558141394983"><ele>99.2</ele><time>2026-04-11T08:15:23.999Z</time></trkpt><trkpt lat="45.45515031587879" lon="9.441579896880395"><ele>99.4</ele><time>2026-04-11T08:15:25.999Z</time></trkpt><trkpt lat="45.45504066260829" lon="9.441601758525811"><ele>99.6</ele><time>2026-04-11T08:15:27.999Z</time></trkpt><trkpt lat="45.45493005779412" lon="9.441620255593538"><ele>99.8</ele><time>2026-04-11T08:15:29.999Z</time></trkpt><trkpt lat="45.454815805492764" lon="9.441628658610815"><ele>100.0</ele><time>2026-04-11T08:15:31.999Z</time></trkpt><trkpt lat="45.454701771122494" lon="9.44162285570682"><ele>100.75</ele><time>2026-04-11T08:15:33.999Z</time></trkpt><trkpt lat="45.45459096728059" lon="9.441594355802932"><ele>101.5</ele><time>2026-04-11T08:15:35.999Z</time></trkpt><trkpt lat="45.45447676235367" lon="9.441556507751137"><ele>102.25</ele><time>2026-04-11T08:15:37.999Z</time></trkpt><trkpt lat="45.454370788370525" lon="9.441516225317043"><ele>103.0</ele><time>2026-04-11T08:15:40Z</time></trkpt><trkpt lat="45.45426579885237" lon="9.441469175429775"><ele>103.0</ele><time>2026-04-11T08:15:42Z</time></trkpt><trkpt lat="45.45415541802802" lon="9.441408112687556"><ele>103.0</ele><time>2026-04-11T08:15:44Z</time></trkpt><trkpt lat="45.45404861107421" lon="9.441341807971535"><ele>103.0</ele><time>2026-04-11T08:15:46Z</time></trkpt><trkpt lat="45.453945498740694" lon="9.441276385568758"><ele>103.0</ele><time>2026-04-11T08:15:48Z</time></trkpt><trkpt lat="45.45388911942253" lon="9.441236112454465"><ele>103.0</ele><time>2026-04-11T08:15:49Z</time></trkpt><trkpt lat="45.45380240416765" lon="9.441156685214137"><ele>102.80000000000001</ele><time>2026-04-11T08:15:51Z</time></trkpt><trkpt lat="45.45372027290415" lon="9.441068628326605"><ele>102.6</ele><time>2026-04-11T08:15:53Z</time></trkpt><trkpt lat="45.453648200555506" lon="9.440987418106037"><ele>102.4</ele><time>2026-04-11T08:15:55Z</time></trkpt><trkpt lat="45.45357108871433" lon="9.44090365838176"><ele>102.19999999999999</ele><time>2026-04-11T08:15:57Z</time></trkpt><trkpt lat="45.45348558568411" lon="9.440807040979971"><ele>102.0</ele><time>2026-04-11T08:15:59Z</time></trkpt><trkpt lat="45.453403863551905" lon="9.440712532513345"><ele>102.0</ele><time>2026-04-11T08:16:01Z</time></trkpt><trkpt lat="45.453318875182" lon="9.440621763496399"><ele>102.0</ele><time>2026-04-11T08:16:03Z</time></trkpt><trkpt lat="45.453230016622975" lon="9.440533445490127"><ele>102.0</ele><time>2026-04-11T08:16:05Z</time></trkpt><trkpt lat="45.45314994362648" lon="9.4404293423023"><ele>102.0</ele><time>2026-04-11T08:16:07Z</time></trkpt><trkpt lat="45.45307462552791" lon="9.440345256295325"><ele>102.0</ele><time>2026-04-11T08:16:09Z</time></trkpt><trkpt lat="45.45299413420317" lon="9.440252025868116"><ele>101.39999999999999</ele><time>2026-04-11T08:16:11Z</time></trkpt><trkpt lat="45.45291191652372" lon="9.440165343745276"><ele>100.8</ele><time>2026-04-11T08:16:13Z</time></trkpt><trkpt lat="45.452831462172256" lon="9.440081158317994"><ele>100.2</ele><time>2026-04-11T08:16:15Z</time></trkpt><trkpt lat="45.45275186058748" lon="9.43999510289186"><ele>99.6</ele><time>2026-04-11T08:16:17Z</time></trkpt><trkpt lat="45.45267795894085" lon="9.439902302800638"><ele>99.0</ele><time>2026-04-11T08:16:19Z</time></trkpt><trkpt lat="45.45259370368461" lon="9.439810792579694"><ele>99.0</ele><time>2026-04-11T08:16:21Z</time></trkpt><trkpt lat="45.45251412919458" lon="9.439722052880912"><ele>99.0</ele><time>2026-04-11T08:16:23Z</time></trkpt><trkpt lat="45.45243027456751" lon="9.439624446489969"><ele>99.0</ele><time>2026-04-11T08:16:24.999Z</time></trkpt><trkpt lat="45.45234612395577" lon="9.439530887816328"><ele>99.0</ele><time>2026-04-11T08:16:26.999Z</time></trkpt><trkpt lat="45.45226232880942" lon="9.43943409653824"><ele>99.0</ele><time>2026-04-11T08:16:28.999Z</time></trkpt><trkpt lat="45.45217575697945" lon="9.43933958979082"><ele>99.0</ele><time>2026-04-11T08:16:30.999Z</time></trkpt><trkpt lat="45.452086625131344" lon="9.43923978996109"><ele>99.0</ele><time>2026-04-11T08:16:32.999Z</time></trkpt><trkpt lat="45.451997750804736" lon="9.439136245673527"><ele>99.0</ele><time>2026-04-11T08:16:34.999Z</time></trkpt><trkpt lat="45.451907745200906" lon="9.43903680745419"><ele>99.0</ele><time>2026-04-11T08:16:36.999Z</time></trkpt><trkpt lat="45.45181519324402" lon="9.438934631895865"><ele>99.0</ele><time>2026-04-11T08:16:38.999Z</time></trkpt><trkpt lat="45.45173378760559" lon="9.438842536265845"><ele>99.0</ele><time>2026-04-11T08:16:40.999Z</time></trkpt><trkpt lat="45.45166532782848" lon="9.438751991466185"><ele>99.0</ele><time>2026-04-11T08:16:42.999Z</time></trkpt><trkpt lat="45.45158328930653" lon="9.438664652793427"><ele>99.0</ele><time>2026-04-11T08:16:44.999Z</time></trkpt><trkpt lat="45.45149951374772" lon="9.438570039749784"><ele>99.0</ele><time>2026-04-11T08:16:46.999Z</time></trkpt><trkpt lat="45.45142209301153" lon="9.438477489286514"><ele>98.6</ele><time>2026-04-11T08:16:48.999Z</time></trkpt><trkpt lat="45.4513481194901" lon="9.43839191492312"><ele>98.2</ele><time>2026-04-11T08:16:50.999Z</time></trkpt><trkpt lat="45.4512685864158" lon="9.438301393647786"><ele>97.8</ele><time>2026-04-11T08:16:52.999Z</time></trkpt><trkpt lat="45.45119227709527" lon="9.438211261595217"><ele>97.39999999999999</ele><time>2026-04-11T08:16:54.999Z</time></trkpt><trkpt lat="45.45110772748175" lon="9.438115542339892"><ele>97.0</ele><time>2026-04-11T08:16:56.999Z</time></trkpt><trkpt lat="45.451025904474626" lon="9.438021476362945"><ele>96.8</ele><time>2026-04-11T08:16:58.999Z</time></trkpt><trkpt lat="45.450940360166655" lon="9.437931622190735"><ele>96.6</ele><time>2026-04-11T08:17:00.999Z</time></trkpt><trkpt lat="45.45085730127999" lon="9.437837800823347"><ele>96.39999999999999</ele><time>2026-04-11T08:17:02.999Z</time></trkpt><trkpt lat="45.45077156160507" lon="9.437743437305828"><ele>96.19999999999999</ele><time>2026-04-11T08:17:04.999Z</time></trkpt><trkpt lat="45.45068748466438" lon="9.437651661757275"><ele>96.0</ele><time>2026-04-11T08:17:06.999Z</time></trkpt><trkpt lat="45.45060676049414" lon="9.437561144565025"><ele>96.0</ele><time>2026-04-11T08:17:08.999Z</time></trkpt><trkpt lat="45.45052500228189" lon="9.43747272283101"><ele>96.0</ele><time>2026-04-11T08:17:10.999Z</time></trkpt><trkpt lat="45.450451838129354" lon="9.437389821815568"><ele>96.0</ele><time>2026-04-11T08:17:12.999Z</time></trkpt><trkpt lat="45.45037137182208" lon="9.437300125076142"><ele>96.0</ele><time>2026-04-11T08:17:14.999Z</time></trkpt><trkpt lat="45.45029644983191" lon="9.437213270104241"><ele>96.0</ele><time>2026-04-11T08:17:16.999Z</time></trkpt><trkpt lat="45.45021754450055" lon="9.437120335739609"><ele>96.19999999999999</ele><time>2026-04-11T08:17:18.999Z</time></trkpt><trkpt lat="45.45013603709462" lon="9.43703027012461"><ele>96.39999999999999</ele><time>2026-04-11T08:17:20.999Z</time></trkpt><trkpt lat="45.45005559138716" lon="9.4369374728007"><ele>96.6</ele><time>2026-04-11T08:17:22.999Z</time></trkpt><trkpt lat="45.44997778276348" lon="9.436848951498844"><ele>96.8</ele><time>2026-04-11T08:17:24.999Z</time></trkpt><trkpt lat="45.44989547010369" lon="9.436756729318278"><ele>97.0</ele><time>2026-04-11T08:17:26.999Z</time></trkpt><trkpt lat="45.44981127782457" lon="9.43666558074006"><ele>97.0</ele><time>2026-04-11T08:17:28.999Z</time></trkpt><trkpt lat="45.44973004190293" lon="9.43657347064405"><ele>97.0</ele><time>2026-04-11T08:17:30.999Z</time></trkpt><trkpt lat="45.44964882182307" lon="9.436480508226428"><ele>97.0</ele><time>2026-04-11T08:17:32.999Z</time></trkpt><trkpt lat="45.44956430929943" lon="9.436387416808591"><ele>97.0</ele><time>2026-04-11T08:17:34.999Z</time></trkpt><trkpt lat="45.44949018167747" lon="9.436308594237833"><ele>97.0</ele><time>2026-04-11T08:17:36.999Z</time></trkpt><trkpt lat="45.44942665743763" lon="9.436230163544643"><ele>97.19999999999999</ele><time>2026-04-11T08:17:38.999Z</time></trkpt><trkpt lat="45.44936041994369" lon="9.4361510846339"><ele>97.4</ele><time>2026-04-11T08:17:40.999Z</time></trkpt><trkpt lat="45.44928625719991" lon="9.436070546376403"><ele>97.6</ele><time>2026-04-11T08:17:42.999Z</time></trkpt><trkpt lat="45.449214096326784" lon="9.435985608121245"><ele>97.80000000000001</ele><time>2026-04-11T08:17:44.999Z</time></trkpt><trkpt lat="45.44913834745996" lon="9.435903982943348"><ele>98.0</ele><time>2026-04-11T08:17:47Z</time></trkpt><trkpt lat="45.44906052940009" lon="9.435818366378067"><ele>98.0</ele><time>2026-04-11T08:17:49Z</time></trkpt><trkpt lat="45.448985460790034" lon="9.435732023333765"><ele>98.0</ele><time>2026-04-11T08:17:51Z</time></trkpt><trkpt lat="45.44890370641904" lon="9.435647092549708"><ele>98.0</ele><time>2026-04-11T08:17:53Z</time></trkpt><trkpt lat="45.44883080915294" lon="9.435562779918348"><ele>98.0</ele><time>2026-04-11T08:17:55Z</time></trkpt><trkpt lat="45.44875572621901" lon="9.435472919059984"><ele>98.0</ele><time>2026-04-11T08:17:57Z</time></trkpt><trkpt lat="45.44867817308796" lon="9.435383261358956"><ele>97.80000000000001</ele><time>2026-04-11T08:17:59Z</time></trkpt><trkpt lat="45.44859908723493" lon="9.435295176694147"><ele>97.6</ele><time>2026-04-11T08:18:01Z</time></trkpt><trkpt lat="45.44851851891569" lon="9.435204994437493"><ele>97.4</ele><time>2026-04-11T08:18:03Z</time></trkpt><trkpt lat="45.448438379030385" lon="9.43511577297353"><ele>97.19999999999999</ele><time>2026-04-11T08:18:05Z</time></trkpt><trkpt lat="45.4483570382942" lon="9.435021608002845"><ele>97.0</ele><time>2026-04-11T08:18:07Z</time></trkpt><trkpt lat="45.44827826534662" lon="9.43492942921659"><ele>97.0</ele><time>2026-04-11T08:18:09Z</time></trkpt><trkpt lat="45.448206763519735" lon="9.434843560856013"><ele>97.0</ele><time>2026-04-11T08:18:11Z</time></trkpt><trkpt lat="45.44813558354579" lon="9.434761488297974"><ele>97.0</ele><time>2026-04-11T08:18:13Z</time></trkpt><trkpt lat="45.448058333307735" lon="9.434675594097076"><ele>97.0</ele><time>2026-04-11T08:18:15Z</time></trkpt><trkpt lat="45.447977746149185" lon="9.434585119642394"><ele>97.0</ele><time>2026-04-11T08:18:17Z</time></trkpt><trkpt lat="45.44789759140607" lon="9.434496487497595"><ele>96.8</ele><time>2026-04-11T08:18:19Z</time></trkpt><trkpt lat="45.447812452189694" lon="9.434408884805881"><ele>96.6</ele><time>2026-04-11T08:18:21Z</time></trkpt><trkpt lat="45.447729047753505" lon="9.434317413790184"><ele>96.39999999999999</ele><time>2026-04-11T08:18:23Z</time></trkpt><trkpt lat="45.44764423886273" lon="9.434227041987654"><ele>96.19999999999999</ele><time>2026-04-11T08:18:25Z</time></trkpt><trkpt lat="45.4475662817272" lon="9.434140708871684"><ele>96.0</ele><time>2026-04-11T08:18:27Z</time></trkpt><trkpt lat="45.447491503733616" lon="9.434062516790783"><ele>96.0</ele><time>2026-04-11T08:18:29Z</time></trkpt><trkpt lat="45.44741964317743" lon="9.433987884582608"><ele>96.0</ele><time>2026-04-11T08:18:30.999Z</time></trkpt><trkpt lat="45.44734541291824" lon="9.433931255806634"><ele>96.0</ele><time>2026-04-11T08:18:32.999Z</time></trkpt><trkpt lat="45.447280812089524" lon="9.433884448843504"><ele>96.0</ele><time>2026-04-11T08:18:34.999Z</time></trkpt><trkpt lat="45.44721708172502" lon="9.433821883760642"><ele>96.0</ele><time>2026-04-11T08:18:36.999Z</time></trkpt><trkpt lat="45.4471411069456" lon="9.433746855047533"><ele>96.0</ele><time>2026-04-11T08:18:38.999Z</time></trkpt><trkpt lat="45.44705845947118" lon="9.433669374280012"><ele>96.0</ele><time>2026-04-11T08:18:40.999Z</time></trkpt><trkpt lat="45.44697228249506" lon="9.433600227605055"><ele>96.0</ele><time>2026-04-11T08:18:42.999Z</time></trkpt><trkpt lat="45.44687810049146" lon="9.433526592199927"><ele>96.0</ele><time>2026-04-11T08:18:44.999Z</time></trkpt><trkpt lat="45.44678692640675" lon="9.433452153340994"><ele>96.0</ele><time>2026-04-11T08:18:46.999Z</time></trkpt><trkpt lat="45.446693377418875" lon="9.433386620468607"><ele>96.0</ele><time>2026-04-11T08:18:48.999Z</time></trkpt><trkpt lat="45.446607284248024" lon="9.433322838576233"><ele>96.0</ele><time>2026-04-11T08:18:50.999Z</time></trkpt><trkpt lat="45.44652869790484" lon="9.433259828982656"><ele>96.0</ele><time>2026-04-11T08:18:52.999Z</time></trkpt><trkpt lat="45.446445544907924" lon="9.433191346395104"><ele>96.0</ele><time>2026-04-11T08:18:54.999Z</time></trkpt><trkpt lat="45.44635923110282" lon="9.43313539489743"><ele>96.0</ele><time>2026-04-11T08:18:56.999Z</time></trkpt><trkpt lat="45.446287306916" lon="9.433077982415583"><ele>96.0</ele><time>2026-04-11T08:18:58.999Z</time></trkpt><trkpt lat="45.44621639567342" lon="9.433027887475635"><ele>96.0</ele><time>2026-04-11T08:19:00.999Z</time></trkpt><trkpt lat="45.446142867692096" lon="9.432969189665423"><ele>96.16666666666667</ele><time>2026-04-11T08:19:02.999Z</time></trkpt><trkpt lat="45.446071548815866" lon="9.43290632549818"><ele>96.33333333333334</ele><time>2026-04-11T08:19:04.999Z</time></trkpt><trkpt lat="45.445988313045504" lon="9.432847497967083"><ele>96.5</ele><time>2026-04-11T08:19:06.999Z</time></trkpt><trkpt lat="45.44590811211777" lon="9.43278282066462"><ele>96.66666666666667</ele><time>2026-04-11T08:19:08.999Z</time></trkpt><trkpt lat="45.44583327479175" lon="9.432717611594708"><ele>96.83333333333334</ele><time>2026-04-11T08:19:10.999Z</time></trkpt><trkpt lat="45.44575827568292" lon="9.432661727008856"><ele>97.0</ele><time>2026-04-11T08:19:12.999Z</time></trkpt><trkpt lat="45.44569081919215" lon="9.43261275546291"><ele>97.00000000000001</ele><time>2026-04-11T08:19:14.999Z</time></trkpt><trkpt lat="45.44562934141935" lon="9.432560360477387"><ele>97.0</ele><time>2026-04-11T08:19:16.999Z</time></trkpt><trkpt lat="45.445572808831486" lon="9.4325177501768"><ele>97.0</ele><time>2026-04-11T08:19:18.999Z</time></trkpt><trkpt lat="45.44550481907568" lon="9.432465835632529"><ele>97.0</ele><time>2026-04-11T08:19:20.999Z</time></trkpt><trkpt lat="45.44542999291071" lon="9.432411142276747"><ele>97.00000000000001</ele><time>2026-04-11T08:19:22.999Z</time></trkpt><trkpt lat="45.44535399816334" lon="9.432346385965708"><ele>97.0</ele><time>2026-04-11T08:19:24.999Z</time></trkpt><trkpt lat="45.4452795937717" lon="9.432293763389207"><ele>96.83333333333334</ele><time>2026-04-11T08:19:26.999Z</time></trkpt><trkpt lat="45.4452034570733" lon="9.43223876953635"><ele>96.66666666666667</ele><time>2026-04-11T08:19:28.999Z</time></trkpt><trkpt lat="45.445132102197796" lon="9.432176248743456"><ele>96.5</ele><time>2026-04-11T08:19:30.999Z</time></trkpt><trkpt lat="45.4450502138637" lon="9.432111299760447"><ele>96.33333333333334</ele><time>2026-04-11T08:19:32.999Z</time></trkpt><trkpt lat="45.444973103744154" lon="9.432052598000027"><ele>96.16666666666667</ele><time>2026-04-11T08:19:34.999Z</time></trkpt><trkpt lat="45.44490002095314" lon="9.431995285544355"><ele>96.0</ele><time>2026-04-11T08:19:36.999Z</time></trkpt><trkpt lat="45.444824254452875" lon="9.43193778365701"><ele>96.0</ele><time>2026-04-11T08:19:38.999Z</time></trkpt><trkpt lat="45.4447457060058" lon="9.431870234400701"><ele>96.0</ele><time>2026-04-11T08:19:40.999Z</time></trkpt><trkpt lat="45.44467365286594" lon="9.43181884537508"><ele>96.0</ele><time>2026-04-11T08:19:42.999Z</time></trkpt><trkpt lat="45.44460636297132" lon="9.431761664926002"><ele>96.0</ele><time>2026-04-11T08:19:44.999Z</time></trkpt><trkpt lat="45.44454524280014" lon="9.43171035137141"><ele>96.0</ele><time>2026-04-11T08:19:46.999Z</time></trkpt><trkpt lat="45.44449308689719" lon="9.431657168457688"><ele>96.0</ele><time>2026-04-11T08:19:48.999Z</time></trkpt><trkpt lat="45.44441640125314" lon="9.431595524288554"><ele>96.0</ele><time>2026-04-11T08:19:52Z</time></trkpt><trkpt lat="45.44435324420415" lon="9.4315402643731"><ele>96.0</ele><time>2026-04-11T08:19:54Z</time></trkpt><trkpt lat="45.44429094199534" lon="9.431463052398936"><ele>96.0</ele><time>2026-04-11T08:19:56Z</time></trkpt><trkpt lat="45.444222524218034" lon="9.431380758348087"><ele>96.0</ele><time>2026-04-11T08:19:58Z</time></trkpt><trkpt lat="45.4441484610489" lon="9.431299162876439"><ele>96.0</ele><time>2026-04-11T08:20:00Z</time></trkpt><trkpt lat="45.44407431655129" lon="9.431212271666773"><ele>96.0</ele><time>2026-04-11T08:20:02Z</time></trkpt><trkpt lat="45.443998396650315" lon="9.431114605506304"><ele>96.0</ele><time>2026-04-11T08:20:04Z</time></trkpt><trkpt lat="45.443923470998506" lon="9.43103013727252"><ele>96.0</ele><time>2026-04-11T08:20:06Z</time></trkpt><trkpt lat="45.443851718097505" lon="9.4309299764866"><ele>96.0</ele><time>2026-04-11T08:20:08Z</time></trkpt><trkpt lat="45.44378708345164" lon="9.430837085352016"><ele>96.0</ele><time>2026-04-11T08:20:10Z</time></trkpt><trkpt lat="45.443719118573505" lon="9.43073519303847"><ele>96.0</ele><time>2026-04-11T08:20:12Z</time></trkpt><trkpt lat="45.44365506840479" lon="9.43063490017395"><ele>96.4</ele><time>2026-04-11T08:20:14Z</time></trkpt><trkpt lat="45.44358660908847" lon="9.43052572799556"><ele>96.8</ele><time>2026-04-11T08:20:16Z</time></trkpt><trkpt lat="45.44352666056349" lon="9.430416995296081"><ele>97.2</ele><time>2026-04-11T08:20:18Z</time></trkpt><trkpt lat="45.443468969398" lon="9.430306553209402"><ele>97.60000000000001</ele><time>2026-04-11T08:20:20Z</time></trkpt><trkpt lat="45.44340733660781" lon="9.430202164764447"><ele>98.0</ele><time>2026-04-11T08:20:22Z</time></trkpt><trkpt lat="45.44335413870761" lon="9.430086610706372"><ele>98.0</ele><time>2026-04-11T08:20:24Z</time></trkpt><trkpt lat="45.44330383222309" lon="9.429984700641771"><ele>98.0</ele><time>2026-04-11T08:20:26Z</time></trkpt><trkpt lat="45.44325743551273" lon="9.429876049461114"><ele>98.0</ele><time>2026-04-11T08:20:28Z</time></trkpt><trkpt lat="45.44321417022687" lon="9.429768562271434"><ele>98.0</ele><time>2026-04-11T08:20:30Z</time></trkpt><trkpt lat="45.44316000207609" lon="9.429651192627619"><ele>98.0</ele><time>2026-04-11T08:20:31.999Z</time></trkpt><trkpt lat="45.44311359603837" lon="9.42952595984559"><ele>98.0</ele><time>2026-04-11T08:20:33.999Z</time></trkpt><trkpt lat="45.44307346064498" lon="9.429394252186187"><ele>98.0</ele><time>2026-04-11T08:20:35.999Z</time></trkpt><trkpt lat="45.44304083437818" lon="9.429273093751839"><ele>98.0</ele><time>2026-04-11T08:20:37.999Z</time></trkpt><trkpt lat="45.44300527938492" lon="9.42914930814931"><ele>98.0</ele><time>2026-04-11T08:20:39.999Z</time></trkpt><trkpt lat="45.44296368881442" lon="9.429021577958272"><ele>98.0</ele><time>2026-04-11T08:20:41.999Z</time></trkpt><trkpt lat="45.44293082850444" lon="9.428887790821184"><ele>98.2</ele><time>2026-04-11T08:20:43.999Z</time></trkpt><trkpt lat="45.44289848895147" lon="9.42876638889678"><ele>98.4</ele><time>2026-04-11T08:20:45.999Z</time></trkpt><trkpt lat="45.442866304076745" lon="9.428648119488823"><ele>98.60000000000001</ele><time>2026-04-11T08:20:47.999Z</time></trkpt><trkpt lat="45.44283871032296" lon="9.42851641582183"><ele>98.80000000000001</ele><time>2026-04-11T08:20:49.999Z</time></trkpt><trkpt lat="45.442805890170796" lon="9.428377822955714"><ele>99.0</ele><time>2026-04-11T08:20:51.999Z</time></trkpt><trkpt lat="45.44278766290438" lon="9.428248342941153"><ele>99.0</ele><time>2026-04-11T08:20:53.999Z</time></trkpt><trkpt lat="45.4427691745608" lon="9.428116400751547"><ele>99.0</ele><time>2026-04-11T08:20:55.999Z</time></trkpt><trkpt lat="45.44275211827979" lon="9.427984850272594"><ele>99.0</ele><time>2026-04-11T08:20:57.999Z</time></trkpt><trkpt lat="45.442733401525864" lon="9.427869738864274"><ele>99.0</ele><time>2026-04-11T08:20:59.999Z</time></trkpt><trkpt lat="45.442721806247945" lon="9.427770236095446"><ele>99.0</ele><time>2026-04-11T08:21:01.999Z</time></trkpt><trkpt lat="45.442715968931225" lon="9.427673418253562"><ele>99.0</ele><time>2026-04-11T08:21:03.999Z</time></trkpt><trkpt lat="45.44271491142284" lon="9.427567164499868"><ele>99.0</ele><time>2026-04-11T08:21:05.999Z</time></trkpt><trkpt lat="45.44269302163796" lon="9.427431127121167"><ele>99.0</ele><time>2026-04-11T08:21:07.999Z</time></trkpt><trkpt lat="45.44268095064316" lon="9.427304254999866"><ele>99.0</ele><time>2026-04-11T08:21:09.999Z</time></trkpt><trkpt lat="45.44267943774091" lon="9.427199706442744"><ele>99.0</ele><time>2026-04-11T08:21:11.999Z</time></trkpt><trkpt lat="45.442670499438506" lon="9.42707865438474"><ele>99.0</ele><time>2026-04-11T08:21:14.999Z</time></trkpt><trkpt lat="45.44269168782327" lon="9.426958510677851"><ele>99.0</ele><time>2026-04-11T08:21:17.999Z</time></trkpt><trkpt lat="45.44269706338392" lon="9.426845494249104"><ele>98.83333333333333</ele><time>2026-04-11T08:21:20.999Z</time></trkpt><trkpt lat="45.442684015321" lon="9.426752226645364"><ele>98.66666666666666</ele><time>2026-04-11T08:21:23.999Z</time></trkpt><trkpt lat="45.44270097065969" lon="9.426650422344197"><ele>98.5</ele><time>2026-04-11T08:21:25.999Z</time></trkpt><trkpt lat="45.44273164255939" lon="9.426549002797104"><ele>98.33333333333333</ele><time>2026-04-11T08:21:29.999Z</time></trkpt><trkpt lat="45.44276838136694" lon="9.42635326060994"><ele>98.16666666666666</ele><time>2026-04-11T08:21:33.999Z</time></trkpt><trkpt lat="45.44280495871536" lon="9.426265824639374"><ele>98.0</ele><time>2026-04-11T08:21:34.999Z</time></trkpt><trkpt lat="45.44285138655112" lon="9.426201152371075"><ele>97.83333333333333</ele><time>2026-04-11T08:21:35.999Z</time></trkpt><trkpt lat="45.44289873508774" lon="9.42613721640735"><ele>97.66666666666666</ele><time>2026-04-11T08:21:36.999Z</time></trkpt><trkpt lat="45.442950915316906" lon="9.426056806384034"><ele>97.5</ele><time>2026-04-11T08:21:37.999Z</time></trkpt><trkpt lat="45.44298626679472" lon="9.425972082847407"><ele>97.33333333333334</ele><time>2026-04-11T08:21:38.999Z</time></trkpt><trkpt lat="45.443044209294996" lon="9.425817685906093"><ele>97.16666666666667</ele><time>2026-04-11T08:21:40.999Z</time></trkpt><trkpt lat="45.44309471174063" lon="9.425690840149786"><ele>97.0</ele><time>2026-04-11T08:21:42.999Z</time></trkpt><trkpt lat="45.44314513331893" lon="9.42556888852625"><ele>96.8</ele><time>2026-04-11T08:21:44.999Z</time></trkpt><trkpt lat="45.44319690587718" lon="9.425460099880093"><ele>96.6</ele><time>2026-04-11T08:21:46.999Z</time></trkpt><trkpt lat="45.44325291581863" lon="9.425345125883819"><ele>96.39999999999999</ele><time>2026-04-11T08:21:48.998Z</time></trkpt><trkpt lat="45.44329997305334" lon="9.425227273255256"><ele>96.19999999999999</ele><time>2026-04-11T08:21:50.998Z</time></trkpt><trkpt lat="45.44335335198399" lon="9.425108027591488"><ele>96.0</ele><time>2026-04-11T08:21:52.998Z</time></trkpt><trkpt lat="45.44340179488747" lon="9.424986657620115"><ele>96.0</ele><time>2026-04-11T08:21:54.998Z</time></trkpt><trkpt lat="45.443458671419705" lon="9.424865628862035"><ele>96.0</ele><time>2026-04-11T08:21:56.998Z</time></trkpt><trkpt lat="45.44351317092147" lon="9.424740594597884"><ele>96.0</ele><time>2026-04-11T08:21:59Z</time></trkpt><trkpt lat="45.44357054173314" lon="9.424612168792304"><ele>96.0</ele><time>2026-04-11T08:22:01Z</time></trkpt><trkpt lat="45.44363196705278" lon="9.42449452965911"><ele>96.0</ele><time>2026-04-11T08:22:03Z</time></trkpt><trkpt lat="45.44369446217331" lon="9.424372541744152"><ele>96.0</ele><time>2026-04-11T08:22:05Z</time></trkpt><trkpt lat="45.44375845881128" lon="9.424254394362023"><ele>96.0</ele><time>2026-04-11T08:22:07Z</time></trkpt><trkpt lat="45.443821106584075" lon="9.42414527128837"><ele>96.0</ele><time>2026-04-11T08:22:09Z</time></trkpt><trkpt lat="45.44388546261418" lon="9.424041982519958"><ele>96.0</ele><time>2026-04-11T08:22:11Z</time></trkpt><trkpt lat="45.44394363648229" lon="9.423947462143476"><ele>96.0</ele><time>2026-04-11T08:22:13Z</time></trkpt><trkpt lat="45.4440065160054" lon="9.423846724942896"><ele>95.8</ele><time>2026-04-11T08:22:15Z</time></trkpt><trkpt lat="45.44407418788082" lon="9.423736101217184"><ele>95.6</ele><time>2026-04-11T08:22:17Z</time></trkpt><trkpt lat="45.44413988991763" lon="9.423621769380725"><ele>95.4</ele><time>2026-04-11T08:22:19Z</time></trkpt><trkpt lat="45.444208904599094" lon="9.42350450831636"><ele>95.2</ele><time>2026-04-11T08:22:21Z</time></trkpt><trkpt lat="45.44427799147783" lon="9.42338628292197"><ele>95.0</ele><time>2026-04-11T08:22:23Z</time></trkpt><trkpt lat="45.444347579125676" lon="9.4232670303332"><ele>95.0</ele><time>2026-04-11T08:22:25Z</time></trkpt><trkpt lat="45.44440887035035" lon="9.423153941011003"><ele>95.0</ele><time>2026-04-11T08:22:27Z</time></trkpt><trkpt lat="45.444456845649256" lon="9.423034307566597"><ele>95.0</ele><time>2026-04-11T08:22:29Z</time></trkpt><trkpt lat="45.44449301141577" lon="9.422915634396498"><ele>95.0</ele><time>2026-04-11T08:22:31Z</time></trkpt><trkpt lat="45.444520409583475" lon="9.422800148066159"><ele>95.0</ele><time>2026-04-11T08:22:33Z</time></trkpt><trkpt lat="45.44452583574315" lon="9.422668636471363"><ele>95.0</ele><time>2026-04-11T08:22:35Z</time></trkpt><trkpt lat="45.444521985643085" lon="9.422541911595305"><ele>95.0</ele><time>2026-04-11T08:22:36.999Z</time></trkpt><trkpt lat="45.444498129607666" lon="9.422403245885636"><ele>95.0</ele><time>2026-04-11T08:22:38.999Z</time></trkpt><trkpt lat="45.444460229339086" lon="9.422282777256028"><ele>95.0</ele><time>2026-04-11T08:22:40.999Z</time></trkpt><trkpt lat="45.44440565208382" lon="9.422176141431542"><ele>95.0</ele><time>2026-04-11T08:22:42.999Z</time></trkpt><trkpt lat="45.444330180799234" lon="9.422089042947453"><ele>95.0</ele><time>2026-04-11T08:22:44.999Z</time></trkpt><trkpt lat="45.44424950292859" lon="9.422010416879699"><ele>95.0</ele><time>2026-04-11T08:22:46.999Z</time></trkpt><trkpt lat="45.4441505359193" lon="9.421954422284912"><ele>95.0</ele><time>2026-04-11T08:22:48.999Z</time></trkpt><trkpt lat="45.44404926350699" lon="9.42189620220095"><ele>95.0</ele><time>2026-04-11T08:22:50.999Z</time></trkpt><trkpt lat="45.443953228531576" lon="9.421861561298499"><ele>95.0</ele><time>2026-04-11T08:22:52.999Z</time></trkpt><trkpt lat="45.44385740805166" lon="9.421831284218682"><ele>95.2</ele><time>2026-04-11T08:22:54.999Z</time></trkpt><trkpt lat="45.44376252563769" lon="9.421803158297186"><ele>95.4</ele><time>2026-04-11T08:22:56.999Z</time></trkpt><trkpt lat="45.443663500112" lon="9.42176787386249"><ele>95.6</ele><time>2026-04-11T08:22:58.999Z</time></trkpt><trkpt lat="45.443562455230854" lon="9.42175693418558"><ele>95.8</ele><time>2026-04-11T08:23:00.999Z</time></trkpt><trkpt lat="45.443463866820274" lon="9.421760014104427"><ele>96.0</ele><time>2026-04-11T08:23:02.999Z</time></trkpt><trkpt lat="45.44336324612773" lon="9.421754246475228"><ele>96.0</ele><time>2026-04-11T08:23:04.999Z</time></trkpt><trkpt lat="45.44326660979535" lon="9.421754968327253"><ele>96.0</ele><time>2026-04-11T08:23:06.999Z</time></trkpt><trkpt lat="45.443161851170345" lon="9.42175000407717"><ele>96.0</ele><time>2026-04-11T08:23:08.999Z</time></trkpt><trkpt lat="45.44306132758381" lon="9.421744964492163"><ele>96.0</ele><time>2026-04-11T08:23:10.999Z</time></trkpt><trkpt lat="45.44295681316966" lon="9.421741797731286"><ele>96.0</ele><time>2026-04-11T08:23:12.999Z</time></trkpt><trkpt lat="45.44286143995565" lon="9.421730969768715"><ele>96.0</ele><time>2026-04-11T08:23:14.999Z</time></trkpt><trkpt lat="45.44276473906694" lon="9.421726186301829"><ele>96.0</ele><time>2026-04-11T08:23:16.999Z</time></trkpt><trkpt lat="45.4426679297679" lon="9.421722507010234"><ele>96.0</ele><time>2026-04-11T08:23:18.999Z</time></trkpt><trkpt lat="45.44256908730995" lon="9.421721063332404"><ele>96.0</ele><time>2026-04-11T08:23:20.999Z</time></trkpt><trkpt lat="45.442471829648966" lon="9.421713531487617"><ele>96.0</ele><time>2026-04-11T08:23:22.999Z</time></trkpt><trkpt lat="45.44237430578896" lon="9.421711752992895"><ele>96.0</ele><time>2026-04-11T08:23:24.999Z</time></trkpt><trkpt lat="45.44227198188912" lon="9.421708979706626"><ele>96.0</ele><time>2026-04-11T08:23:26.999Z</time></trkpt><trkpt lat="45.442168627372965" lon="9.421706876323526"><ele>96.0</ele><time>2026-04-11T08:23:28.999Z</time></trkpt><trkpt lat="45.442085174397214" lon="9.421698005589215"><ele>96.0</ele><time>2026-04-11T08:23:30.999Z</time></trkpt><trkpt lat="45.4420023593422" lon="9.42168850262541"><ele>96.0</ele><time>2026-04-11T08:23:32.999Z</time></trkpt><trkpt lat="45.44192356242109" lon="9.42168400424665"><ele>95.8</ele><time>2026-04-11T08:23:34.999Z</time></trkpt><trkpt lat="45.4418352440027" lon="9.42168155886034"><ele>95.6</ele><time>2026-04-11T08:23:36.999Z</time></trkpt><trkpt lat="45.44174290096865" lon="9.421669862652683"><ele>95.4</ele><time>2026-04-11T08:23:38.999Z</time></trkpt><trkpt lat="45.441648905728556" lon="9.421666524200319"><ele>95.2</ele><time>2026-04-11T08:23:40.999Z</time></trkpt><trkpt lat="45.4415561623106" lon="9.421660372672001"><ele>95.0</ele><time>2026-04-11T08:23:42.999Z</time></trkpt><trkpt lat="45.441458807726896" lon="9.42165441863417"><ele>95.0</ele><time>2026-04-11T08:23:44.999Z</time></trkpt><trkpt lat="45.44136385063058" lon="9.421647073826446"><ele>95.0</ele><time>2026-04-11T08:23:46.999Z</time></trkpt><trkpt lat="45.44126634958033" lon="9.421637580935583"><ele>95.0</ele><time>2026-04-11T08:23:48.999Z</time></trkpt><trkpt lat="45.441168023204476" lon="9.421632036492369"><ele>95.0</ele><time>2026-04-11T08:23:50.999Z</time></trkpt><trkpt lat="45.441082433602006" lon="9.42162587114508"><ele>95.0</ele><time>2026-04-11T08:23:52.998Z</time></trkpt><trkpt lat="45.44099546463139" lon="9.421616663842105"><ele>95.16666666666667</ele><time>2026-04-11T08:23:54.998Z</time></trkpt><trkpt lat="45.4409173584434" lon="9.421612702756173"><ele>95.33333333333334</ele><time>2026-04-11T08:23:56.998Z</time></trkpt><trkpt lat="45.44083040779635" lon="9.421604402732745"><ele>95.5</ele><time>2026-04-11T08:23:58.998Z</time></trkpt><trkpt lat="45.440749192544516" lon="9.421595028388007"><ele>95.66666666666667</ele><time>2026-04-11T08:24:00.998Z</time></trkpt><trkpt lat="45.440668597375094" lon="9.421593248319178"><ele>95.83333333333333</ele><time>2026-04-11T08:24:02.998Z</time></trkpt><trkpt lat="45.44058851711546" lon="9.421589991571288"><ele>96.0</ele><time>2026-04-11T08:24:05Z</time></trkpt><trkpt lat="45.44049455480031" lon="9.42159442717537"><ele>96.16666666666667</ele><time>2026-04-11T08:24:08Z</time></trkpt><trkpt lat="45.44041442202303" lon="9.42158303216238"><ele>96.33333333333334</ele><time>2026-04-11T08:24:11Z</time></trkpt><trkpt lat="45.44036517349069" lon="9.4217370362979"><ele>96.5</ele><time>2026-04-11T08:26:41.999Z</time></trkpt><trkpt lat="45.44035157146568" lon="9.421868327584258"><ele>96.66666666666667</ele><time>2026-04-11T08:26:44.999Z</time></trkpt><trkpt lat="45.440345970741475" lon="9.421966145181875"><ele>96.83333333333334</ele><time>2026-04-11T08:26:46.999Z</time></trkpt><trkpt lat="45.44034017880888" lon="9.42206592430692"><ele>97.0</ele><time>2026-04-11T08:26:48.999Z</time></trkpt><trkpt lat="45.44033273479693" lon="9.42216372894785"><ele>97.33333333333334</ele><time>2026-04-11T08:26:50.999Z</time></trkpt><trkpt lat="45.44031984670565" lon="9.42228195611818"><ele>97.66666666666667</ele><time>2026-04-11T08:26:53.999Z</time></trkpt><trkpt lat="45.440310211032106" lon="9.422408533089703"><ele>98.0</ele><time>2026-04-11T08:26:57.999Z</time></trkpt><trkpt lat="45.44026721181697" lon="9.422510889288434"><ele>98.33333333333334</ele><time>2026-04-11T08:27:00.999Z</time></trkpt><trkpt lat="45.44022163534961" lon="9.422577967373492"><ele>98.66666666666667</ele><time>2026-04-11T08:27:02.999Z</time></trkpt><trkpt lat="45.44017339307268" lon="9.422650299407856"><ele>99.0</ele><time>2026-04-11T08:27:04.999Z</time></trkpt><trkpt lat="45.4401196874435" lon="9.422731498702722"><ele>99.0</ele><time>2026-04-11T08:27:06.999Z</time></trkpt><trkpt lat="45.44007756660223" lon="9.422814797431938"><ele>99.0</ele><time>2026-04-11T08:27:08.999Z</time></trkpt><trkpt lat="45.440033579689" lon="9.422901480035705"><ele>99.0</ele><time>2026-04-11T08:27:10.999Z</time></trkpt><trkpt lat="45.43997956334934" lon="9.422990007906787"><ele>99.0</ele><time>2026-04-11T08:27:12.999Z</time></trkpt><trkpt lat="45.43993341032022" lon="9.423076343817751"><ele>99.0</ele><time>2026-04-11T08:27:14.999Z</time></trkpt><trkpt lat="45.43990703604728" lon="9.423181918773434"><ele>99.0</ele><time>2026-04-11T08:27:16.999Z</time></trkpt><trkpt lat="45.43990215798106" lon="9.423304332197572"><ele>98.80000000000001</ele><time>2026-04-11T08:27:18.999Z</time></trkpt><trkpt lat="45.43990404211248" lon="9.423418209919125"><ele>98.60000000000001</ele><time>2026-04-11T08:27:20.999Z</time></trkpt><trkpt lat="45.43991407654025" lon="9.423543207866258"><ele>98.4</ele><time>2026-04-11T08:27:22.999Z</time></trkpt><trkpt lat="45.4399275299518" lon="9.423683616384341"><ele>98.2</ele><time>2026-04-11T08:27:25.999Z</time></trkpt><trkpt lat="45.439934124957716" lon="9.423825248148354"><ele>98.0</ele><time>2026-04-11T08:27:28.999Z</time></trkpt><trkpt lat="45.439951824083956" lon="9.423953678552726"><ele>97.83333333333333</ele><time>2026-04-11T08:27:30.999Z</time></trkpt><trkpt lat="45.43996722065627" lon="9.424058571275628"><ele>97.66666666666666</ele><time>2026-04-11T08:27:32.999Z</time></trkpt><trkpt lat="45.439983133752186" lon="9.424188987692938"><ele>97.5</ele><time>2026-04-11T08:27:34.999Z</time></trkpt><trkpt lat="45.44000103099874" lon="9.424334182251823"><ele>97.33333333333334</ele><time>2026-04-11T08:27:36.999Z</time></trkpt><trkpt lat="45.440011853002396" lon="9.424445106970829"><ele>97.16666666666667</ele><time>2026-04-11T08:27:38.999Z</time></trkpt><trkpt lat="45.43996413820192" lon="9.424526098645035"><ele>97.0</ele><time>2026-04-11T08:27:40.999Z</time></trkpt><trkpt lat="45.43987978058322" lon="9.424529571278049"><ele>97.0</ele><time>2026-04-11T08:27:42.999Z</time></trkpt><trkpt lat="45.43976760057863" lon="9.42449201174013"><ele>97.0</ele><time>2026-04-11T08:27:44.999Z</time></trkpt><trkpt lat="45.43965629511918" lon="9.4244712378158"><ele>97.0</ele><time>2026-04-11T08:27:46.999Z</time></trkpt><trkpt lat="45.439554016331684" lon="9.424465435424644"><ele>97.0</ele><time>2026-04-11T08:27:48.999Z</time></trkpt><trkpt lat="45.4394606626833" lon="9.424463195218868"><ele>97.0</ele><time>2026-04-11T08:27:50.999Z</time></trkpt><trkpt lat="45.439367121760604" lon="9.424449247186752"><ele>97.0</ele><time>2026-04-11T08:27:52.999Z</time></trkpt><trkpt lat="45.43926373910408" lon="9.424456849731184"><ele>97.0</ele><time>2026-04-11T08:27:54.998Z</time></trkpt><trkpt lat="45.439171905777904" lon="9.424492428119127"><ele>97.0</ele><time>2026-04-11T08:27:56.998Z</time></trkpt><trkpt lat="45.43907834052873" lon="9.42455713504038"><ele>97.0</ele><time>2026-04-11T08:27:58.998Z</time></trkpt><trkpt lat="45.43898854186127" lon="9.4246179963398"><ele>97.0</ele><time>2026-04-11T08:28:00.998Z</time></trkpt><trkpt lat="45.43889262941595" lon="9.424663975245911"><ele>97.0</ele><time>2026-04-11T08:28:02.998Z</time></trkpt><trkpt lat="45.4387866944392" lon="9.424679361633517"><ele>97.0</ele><time>2026-04-11T08:28:04.998Z</time></trkpt><trkpt lat="45.43868310920224" lon="9.42465012504327"><ele>97.0</ele><time>2026-04-11T08:28:06.998Z</time></trkpt><trkpt lat="45.43857966144228" lon="9.424578661227953"><ele>97.0</ele><time>2026-04-11T08:28:08.998Z</time></trkpt><trkpt lat="45.43850670733429" lon="9.424491772862721"><ele>97.0</ele><time>2026-04-11T08:28:10.998Z</time></trkpt><trkpt lat="45.438430315919355" lon="9.424381661567653"><ele>97.0</ele><time>2026-04-11T08:28:12.998Z</time></trkpt><trkpt lat="45.43834152405446" lon="9.424303252933115"><ele>97.0</ele><time>2026-04-11T08:28:14.998Z</time></trkpt><trkpt lat="45.438240199179326" lon="9.424263357882143"><ele>97.0</ele><time>2026-04-11T08:28:17Z</time></trkpt><trkpt lat="45.43813520198482" lon="9.424229449874142"><ele>97.0</ele><time>2026-04-11T08:28:19Z</time></trkpt><trkpt lat="45.43803180134656" lon="9.424188801618588"><ele>97.0</ele><time>2026-04-11T08:28:21Z</time></trkpt><trkpt lat="45.43792932213785" lon="9.424150031394356"><ele>96.8</ele><time>2026-04-11T08:28:23Z</time></trkpt><trkpt lat="45.43782975819608" lon="9.424110886111665"><ele>96.6</ele><time>2026-04-11T08:28:25Z</time></trkpt><trkpt lat="45.4377284395067" lon="9.42409118059133"><ele>96.39999999999999</ele><time>2026-04-11T08:28:27Z</time></trkpt><trkpt lat="45.437627288747905" lon="9.424107341400779"><ele>96.19999999999999</ele><time>2026-04-11T08:28:29Z</time></trkpt><trkpt lat="45.437528577283665" lon="9.424146224320717"><ele>96.0</ele><time>2026-04-11T08:28:31Z</time></trkpt><trkpt lat="45.437434579260646" lon="9.424184253256819"><ele>96.0</ele><time>2026-04-11T08:28:33Z</time></trkpt><trkpt lat="45.43733670768962" lon="9.424199380792526"><ele>96.0</ele><time>2026-04-11T08:28:35Z</time></trkpt><trkpt lat="45.437238446879675" lon="9.424189801081006"><ele>96.0</ele><time>2026-04-11T08:28:37Z</time></trkpt><trkpt lat="45.43713504433771" lon="9.424170854264661"><ele>96.0</ele><time>2026-04-11T08:28:39Z</time></trkpt><trkpt lat="45.4370337734028" lon="9.42414384220949"><ele>96.0</ele><time>2026-04-11T08:28:41Z</time></trkpt><trkpt lat="45.43693362246327" lon="9.424113468575982"><ele>96.0</ele><time>2026-04-11T08:28:43Z</time></trkpt><trkpt lat="45.43683231922377" lon="9.42407422886506"><ele>96.0</ele><time>2026-04-11T08:28:45Z</time></trkpt><trkpt lat="45.43673129577765" lon="9.424040120280841"><ele>96.0</ele><time>2026-04-11T08:28:46.999Z</time></trkpt><trkpt lat="45.436633845893894" lon="9.42400818109866"><ele>96.0</ele><time>2026-04-11T08:28:48.999Z</time></trkpt><trkpt lat="45.436531310582055" lon="9.423977348855868"><ele>96.0</ele><time>2026-04-11T08:28:50.999Z</time></trkpt><trkpt lat="45.43643351646761" lon="9.423951895566153"><ele>96.0</ele><time>2026-04-11T08:28:52.999Z</time></trkpt><trkpt lat="45.43633086832683" lon="9.423917315319482"><ele>96.0</ele><time>2026-04-11T08:28:54.999Z</time></trkpt><trkpt lat="45.43623338290678" lon="9.42386108356304"><ele>96.0</ele><time>2026-04-11T08:28:56.999Z</time></trkpt><trkpt lat="45.4361402552872" lon="9.423799195121804"><ele>96.0</ele><time>2026-04-11T08:28:58.999Z</time></trkpt><trkpt lat="45.4360612871474" lon="9.42370865351792"><ele>96.0</ele><time>2026-04-11T08:29:00.999Z</time></trkpt><trkpt lat="45.43600922798991" lon="9.423605113978873"><ele>96.33333333333333</ele><time>2026-04-11T08:29:02.999Z</time></trkpt><trkpt lat="45.43595838626619" lon="9.423508251201637"><ele>96.66666666666666</ele><time>2026-04-11T08:29:04.999Z</time></trkpt><trkpt lat="45.435888070120164" lon="9.423411823060647"><ele>97.0</ele><time>2026-04-11T08:29:06.999Z</time></trkpt><trkpt lat="45.435826285742685" lon="9.423304463810368"><ele>97.33333333333333</ele><time>2026-04-11T08:29:08.999Z</time></trkpt><trkpt lat="45.43577155469701" lon="9.423225029367924"><ele>97.66666666666666</ele><time>2026-04-11T08:29:10.999Z</time></trkpt><trkpt lat="45.4357124245834" lon="9.423150474176675"><ele>98.0</ele><time>2026-04-11T08:29:12.999Z</time></trkpt><trkpt lat="45.435641342696556" lon="9.423083321391971"><ele>98.0</ele><time>2026-04-11T08:29:14.999Z</time></trkpt><trkpt lat="45.43555425232041" lon="9.423076649476961"><ele>98.0</ele><time>2026-04-11T08:29:16.999Z</time></trkpt><trkpt lat="45.435459087796005" lon="9.423093286905623"><ele>98.0</ele><time>2026-04-11T08:29:18.999Z</time></trkpt><trkpt lat="45.4353646000395" lon="9.423109827615333"><ele>98.0</ele><time>2026-04-11T08:29:20.999Z</time></trkpt><trkpt lat="45.43527429995458" lon="9.423104397208293"><ele>98.0</ele><time>2026-04-11T08:29:22.999Z</time></trkpt><trkpt lat="45.435179875242675" lon="9.423079674746582"><ele>98.2</ele><time>2026-04-11T08:29:24.999Z</time></trkpt><trkpt lat="45.43508163117545" lon="9.423073388608438"><ele>98.4</ele><time>2026-04-11T08:29:26.999Z</time></trkpt><trkpt lat="45.434982117571565" lon="9.423058605040618"><ele>98.60000000000001</ele><time>2026-04-11T08:29:28.999Z</time></trkpt><trkpt lat="45.43487930803357" lon="9.423041052000459"><ele>98.80000000000001</ele><time>2026-04-11T08:29:30.999Z</time></trkpt><trkpt lat="45.4347780341953" lon="9.423016606876581"><ele>99.0</ele><time>2026-04-11T08:29:32.999Z</time></trkpt><trkpt lat="45.43467708549321" lon="9.42298508299631"><ele>98.6</ele><time>2026-04-11T08:29:34.999Z</time></trkpt><trkpt lat="45.43458797438774" lon="9.422961455906721"><ele>98.2</ele><time>2026-04-11T08:29:36.999Z</time></trkpt><trkpt lat="45.43449695805615" lon="9.422941242070811"><ele>97.8</ele><time>2026-04-11T08:29:38.999Z</time></trkpt><trkpt lat="45.43440701841359" lon="9.4229094263662"><ele>97.39999999999999</ele><time>2026-04-11T08:29:40.999Z</time></trkpt><trkpt lat="45.43431176382085" lon="9.42286519313294"><ele>97.0</ele><time>2026-04-11T08:29:42.999Z</time></trkpt><trkpt lat="45.43423192598873" lon="9.42278281335778"><ele>97.0</ele><time>2026-04-11T08:29:44.999Z</time></trkpt><trkpt lat="45.43418459807115" lon="9.422655094116632"><ele>97.0</ele><time>2026-04-11T08:29:46.999Z</time></trkpt><trkpt lat="45.43415213443329" lon="9.422519686746707"><ele>97.0</ele><time>2026-04-11T08:29:48.999Z</time></trkpt><trkpt lat="45.43411166358698" lon="9.422384250044091"><ele>97.0</ele><time>2026-04-11T08:29:50.999Z</time></trkpt><trkpt lat="45.434069591408274" lon="9.422252389242512"><ele>97.0</ele><time>2026-04-11T08:29:52.999Z</time></trkpt><trkpt lat="45.43399773603527" lon="9.422161489123246"><ele>97.16666666666667</ele><time>2026-04-11T08:29:54.999Z</time></trkpt><trkpt lat="45.43392199205193" lon="9.422112198441972"><ele>97.33333333333334</ele><time>2026-04-11T08:29:56.999Z</time></trkpt><trkpt lat="45.43384643886079" lon="9.422088622242216"><ele>97.5</ele><time>2026-04-11T08:29:58.999Z</time></trkpt><trkpt lat="45.43377151389153" lon="9.422071324925739"><ele>97.66666666666666</ele><time>2026-04-11T08:30:00.999Z</time></trkpt><trkpt lat="45.43368736841157" lon="9.42206138978137"><ele>97.83333333333333</ele><time>2026-04-11T08:30:02.999Z</time></trkpt><trkpt lat="45.43359851416677" lon="9.4220891710358"><ele>98.0</ele><time>2026-04-11T08:30:04.998Z</time></trkpt><trkpt lat="45.433504597876976" lon="9.422152988253789"><ele>97.4</ele><time>2026-04-11T08:30:06.998Z</time></trkpt><trkpt lat="45.43341992520365" lon="9.422238053739186"><ele>96.80000000000001</ele><time>2026-04-11T08:30:08.998Z</time></trkpt><trkpt lat="45.4333301962147" lon="9.422314524974972"><ele>96.2</ele><time>2026-04-11T08:30:10.998Z</time></trkpt><trkpt lat="45.43323882449223" lon="9.422371208414255"><ele>95.6</ele><time>2026-04-11T08:30:12.998Z</time></trkpt><trkpt lat="45.43313080887964" lon="9.422386595036135"><ele>95.0</ele><time>2026-04-11T08:30:14.998Z</time></trkpt><trkpt lat="45.4330174390834" lon="9.422380596171926"><ele>95.4</ele><time>2026-04-11T08:30:16.998Z</time></trkpt><trkpt lat="45.43289721055981" lon="9.422381149056019"><ele>95.8</ele><time>2026-04-11T08:30:18.998Z</time></trkpt><trkpt lat="45.43279131564533" lon="9.422380742883748"><ele>96.19999999999999</ele><time>2026-04-11T08:30:20.998Z</time></trkpt><trkpt lat="45.43268386452652" lon="9.422379553422811"><ele>96.6</ele><time>2026-04-11T08:30:23Z</time></trkpt><trkpt lat="45.43258675324527" lon="9.422372682380876"><ele>97.0</ele><time>2026-04-11T08:30:25Z</time></trkpt><trkpt lat="45.432500119890875" lon="9.422364017608912"><ele>97.00000000000001</ele><time>2026-04-11T08:30:27Z</time></trkpt><trkpt lat="45.432425256634055" lon="9.42233188861571"><ele>97.0</ele><time>2026-04-11T08:30:29Z</time></trkpt><trkpt lat="45.432380195033154" lon="9.42224446354203"><ele>97.0</ele><time>2026-04-11T08:30:31Z</time></trkpt><trkpt lat="45.432388250615425" lon="9.422140802224277"><ele>97.0</ele><time>2026-04-11T08:30:33Z</time></trkpt><trkpt lat="45.43239308716127" lon="9.422022791224183"><ele>97.00000000000001</ele><time>2026-04-11T08:30:35Z</time></trkpt><trkpt lat="45.4323934993978" lon="9.421886414119513"><ele>97.0</ele><time>2026-04-11T08:30:37Z</time></trkpt><trkpt lat="45.432396810903896" lon="9.421742608838592"><ele>96.8</ele><time>2026-04-11T08:30:39Z</time></trkpt><trkpt lat="45.43240146405841" lon="9.42160335175104"><ele>96.6</ele><time>2026-04-11T08:30:41Z</time></trkpt><trkpt lat="45.43240141662452" lon="9.42145616473487"><ele>96.39999999999999</ele><time>2026-04-11T08:30:43Z</time></trkpt><trkpt lat="45.43240531925491" lon="9.421297271149635"><ele>96.19999999999999</ele><time>2026-04-11T08:30:45Z</time></trkpt><trkpt lat="45.43240935412599" lon="9.421143354456955"><ele>96.0</ele><time>2026-04-11T08:30:47Z</time></trkpt><trkpt lat="45.43241004197427" lon="9.420983037845996"><ele>96.4</ele><time>2026-04-11T08:30:49Z</time></trkpt><trkpt lat="45.432415256610284" lon="9.420830657925405"><ele>96.8</ele><time>2026-04-11T08:30:51Z</time></trkpt><trkpt lat="45.432421811968965" lon="9.420677053583727"><ele>97.2</ele><time>2026-04-11T08:30:53Z</time></trkpt><trkpt lat="45.43242923094031" lon="9.420529990879238"><ele>97.60000000000001</ele><time>2026-04-11T08:30:54.999Z</time></trkpt><trkpt lat="45.43243438147072" lon="9.420388167239969"><ele>98.0</ele><time>2026-04-11T08:30:56.999Z</time></trkpt><trkpt lat="45.43243591426616" lon="9.42025408469291"><ele>98.0</ele><time>2026-04-11T08:30:58.999Z</time></trkpt><trkpt lat="45.432427243940346" lon="9.420379233272604"><ele>98.0</ele><time>2026-04-11T08:31:14.999Z</time></trkpt><trkpt lat="45.43242137620476" lon="9.420530288083791"><ele>98.0</ele><time>2026-04-11T08:31:16.999Z</time></trkpt><trkpt lat="45.432416881811015" lon="9.420652056652827"><ele>98.0</ele><time>2026-04-11T08:31:18.999Z</time></trkpt><trkpt lat="45.43240554571558" lon="9.420766952868409"><ele>98.0</ele><time>2026-04-11T08:31:20.999Z</time></trkpt><trkpt lat="45.43240292267213" lon="9.420895784402283"><ele>98.0</ele><time>2026-04-11T08:31:22.999Z</time></trkpt><trkpt lat="45.43240379121395" lon="9.42102322504586"><ele>98.0</ele><time>2026-04-11T08:31:24.999Z</time></trkpt><trkpt lat="45.43240002966222" lon="9.421162281280738"><ele>98.0</ele><time>2026-04-11T08:31:26.999Z</time></trkpt><trkpt lat="45.43239778140415" lon="9.421299895665845"><ele>98.0</ele><time>2026-04-11T08:31:28.999Z</time></trkpt><trkpt lat="45.432393805742294" lon="9.421440837665305"><ele>98.0</ele><time>2026-04-11T08:31:30.999Z</time></trkpt><trkpt lat="45.43239051776429" lon="9.421574462207156"><ele>97.80000000000001</ele><time>2026-04-11T08:31:32.999Z</time></trkpt><trkpt lat="45.43238810687382" lon="9.42171240844048"><ele>97.6</ele><time>2026-04-11T08:31:34.999Z</time></trkpt><trkpt lat="45.43238416803192" lon="9.421854164096512"><ele>97.4</ele><time>2026-04-11T08:31:36.999Z</time></trkpt><trkpt lat="45.43238105334126" lon="9.421987281625697"><ele>97.19999999999999</ele><time>2026-04-11T08:31:38.999Z</time></trkpt><trkpt lat="45.43237280257645" lon="9.422124456288273"><ele>97.0</ele><time>2026-04-11T08:31:40.999Z</time></trkpt><trkpt lat="45.432377491627086" lon="9.422260633030241"><ele>97.0</ele><time>2026-04-11T08:31:42.999Z</time></trkpt><trkpt lat="45.4324333328805" lon="9.422357238967821"><ele>97.0</ele><time>2026-04-11T08:31:44.999Z</time></trkpt><trkpt lat="45.432525505004165" lon="9.422385037278406"><ele>97.0</ele><time>2026-04-11T08:31:46.999Z</time></trkpt><trkpt lat="45.432626296105944" lon="9.422398794471974"><ele>97.0</ele><time>2026-04-11T08:31:48.999Z</time></trkpt><trkpt lat="45.43272438000419" lon="9.42240006958093"><ele>97.0</ele><time>2026-04-11T08:31:50.999Z</time></trkpt><trkpt lat="45.43282780661742" lon="9.422397469162643"><ele>97.0</ele><time>2026-04-11T08:31:52.999Z</time></trkpt><trkpt lat="45.43293017751861" lon="9.42239951169032"><ele>97.0</ele><time>2026-04-11T08:31:54.999Z</time></trkpt><trkpt lat="45.43303349723642" lon="9.422398339955503"><ele>97.0</ele><time>2026-04-11T08:31:56.999Z</time></trkpt><trkpt lat="45.43312878758833" lon="9.422390728978403"><ele>97.0</ele><time>2026-04-11T08:31:58.999Z</time></trkpt><trkpt lat="45.43320785717246" lon="9.422373352904671"><ele>97.0</ele><time>2026-04-11T08:32:00.999Z</time></trkpt><trkpt lat="45.43327953514181" lon="9.422346103463312"><ele>96.6</ele><time>2026-04-11T08:32:02.999Z</time></trkpt><trkpt lat="45.43336151743474" lon="9.422290109535217"><ele>96.19999999999999</ele><time>2026-04-11T08:32:04.999Z</time></trkpt><trkpt lat="45.43344207111593" lon="9.422214984634897"><ele>95.8</ele><time>2026-04-11T08:32:06.999Z</time></trkpt><trkpt lat="45.433524660231186" lon="9.42213379314315"><ele>95.4</ele><time>2026-04-11T08:32:08.999Z</time></trkpt><trkpt lat="45.4336152148177" lon="9.422067453367978"><ele>95.0</ele><time>2026-04-11T08:32:10.998Z</time></trkpt><trkpt lat="45.43370672849214" lon="9.422033158725183"><ele>95.0</ele><time>2026-04-11T08:32:12.998Z</time></trkpt><trkpt lat="45.43378758501151" lon="9.422051808347634"><ele>95.0</ele><time>2026-04-11T08:32:14.998Z</time></trkpt><trkpt lat="45.433822897445715" lon="9.422161504232403"><ele>95.0</ele><time>2026-04-11T08:32:16.998Z</time></trkpt><trkpt lat="45.433805047803915" lon="9.422279202299631"><ele>95.0</ele><time>2026-04-11T08:32:18.998Z</time></trkpt><trkpt lat="45.433759520671" lon="9.422414239094767"><ele>95.0</ele><time>2026-04-11T08:32:20.998Z</time></trkpt><trkpt lat="45.433700322345096" lon="9.422580443571103"><ele>95.0</ele><time>2026-04-11T08:32:22.998Z</time></trkpt><trkpt lat="45.43367047378302" lon="9.422678242963558"><ele>95.0</ele><time>2026-04-11T08:32:23.998Z</time></trkpt><trkpt lat="45.433646485025065" lon="9.422788841622385"><ele>95.0</ele><time>2026-04-11T08:32:24.998Z</time></trkpt><trkpt lat="45.43361143805476" lon="9.42289400899727"><ele>95.0</ele><time>2026-04-11T08:32:25.998Z</time></trkpt><trkpt lat="45.43357385101545" lon="9.423007304425216"><ele>95.0</ele><time>2026-04-11T08:32:26.998Z</time></trkpt><trkpt lat="45.43354129196277" lon="9.42312408304897"><ele>95.0</ele><time>2026-04-11T08:32:28Z</time></trkpt><trkpt lat="45.433508093118" lon="9.423232660833351"><ele>95.33333333333334</ele><time>2026-04-11T08:32:29Z</time></trkpt><trkpt lat="45.43347500639624" lon="9.423343004058715"><ele>95.66666666666667</ele><time>2026-04-11T08:32:30Z</time></trkpt><trkpt lat="45.43344290807732" lon="9.423449355574736"><ele>96.0</ele><time>2026-04-11T08:32:31Z</time></trkpt><trkpt lat="45.433411833919976" lon="9.423545452999265"><ele>96.33333333333334</ele><time>2026-04-11T08:32:32Z</time></trkpt><trkpt lat="45.433382357962735" lon="9.423639927924754"><ele>96.66666666666667</ele><time>2026-04-11T08:32:33Z</time></trkpt><trkpt lat="45.43335288358951" lon="9.423728993720413"><ele>97.0</ele><time>2026-04-11T08:32:34Z</time></trkpt><trkpt lat="45.43330757777952" lon="9.423869399994135"><ele>97.16666666666667</ele><time>2026-04-11T08:32:36Z</time></trkpt><trkpt lat="45.4332615233729" lon="9.424002063568553"><ele>97.33333333333334</ele><time>2026-04-11T08:32:38Z</time></trkpt><trkpt lat="45.43323024210052" lon="9.424123616787044"><ele>97.5</ele><time>2026-04-11T08:32:40Z</time></trkpt><trkpt lat="45.43320783518776" lon="9.42424139704314"><ele>97.66666666666666</ele><time>2026-04-11T08:32:42Z</time></trkpt><trkpt lat="45.43316072741781" lon="9.424314052697412"><ele>97.83333333333333</ele><time>2026-04-11T08:32:44Z</time></trkpt><trkpt lat="45.433123807935765" lon="9.424390567654074"><ele>98.0</ele><time>2026-04-11T08:32:46Z</time></trkpt><trkpt lat="45.43307991778057" lon="9.424470201190708"><ele>98.0</ele><time>2026-04-11T08:32:48Z</time></trkpt><trkpt lat="45.43304737133737" lon="9.424549549914834"><ele>98.0</ele><time>2026-04-11T08:32:50Z</time></trkpt><trkpt lat="45.43300867149896" lon="9.42462654660544"><ele>98.0</ele><time>2026-04-11T08:32:52Z</time></trkpt><trkpt lat="45.43296892802658" lon="9.424712358040376"><ele>98.0</ele><time>2026-04-11T08:32:54Z</time></trkpt><trkpt lat="45.432929742175105" lon="9.42480987407558"><ele>98.0</ele><time>2026-04-11T08:32:56Z</time></trkpt><trkpt lat="45.43290688987327" lon="9.424920935881945"><ele>98.0</ele><time>2026-04-11T08:32:58Z</time></trkpt><trkpt lat="45.432900465213606" lon="9.425027794310877"><ele>98.0</ele><time>2026-04-11T08:32:59.999Z</time></trkpt><trkpt lat="45.4328933783036" lon="9.425131541021152"><ele>97.83333333333333</ele><time>2026-04-11T08:33:01.999Z</time></trkpt><trkpt lat="45.43288119816556" lon="9.425234041158507"><ele>97.66666666666666</ele><time>2026-04-11T08:33:03.999Z</time></trkpt><trkpt lat="45.43286481993379" lon="9.425327722839128"><ele>97.5</ele><time>2026-04-11T08:33:05.999Z</time></trkpt><trkpt lat="45.43285486249166" lon="9.425437876938329"><ele>97.33333333333334</ele><time>2026-04-11T08:33:07.999Z</time></trkpt><trkpt lat="45.432842987754" lon="9.42555316098278"><ele>97.16666666666667</ele><time>2026-04-11T08:33:09.999Z</time></trkpt><trkpt lat="45.43283144968062" lon="9.425663077336138"><ele>97.0</ele><time>2026-04-11T08:33:11.999Z</time></trkpt><trkpt lat="45.4328189110439" lon="9.42576320704799"><ele>97.00000000000001</ele><time>2026-04-11T08:33:13.999Z</time></trkpt><trkpt lat="45.432799424586136" lon="9.425869942107752"><ele>97.0</ele><time>2026-04-11T08:33:15.999Z</time></trkpt><trkpt lat="45.43279005307352" lon="9.425966690148597"><ele>97.0</ele><time>2026-04-11T08:33:17.999Z</time></trkpt><trkpt lat="45.432774665247614" lon="9.426081720726387"><ele>97.0</ele><time>2026-04-11T08:33:19.999Z</time></trkpt><trkpt lat="45.43274512678211" lon="9.426202447601343"><ele>97.00000000000001</ele><time>2026-04-11T08:33:21.999Z</time></trkpt><trkpt lat="45.43272449700114" lon="9.426316297172912"><ele>97.0</ele><time>2026-04-11T08:33:23.999Z</time></trkpt><trkpt lat="45.43270762074403" lon="9.426431990525897"><ele>97.33333333333334</ele><time>2026-04-11T08:33:25.999Z</time></trkpt><trkpt lat="45.43269045220378" lon="9.42655158967053"><ele>97.66666666666667</ele><time>2026-04-11T08:33:27.999Z</time></trkpt><trkpt lat="45.43267760235659" lon="9.42666652247772"><ele>98.0</ele><time>2026-04-11T08:33:29.999Z</time></trkpt><trkpt lat="45.43266380102114" lon="9.426776565545639"><ele>98.33333333333334</ele><time>2026-04-11T08:33:31.999Z</time></trkpt><trkpt lat="45.43264350540874" lon="9.426895289852313"><ele>98.66666666666667</ele><time>2026-04-11T08:33:33.999Z</time></trkpt><trkpt lat="45.432627962320296" lon="9.427010738813587"><ele>99.0</ele><time>2026-04-11T08:33:35.999Z</time></trkpt><trkpt lat="45.43261065277642" lon="9.427115537408751"><ele>98.83333333333333</ele><time>2026-04-11T08:33:37.999Z</time></trkpt><trkpt lat="45.43257978457059" lon="9.427205905471713"><ele>98.66666666666666</ele><time>2026-04-11T08:33:39.999Z</time></trkpt><trkpt lat="45.43253320523637" lon="9.427272200628785"><ele>98.5</ele><time>2026-04-11T08:33:41.999Z</time></trkpt><trkpt lat="45.43245150462702" lon="9.42723366476625"><ele>98.33333333333333</ele><time>2026-04-11T08:33:43.999Z</time></trkpt><trkpt lat="45.43236583591724" lon="9.42718546339372"><ele>98.16666666666666</ele><time>2026-04-11T08:33:45.999Z</time></trkpt><trkpt lat="45.432280052004124" lon="9.427193901439972"><ele>98.0</ele><time>2026-04-11T08:33:47.999Z</time></trkpt><trkpt lat="45.43219268184617" lon="9.427194499914027"><ele>97.99999999999999</ele><time>2026-04-11T08:33:49.999Z</time></trkpt><trkpt lat="45.43210634418351" lon="9.427196438835267"><ele>98.0</ele><time>2026-04-11T08:33:51.999Z</time></trkpt><trkpt lat="45.43201281078811" lon="9.42719905039371"><ele>98.0</ele><time>2026-04-11T08:33:53.999Z</time></trkpt><trkpt lat="45.43192112160162" lon="9.427194754454352"><ele>98.0</ele><time>2026-04-11T08:33:55.999Z</time></trkpt><trkpt lat="45.431832771101774" lon="9.42720007825641"><ele>97.99999999999999</ele><time>2026-04-11T08:33:57.999Z</time></trkpt><trkpt lat="45.431773304500915" lon="9.427280447572972"><ele>98.0</ele><time>2026-04-11T08:33:59.999Z</time></trkpt><trkpt lat="45.4317702454088" lon="9.427411857975143"><ele>98.0</ele><time>2026-04-11T08:34:01.999Z</time></trkpt><trkpt lat="45.43176519248966" lon="9.427531647599563"><ele>98.0</ele><time>2026-04-11T08:34:03.999Z</time></trkpt><trkpt lat="45.43175834939788" lon="9.427663773427831"><ele>98.0</ele><time>2026-04-11T08:34:05.999Z</time></trkpt><trkpt lat="45.43175834633712" lon="9.427802393967609"><ele>98.0</ele><time>2026-04-11T08:34:07.999Z</time></trkpt><trkpt lat="45.43175975403147" lon="9.427934911720907"><ele>98.0</ele><time>2026-04-11T08:34:09.999Z</time></trkpt><trkpt lat="45.431759251846024" lon="9.428060302604148"><ele>98.16666666666666</ele><time>2026-04-11T08:34:11.999Z</time></trkpt><trkpt lat="45.431760432470405" lon="9.428184229312054"><ele>98.33333333333333</ele><time>2026-04-11T08:34:13.998Z</time></trkpt><trkpt lat="45.431759981737976" lon="9.428308976454574"><ele>98.5</ele><time>2026-04-11T08:34:15.999Z</time></trkpt><trkpt lat="45.43175494860706" lon="9.428430841773128"><ele>98.66666666666666</ele><time>2026-04-11T08:34:17.998Z</time></trkpt><trkpt lat="45.43174032160511" lon="9.428538842707141"><ele>98.83333333333333</ele><time>2026-04-11T08:34:19.998Z</time></trkpt><trkpt lat="45.431729762588965" lon="9.428643534025175"><ele>99.0</ele><time>2026-04-11T08:34:21.998Z</time></trkpt><trkpt lat="45.431726971969205" lon="9.428738565381423"><ele>99.0</ele><time>2026-04-11T08:34:23.998Z</time></trkpt><trkpt lat="45.431729762670564" lon="9.428867778209362"><ele>99.0</ele><time>2026-04-11T08:34:26.998Z</time></trkpt><trkpt lat="45.431718039243" lon="9.428987429472182"><ele>99.0</ele><time>2026-04-11T08:34:29.998Z</time></trkpt><trkpt lat="45.43171152049278" lon="9.429081493506759"><ele>99.0</ele><time>2026-04-11T08:34:32.998Z</time></trkpt><trkpt lat="45.43170217206811" lon="9.429173654481435"><ele>99.0</ele><time>2026-04-11T08:34:35Z</time></trkpt><trkpt lat="45.431689476201704" lon="9.429282231441894"><ele>99.0</ele><time>2026-04-11T08:34:37Z</time></trkpt><trkpt lat="45.43167529377817" lon="9.429395746963266"><ele>99.0</ele><time>2026-04-11T08:34:39Z</time></trkpt><trkpt lat="45.43167582240716" lon="9.429523471940229"><ele>99.0</ele><time>2026-04-11T08:34:41Z</time></trkpt><trkpt lat="45.431668851986714" lon="9.429643171529987"><ele>99.0</ele><time>2026-04-11T08:34:43Z</time></trkpt><trkpt lat="45.431649644650676" lon="9.429737440762358"><ele>99.0</ele><time>2026-04-11T08:34:45Z</time></trkpt><trkpt lat="45.43163813708851" lon="9.429827353869063"><ele>99.0</ele><time>2026-04-11T08:34:47Z</time></trkpt><trkpt lat="45.43153556210551" lon="9.429850465734763"><ele>99.0</ele><time>2026-04-11T08:34:50Z</time></trkpt><trkpt lat="45.43144732698522" lon="9.429843069198341"><ele>99.0</ele><time>2026-04-11T08:34:52Z</time></trkpt><trkpt lat="45.43135330135625" lon="9.429830466592456"><ele>99.0</ele><time>2026-04-11T08:34:54Z</time></trkpt><trkpt lat="45.4312499204072" lon="9.429823429536363"><ele>99.0</ele><time>2026-04-11T08:34:56Z</time></trkpt><trkpt lat="45.43114329500259" lon="9.42981482272788"><ele>99.0</ele><time>2026-04-11T08:34:58Z</time></trkpt><trkpt lat="45.43102849854533" lon="9.429800909913851"><ele>99.0</ele><time>2026-04-11T08:35:00Z</time></trkpt><trkpt lat="45.430922574472014" lon="9.429787027835191"><ele>99.2</ele><time>2026-04-11T08:35:02Z</time></trkpt><trkpt lat="45.43082471933032" lon="9.429760877038701"><ele>99.4</ele><time>2026-04-11T08:35:04Z</time></trkpt><trkpt lat="45.43072495896037" lon="9.429750405817586"><ele>99.6</ele><time>2026-04-11T08:35:05.999Z</time></trkpt><trkpt lat="45.43062215981559" lon="9.429732386125952"><ele>99.8</ele><time>2026-04-11T08:35:07.999Z</time></trkpt><trkpt lat="45.43052399087714" lon="9.42971697028964"><ele>100.0</ele><time>2026-04-11T08:35:09.999Z</time></trkpt><trkpt lat="45.43043094293762" lon="9.429697807595279"><ele>99.6</ele><time>2026-04-11T08:35:11.999Z</time></trkpt><trkpt lat="45.430328818932445" lon="9.429685899168964"><ele>99.2</ele><time>2026-04-11T08:35:13.999Z</time></trkpt><trkpt lat="45.430230890267225" lon="9.429666968094317"><ele>98.80000000000001</ele><time>2026-04-11T08:35:15.999Z</time></trkpt><trkpt lat="45.43012953155554" lon="9.42965849102397"><ele>98.4</ele><time>2026-04-11T08:35:17.999Z</time></trkpt><trkpt lat="45.430030066159844" lon="9.429659337708332"><ele>98.0</ele><time>2026-04-11T08:35:19.999Z</time></trkpt><trkpt lat="45.42992651931239" lon="9.429666347724057"><ele>98.0</ele><time>2026-04-11T08:35:21.999Z</time></trkpt><trkpt lat="45.42982429974079" lon="9.429693507993456"><ele>98.0</ele><time>2026-04-11T08:35:23.999Z</time></trkpt><trkpt lat="45.429720894392325" lon="9.429724519849229"><ele>98.0</ele><time>2026-04-11T08:35:25.999Z</time></trkpt><trkpt lat="45.42962803009785" lon="9.429762046959283"><ele>98.0</ele><time>2026-04-11T08:35:27.999Z</time></trkpt><trkpt lat="45.429525367975614" lon="9.429792286440154"><ele>98.0</ele><time>2026-04-11T08:35:29.999Z</time></trkpt><trkpt lat="45.429429265187004" lon="9.42982555914762"><ele>97.80000000000001</ele><time>2026-04-11T08:35:31.999Z</time></trkpt><trkpt lat="45.42932933218463" lon="9.429855749059469"><ele>97.6</ele><time>2026-04-11T08:35:33.999Z</time></trkpt><trkpt lat="45.42922732690887" lon="9.4298881269412"><ele>97.4</ele><time>2026-04-11T08:35:35.999Z</time></trkpt><trkpt lat="45.42912032894188" lon="9.429929524513708"><ele>97.19999999999999</ele><time>2026-04-11T08:35:37.999Z</time></trkpt><trkpt lat="45.42900419717311" lon="9.42995500131937"><ele>97.0</ele><time>2026-04-11T08:35:39.999Z</time></trkpt><trkpt lat="45.42889828281213" lon="9.429991999376716"><ele>97.19999999999999</ele><time>2026-04-11T08:35:41.999Z</time></trkpt><trkpt lat="45.42879183191098" lon="9.430027088991762"><ele>97.4</ele><time>2026-04-11T08:35:43.999Z</time></trkpt><trkpt lat="45.42868181826783" lon="9.430049658307528"><ele>97.6</ele><time>2026-04-11T08:35:45.999Z</time></trkpt><trkpt lat="45.42857167018854" lon="9.430067094318678"><ele>97.80000000000001</ele><time>2026-04-11T08:35:47.999Z</time></trkpt><trkpt lat="45.428457912857276" lon="9.430086919191378"><ele>98.0</ele><time>2026-04-11T08:35:49.999Z</time></trkpt><trkpt lat="45.428347788830415" lon="9.43010671924543"><ele>98.0</ele><time>2026-04-11T08:35:51.999Z</time></trkpt><trkpt lat="45.428245337546215" lon="9.430134773799164"><ele>98.0</ele><time>2026-04-11T08:35:53.999Z</time></trkpt><trkpt lat="45.42814605800224" lon="9.430170090261266"><ele>98.0</ele><time>2026-04-11T08:35:55.999Z</time></trkpt><trkpt lat="45.428045627849855" lon="9.43018435483973"><ele>98.0</ele><time>2026-04-11T08:35:57.999Z</time></trkpt><trkpt lat="45.42793841297984" lon="9.430200352729981"><ele>98.0</ele><time>2026-04-11T08:35:59.999Z</time></trkpt><trkpt lat="45.42783799471673" lon="9.430221828722923"><ele>97.4</ele><time>2026-04-11T08:36:01.999Z</time></trkpt><trkpt lat="45.427728179621965" lon="9.430248492119661"><ele>96.80000000000001</ele><time>2026-04-11T08:36:03.999Z</time></trkpt><trkpt lat="45.42762086883044" lon="9.430275988043778"><ele>96.2</ele><time>2026-04-11T08:36:05.999Z</time></trkpt><trkpt lat="45.42751395460068" lon="9.430299071817137"><ele>95.6</ele><time>2026-04-11T08:36:07.999Z</time></trkpt><trkpt lat="45.42741126826585" lon="9.43032925058953"><ele>95.0</ele><time>2026-04-11T08:36:09.999Z</time></trkpt><trkpt lat="45.42730647656108" lon="9.430364736649087"><ele>95.0</ele><time>2026-04-11T08:36:11.999Z</time></trkpt><trkpt lat="45.4271990756626" lon="9.430408780794291"><ele>95.0</ele><time>2026-04-11T08:36:13.999Z</time></trkpt><trkpt lat="45.427087597344375" lon="9.430447959929792"><ele>95.0</ele><time>2026-04-11T08:36:15.999Z</time></trkpt><trkpt lat="45.42697273880567" lon="9.43048854496531"><ele>95.0</ele><time>2026-04-11T08:36:17.999Z</time></trkpt><trkpt lat="45.42685551181454" lon="9.43052375127167"><ele>95.75</ele><time>2026-04-11T08:36:19.998Z</time></trkpt><trkpt lat="45.42674552521937" lon="9.430574430857446"><ele>96.5</ele><time>2026-04-11T08:36:21.998Z</time></trkpt><trkpt lat="45.42662838616008" lon="9.43061206111208"><ele>97.25</ele><time>2026-04-11T08:36:23.998Z</time></trkpt><trkpt lat="45.42651376828411" lon="9.430653323510763"><ele>98.0</ele><time>2026-04-11T08:36:25.998Z</time></trkpt><trkpt lat="45.42640427705409" lon="9.430695804046255"><ele>98.25</ele><time>2026-04-11T08:36:27.998Z</time></trkpt><trkpt lat="45.426282737515756" lon="9.430729915107667"><ele>98.5</ele><time>2026-04-11T08:36:29.998Z</time></trkpt><trkpt lat="45.426168151845914" lon="9.43077280466687"><ele>98.75</ele><time>2026-04-11T08:36:31.998Z</time></trkpt><trkpt lat="45.42605575017101" lon="9.43081744578657"><ele>99.0</ele><time>2026-04-11T08:36:33.998Z</time></trkpt><trkpt lat="45.42593843045512" lon="9.430848430717264"><ele>99.0</ele><time>2026-04-11T08:36:35.998Z</time></trkpt><trkpt lat="45.425835059917276" lon="9.43088488329284"><ele>99.0</ele><time>2026-04-11T08:36:37.998Z</time></trkpt><trkpt lat="45.425729025277455" lon="9.430936043219383"><ele>99.0</ele><time>2026-04-11T08:36:40Z</time></trkpt><trkpt lat="45.42562568467289" lon="9.43099454286871"><ele>99.0</ele><time>2026-04-11T08:36:42Z</time></trkpt><trkpt lat="45.42551631052483" lon="9.43103001776014"><ele>99.0</ele><time>2026-04-11T08:36:44Z</time></trkpt><trkpt lat="45.42540784520105" lon="9.431072424033404"><ele>98.25</ele><time>2026-04-11T08:36:46Z</time></trkpt><trkpt lat="45.425294298741505" lon="9.431117841983912"><ele>97.5</ele><time>2026-04-11T08:36:48Z</time></trkpt><trkpt lat="45.42518500905425" lon="9.431159274176144"><ele>96.75</ele><time>2026-04-11T08:36:50Z</time></trkpt><trkpt lat="45.42507750803084" lon="9.431202908207206"><ele>96.0</ele><time>2026-04-11T08:36:52Z</time></trkpt><trkpt lat="45.42496577835643" lon="9.431238897325462"><ele>96.0</ele><time>2026-04-11T08:36:54Z</time></trkpt><trkpt lat="45.4248494429425" lon="9.431279523328453"><ele>96.0</ele><time>2026-04-11T08:36:56Z</time></trkpt><trkpt lat="45.424755990472335" lon="9.43132816092968"><ele>96.0</ele><time>2026-04-11T08:36:58Z</time></trkpt><trkpt lat="45.42466009984509" lon="9.431361538873817"><ele>96.0</ele><time>2026-04-11T08:37:00Z</time></trkpt><trkpt lat="45.42456450816327" lon="9.4313931517404"><ele>96.0</ele><time>2026-04-11T08:37:02Z</time></trkpt><trkpt lat="45.42446301921357" lon="9.431427784410245"><ele>96.19999999999999</ele><time>2026-04-11T08:37:04Z</time></trkpt><trkpt lat="45.424357799101315" lon="9.43147649139843"><ele>96.39999999999999</ele><time>2026-04-11T08:37:06Z</time></trkpt><trkpt lat="45.424245920678324" lon="9.43151200268196"><ele>96.6</ele><time>2026-04-11T08:37:08Z</time></trkpt><trkpt lat="45.42413630883636" lon="9.431558491395787"><ele>96.8</ele><time>2026-04-11T08:37:10Z</time></trkpt><trkpt lat="45.42403703050547" lon="9.431598691603833"><ele>97.0</ele><time>2026-04-11T08:37:12Z</time></trkpt><trkpt lat="45.42393137065859" lon="9.431635311288053"><ele>97.0</ele><time>2026-04-11T08:37:13.999Z</time></trkpt><trkpt lat="45.423827287303354" lon="9.43166591112201"><ele>97.0</ele><time>2026-04-11T08:37:15.999Z</time></trkpt><trkpt lat="45.42372124310728" lon="9.431694493190056"><ele>97.0</ele><time>2026-04-11T08:37:17.999Z</time></trkpt><trkpt lat="45.42361613210722" lon="9.43172562897392"><ele>97.0</ele><time>2026-04-11T08:37:19.999Z</time></trkpt><trkpt lat="45.423510268043714" lon="9.431760429845601"><ele>97.0</ele><time>2026-04-11T08:37:21.999Z</time></trkpt><trkpt lat="45.42341581000123" lon="9.431787370251943"><ele>97.19999999999999</ele><time>2026-04-11T08:37:23.999Z</time></trkpt><trkpt lat="45.423321502879276" lon="9.431821531952776"><ele>97.4</ele><time>2026-04-11T08:37:25.999Z</time></trkpt><trkpt lat="45.42322744076287" lon="9.431837510418472"><ele>97.6</ele><time>2026-04-11T08:37:27.999Z</time></trkpt><trkpt lat="45.423139950146556" lon="9.431873643675548"><ele>97.80000000000001</ele><time>2026-04-11T08:37:29.999Z</time></trkpt><trkpt lat="45.42305929771902" lon="9.431861346057351"><ele>98.0</ele><time>2026-04-11T08:37:31.999Z</time></trkpt><trkpt lat="45.422995458630524" lon="9.431767711999104"><ele>97.80000000000001</ele><time>2026-04-11T08:37:33.999Z</time></trkpt><trkpt lat="45.42291384903039" lon="9.431698385012133"><ele>97.6</ele><time>2026-04-11T08:37:35.999Z</time></trkpt><trkpt lat="45.42282402612654" lon="9.431671167596049"><ele>97.4</ele><time>2026-04-11T08:37:37.999Z</time></trkpt><trkpt lat="45.42273216699305" lon="9.431664927131411"><ele>97.19999999999999</ele><time>2026-04-11T08:37:39.999Z</time></trkpt><trkpt lat="45.42264290438411" lon="9.431633260603277"><ele>97.0</ele><time>2026-04-11T08:37:41.999Z</time></trkpt><trkpt lat="45.42256055052446" lon="9.43157110628807"><ele>97.00000000000001</ele><time>2026-04-11T08:37:43.999Z</time></trkpt><trkpt lat="45.422512598851135" lon="9.431480298394986"><ele>97.0</ele><time>2026-04-11T08:37:45.999Z</time></trkpt><trkpt lat="45.42245796089129" lon="9.431383530339259"><ele>97.0</ele><time>2026-04-11T08:37:47.999Z</time></trkpt><trkpt lat="45.422475982114186" lon="9.431505051239238"><ele>97.0</ele><time>2026-04-11T08:37:52.999Z</time></trkpt><trkpt lat="45.42251641172595" lon="9.43157900598631"><ele>97.00000000000001</ele><time>2026-04-11T08:37:54.999Z</time></trkpt><trkpt lat="45.422561916651745" lon="9.43168640612357"><ele>97.0</ele><time>2026-04-11T08:37:56.999Z</time></trkpt><trkpt lat="45.42260690677389" lon="9.431789594993662"><ele>97.00000000000001</ele><time>2026-04-11T08:37:58.999Z</time></trkpt><trkpt lat="45.422646160374725" lon="9.431868440629533"><ele>97.0</ele><time>2026-04-11T08:38:00.999Z</time></trkpt><trkpt lat="45.42268900005079" lon="9.431942410040376"><ele>97.0</ele><time>2026-04-11T08:38:03.999Z</time></trkpt><trkpt lat="45.422749605448374" lon="9.432015183842916"><ele>97.0</ele><time>2026-04-11T08:38:05.999Z</time></trkpt><trkpt lat="45.422820845447795" lon="9.432061476764755"><ele>97.00000000000001</ele><time>2026-04-11T08:38:07.999Z</time></trkpt><trkpt lat="45.42291403863634" lon="9.432041341573605"><ele>97.0</ele><time>2026-04-11T08:38:09.999Z</time></trkpt><trkpt lat="45.42296452397336" lon="9.431923696973058"><ele>97.0</ele><time>2026-04-11T08:38:11.999Z</time></trkpt><trkpt lat="45.42295821582288" lon="9.431806001416746"><ele>97.0</ele><time>2026-04-11T08:38:13.999Z</time></trkpt><trkpt lat="45.42293010141229" lon="9.431673919754534"><ele>97.0</ele><time>2026-04-11T08:38:15.999Z</time></trkpt><trkpt lat="45.42288825732681" lon="9.431558615595799"><ele>97.0</ele><time>2026-04-11T08:38:17.999Z</time></trkpt><trkpt lat="45.42285253910437" lon="9.431422224618602"><ele>97.0</ele><time>2026-04-11T08:38:19.999Z</time></trkpt><trkpt lat="45.422823585712" lon="9.431283132821719"><ele>96.8</ele><time>2026-04-11T08:38:21.999Z</time></trkpt><trkpt lat="45.42280579787072" lon="9.431139049705452"><ele>96.6</ele><time>2026-04-11T08:38:23.999Z</time></trkpt><trkpt lat="45.42277832102557" lon="9.430995419932234"><ele>96.39999999999999</ele><time>2026-04-11T08:38:25.999Z</time></trkpt><trkpt lat="45.4227549836172" lon="9.430857974207735"><ele>96.19999999999999</ele><time>2026-04-11T08:38:27.998Z</time></trkpt><trkpt lat="45.42273812635876" lon="9.430703577449426"><ele>96.0</ele><time>2026-04-11T08:38:29.998Z</time></trkpt><trkpt lat="45.4227153710604" lon="9.430555279743988"><ele>96.0</ele><time>2026-04-11T08:38:31.998Z</time></trkpt><trkpt lat="45.42268293648439" lon="9.430417197641468"><ele>96.0</ele><time>2026-04-11T08:38:33.998Z</time></trkpt><trkpt lat="45.422658202568265" lon="9.43026937417536"><ele>96.0</ele><time>2026-04-11T08:38:35.998Z</time></trkpt><trkpt lat="45.42262892481127" lon="9.430120164413026"><ele>96.0</ele><time>2026-04-11T08:38:37.998Z</time></trkpt><trkpt lat="45.4226022107499" lon="9.429965791594475"><ele>96.0</ele><time>2026-04-11T08:38:39.998Z</time></trkpt><trkpt lat="45.42256503057985" lon="9.429822614590625"><ele>96.0</ele><time>2026-04-11T08:38:41.998Z</time></trkpt><trkpt lat="45.422530499656084" lon="9.42967018264253"><ele>96.0</ele><time>2026-04-11T08:38:43.998Z</time></trkpt><trkpt lat="45.422499982539534" lon="9.429517704345564"><ele>96.0</ele><time>2026-04-11T08:38:46Z</time></trkpt><trkpt lat="45.42246305847409" lon="9.429381185176707"><ele>96.0</ele><time>2026-04-11T08:38:48Z</time></trkpt><trkpt lat="45.422430221618235" lon="9.429251792863694"><ele>96.0</ele><time>2026-04-11T08:38:50Z</time></trkpt><trkpt lat="45.42239995568454" lon="9.429109922639324"><ele>96.0</ele><time>2026-04-11T08:38:52Z</time></trkpt><trkpt lat="45.42237897651111" lon="9.428970845540206"><ele>96.0</ele><time>2026-04-11T08:38:54Z</time></trkpt><trkpt lat="45.42235133411034" lon="9.428843811590152"><ele>96.0</ele><time>2026-04-11T08:38:56Z</time></trkpt><trkpt lat="45.422326762392636" lon="9.42870928978415"><ele>96.0</ele><time>2026-04-11T08:38:58Z</time></trkpt><trkpt lat="45.422307803679004" lon="9.428585151280418"><ele>96.0</ele><time>2026-04-11T08:39:00Z</time></trkpt><trkpt lat="45.422278919999435" lon="9.42845360412874"><ele>96.0</ele><time>2026-04-11T08:39:02Z</time></trkpt><trkpt lat="45.422257734230065" lon="9.428320560984062"><ele>96.0</ele><time>2026-04-11T08:39:04Z</time></trkpt><trkpt lat="45.42223656897797" lon="9.428170412391683"><ele>96.0</ele><time>2026-04-11T08:39:06Z</time></trkpt><trkpt lat="45.42220181071394" lon="9.42803484239345"><ele>96.0</ele><time>2026-04-11T08:39:08Z</time></trkpt><trkpt lat="45.42217933838342" lon="9.427902484504584"><ele>96.0</ele><time>2026-04-11T08:39:10Z</time></trkpt><trkpt lat="45.42214478369585" lon="9.427757300432472"><ele>96.0</ele><time>2026-04-11T08:39:12Z</time></trkpt><trkpt lat="45.422109917108585" lon="9.427606418645743"><ele>96.0</ele><time>2026-04-11T08:39:14Z</time></trkpt><trkpt lat="45.422082324606826" lon="9.427467821171453"><ele>96.0</ele><time>2026-04-11T08:39:16Z</time></trkpt><trkpt lat="45.42205817248694" lon="9.427342207725975"><ele>96.0</ele><time>2026-04-11T08:39:18Z</time></trkpt><trkpt lat="45.42202625035408" lon="9.427223794426885"><ele>96.0</ele><time>2026-04-11T08:39:20Z</time></trkpt><trkpt lat="45.42199827562737" lon="9.427095810442944"><ele>96.0</ele><time>2026-04-11T08:39:21.999Z</time></trkpt><trkpt lat="45.421987771926" lon="9.426951496990167"><ele>96.0</ele><time>2026-04-11T08:39:23.999Z</time></trkpt><trkpt lat="45.42197636016662" lon="9.426811461740419"><ele>96.0</ele><time>2026-04-11T08:39:25.999Z</time></trkpt><trkpt lat="45.421965405416316" lon="9.426666821636982"><ele>96.0</ele><time>2026-04-11T08:39:27.999Z</time></trkpt><trkpt lat="45.42194815688494" lon="9.426528116757138"><ele>96.0</ele><time>2026-04-11T08:39:29.999Z</time></trkpt><trkpt lat="45.421930979263934" lon="9.426399834388214"><ele>96.0</ele><time>2026-04-11T08:39:31.999Z</time></trkpt><trkpt lat="45.421916940924376" lon="9.42626028211667"><ele>96.0</ele><time>2026-04-11T08:39:33.999Z</time></trkpt><trkpt lat="45.42190559356229" lon="9.426112318172802"><ele>96.0</ele><time>2026-04-11T08:39:35.999Z</time></trkpt><trkpt lat="45.42190171282373" lon="9.425982111856381"><ele>96.0</ele><time>2026-04-11T08:39:37.999Z</time></trkpt><trkpt lat="45.42191434320095" lon="9.42586396863151"><ele>96.0</ele><time>2026-04-11T08:39:39.999Z</time></trkpt><trkpt lat="45.42198605928686" lon="9.425728326072885"><ele>96.0</ele><time>2026-04-11T08:39:41.999Z</time></trkpt><trkpt lat="45.42203506543857" lon="9.425668914430176"><ele>96.0</ele><time>2026-04-11T08:39:42.999Z</time></trkpt><trkpt lat="45.4220952868728" lon="9.425525843055038"><ele>96.0</ele><time>2026-04-11T08:39:44.999Z</time></trkpt><trkpt lat="45.42212338495334" lon="9.425378889236486"><ele>96.0</ele><time>2026-04-11T08:39:46.999Z</time></trkpt><trkpt lat="45.42211264006765" lon="9.42522543628558"><ele>96.0</ele><time>2026-04-11T08:39:48.999Z</time></trkpt><trkpt lat="45.422088824246075" lon="9.425084355957175"><ele>95.4</ele><time>2026-04-11T08:39:50.999Z</time></trkpt><trkpt lat="45.422026536024845" lon="9.424982063777753"><ele>94.8</ele><time>2026-04-11T08:39:52.999Z</time></trkpt><trkpt lat="45.42193023590275" lon="9.424929951901362"><ele>94.2</ele><time>2026-04-11T08:39:54.999Z</time></trkpt><trkpt lat="45.42182312037747" lon="9.424914588863919"><ele>93.60000000000001</ele><time>2026-04-11T08:39:56.999Z</time></trkpt><trkpt lat="45.421715716860156" lon="9.424933636458322"><ele>93.0</ele><time>2026-04-11T08:39:58.999Z</time></trkpt><trkpt lat="45.42162285478631" lon="9.425000326373198"><ele>93.0</ele><time>2026-04-11T08:40:00.999Z</time></trkpt><trkpt lat="45.42154999516707" lon="9.425096878712404"><ele>93.0</ele><time>2026-04-11T08:40:02.999Z</time></trkpt><trkpt lat="45.42147956483369" lon="9.425193269196964"><ele>93.0</ele><time>2026-04-11T08:40:04.999Z</time></trkpt><trkpt lat="45.421402589648416" lon="9.425295166863208"><ele>93.0</ele><time>2026-04-11T08:40:06.999Z</time></trkpt><trkpt lat="45.421309073458886" lon="9.425370119029521"><ele>93.0</ele><time>2026-04-11T08:40:08.999Z</time></trkpt><trkpt lat="45.42121182510993" lon="9.425436328334266"><ele>93.60000000000001</ele><time>2026-04-11T08:40:10.999Z</time></trkpt><trkpt lat="45.42111712222785" lon="9.425492532442659"><ele>94.2</ele><time>2026-04-11T08:40:12.999Z</time></trkpt><trkpt lat="45.42102689572874" lon="9.425548503713113"><ele>94.8</ele><time>2026-04-11T08:40:14.999Z</time></trkpt><trkpt lat="45.420930809054326" lon="9.425599974652208"><ele>95.4</ele><time>2026-04-11T08:40:16.999Z</time></trkpt><trkpt lat="45.42085141400796" lon="9.425651073802175"><ele>96.0</ele><time>2026-04-11T08:40:18.999Z</time></trkpt><trkpt lat="45.42077783246678" lon="9.425710298062372"><ele>96.0</ele><time>2026-04-11T08:40:20.999Z</time></trkpt><trkpt lat="45.42070346499422" lon="9.425768339152471"><ele>96.0</ele><time>2026-04-11T08:40:22.999Z</time></trkpt><trkpt lat="45.42063599534523" lon="9.425825460432396"><ele>96.0</ele><time>2026-04-11T08:40:24.999Z</time></trkpt><trkpt lat="45.420576080027914" lon="9.425883554869598"><ele>96.0</ele><time>2026-04-11T08:40:26.999Z</time></trkpt><trkpt lat="45.420503864926225" lon="9.425944567192312"><ele>96.0</ele><time>2026-04-11T08:40:28.999Z</time></trkpt><trkpt lat="45.4204295867086" lon="9.426008461838897"><ele>96.0</ele><time>2026-04-11T08:40:30.999Z</time></trkpt><trkpt lat="45.42035880059006" lon="9.4260780993966"><ele>96.0</ele><time>2026-04-11T08:40:32.999Z</time></trkpt><trkpt lat="45.420286501666546" lon="9.426152864506891"><ele>96.0</ele><time>2026-04-11T08:40:34.998Z</time></trkpt><trkpt lat="45.42021667495655" lon="9.426229412210263"><ele>96.0</ele><time>2026-04-11T08:40:36.998Z</time></trkpt><trkpt lat="45.42013257768164" lon="9.42631030010705"><ele>96.0</ele><time>2026-04-11T08:40:38.998Z</time></trkpt><trkpt lat="45.420041849828884" lon="9.426385779690925"><ele>96.0</ele><time>2026-04-11T08:40:40.998Z</time></trkpt><trkpt lat="45.41995445423323" lon="9.42646018088791"><ele>96.0</ele><time>2026-04-11T08:40:42.998Z</time></trkpt><trkpt lat="45.4198780818049" lon="9.426540003473932"><ele>96.0</ele><time>2026-04-11T08:40:44.998Z</time></trkpt><trkpt lat="45.41979630560404" lon="9.426616373053093"><ele>96.0</ele><time>2026-04-11T08:40:46.998Z</time></trkpt><trkpt lat="45.4197170973703" lon="9.426693759072283"><ele>96.0</ele><time>2026-04-11T08:40:48.998Z</time></trkpt><trkpt lat="45.419634779959694" lon="9.426769838464045"><ele>96.0</ele><time>2026-04-11T08:40:50.998Z</time></trkpt><trkpt lat="45.41954399805638" lon="9.426836026616359"><ele>95.8</ele><time>2026-04-11T08:40:53Z</time></trkpt><trkpt lat="45.41944306064412" lon="9.426884813869952"><ele>95.6</ele><time>2026-04-11T08:40:55Z</time></trkpt><trkpt lat="45.41933818980127" lon="9.426898383524808"><ele>95.4</ele><time>2026-04-11T08:40:57Z</time></trkpt><trkpt lat="45.4192146657214" lon="9.426812862551143"><ele>95.2</ele><time>2026-04-11T08:41:00Z</time></trkpt><trkpt lat="45.41917816428942" lon="9.426684444507917"><ele>95.0</ele><time>2026-04-11T08:41:02Z</time></trkpt><trkpt lat="45.41915631353673" lon="9.426543044792039"><ele>95.0</ele><time>2026-04-11T08:41:04Z</time></trkpt><trkpt lat="45.41913960813756" lon="9.426407079542308"><ele>95.0</ele><time>2026-04-11T08:41:06Z</time></trkpt><trkpt lat="45.41911281839429" lon="9.426267859112137"><ele>95.0</ele><time>2026-04-11T08:41:08Z</time></trkpt><trkpt lat="45.419115608200705" lon="9.426122893151087"><ele>95.0</ele><time>2026-04-11T08:41:10Z</time></trkpt><trkpt lat="45.41912743197666" lon="9.425973348401728"><ele>95.0</ele><time>2026-04-11T08:41:12Z</time></trkpt><trkpt lat="45.41914279335986" lon="9.425821975406427"><ele>94.5</ele><time>2026-04-11T08:41:14Z</time></trkpt><trkpt lat="45.41916519562193" lon="9.425663698438685"><ele>94.0</ele><time>2026-04-11T08:41:16Z</time></trkpt><trkpt lat="45.41919520213799" lon="9.42551454185454"><ele>93.5</ele><time>2026-04-11T08:41:18Z</time></trkpt><trkpt lat="45.41923539794273" lon="9.425358335408326"><ele>93.0</ele><time>2026-04-11T08:41:20Z</time></trkpt><trkpt lat="45.41927415555354" lon="9.425207635647801"><ele>93.0</ele><time>2026-04-11T08:41:22Z</time></trkpt><trkpt lat="45.41931950960642" lon="9.425056745844023"><ele>93.0</ele><time>2026-04-11T08:41:24Z</time></trkpt><trkpt lat="45.41936333294401" lon="9.424909409060687"><ele>93.0</ele><time>2026-04-11T08:41:25.999Z</time></trkpt><trkpt lat="45.41941037754017" lon="9.424753630601094"><ele>93.0</ele><time>2026-04-11T08:41:27.999Z</time></trkpt><trkpt lat="45.419452047509495" lon="9.424604099438866"><ele>93.0</ele><time>2026-04-11T08:41:29.999Z</time></trkpt><trkpt lat="45.41949603350854" lon="9.424451927401847"><ele>93.0</ele><time>2026-04-11T08:41:31.999Z</time></trkpt><trkpt lat="45.419536659150594" lon="9.424289696379756"><ele>93.0</ele><time>2026-04-11T08:41:33.999Z</time></trkpt><trkpt lat="45.41958310587323" lon="9.424133460594778"><ele>93.0</ele><time>2026-04-11T08:41:35.999Z</time></trkpt><trkpt lat="45.41962517959274" lon="9.423979331144109"><ele>93.5</ele><time>2026-04-11T08:41:37.999Z</time></trkpt><trkpt lat="45.41967080764266" lon="9.423825148469987"><ele>94.0</ele><time>2026-04-11T08:41:39.999Z</time></trkpt><trkpt lat="45.41971864459283" lon="9.423665992519581"><ele>94.5</ele><time>2026-04-11T08:41:41.999Z</time></trkpt><trkpt lat="45.41976223802213" lon="9.42351469321434"><ele>95.0</ele><time>2026-04-11T08:41:43.999Z</time></trkpt><trkpt lat="45.41980557937608" lon="9.423350599201134"><ele>95.0</ele><time>2026-04-11T08:41:45.999Z</time></trkpt><trkpt lat="45.41984479520953" lon="9.423189685244607"><ele>95.0</ele><time>2026-04-11T08:41:47.999Z</time></trkpt><trkpt lat="45.41988825323475" lon="9.423030201804629"><ele>95.0</ele><time>2026-04-11T08:41:49.999Z</time></trkpt><trkpt lat="45.419933890673306" lon="9.422868464285527"><ele>95.0</ele><time>2026-04-11T08:41:51.999Z</time></trkpt><trkpt lat="45.419976031285344" lon="9.422716864587457"><ele>95.0</ele><time>2026-04-11T08:41:53.999Z</time></trkpt><trkpt lat="45.42002295110629" lon="9.422566435666148"><ele>95.0</ele><time>2026-04-11T08:41:55.999Z</time></trkpt><trkpt lat="45.420063738926736" lon="9.422406626968527"><ele>95.0</ele><time>2026-04-11T08:41:57.999Z</time></trkpt><trkpt lat="45.42011811295994" lon="9.422253069336165"><ele>95.0</ele><time>2026-04-11T08:41:59.999Z</time></trkpt><trkpt lat="45.42017563988458" lon="9.422099877816104"><ele>95.0</ele><time>2026-04-11T08:42:01.999Z</time></trkpt><trkpt lat="45.420225070485365" lon="9.421944957447556"><ele>95.0</ele><time>2026-04-11T08:42:03.999Z</time></trkpt><trkpt lat="45.42027579473644" lon="9.421793331048594"><ele>95.0</ele><time>2026-04-11T08:42:05.999Z</time></trkpt><trkpt lat="45.42033194928844" lon="9.421648454339767"><ele>95.0</ele><time>2026-04-11T08:42:07.999Z</time></trkpt><trkpt lat="45.42038178495248" lon="9.421502904985811"><ele>95.0</ele><time>2026-04-11T08:42:09.999Z</time></trkpt><trkpt lat="45.42042741799042" lon="9.421354510561084"><ele>95.0</ele><time>2026-04-11T08:42:11.999Z</time></trkpt><trkpt lat="45.42046994509792" lon="9.421215072789451"><ele>95.0</ele><time>2026-04-11T08:42:13.999Z</time></trkpt><trkpt lat="45.42051670117071" lon="9.421084494748087"><ele>95.0</ele><time>2026-04-11T08:42:15.999Z</time></trkpt><trkpt lat="45.42055252366419" lon="9.42094939127252"><ele>95.0</ele><time>2026-04-11T08:42:17.999Z</time></trkpt><trkpt lat="45.420592492661655" lon="9.420820260599296"><ele>94.8</ele><time>2026-04-11T08:42:19.999Z</time></trkpt><trkpt lat="45.42062967987359" lon="9.420695390172622"><ele>94.6</ele><time>2026-04-11T08:42:21.999Z</time></trkpt><trkpt lat="45.42066561098507" lon="9.420573420312735"><ele>94.4</ele><time>2026-04-11T08:42:23.999Z</time></trkpt><trkpt lat="45.42070656279069" lon="9.420452685883875"><ele>94.2</ele><time>2026-04-11T08:42:25.999Z</time></trkpt><trkpt lat="45.42074570152751" lon="9.420338648485743"><ele>94.0</ele><time>2026-04-11T08:42:27.999Z</time></trkpt><trkpt lat="45.42077976201448" lon="9.420223573910494"><ele>94.2</ele><time>2026-04-11T08:42:29.999Z</time></trkpt><trkpt lat="45.42081708828884" lon="9.420094449976995"><ele>94.4</ele><time>2026-04-11T08:42:31.999Z</time></trkpt><trkpt lat="45.42085195258195" lon="9.419971414723227"><ele>94.6</ele><time>2026-04-11T08:42:33.999Z</time></trkpt><trkpt lat="45.42088889343076" lon="9.419842319349762"><ele>94.8</ele><time>2026-04-11T08:42:35.999Z</time></trkpt><trkpt lat="45.42092270069459" lon="9.41972187086537"><ele>95.0</ele><time>2026-04-11T08:42:37.998Z</time></trkpt><trkpt lat="45.42095302353788" lon="9.419594185223778"><ele>95.0</ele><time>2026-04-11T08:42:39.998Z</time></trkpt><trkpt lat="45.42098462419665" lon="9.419458290583673"><ele>95.0</ele><time>2026-04-11T08:42:41.998Z</time></trkpt><trkpt lat="45.42101769904716" lon="9.419324696850015"><ele>95.0</ele><time>2026-04-11T08:42:43.998Z</time></trkpt><trkpt lat="45.421049627534806" lon="9.419193101381254"><ele>95.0</ele><time>2026-04-11T08:42:45.998Z</time></trkpt><trkpt lat="45.42108195888067" lon="9.4190469840398"><ele>95.0</ele><time>2026-04-11T08:42:47.998Z</time></trkpt><trkpt lat="45.4211171558508" lon="9.418914530600603"><ele>95.0</ele><time>2026-04-11T08:42:49.998Z</time></trkpt><trkpt lat="45.42113575547881" lon="9.41881847858047"><ele>95.0</ele><time>2026-04-11T08:42:50.998Z</time></trkpt><trkpt lat="45.421174097487054" lon="9.41866843361605"><ele>95.0</ele><time>2026-04-11T08:42:52.998Z</time></trkpt><trkpt lat="45.42122407963288" lon="9.418506236446285"><ele>95.0</ele><time>2026-04-11T08:42:54.998Z</time></trkpt><trkpt lat="45.421273752233056" lon="9.418339113203714"><ele>95.0</ele><time>2026-04-11T08:42:56.998Z</time></trkpt><trkpt lat="45.42129846100774" lon="9.418256568893863"><ele>95.0</ele><time>2026-04-11T08:42:58Z</time></trkpt><trkpt lat="45.42132274648459" lon="9.418172420706544"><ele>95.0</ele><time>2026-04-11T08:42:59Z</time></trkpt><trkpt lat="45.42134456209426" lon="9.418085211693846"><ele>95.0</ele><time>2026-04-11T08:43:00Z</time></trkpt><trkpt lat="45.421393068610946" lon="9.417921312078372"><ele>95.0</ele><time>2026-04-11T08:43:02Z</time></trkpt><trkpt lat="45.421420870326784" lon="9.417823047751048"><ele>95.0</ele><time>2026-04-11T08:43:03Z</time></trkpt><trkpt lat="45.4214690162835" lon="9.417651917702358"><ele>95.14285714285714</ele><time>2026-04-11T08:43:05Z</time></trkpt><trkpt lat="45.421494896410685" lon="9.417558400104745"><ele>95.28571428571429</ele><time>2026-04-11T08:43:06Z</time></trkpt><trkpt lat="45.421516902582155" lon="9.417471976350315"><ele>95.42857142857142</ele><time>2026-04-11T08:43:07Z</time></trkpt><trkpt lat="45.42154236782546" lon="9.417374295539288"><ele>95.57142857142857</ele><time>2026-04-11T08:43:08Z</time></trkpt><trkpt lat="45.4215700202562" lon="9.417286586448652"><ele>95.71428571428571</ele><time>2026-04-11T08:43:09Z</time></trkpt><trkpt lat="45.421595851842966" lon="9.417197294210554"><ele>95.85714285714285</ele><time>2026-04-11T08:43:10Z</time></trkpt><trkpt lat="45.42162064540588" lon="9.417103114767968"><ele>96.0</ele><time>2026-04-11T08:43:11Z</time></trkpt><trkpt lat="45.421646635748814" lon="9.41701331989268"><ele>95.99999999999999</ele><time>2026-04-11T08:43:12Z</time></trkpt><trkpt lat="45.421672289799105" lon="9.416926083936975"><ele>96.0</ele><time>2026-04-11T08:43:13Z</time></trkpt><trkpt lat="45.42169859823376" lon="9.416838577822618"><ele>96.0</ele><time>2026-04-11T08:43:14Z</time></trkpt><trkpt lat="45.4217226759717" lon="9.416747827456016"><ele>96.0</ele><time>2026-04-11T08:43:15Z</time></trkpt><trkpt lat="45.42174625017004" lon="9.416653616241625"><ele>96.0</ele><time>2026-04-11T08:43:16Z</time></trkpt><trkpt lat="45.421773538223846" lon="9.416557689874955"><ele>95.99999999999999</ele><time>2026-04-11T08:43:17Z</time></trkpt><trkpt lat="45.421799750234236" lon="9.416466247340352"><ele>96.0</ele><time>2026-04-11T08:43:18Z</time></trkpt><trkpt lat="45.4218256850895" lon="9.416377481592034"><ele>96.14285714285714</ele><time>2026-04-11T08:43:19Z</time></trkpt><trkpt lat="45.42185454529532" lon="9.416281534392832"><ele>96.28571428571428</ele><time>2026-04-11T08:43:20Z</time></trkpt><trkpt lat="45.421877321959094" lon="9.416185001909763"><ele>96.42857142857142</ele><time>2026-04-11T08:43:21Z</time></trkpt><trkpt lat="45.42190370138649" lon="9.416089937423424"><ele>96.57142857142857</ele><time>2026-04-11T08:43:22Z</time></trkpt><trkpt lat="45.42193051273668" lon="9.415995753969632"><ele>96.71428571428572</ele><time>2026-04-11T08:43:23Z</time></trkpt><trkpt lat="45.42195628433884" lon="9.415908947385281"><ele>96.85714285714285</ele><time>2026-04-11T08:43:24Z</time></trkpt><trkpt lat="45.42197966001975" lon="9.415804110240297"><ele>97.0</ele><time>2026-04-11T08:43:25Z</time></trkpt><trkpt lat="45.42203182620494" lon="9.415624201059497"><ele>97.0</ele><time>2026-04-11T08:43:27Z</time></trkpt><trkpt lat="45.422057018757776" lon="9.415515782900197"><ele>97.0</ele><time>2026-04-11T08:43:28Z</time></trkpt><trkpt lat="45.42207924496399" lon="9.41543018485074"><ele>97.0</ele><time>2026-04-11T08:43:29Z</time></trkpt><trkpt lat="45.422111248973785" lon="9.41533098133123"><ele>97.0</ele><time>2026-04-11T08:43:30Z</time></trkpt><trkpt lat="45.42214089200877" lon="9.415244103839253"><ele>97.0</ele><time>2026-04-11T08:43:31Z</time></trkpt><trkpt lat="45.422167627923" lon="9.415147166911572"><ele>97.0</ele><time>2026-04-11T08:43:32Z</time></trkpt><trkpt lat="45.422187642457025" lon="9.415051112152103"><ele>97.0</ele><time>2026-04-11T08:43:33Z</time></trkpt><trkpt lat="45.42221291676634" lon="9.41494720867488"><ele>96.66666666666667</ele><time>2026-04-11T08:43:34Z</time></trkpt><trkpt lat="45.42223995042328" lon="9.414852838678902"><ele>96.33333333333334</ele><time>2026-04-11T08:43:35Z</time></trkpt><trkpt lat="45.42226848788671" lon="9.414763556972842"><ele>96.0</ele><time>2026-04-11T08:43:35.999Z</time></trkpt><trkpt lat="45.42229250396529" lon="9.414673536425218"><ele>95.66666666666667</ele><time>2026-04-11T08:43:36.999Z</time></trkpt><trkpt lat="45.42231572589814" lon="9.414589788246367"><ele>95.33333333333334</ele><time>2026-04-11T08:43:37.999Z</time></trkpt><trkpt lat="45.4223369423248" lon="9.414503300892497"><ele>95.0</ele><time>2026-04-11T08:43:38.999Z</time></trkpt><trkpt lat="45.422373822889945" lon="9.414327407552905"><ele>95.0</ele><time>2026-04-11T08:43:40.999Z</time></trkpt><trkpt lat="45.42242049384868" lon="9.414159162877652"><ele>95.0</ele><time>2026-04-11T08:43:42.999Z</time></trkpt><trkpt lat="45.4224414300764" lon="9.41406531215778"><ele>95.0</ele><time>2026-04-11T08:43:43.999Z</time></trkpt><trkpt lat="45.422495231215734" lon="9.413893043579838"><ele>95.0</ele><time>2026-04-11T08:43:45.999Z</time></trkpt><trkpt lat="45.42254006513143" lon="9.413722293595681"><ele>95.0</ele><time>2026-04-11T08:43:47.999Z</time></trkpt><trkpt lat="45.42258797905545" lon="9.413554774508135"><ele>95.0</ele><time>2026-04-11T08:43:49.999Z</time></trkpt><trkpt lat="45.422615758519875" lon="9.413472386595545"><ele>95.0</ele><time>2026-04-11T08:43:50.999Z</time></trkpt><trkpt lat="45.42264079914487" lon="9.413386426502466"><ele>95.0</ele><time>2026-04-11T08:43:51.999Z</time></trkpt><trkpt lat="45.42266550852902" lon="9.413295590411437"><ele>95.0</ele><time>2026-04-11T08:43:52.999Z</time></trkpt><trkpt lat="45.42268966354831" lon="9.413208955060174"><ele>95.0</ele><time>2026-04-11T08:43:53.999Z</time></trkpt><trkpt lat="45.422737736356645" lon="9.413053058795569"><ele>95.4</ele><time>2026-04-11T08:43:55.999Z</time></trkpt><trkpt lat="45.42275605925265" lon="9.412962070369954"><ele>95.8</ele><time>2026-04-11T08:43:56.999Z</time></trkpt><trkpt lat="45.42280672988895" lon="9.41278344672073"><ele>96.19999999999999</ele><time>2026-04-11T08:43:58.999Z</time></trkpt><trkpt lat="45.422850830109155" lon="9.412618172285672"><ele>96.6</ele><time>2026-04-11T08:44:00.999Z</time></trkpt><trkpt lat="45.42287422255678" lon="9.41253058597959"><ele>97.0</ele><time>2026-04-11T08:44:01.999Z</time></trkpt><trkpt lat="45.42292287770394" lon="9.412377406524733"><ele>97.0</ele><time>2026-04-11T08:44:03.999Z</time></trkpt><trkpt lat="45.42296831503133" lon="9.412205122019069"><ele>97.0</ele><time>2026-04-11T08:44:05.999Z</time></trkpt><trkpt lat="45.4230199580468" lon="9.412034576096154"><ele>97.0</ele><time>2026-04-11T08:44:07.999Z</time></trkpt><trkpt lat="45.42305740055136" lon="9.41186646443052"><ele>97.0</ele><time>2026-04-11T08:44:09.999Z</time></trkpt><trkpt lat="45.423084987009155" lon="9.411780434241322"><ele>97.0</ele><time>2026-04-11T08:44:10.999Z</time></trkpt><trkpt lat="45.423105347404416" lon="9.4116952935736"><ele>97.0</ele><time>2026-04-11T08:44:11.999Z</time></trkpt><trkpt lat="45.42314926053818" lon="9.411526307256045"><ele>97.0</ele><time>2026-04-11T08:44:13.999Z</time></trkpt><trkpt lat="45.423197004490625" lon="9.4113646562598"><ele>97.0</ele><time>2026-04-11T08:44:15.999Z</time></trkpt><trkpt lat="45.42323717522691" lon="9.4112060073516"><ele>97.0</ele><time>2026-04-11T08:44:17.999Z</time></trkpt><trkpt lat="45.42325982750204" lon="9.411119417943201"><ele>97.0</ele><time>2026-04-11T08:44:18.999Z</time></trkpt><trkpt lat="45.423303460273694" lon="9.410955146305945"><ele>97.0</ele><time>2026-04-11T08:44:20.999Z</time></trkpt><trkpt lat="45.42331847709779" lon="9.410867275469974"><ele>97.0</ele><time>2026-04-11T08:44:21.999Z</time></trkpt><trkpt lat="45.423359645570265" lon="9.410703851481026"><ele>97.0</ele><time>2026-04-11T08:44:23.999Z</time></trkpt><trkpt lat="45.423379433648655" lon="9.410610677141642"><ele>97.0</ele><time>2026-04-11T08:44:24.999Z</time></trkpt><trkpt lat="45.423417512945946" lon="9.410447712293593"><ele>97.0</ele><time>2026-04-11T08:44:26.999Z</time></trkpt><trkpt lat="45.42345076577887" lon="9.410278891900079"><ele>97.0</ele><time>2026-04-11T08:44:28.999Z</time></trkpt><trkpt lat="45.42349395194497" lon="9.410116675367565"><ele>97.0</ele><time>2026-04-11T08:44:30.999Z</time></trkpt><trkpt lat="45.42351418457796" lon="9.410021810680792"><ele>97.0</ele><time>2026-04-11T08:44:31.999Z</time></trkpt><trkpt lat="45.4235632664185" lon="9.409862512306747"><ele>97.0</ele><time>2026-04-11T08:44:33.999Z</time></trkpt><trkpt lat="45.42358707650725" lon="9.409777796918682"><ele>97.0</ele><time>2026-04-11T08:44:34.999Z</time></trkpt><trkpt lat="45.42361261893234" lon="9.4096856104283"><ele>97.0</ele><time>2026-04-11T08:44:35.999Z</time></trkpt><trkpt lat="45.42365771692683" lon="9.409518756442107"><ele>97.0</ele><time>2026-04-11T08:44:37.999Z</time></trkpt><trkpt lat="45.42370742372598" lon="9.409358912241446"><ele>97.0</ele><time>2026-04-11T08:44:39.999Z</time></trkpt><trkpt lat="45.42374874465873" lon="9.409203817150946"><ele>97.0</ele><time>2026-04-11T08:44:41.999Z</time></trkpt><trkpt lat="45.42379579170807" lon="9.409039469082867"><ele>97.00000000000001</ele><time>2026-04-11T08:44:43.999Z</time></trkpt><trkpt lat="45.423819928019704" lon="9.408956377124145"><ele>97.0</ele><time>2026-04-11T08:44:44.999Z</time></trkpt><trkpt lat="45.423849259554274" lon="9.40885650776462"><ele>97.0</ele><time>2026-04-11T08:44:45.999Z</time></trkpt><trkpt lat="45.423896242489924" lon="9.408696605327894"><ele>97.0</ele><time>2026-04-11T08:44:47.999Z</time></trkpt><trkpt lat="45.42394195158065" lon="9.408540343076215"><ele>97.00000000000001</ele><time>2026-04-11T08:44:49.998Z</time></trkpt><trkpt lat="45.42396044528613" lon="9.40845016909211"><ele>97.0</ele><time>2026-04-11T08:44:50.998Z</time></trkpt><trkpt lat="45.424006887515304" lon="9.408288375741504"><ele>97.0</ele><time>2026-04-11T08:44:52.998Z</time></trkpt><trkpt lat="45.424050252312256" lon="9.408122782630462"><ele>97.0</ele><time>2026-04-11T08:44:54.998Z</time></trkpt><trkpt lat="45.42409733974987" lon="9.407956319588514"><ele>97.0</ele><time>2026-04-11T08:44:56.998Z</time></trkpt><trkpt lat="45.424142157143415" lon="9.40779488860321"><ele>97.0</ele><time>2026-04-11T08:44:58.998Z</time></trkpt><trkpt lat="45.424190561256474" lon="9.407641474725018"><ele>97.0</ele><time>2026-04-11T08:45:00.998Z</time></trkpt><trkpt lat="45.42423851590469" lon="9.407486388663454"><ele>97.0</ele><time>2026-04-11T08:45:02.998Z</time></trkpt><trkpt lat="45.42429449061344" lon="9.40734428598795"><ele>97.0</ele><time>2026-04-11T08:45:05Z</time></trkpt><trkpt lat="45.42434093214196" lon="9.40721156693531"><ele>97.0</ele><time>2026-04-11T08:45:07Z</time></trkpt><trkpt lat="45.42438144184239" lon="9.40707184577942"><ele>97.0</ele><time>2026-04-11T08:45:09Z</time></trkpt><trkpt lat="45.424422231291594" lon="9.406929449110722"><ele>96.8</ele><time>2026-04-11T08:45:11Z</time></trkpt><trkpt lat="45.4244672521793" lon="9.406803009103877"><ele>96.6</ele><time>2026-04-11T08:45:13Z</time></trkpt><trkpt lat="45.42451176444192" lon="9.406680862314154"><ele>96.39999999999999</ele><time>2026-04-11T08:45:15Z</time></trkpt><trkpt lat="45.42454659690881" lon="9.40654043707536"><ele>96.19999999999999</ele><time>2026-04-11T08:45:17Z</time></trkpt><trkpt lat="45.42458420155442" lon="9.406425596500837"><ele>96.0</ele><time>2026-04-11T08:45:19Z</time></trkpt><trkpt lat="45.42461469074006" lon="9.406304922870703"><ele>96.19999999999999</ele><time>2026-04-11T08:45:21Z</time></trkpt><trkpt lat="45.424646898220196" lon="9.406211104836713"><ele>96.39999999999999</ele><time>2026-04-11T08:45:23Z</time></trkpt><trkpt lat="45.42468656342966" lon="9.406086403298898"><ele>96.6</ele><time>2026-04-11T08:45:25Z</time></trkpt><trkpt lat="45.42473034001764" lon="9.405954677245711"><ele>96.8</ele><time>2026-04-11T08:45:27Z</time></trkpt><trkpt lat="45.42477876780144" lon="9.405808558258428"><ele>97.0</ele><time>2026-04-11T08:45:29Z</time></trkpt><trkpt lat="45.4248230726971" lon="9.405668790330068"><ele>97.0</ele><time>2026-04-11T08:45:30.999Z</time></trkpt><trkpt lat="45.4248688682568" lon="9.4055153998965"><ele>97.0</ele><time>2026-04-11T08:45:32.999Z</time></trkpt><trkpt lat="45.424915897560275" lon="9.405368690238259"><ele>97.0</ele><time>2026-04-11T08:45:34.999Z</time></trkpt><trkpt lat="45.42496770789592" lon="9.40520776258447"><ele>97.0</ele><time>2026-04-11T08:45:36.999Z</time></trkpt><trkpt lat="45.42501933294803" lon="9.405058487763421"><ele>97.0</ele><time>2026-04-11T08:45:38.999Z</time></trkpt><trkpt lat="45.425042602707194" lon="9.40497511162712"><ele>97.0</ele><time>2026-04-11T08:45:39.999Z</time></trkpt><trkpt lat="45.42506938142952" lon="9.404891965160548"><ele>97.0</ele><time>2026-04-11T08:45:40.999Z</time></trkpt><trkpt lat="45.425118574379994" lon="9.404751225891669"><ele>97.0</ele><time>2026-04-11T08:45:42.999Z</time></trkpt><trkpt lat="45.425156171469496" lon="9.404597593056069"><ele>97.0</ele><time>2026-04-11T08:45:44.999Z</time></trkpt><trkpt lat="45.42519621016942" lon="9.4044439200724"><ele>97.00000000000001</ele><time>2026-04-11T08:45:46.999Z</time></trkpt><trkpt lat="45.42522673248536" lon="9.404286960934654"><ele>97.0</ele><time>2026-04-11T08:45:48.999Z</time></trkpt><trkpt lat="45.425247225203556" lon="9.404188264339973"><ele>97.0</ele><time>2026-04-11T08:45:50.999Z</time></trkpt><trkpt lat="45.42526920060073" lon="9.404092372834885"><ele>97.0</ele><time>2026-04-11T08:45:52.999Z</time></trkpt><trkpt lat="45.425310563666145" lon="9.403986046068368"><ele>97.00000000000001</ele><time>2026-04-11T08:45:54.999Z</time></trkpt><trkpt lat="45.42535422077408" lon="9.40385313108125"><ele>97.0</ele><time>2026-04-11T08:45:56.999Z</time></trkpt><trkpt lat="45.42539794028769" lon="9.403702289544219"><ele>97.0</ele><time>2026-04-11T08:45:58.999Z</time></trkpt><trkpt lat="45.42540787482741" lon="9.40353597768543"><ele>97.0</ele><time>2026-04-11T08:46:00.999Z</time></trkpt><trkpt lat="45.42537292518431" lon="9.40339295476816"><ele>97.0</ele><time>2026-04-11T08:46:02.999Z</time></trkpt><trkpt lat="45.42530652427585" lon="9.403277726771336"><ele>97.0</ele><time>2026-04-11T08:46:04.999Z</time></trkpt><trkpt lat="45.425236566775204" lon="9.403235558077977"><ele>97.0</ele><time>2026-04-11T08:46:06.999Z</time></trkpt><trkpt lat="45.42514510575175" lon="9.403180936228104"><ele>97.00000000000001</ele><time>2026-04-11T08:46:08.999Z</time></trkpt><trkpt lat="45.425081560629906" lon="9.403180186603127"><ele>97.0</ele><time>2026-04-11T08:46:09.999Z</time></trkpt><trkpt lat="45.42501948026365" lon="9.403250693361013"><ele>97.0</ele><time>2026-04-11T08:46:10.999Z</time></trkpt><trkpt lat="45.424904148577056" lon="9.403307772767958"><ele>97.0</ele><time>2026-04-11T08:46:12.999Z</time></trkpt><trkpt lat="45.42484220199799" lon="9.403326047185509"><ele>97.00000000000001</ele><time>2026-04-11T08:46:13.999Z</time></trkpt><trkpt lat="45.42473270554032" lon="9.403327130288863"><ele>97.0</ele><time>2026-04-11T08:46:15.999Z</time></trkpt><trkpt lat="45.424634654170305" lon="9.403284032636757"><ele>97.0</ele><time>2026-04-11T08:46:17.999Z</time></trkpt><trkpt lat="45.42453796632253" lon="9.403221312762325"><ele>97.0</ele><time>2026-04-11T08:46:19.999Z</time></trkpt><trkpt lat="45.42445596158735" lon="9.403154322021118"><ele>97.0</ele><time>2026-04-11T08:46:21.999Z</time></trkpt><trkpt lat="45.42436322123928" lon="9.403082219765604"><ele>97.0</ele><time>2026-04-11T08:46:23.999Z</time></trkpt><trkpt lat="45.42427964107302" lon="9.403031363462041"><ele>97.0</ele><time>2026-04-11T08:46:25.999Z</time></trkpt><trkpt lat="45.424192352155835" lon="9.402975588976544"><ele>97.00000000000001</ele><time>2026-04-11T08:46:27.999Z</time></trkpt><trkpt lat="45.42412621604144" lon="9.402900478738017"><ele>97.0</ele><time>2026-04-11T08:46:29.999Z</time></trkpt><trkpt lat="45.42410160315011" lon="9.402813155767253"><ele>97.0</ele><time>2026-04-11T08:46:30.999Z</time></trkpt><trkpt lat="45.42407395790544" lon="9.402681706561276"><ele>97.0</ele><time>2026-04-11T08:46:32.999Z</time></trkpt><trkpt lat="45.42403031970575" lon="9.402546856055745"><ele>97.00000000000001</ele><time>2026-04-11T08:46:34.999Z</time></trkpt><trkpt lat="45.42399723613294" lon="9.402426321504597"><ele>97.0</ele><time>2026-04-11T08:46:36.999Z</time></trkpt><trkpt lat="45.42403273695467" lon="9.402305836214007"><ele>97.0</ele><time>2026-04-11T08:46:38.999Z</time></trkpt><trkpt lat="45.42407640964673" lon="9.402194435017227"><ele>97.0</ele><time>2026-04-11T08:46:40.999Z</time></trkpt><trkpt lat="45.42413006778598" lon="9.402087513448373"><ele>97.0</ele><time>2026-04-11T08:46:42.999Z</time></trkpt><trkpt lat="45.42418140586982" lon="9.401962089028332"><ele>97.0</ele><time>2026-04-11T08:46:44.999Z</time></trkpt><trkpt lat="45.42419445081483" lon="9.401826175357321"><ele>97.0</ele><time>2026-04-11T08:46:46.998Z</time></trkpt><trkpt lat="45.424188567684745" lon="9.401691486902623"><ele>97.00000000000001</ele><time>2026-04-11T08:46:48.998Z</time></trkpt><trkpt lat="45.42416251699867" lon="9.401555427055573"><ele>97.0</ele><time>2026-04-11T08:46:50.998Z</time></trkpt><trkpt lat="45.42414358654387" lon="9.401433809986921"><ele>97.0</ele><time>2026-04-11T08:46:52.998Z</time></trkpt><trkpt lat="45.42413291488445" lon="9.401314138278757"><ele>97.0</ele><time>2026-04-11T08:46:54.998Z</time></trkpt><trkpt lat="45.424112440711696" lon="9.401213528255582"><ele>97.00000000000001</ele><time>2026-04-11T08:46:56.998Z</time></trkpt><trkpt lat="45.424088062943504" lon="9.401098737301693"><ele>97.0</ele><time>2026-04-11T08:46:58.998Z</time></trkpt><trkpt lat="45.424069737366324" lon="9.400981093074058"><ele>96.8</ele><time>2026-04-11T08:47:00.998Z</time></trkpt><trkpt lat="45.42404299095609" lon="9.400857485869802"><ele>96.6</ele><time>2026-04-11T08:47:02.998Z</time></trkpt><trkpt lat="45.42402099437715" lon="9.400727871850092"><ele>96.39999999999999</ele><time>2026-04-11T08:47:04.998Z</time></trkpt><trkpt lat="45.42400298848244" lon="9.400597055655494"><ele>96.19999999999999</ele><time>2026-04-11T08:47:06.998Z</time></trkpt><trkpt lat="45.42398586175717" lon="9.400464684826293"><ele>96.0</ele><time>2026-04-11T08:47:08.998Z</time></trkpt><trkpt lat="45.42397342130452" lon="9.40033271227891"><ele>96.0</ele><time>2026-04-11T08:47:10.999Z</time></trkpt><trkpt lat="45.423957632432916" lon="9.400221190195799"><ele>96.0</ele><time>2026-04-11T08:47:12.999Z</time></trkpt><trkpt lat="45.42394515906609" lon="9.400111968610545"><ele>96.0</ele><time>2026-04-11T08:47:14.999Z</time></trkpt><trkpt lat="45.4239375597455" lon="9.400020590774758"><ele>96.0</ele><time>2026-04-11T08:47:16.999Z</time></trkpt><trkpt lat="45.42392222229324" lon="9.399919209146038"><ele>96.0</ele><time>2026-04-11T08:47:18.999Z</time></trkpt><trkpt lat="45.42390526464242" lon="9.399796160020715"><ele>96.0</ele><time>2026-04-11T08:47:20.999Z</time></trkpt><trkpt lat="45.423889460676264" lon="9.399676614444692"><ele>96.16666666666667</ele><time>2026-04-11T08:47:22.999Z</time></trkpt><trkpt lat="45.4238742617587" lon="9.399561323125907"><ele>96.33333333333334</ele><time>2026-04-11T08:47:24.999Z</time></trkpt><trkpt lat="45.42385514167977" lon="9.399455288521452"><ele>96.5</ele><time>2026-04-11T08:47:26.999Z</time></trkpt><trkpt lat="45.42382323627305" lon="9.399357648747063"><ele>96.66666666666667</ele><time>2026-04-11T08:47:28.999Z</time></trkpt><trkpt lat="45.42373354704728" lon="9.399330313218975"><ele>96.83333333333334</ele><time>2026-04-11T08:47:31.999Z</time></trkpt><trkpt lat="45.42365199658607" lon="9.399365792929766"><ele>97.0</ele><time>2026-04-11T08:47:33.999Z</time></trkpt><trkpt lat="45.4235575613385" lon="9.399378335133598"><ele>97.6</ele><time>2026-04-11T08:47:35.999Z</time></trkpt><trkpt lat="45.423461147476814" lon="9.399391973818581"><ele>98.19999999999999</ele><time>2026-04-11T08:47:37.999Z</time></trkpt><trkpt lat="45.42337280551874" lon="9.399429394424422"><ele>98.8</ele><time>2026-04-11T08:47:39.999Z</time></trkpt><trkpt lat="45.42328207953335" lon="9.399453931521634"><ele>99.4</ele><time>2026-04-11T08:47:41.999Z</time></trkpt><trkpt lat="45.42319146611466" lon="9.399477864718188"><ele>100.0</ele><time>2026-04-11T08:47:43.999Z</time></trkpt><trkpt lat="45.423108215290775" lon="9.399501494512476"><ele>100.00000000000001</ele><time>2026-04-11T08:47:45.999Z</time></trkpt><trkpt lat="45.42302872711783" lon="9.399524105711537"><ele>100.0</ele><time>2026-04-11T08:47:47.999Z</time></trkpt><trkpt lat="45.4229467648498" lon="9.399545286849456"><ele>100.0</ele><time>2026-04-11T08:47:49.999Z</time></trkpt><trkpt lat="45.42286786930659" lon="9.399569110376655"><ele>100.0</ele><time>2026-04-11T08:47:51.999Z</time></trkpt><trkpt lat="45.42279702100727" lon="9.399584033570786"><ele>100.00000000000001</ele><time>2026-04-11T08:47:53.999Z</time></trkpt><trkpt lat="45.422721156653395" lon="9.39960799364311"><ele>100.0</ele><time>2026-04-11T08:47:55.999Z</time></trkpt><trkpt lat="45.42265075417229" lon="9.399631119756691"><ele>100.16666666666667</ele><time>2026-04-11T08:47:58.999Z</time></trkpt><trkpt lat="45.422591761906915" lon="9.399574109582039"><ele>100.33333333333334</ele><time>2026-04-11T08:48:11.999Z</time></trkpt><trkpt lat="45.42258416015644" lon="9.399462196812218"><ele>100.5</ele><time>2026-04-11T08:48:13.999Z</time></trkpt><trkpt lat="45.422558424767196" lon="9.39936104670724"><ele>100.66666666666666</ele><time>2026-04-11T08:48:15.999Z</time></trkpt><trkpt lat="45.42254293636942" lon="9.399230220967594"><ele>100.83333333333333</ele><time>2026-04-11T08:48:17.999Z</time></trkpt><trkpt lat="45.42252904618563" lon="9.399087764433093"><ele>101.0</ele><time>2026-04-11T08:48:19.999Z</time></trkpt><trkpt lat="45.422511261321326" lon="9.398939986976538"><ele>100.4</ele><time>2026-04-11T08:48:21.999Z</time></trkpt><trkpt lat="45.422482845327224" lon="9.398819994186471"><ele>99.8</ele><time>2026-04-11T08:48:23.999Z</time></trkpt><trkpt lat="45.42246463824263" lon="9.39864509188003"><ele>99.2</ele><time>2026-04-11T08:48:25.999Z</time></trkpt><trkpt lat="45.42245513141767" lon="9.39848730368591"><ele>98.60000000000001</ele><time>2026-04-11T08:48:27.999Z</time></trkpt><trkpt lat="45.42244934435838" lon="9.39832518246493"><ele>98.0</ele><time>2026-04-11T08:48:29.999Z</time></trkpt><trkpt lat="45.4224391125576" lon="9.398161059851796"><ele>98.0</ele><time>2026-04-11T08:48:31.999Z</time></trkpt><trkpt lat="45.422422983519795" lon="9.397997222400578"><ele>98.0</ele><time>2026-04-11T08:48:33.999Z</time></trkpt><trkpt lat="45.42241398139875" lon="9.397834150011752"><ele>98.0</ele><time>2026-04-11T08:48:35.999Z</time></trkpt><trkpt lat="45.4223978150647" lon="9.397691174528392"><ele>98.0</ele><time>2026-04-11T08:48:37.999Z</time></trkpt><trkpt lat="45.422395255254806" lon="9.39753845206887"><ele>98.0</ele><time>2026-04-11T08:48:39.999Z</time></trkpt><trkpt lat="45.42237227190238" lon="9.397408360421469"><ele>98.0</ele><time>2026-04-11T08:48:41.998Z</time></trkpt><trkpt lat="45.42235307850127" lon="9.397259736785541"><ele>98.0</ele><time>2026-04-11T08:48:43.998Z</time></trkpt><trkpt lat="45.42233359142533" lon="9.39711974447856"><ele>98.0</ele><time>2026-04-11T08:48:45.998Z</time></trkpt><trkpt lat="45.4223185305997" lon="9.396955170227146"><ele>98.0</ele><time>2026-04-11T08:48:47.998Z</time></trkpt><trkpt lat="45.422313119296525" lon="9.396798273864034"><ele>98.0</ele><time>2026-04-11T08:48:49.998Z</time></trkpt><trkpt lat="45.42229717258833" lon="9.39666341345287"><ele>98.2</ele><time>2026-04-11T08:48:51.998Z</time></trkpt><trkpt lat="45.42228573253002" lon="9.396510183722565"><ele>98.4</ele><time>2026-04-11T08:48:53.998Z</time></trkpt><trkpt lat="45.42228857615131" lon="9.39635734494867"><ele>98.60000000000001</ele><time>2026-04-11T08:48:55.998Z</time></trkpt><trkpt lat="45.42227867683655" lon="9.396231036568837"><ele>98.80000000000001</ele><time>2026-04-11T08:48:57.998Z</time></trkpt><trkpt lat="45.42228415307116" lon="9.396086941069147"><ele>99.0</ele><time>2026-04-11T08:48:59.998Z</time></trkpt><trkpt lat="45.42230371381261" lon="9.395935487434325"><ele>99.6</ele><time>2026-04-11T08:49:01.998Z</time></trkpt><trkpt lat="45.42233443193039" lon="9.395793645752732"><ele>100.2</ele><time>2026-04-11T08:49:03.998Z</time></trkpt><trkpt lat="45.42238526033504" lon="9.395645159090027"><ele>100.8</ele><time>2026-04-11T08:49:05.998Z</time></trkpt><trkpt lat="45.42240612860457" lon="9.395489681950606"><ele>101.39999999999999</ele><time>2026-04-11T08:49:07.998Z</time></trkpt><trkpt lat="45.422371806804165" lon="9.395361989341463"><ele>102.0</ele><time>2026-04-11T08:49:09.998Z</time></trkpt><trkpt lat="45.422294933645304" lon="9.39528417113264"><ele>102.0</ele><time>2026-04-11T08:49:11.998Z</time></trkpt><trkpt lat="45.42221323544888" lon="9.395186855472451"><ele>102.0</ele><time>2026-04-11T08:49:13.998Z</time></trkpt><trkpt lat="45.42215689479939" lon="9.395066407706842"><ele>102.0</ele><time>2026-04-11T08:49:15.999Z</time></trkpt><trkpt lat="45.422108733454884" lon="9.39492821499847"><ele>102.0</ele><time>2026-04-11T08:49:17.999Z</time></trkpt><trkpt lat="45.42207556839493" lon="9.39479115832897"><ele>102.0</ele><time>2026-04-11T08:49:19.999Z</time></trkpt><trkpt lat="45.42204148734652" lon="9.394655234336081"><ele>101.6</ele><time>2026-04-11T08:49:21.999Z</time></trkpt><trkpt lat="45.42200576119364" lon="9.394528878668426"><ele>101.19999999999999</ele><time>2026-04-11T08:49:23.999Z</time></trkpt><trkpt lat="45.421989841910786" lon="9.394394016905203"><ele>100.8</ele><time>2026-04-11T08:49:25.999Z</time></trkpt><trkpt lat="45.42195941760326" lon="9.394258565031688"><ele>100.4</ele><time>2026-04-11T08:49:27.999Z</time></trkpt><trkpt lat="45.42191101740467" lon="9.39414295720941"><ele>100.0</ele><time>2026-04-11T08:49:29.999Z</time></trkpt><trkpt lat="45.421867504241646" lon="9.394000903424901"><ele>100.0</ele><time>2026-04-11T08:49:31.999Z</time></trkpt><trkpt lat="45.42182113507793" lon="9.393864166636732"><ele>100.0</ele><time>2026-04-11T08:49:33.999Z</time></trkpt><trkpt lat="45.42179100288216" lon="9.39371102139889"><ele>100.0</ele><time>2026-04-11T08:49:35.999Z</time></trkpt><trkpt lat="45.42175421498512" lon="9.393561477143276"><ele>100.0</ele><time>2026-04-11T08:49:37.999Z</time></trkpt><trkpt lat="45.421716273079646" lon="9.393423114007945"><ele>100.0</ele><time>2026-04-11T08:49:39.999Z</time></trkpt><trkpt lat="45.42169110032149" lon="9.393278926004813"><ele>99.6</ele><time>2026-04-11T08:49:41.999Z</time></trkpt><trkpt lat="45.42166440463175" lon="9.393139185062582"><ele>99.2</ele><time>2026-04-11T08:49:43.999Z</time></trkpt><trkpt lat="45.42163835602213" lon="9.39299992045287"><ele>98.80000000000001</ele><time>2026-04-11T08:49:45.999Z</time></trkpt><trkpt lat="45.42161861429133" lon="9.39286159652513"><ele>98.4</ele><time>2026-04-11T08:49:47.999Z</time></trkpt><trkpt lat="45.421601499489576" lon="9.392728522206696"><ele>98.0</ele><time>2026-04-11T08:49:49.999Z</time></trkpt><trkpt lat="45.421590015663156" lon="9.392598425548446"><ele>98.0</ele><time>2026-04-11T08:49:51.999Z</time></trkpt><trkpt lat="45.42158292885505" lon="9.392463356880057"><ele>98.0</ele><time>2026-04-11T08:49:53.999Z</time></trkpt><trkpt lat="45.42157838119289" lon="9.392328296026138"><ele>98.0</ele><time>2026-04-11T08:49:55.999Z</time></trkpt><trkpt lat="45.421581800155465" lon="9.392194160509632"><ele>98.0</ele><time>2026-04-11T08:49:57.999Z</time></trkpt><trkpt lat="45.42158576807531" lon="9.392070555104404"><ele>98.0</ele><time>2026-04-11T08:49:59.999Z</time></trkpt><trkpt lat="45.42159829084667" lon="9.391952890481656"><ele>97.33333333333333</ele><time>2026-04-11T08:50:01.999Z</time></trkpt><trkpt lat="45.42159961541995" lon="9.391836379625868"><ele>96.66666666666666</ele><time>2026-04-11T08:50:03.999Z</time></trkpt><trkpt lat="45.42159621810138" lon="9.391729336068092"><ele>96.0</ele><time>2026-04-11T08:50:05.999Z</time></trkpt><trkpt lat="45.42161558991103" lon="9.391619776358949"><ele>95.33333333333333</ele><time>2026-04-11T08:50:07.999Z</time></trkpt><trkpt lat="45.42161989321705" lon="9.391509518026867"><ele>94.66666666666666</ele><time>2026-04-11T08:50:09.999Z</time></trkpt><trkpt lat="45.4216310716656" lon="9.391386501239054"><ele>94.0</ele><time>2026-04-11T08:50:11.999Z</time></trkpt><trkpt lat="45.42164299548042" lon="9.3912391441092"><ele>93.4</ele><time>2026-04-11T08:50:13.999Z</time></trkpt><trkpt lat="45.42164112804468" lon="9.39110107498831"><ele>92.80000000000001</ele><time>2026-04-11T08:50:15.999Z</time></trkpt><trkpt lat="45.421642589224035" lon="9.390965896593759"><ele>92.19999999999999</ele><time>2026-04-11T08:50:17.999Z</time></trkpt><trkpt lat="45.42163461363267" lon="9.390821434836878"><ele>91.6</ele><time>2026-04-11T08:50:19.999Z</time></trkpt><trkpt lat="45.42162120680891" lon="9.390685178915698"><ele>91.0</ele><time>2026-04-11T08:50:21.999Z</time></trkpt><trkpt lat="45.42159934870168" lon="9.390526765401514"><ele>91.19999999999999</ele><time>2026-04-11T08:50:23.999Z</time></trkpt><trkpt lat="45.421573404216275" lon="9.39037243967704"><ele>91.39999999999999</ele><time>2026-04-11T08:50:25.999Z</time></trkpt><trkpt lat="45.4215363909987" lon="9.390229448614647"><ele>91.6</ele><time>2026-04-11T08:50:27.999Z</time></trkpt><trkpt lat="45.42150182940925" lon="9.390082301469862"><ele>91.8</ele><time>2026-04-11T08:50:29.999Z</time></trkpt><trkpt lat="45.42145714959296" lon="9.389931469506674"><ele>92.0</ele><time>2026-04-11T08:50:31.999Z</time></trkpt><trkpt lat="45.42140932306878" lon="9.389788196335878"><ele>92.19999999999999</ele><time>2026-04-11T08:50:33.999Z</time></trkpt><trkpt lat="45.4213525622005" lon="9.389645881921055"><ele>92.4</ele><time>2026-04-11T08:50:35.999Z</time></trkpt><trkpt lat="45.42130549991406" lon="9.389505807731052"><ele>92.6</ele><time>2026-04-11T08:50:37.999Z</time></trkpt><trkpt lat="45.42125765050191" lon="9.389368550836457"><ele>92.80000000000001</ele><time>2026-04-11T08:50:39.999Z</time></trkpt><trkpt lat="45.42120333816059" lon="9.389234291558003"><ele>93.0</ele><time>2026-04-11T08:50:41.999Z</time></trkpt><trkpt lat="45.42116096945589" lon="9.389110660794794"><ele>93.0</ele><time>2026-04-11T08:50:43.999Z</time></trkpt><trkpt lat="45.42111206293627" lon="9.388995099990218"><ele>93.0</ele><time>2026-04-11T08:50:45.999Z</time></trkpt><trkpt lat="45.42106286107334" lon="9.388871277179534"><ele>93.0</ele><time>2026-04-11T08:50:47.999Z</time></trkpt><trkpt lat="45.421007213864705" lon="9.38874327192252"><ele>93.0</ele><time>2026-04-11T08:50:49.999Z</time></trkpt><trkpt lat="45.42095947497794" lon="9.38861877377922"><ele>93.0</ele><time>2026-04-11T08:50:51.999Z</time></trkpt><trkpt lat="45.420905420411785" lon="9.388470216855993"><ele>92.75</ele><time>2026-04-11T08:50:53.999Z</time></trkpt><trkpt lat="45.42085546939745" lon="9.388320263965197"><ele>92.5</ele><time>2026-04-11T08:50:55.999Z</time></trkpt><trkpt lat="45.420797488370106" lon="9.388185218166615"><ele>92.25</ele><time>2026-04-11T08:50:57.999Z</time></trkpt><trkpt lat="45.42073942590635" lon="9.388038802564441"><ele>92.0</ele><time>2026-04-11T08:50:59.999Z</time></trkpt><trkpt lat="45.42067436769423" lon="9.387899908443499"><ele>92.0</ele><time>2026-04-11T08:51:01.998Z</time></trkpt><trkpt lat="45.42061777013107" lon="9.387763369679247"><ele>92.0</ele><time>2026-04-11T08:51:03.998Z</time></trkpt><trkpt lat="45.42057482324908" lon="9.387626933961007"><ele>92.0</ele><time>2026-04-11T08:51:05.998Z</time></trkpt><trkpt lat="45.42051475655487" lon="9.387484088549765"><ele>92.0</ele><time>2026-04-11T08:51:07.998Z</time></trkpt><trkpt lat="45.42045813524785" lon="9.387357348955176"><ele>92.0</ele><time>2026-04-11T08:51:09.998Z</time></trkpt><trkpt lat="45.42039737595701" lon="9.387233810681277"><ele>92.25</ele><time>2026-04-11T08:51:11.998Z</time></trkpt><trkpt lat="45.42033620644548" lon="9.38710238231766"><ele>92.5</ele><time>2026-04-11T08:51:13.998Z</time></trkpt><trkpt lat="45.42028154080984" lon="9.386957672626131"><ele>92.75</ele><time>2026-04-11T08:51:15.998Z</time></trkpt><trkpt lat="45.42022260706763" lon="9.386819923837296"><ele>93.0</ele><time>2026-04-11T08:51:17.998Z</time></trkpt><trkpt lat="45.420159271317885" lon="9.38668777472348"><ele>93.0</ele><time>2026-04-11T08:51:19.998Z</time></trkpt><trkpt lat="45.42010231474012" lon="9.386560310565779"><ele>93.0</ele><time>2026-04-11T08:51:21.999Z</time></trkpt><trkpt lat="45.42004810073184" lon="9.386435078844913"><ele>93.0</ele><time>2026-04-11T08:51:23.999Z</time></trkpt><trkpt lat="45.41999380722476" lon="9.386316313772118"><ele>93.0</ele><time>2026-04-11T08:51:25.999Z</time></trkpt><trkpt lat="45.419943237722606" lon="9.386197092766833"><ele>93.0</ele><time>2026-04-11T08:51:27.999Z</time></trkpt><trkpt lat="45.41989378550279" lon="9.386090142342393"><ele>93.16666666666667</ele><time>2026-04-11T08:51:29.999Z</time></trkpt><trkpt lat="45.41985085021278" lon="9.385980316764337"><ele>93.33333333333333</ele><time>2026-04-11T08:51:31.999Z</time></trkpt><trkpt lat="45.419805808869626" lon="9.385885637482307"><ele>93.5</ele><time>2026-04-11T08:51:33.999Z</time></trkpt><trkpt lat="45.41975433540919" lon="9.385806276570241"><ele>93.66666666666666</ele><time>2026-04-11T08:51:36.999Z</time></trkpt><trkpt lat="45.41974526751654" lon="9.385703765111423"><ele>93.83333333333333</ele><time>2026-04-11T08:51:38.999Z</time></trkpt><trkpt lat="45.41973758555717" lon="9.38558836452859"><ele>94.0</ele><time>2026-04-11T08:51:40.999Z</time></trkpt><trkpt lat="45.41973619043796" lon="9.385452556593322"><ele>94.0</ele><time>2026-04-11T08:51:42.999Z</time></trkpt><trkpt lat="45.41975491407805" lon="9.385312953619529"><ele>94.0</ele><time>2026-04-11T08:51:44.999Z</time></trkpt><trkpt lat="45.41979358589606" lon="9.385180826520344"><ele>94.0</ele><time>2026-04-11T08:51:46.999Z</time></trkpt><trkpt lat="45.419828379179826" lon="9.385040928949456"><ele>94.0</ele><time>2026-04-11T08:51:48.999Z</time></trkpt><trkpt lat="45.419863198355415" lon="9.384903830143513"><ele>94.0</ele><time>2026-04-11T08:51:50.999Z</time></trkpt><trkpt lat="45.4198921663997" lon="9.384760123377191"><ele>94.0</ele><time>2026-04-11T08:51:52.999Z</time></trkpt><trkpt lat="45.41993204858568" lon="9.384607436654617"><ele>94.0</ele><time>2026-04-11T08:51:54.999Z</time></trkpt><trkpt lat="45.41996135704062" lon="9.38445450699823"><ele>94.0</ele><time>2026-04-11T08:51:56.999Z</time></trkpt><trkpt lat="45.41998869279751" lon="9.384302857188683"><ele>94.0</ele><time>2026-04-11T08:51:58.999Z</time></trkpt><trkpt lat="45.42001506366613" lon="9.384163059829957"><ele>94.0</ele><time>2026-04-11T08:52:00.999Z</time></trkpt><trkpt lat="45.42003922116775" lon="9.384017110344175"><ele>94.0</ele><time>2026-04-11T08:52:02.999Z</time></trkpt><trkpt lat="45.420067037424666" lon="9.38386850040231"><ele>94.0</ele><time>2026-04-11T08:52:04.999Z</time></trkpt><trkpt lat="45.420092028247666" lon="9.383725287081996"><ele>94.0</ele><time>2026-04-11T08:52:06.999Z</time></trkpt><trkpt lat="45.420116433302695" lon="9.383581226624054"><ele>94.0</ele><time>2026-04-11T08:52:08.999Z</time></trkpt><trkpt lat="45.42014512251498" lon="9.383431343611724"><ele>94.0</ele><time>2026-04-11T08:52:10.999Z</time></trkpt><trkpt lat="45.42016961857123" lon="9.38328288318097"><ele>94.0</ele><time>2026-04-11T08:52:12.999Z</time></trkpt><trkpt lat="45.42018947652497" lon="9.38312749347161"><ele>94.0</ele><time>2026-04-11T08:52:14.999Z</time></trkpt><trkpt lat="45.42021870760542" lon="9.382968036148807"><ele>94.0</ele><time>2026-04-11T08:52:16.999Z</time></trkpt><trkpt lat="45.420244675918184" lon="9.382811221660004"><ele>94.0</ele><time>2026-04-11T08:52:18.999Z</time></trkpt><trkpt lat="45.4202719762708" lon="9.38264729843034"><ele>94.0</ele><time>2026-04-11T08:52:20.999Z</time></trkpt><trkpt lat="45.420293409284255" lon="9.382493983743005"><ele>94.0</ele><time>2026-04-11T08:52:22.999Z</time></trkpt><trkpt lat="45.42032606244559" lon="9.382332468902163"><ele>94.0</ele><time>2026-04-11T08:52:24.999Z</time></trkpt><trkpt lat="45.42035518690523" lon="9.382169646263598"><ele>94.0</ele><time>2026-04-11T08:52:26.999Z</time></trkpt><trkpt lat="45.42038339966593" lon="9.381997786519388"><ele>94.33333333333333</ele><time>2026-04-11T08:52:28.999Z</time></trkpt><trkpt lat="45.420410886804845" lon="9.381834834390542"><ele>94.66666666666666</ele><time>2026-04-11T08:52:30.999Z</time></trkpt><trkpt lat="45.42042733252427" lon="9.381747641685283"><ele>95.0</ele><time>2026-04-11T08:52:31.999Z</time></trkpt><trkpt lat="45.42045342573349" lon="9.381579064489218"><ele>95.33333333333333</ele><time>2026-04-11T08:52:33.999Z</time></trkpt><trkpt lat="45.42047113005844" lon="9.381490805268134"><ele>95.66666666666667</ele><time>2026-04-11T08:52:34.999Z</time></trkpt><trkpt lat="45.42048864758469" lon="9.38140157487532"><ele>96.0</ele><time>2026-04-11T08:52:35.999Z</time></trkpt><trkpt lat="45.42052036348899" lon="9.38123720262273"><ele>96.25</ele><time>2026-04-11T08:52:37.999Z</time></trkpt><trkpt lat="45.42055887293478" lon="9.381067764609739"><ele>96.5</ele><time>2026-04-11T08:52:39.999Z</time></trkpt><trkpt lat="45.420600588916685" lon="9.380908755166269"><ele>96.75</ele><time>2026-04-11T08:52:41.999Z</time></trkpt><trkpt lat="45.42065444266688" lon="9.380742116215615"><ele>97.0</ele><time>2026-04-11T08:52:43.999Z</time></trkpt><trkpt lat="45.4207005227812" lon="9.380587126350319"><ele>96.75</ele><time>2026-04-11T08:52:45.999Z</time></trkpt><trkpt lat="45.42075617398496" lon="9.380442661629063"><ele>96.5</ele><time>2026-04-11T08:52:47.999Z</time></trkpt><trkpt lat="45.42081732183623" lon="9.380300748473639"><ele>96.25</ele><time>2026-04-11T08:52:49.999Z</time></trkpt><trkpt lat="45.420885490369876" lon="9.380159642880663"><ele>96.0</ele><time>2026-04-11T08:52:51.999Z</time></trkpt><trkpt lat="45.42095737494603" lon="9.380025359275566"><ele>96.0</ele><time>2026-04-11T08:52:53.999Z</time></trkpt><trkpt lat="45.42103074307042" lon="9.379895460162079"><ele>96.0</ele><time>2026-04-11T08:52:55.999Z</time></trkpt><trkpt lat="45.421102660790034" lon="9.379770113659962"><ele>96.0</ele><time>2026-04-11T08:52:57.999Z</time></trkpt><trkpt lat="45.42118915516998" lon="9.379648595057013"><ele>96.0</ele><time>2026-04-11T08:52:59.999Z</time></trkpt><trkpt lat="45.42127555606061" lon="9.379529249642326"><ele>96.19999999999999</ele><time>2026-04-11T08:53:01.999Z</time></trkpt><trkpt lat="45.42132227639619" lon="9.379467674524323"><ele>96.39999999999999</ele><time>2026-04-11T08:53:02.999Z</time></trkpt><trkpt lat="45.42141582269023" lon="9.379363529682012"><ele>96.6</ele><time>2026-04-11T08:53:04.999Z</time></trkpt><trkpt lat="45.421508941558194" lon="9.379265413756324"><ele>96.8</ele><time>2026-04-11T08:53:06.998Z</time></trkpt><trkpt lat="45.4216092448997" lon="9.379171833385216"><ele>97.0</ele><time>2026-04-11T08:53:08.998Z</time></trkpt><trkpt lat="45.4216639866821" lon="9.379126993901744"><ele>97.0</ele><time>2026-04-11T08:53:09.998Z</time></trkpt><trkpt lat="45.42176628891194" lon="9.379042106357888"><ele>97.0</ele><time>2026-04-11T08:53:11.998Z</time></trkpt><trkpt lat="45.42186997539094" lon="9.378962681285925"><ele>97.0</ele><time>2026-04-11T08:53:13.998Z</time></trkpt><trkpt lat="45.421925925120554" lon="9.378918848914006"><ele>97.0</ele><time>2026-04-11T08:53:14.998Z</time></trkpt><trkpt lat="45.422032751872955" lon="9.37885067865004"><ele>97.0</ele><time>2026-04-11T08:53:16.998Z</time></trkpt><trkpt lat="45.42214332078756" lon="9.378785968584172"><ele>97.0</ele><time>2026-04-11T08:53:18.998Z</time></trkpt><trkpt lat="45.422261066207646" lon="9.378730687795825"><ele>97.0</ele><time>2026-04-11T08:53:20.998Z</time></trkpt><trkpt lat="45.422321843499354" lon="9.378698693390854"><ele>97.0</ele><time>2026-04-11T08:53:21.998Z</time></trkpt><trkpt lat="45.42243771144667" lon="9.378662204902493"><ele>97.0</ele><time>2026-04-11T08:53:23.998Z</time></trkpt><trkpt lat="45.42255244310055" lon="9.378613937296404"><ele>97.0</ele><time>2026-04-11T08:53:25.998Z</time></trkpt><trkpt lat="45.42266884238623" lon="9.378571452641758"><ele>97.0</ele><time>2026-04-11T08:53:27.999Z</time></trkpt><trkpt lat="45.422784047285596" lon="9.378526341454249"><ele>97.0</ele><time>2026-04-11T08:53:29.999Z</time></trkpt><trkpt lat="45.422899399436155" lon="9.378480821103349"><ele>97.0</ele><time>2026-04-11T08:53:31.999Z</time></trkpt><trkpt lat="45.42301271221498" lon="9.37843506425411"><ele>97.0</ele><time>2026-04-11T08:53:33.999Z</time></trkpt><trkpt lat="45.42307449091773" lon="9.378415067482667"><ele>97.0</ele><time>2026-04-11T08:53:34.999Z</time></trkpt><trkpt lat="45.42318110770993" lon="9.378361363137644"><ele>97.0</ele><time>2026-04-11T08:53:36.999Z</time></trkpt><trkpt lat="45.423243978673945" lon="9.378342121284726"><ele>97.0</ele><time>2026-04-11T08:53:37.999Z</time></trkpt><trkpt lat="45.42335435115917" lon="9.378298278942207"><ele>97.0</ele><time>2026-04-11T08:53:39.999Z</time></trkpt><trkpt lat="45.42346501232523" lon="9.378253904327645"><ele>97.0</ele><time>2026-04-11T08:53:41.999Z</time></trkpt><trkpt lat="45.42357580363425" lon="9.378209867089634"><ele>97.0</ele><time>2026-04-11T08:53:43.999Z</time></trkpt><trkpt lat="45.42369193870548" lon="9.378173533548829"><ele>97.0</ele><time>2026-04-11T08:53:45.999Z</time></trkpt><trkpt lat="45.42381042554746" lon="9.378131157093113"><ele>97.0</ele><time>2026-04-11T08:53:47.999Z</time></trkpt><trkpt lat="45.423921415023315" lon="9.378092401407859"><ele>97.0</ele><time>2026-04-11T08:53:49.999Z</time></trkpt><trkpt lat="45.424037333300845" lon="9.378050878043402"><ele>97.0</ele><time>2026-04-11T08:53:51.999Z</time></trkpt><trkpt lat="45.42415110748206" lon="9.37800521174094"><ele>97.0</ele><time>2026-04-11T08:53:53.999Z</time></trkpt><trkpt lat="45.4242630965742" lon="9.377967465277724"><ele>97.0</ele><time>2026-04-11T08:53:55.999Z</time></trkpt><trkpt lat="45.42437656786191" lon="9.37792434403184"><ele>97.0</ele><time>2026-04-11T08:53:57.999Z</time></trkpt><trkpt lat="45.424491973881466" lon="9.37787920315091"><ele>97.0</ele><time>2026-04-11T08:53:59.999Z</time></trkpt><trkpt lat="45.424608260203065" lon="9.377835851198718"><ele>97.5</ele><time>2026-04-11T08:54:01.999Z</time></trkpt><trkpt lat="45.424721732305855" lon="9.377796042102231"><ele>98.0</ele><time>2026-04-11T08:54:03.999Z</time></trkpt><trkpt lat="45.424836455669954" lon="9.3777479281118"><ele>98.5</ele><time>2026-04-11T08:54:05.999Z</time></trkpt><trkpt lat="45.42494868296847" lon="9.3777022283996"><ele>99.0</ele><time>2026-04-11T08:54:07.999Z</time></trkpt><trkpt lat="45.42506177897579" lon="9.377656653935343"><ele>99.0</ele><time>2026-04-11T08:54:09.999Z</time></trkpt><trkpt lat="45.425174226633914" lon="9.377605859829753"><ele>99.0</ele><time>2026-04-11T08:54:11.999Z</time></trkpt><trkpt lat="45.42527943840193" lon="9.377555844554319"><ele>99.0</ele><time>2026-04-11T08:54:13.999Z</time></trkpt><trkpt lat="45.425383339404426" lon="9.377501530082343"><ele>99.0</ele><time>2026-04-11T08:54:15.999Z</time></trkpt><trkpt lat="45.42548751938559" lon="9.377436747838628"><ele>98.25</ele><time>2026-04-11T08:54:17.999Z</time></trkpt><trkpt lat="45.42559053143521" lon="9.377364553013967"><ele>97.5</ele><time>2026-04-11T08:54:19.999Z</time></trkpt><trkpt lat="45.425685536446544" lon="9.377290266563207"><ele>96.75</ele><time>2026-04-11T08:54:21.999Z</time></trkpt><trkpt lat="45.42578589949151" lon="9.377202412563896"><ele>96.0</ele><time>2026-04-11T08:54:23.999Z</time></trkpt><trkpt lat="45.425881061840784" lon="9.377111144055483"><ele>96.0</ele><time>2026-04-11T08:54:25.999Z</time></trkpt><trkpt lat="45.425974238129506" lon="9.377011169441213"><ele>96.0</ele><time>2026-04-11T08:54:27.999Z</time></trkpt><trkpt lat="45.426063969523405" lon="9.376918197804153"><ele>96.0</ele><time>2026-04-11T08:54:29.999Z</time></trkpt><trkpt lat="45.426151354309916" lon="9.376814673555302"><ele>96.0</ele><time>2026-04-11T08:54:31.999Z</time></trkpt><trkpt lat="45.426198422967154" lon="9.376752808216233"><ele>96.0</ele><time>2026-04-11T08:54:32.999Z</time></trkpt><trkpt lat="45.42627906477266" lon="9.376648262761615"><ele>96.5</ele><time>2026-04-11T08:54:34.999Z</time></trkpt><trkpt lat="45.42635836739076" lon="9.376528226840849"><ele>97.0</ele><time>2026-04-11T08:54:36.999Z</time></trkpt><trkpt lat="45.4264368445719" lon="9.376402466292676"><ele>97.5</ele><time>2026-04-11T08:54:38.999Z</time></trkpt><trkpt lat="45.426508807333576" lon="9.376270208228721"><ele>98.0</ele><time>2026-04-11T08:54:40.999Z</time></trkpt><trkpt lat="45.42657671948572" lon="9.376138097665356"><ele>98.2</ele><time>2026-04-11T08:54:42.999Z</time></trkpt><trkpt lat="45.42664168030145" lon="9.376005951923794"><ele>98.4</ele><time>2026-04-11T08:54:44.999Z</time></trkpt><trkpt lat="45.42667641952699" lon="9.375927805376094"><ele>98.60000000000001</ele><time>2026-04-11T08:54:45.999Z</time></trkpt><trkpt lat="45.42673443907317" lon="9.375784470738799"><ele>98.80000000000001</ele><time>2026-04-11T08:54:47.999Z</time></trkpt><trkpt lat="45.4267875440165" lon="9.37563481288413"><ele>99.0</ele><time>2026-04-11T08:54:49.999Z</time></trkpt><trkpt lat="45.42683461348226" lon="9.375490373637913"><ele>99.0</ele><time>2026-04-11T08:54:51.999Z</time></trkpt><trkpt lat="45.42688508870051" lon="9.375340841407468"><ele>99.0</ele><time>2026-04-11T08:54:53.999Z</time></trkpt><trkpt lat="45.42692532591197" lon="9.375178788179396"><ele>99.0</ele><time>2026-04-11T08:54:55.999Z</time></trkpt><trkpt lat="45.426952198790765" lon="9.375021258012916"><ele>99.0</ele><time>2026-04-11T08:54:57.999Z</time></trkpt><trkpt lat="45.42697605966611" lon="9.374880656768614"><ele>99.0</ele><time>2026-04-11T08:54:59.999Z</time></trkpt><trkpt lat="45.42699880035787" lon="9.3747348101129"><ele>99.0</ele><time>2026-04-11T08:55:01.999Z</time></trkpt><trkpt lat="45.42703243530746" lon="9.374589858780578"><ele>99.0</ele><time>2026-04-11T08:55:03.999Z</time></trkpt><trkpt lat="45.427047054590695" lon="9.374456009124671"><ele>99.0</ele><time>2026-04-11T08:55:05.999Z</time></trkpt><trkpt lat="45.427074845333614" lon="9.374303299452778"><ele>99.0</ele><time>2026-04-11T08:55:07.999Z</time></trkpt><trkpt lat="45.42709930161884" lon="9.37415369482172"><ele>98.80000000000001</ele><time>2026-04-11T08:55:09.999Z</time></trkpt><trkpt lat="45.427122651981975" lon="9.374007358259105"><ele>98.60000000000001</ele><time>2026-04-11T08:55:11.999Z</time></trkpt><trkpt lat="45.42714482132756" lon="9.373856785813938"><ele>98.4</ele><time>2026-04-11T08:55:13.999Z</time></trkpt><trkpt lat="45.42717285194368" lon="9.373710425861091"><ele>98.2</ele><time>2026-04-11T08:55:15.998Z</time></trkpt><trkpt lat="45.4271975334946" lon="9.373558548578512"><ele>98.0</ele><time>2026-04-11T08:55:17.998Z</time></trkpt><trkpt lat="45.42722818527962" lon="9.373425480919503"><ele>97.99999999999999</ele><time>2026-04-11T08:55:19.998Z</time></trkpt><trkpt lat="45.42724366645161" lon="9.373336284130529"><ele>98.0</ele><time>2026-04-11T08:55:23.998Z</time></trkpt><trkpt lat="45.42729657414767" lon="9.373260235569298"><ele>98.0</ele><time>2026-04-11T08:55:26.998Z</time></trkpt><trkpt lat="45.42735216453087" lon="9.373196149137677"><ele>98.0</ele><time>2026-04-11T08:55:28.998Z</time></trkpt><trkpt lat="45.42738806258045" lon="9.373088111443595"><ele>97.99999999999999</ele><time>2026-04-11T08:55:30.998Z</time></trkpt><trkpt lat="45.427391873107354" lon="9.37294439024242"><ele>98.0</ele><time>2026-04-11T08:55:32.998Z</time></trkpt><trkpt lat="45.42737701606538" lon="9.372801107238365"><ele>98.2</ele><time>2026-04-11T08:55:34.999Z</time></trkpt><trkpt lat="45.42737015247683" lon="9.372658024418039"><ele>98.4</ele><time>2026-04-11T08:55:36.999Z</time></trkpt><trkpt lat="45.42739136087329" lon="9.372508115257833"><ele>98.60000000000001</ele><time>2026-04-11T08:55:38.999Z</time></trkpt><trkpt lat="45.42740750587369" lon="9.372419706910078"><ele>98.80000000000001</ele><time>2026-04-11T08:55:39.999Z</time></trkpt><trkpt lat="45.427434882849674" lon="9.372260066849794"><ele>99.0</ele><time>2026-04-11T08:55:41.999Z</time></trkpt><trkpt lat="45.42744517428546" lon="9.372099011182174"><ele>99.0</ele><time>2026-04-11T08:55:43.999Z</time></trkpt><trkpt lat="45.42745966729714" lon="9.372010872214648"><ele>99.0</ele><time>2026-04-11T08:55:44.999Z</time></trkpt><trkpt lat="45.427462208263805" lon="9.371864439430553"><ele>99.0</ele><time>2026-04-11T08:55:46.999Z</time></trkpt><trkpt lat="45.42748265300324" lon="9.371704966963637"><ele>99.0</ele><time>2026-04-11T08:55:48.999Z</time></trkpt><trkpt lat="45.427493796171575" lon="9.37161383705302"><ele>99.0</ele><time>2026-04-11T08:55:49.999Z</time></trkpt><trkpt lat="45.427516571259716" lon="9.371462281567151"><ele>99.0</ele><time>2026-04-11T08:55:51.999Z</time></trkpt><trkpt lat="45.427549593921285" lon="9.37130814883935"><ele>99.0</ele><time>2026-04-11T08:55:53.999Z</time></trkpt><trkpt lat="45.42756959753327" lon="9.371157939794319"><ele>99.0</ele><time>2026-04-11T08:55:55.999Z</time></trkpt><trkpt lat="45.42759165770738" lon="9.371017730077886"><ele>99.0</ele><time>2026-04-11T08:55:57.999Z</time></trkpt><trkpt lat="45.427625124082255" lon="9.370867538027044"><ele>99.0</ele><time>2026-04-11T08:55:59.999Z</time></trkpt><trkpt lat="45.42766738553979" lon="9.370718378481543"><ele>99.0</ele><time>2026-04-11T08:56:01.999Z</time></trkpt><trkpt lat="45.42768725982079" lon="9.370559306659773"><ele>99.0</ele><time>2026-04-11T08:56:03.999Z</time></trkpt><trkpt lat="45.427712303758" lon="9.37040188514226"><ele>99.0</ele><time>2026-04-11T08:56:05.999Z</time></trkpt><trkpt lat="45.42773747730091" lon="9.370239697799848"><ele>99.0</ele><time>2026-04-11T08:56:07.999Z</time></trkpt><trkpt lat="45.42775831647202" lon="9.370081349439593"><ele>99.0</ele><time>2026-04-11T08:56:09.999Z</time></trkpt><trkpt lat="45.427779566035184" lon="9.369994433325932"><ele>99.0</ele><time>2026-04-11T08:56:10.999Z</time></trkpt><trkpt lat="45.42780409492135" lon="9.369829387957129"><ele>99.0</ele><time>2026-04-11T08:56:12.999Z</time></trkpt><trkpt lat="45.42783755313669" lon="9.369661848143432"><ele>99.0</ele><time>2026-04-11T08:56:14.999Z</time></trkpt><trkpt lat="45.42787098656997" lon="9.36949880494194"><ele>99.0</ele><time>2026-04-11T08:56:16.999Z</time></trkpt><trkpt lat="45.427903270048155" lon="9.369327846172155"><ele>99.0</ele><time>2026-04-11T08:56:18.999Z</time></trkpt><trkpt lat="45.42791981282154" lon="9.36924090389154"><ele>99.0</ele><time>2026-04-11T08:56:19.999Z</time></trkpt><trkpt lat="45.42794915418505" lon="9.369075134832833"><ele>99.0</ele><time>2026-04-11T08:56:21.999Z</time></trkpt><trkpt lat="45.427975094961354" lon="9.36890748534156"><ele>99.0</ele><time>2026-04-11T08:56:23.999Z</time></trkpt><trkpt lat="45.427995191209625" lon="9.368819473403914"><ele>99.0</ele><time>2026-04-11T08:56:24.999Z</time></trkpt><trkpt lat="45.428033580505314" lon="9.368647618604376"><ele>99.0</ele><time>2026-04-11T08:56:26.999Z</time></trkpt><trkpt lat="45.42806000241004" lon="9.368481700787765"><ele>99.0</ele><time>2026-04-11T08:56:28.999Z</time></trkpt><trkpt lat="45.42809418164828" lon="9.368309167377223"><ele>99.0</ele><time>2026-04-11T08:56:30.999Z</time></trkpt><trkpt lat="45.42812093345646" lon="9.368138070752206"><ele>99.0</ele><time>2026-04-11T08:56:32.999Z</time></trkpt><trkpt lat="45.42813721648402" lon="9.368049876918478"><ele>99.0</ele><time>2026-04-11T08:56:33.999Z</time></trkpt><trkpt lat="45.42816040712955" lon="9.367884926986852"><ele>99.4</ele><time>2026-04-11T08:56:35.999Z</time></trkpt><trkpt lat="45.42819543766256" lon="9.36771083835506"><ele>99.80000000000001</ele><time>2026-04-11T08:56:37.999Z</time></trkpt><trkpt lat="45.428224041510674" lon="9.367535990666683"><ele>100.19999999999999</ele><time>2026-04-11T08:56:39.999Z</time></trkpt><trkpt lat="45.42824777106405" lon="9.367367225283427"><ele>100.6</ele><time>2026-04-11T08:56:41.999Z</time></trkpt><trkpt lat="45.42826497426271" lon="9.367271851662025"><ele>101.0</ele><time>2026-04-11T08:56:42.999Z</time></trkpt><trkpt lat="45.428280504765965" lon="9.367183342463063"><ele>100.99999999999999</ele><time>2026-04-11T08:56:43.999Z</time></trkpt><trkpt lat="45.42829094648159" lon="9.367087541310308"><ele>101.0</ele><time>2026-04-11T08:56:44.999Z</time></trkpt><trkpt lat="45.428331037065" lon="9.366914121693037"><ele>101.0</ele><time>2026-04-11T08:56:46.999Z</time></trkpt><trkpt lat="45.42834740564593" lon="9.366825182579781"><ele>101.0</ele><time>2026-04-11T08:56:47.999Z</time></trkpt><trkpt lat="45.42836282165051" lon="9.366736453507395"><ele>100.99999999999999</ele><time>2026-04-11T08:56:48.999Z</time></trkpt><trkpt lat="45.42837882716915" lon="9.366643347783937"><ele>101.0</ele><time>2026-04-11T08:56:49.999Z</time></trkpt><trkpt lat="45.42841478959907" lon="9.366470208951284"><ele>101.25</ele><time>2026-04-11T08:56:51.999Z</time></trkpt><trkpt lat="45.4284447706874" lon="9.366292340517438"><ele>101.5</ele><time>2026-04-11T08:56:53.999Z</time></trkpt><trkpt lat="45.428480186882766" lon="9.366118164952963"><ele>101.75</ele><time>2026-04-11T08:56:55.999Z</time></trkpt><trkpt lat="45.4285096546202" lon="9.365951639116556"><ele>102.0</ele><time>2026-04-11T08:56:57.999Z</time></trkpt><trkpt lat="45.42854280413114" lon="9.365776613186213"><ele>102.0</ele><time>2026-04-11T08:56:59.999Z</time></trkpt><trkpt lat="45.42857480248991" lon="9.365603459745374"><ele>102.0</ele><time>2026-04-11T08:57:01.999Z</time></trkpt><trkpt lat="45.42859965005567" lon="9.365438929701222"><ele>102.0</ele><time>2026-04-11T08:57:03.999Z</time></trkpt><trkpt lat="45.428622078091294" lon="9.365353263559674"><ele>102.0</ele><time>2026-04-11T08:57:04.999Z</time></trkpt><trkpt lat="45.42865619331737" lon="9.3651646617981"><ele>102.0</ele><time>2026-04-11T08:57:06.999Z</time></trkpt><trkpt lat="45.42867668839907" lon="9.364995273434618"><ele>102.0</ele><time>2026-04-11T08:57:08.999Z</time></trkpt><trkpt lat="45.42868613144908" lon="9.364888369463454"><ele>102.0</ele><time>2026-04-11T08:57:09.999Z</time></trkpt><trkpt lat="45.428693824194475" lon="9.36471955371631"><ele>102.0</ele><time>2026-04-11T08:57:11.999Z</time></trkpt><trkpt lat="45.42871606378707" lon="9.364551901169039"><ele>102.0</ele><time>2026-04-11T08:57:13.999Z</time></trkpt><trkpt lat="45.428749812451976" lon="9.364385102615149"><ele>102.0</ele><time>2026-04-11T08:57:15.999Z</time></trkpt><trkpt lat="45.428778445096846" lon="9.364220020954969"><ele>102.0</ele><time>2026-04-11T08:57:17.999Z</time></trkpt><trkpt lat="45.42880753774525" lon="9.36405435046346"><ele>102.0</ele><time>2026-04-11T08:57:19.999Z</time></trkpt><trkpt lat="45.42884039934671" lon="9.363880546580193"><ele>102.0</ele><time>2026-04-11T08:57:21.999Z</time></trkpt><trkpt lat="45.428870473837414" lon="9.363714671836853"><ele>102.0</ele><time>2026-04-11T08:57:23.999Z</time></trkpt><trkpt lat="45.42888869778701" lon="9.363628130684301"><ele>102.0</ele><time>2026-04-11T08:57:24.999Z</time></trkpt><trkpt lat="45.428905212775504" lon="9.363467872477731"><ele>101.83333333333333</ele><time>2026-04-11T08:57:26.999Z</time></trkpt><trkpt lat="45.42892082355137" lon="9.36337934018369"><ele>101.66666666666666</ele><time>2026-04-11T08:57:27.998Z</time></trkpt><trkpt lat="45.42893771342904" lon="9.36320616533856"><ele>101.5</ele><time>2026-04-11T08:57:29.998Z</time></trkpt><trkpt lat="45.428951884910646" lon="9.363118368766047"><ele>101.33333333333333</ele><time>2026-04-11T08:57:30.998Z</time></trkpt><trkpt lat="45.42898037588119" lon="9.362946434125426"><ele>101.16666666666666</ele><time>2026-04-11T08:57:32.998Z</time></trkpt><trkpt lat="45.42899606246979" lon="9.362859021101256"><ele>101.0</ele><time>2026-04-11T08:57:33.998Z</time></trkpt><trkpt lat="45.42901885825852" lon="9.362684610034007"><ele>100.8</ele><time>2026-04-11T08:57:35.998Z</time></trkpt><trkpt lat="45.429037977497444" lon="9.362596023817492"><ele>100.6</ele><time>2026-04-11T08:57:36.998Z</time></trkpt><trkpt lat="45.42907181777659" lon="9.362428963050647"><ele>100.4</ele><time>2026-04-11T08:57:38.998Z</time></trkpt><trkpt lat="45.42907864136033" lon="9.362260617343306"><ele>100.2</ele><time>2026-04-11T08:57:40.999Z</time></trkpt><trkpt lat="45.42909372435053" lon="9.362168752682267"><ele>100.0</ele><time>2026-04-11T08:57:41.999Z</time></trkpt><trkpt lat="45.42912456773564" lon="9.361991666286197"><ele>100.0</ele><time>2026-04-11T08:57:43.999Z</time></trkpt><trkpt lat="45.429153421958965" lon="9.361823844791072"><ele>100.0</ele><time>2026-04-11T08:57:45.999Z</time></trkpt><trkpt lat="45.429188739289344" lon="9.361652809496483"><ele>100.0</ele><time>2026-04-11T08:57:47.999Z</time></trkpt><trkpt lat="45.42920837245171" lon="9.361563821644877"><ele>100.0</ele><time>2026-04-11T08:57:48.999Z</time></trkpt><trkpt lat="45.4292250521495" lon="9.361474081792977"><ele>100.0</ele><time>2026-04-11T08:57:49.999Z</time></trkpt><trkpt lat="45.42924966982672" lon="9.361311805910924"><ele>100.00000000000001</ele><time>2026-04-11T08:57:51.999Z</time></trkpt><trkpt lat="45.429270164526905" lon="9.361224100788926"><ele>100.0</ele><time>2026-04-11T08:57:52.999Z</time></trkpt><trkpt lat="45.42929740723404" lon="9.361052981692156"><ele>100.0</ele><time>2026-04-11T08:57:54.999Z</time></trkpt><trkpt lat="45.4293183728461" lon="9.360893871143391"><ele>100.0</ele><time>2026-04-11T08:57:56.999Z</time></trkpt><trkpt lat="45.429332745600085" lon="9.360804631796356"><ele>100.00000000000001</ele><time>2026-04-11T08:57:57.999Z</time></trkpt><trkpt lat="45.42934759677361" lon="9.360714243742091"><ele>100.0</ele><time>2026-04-11T08:57:58.999Z</time></trkpt><trkpt lat="45.42936630782652" lon="9.360628097347723"><ele>99.8</ele><time>2026-04-11T08:57:59.999Z</time></trkpt><trkpt lat="45.42939035674615" lon="9.360452796029993"><ele>99.6</ele><time>2026-04-11T08:58:01.999Z</time></trkpt><trkpt lat="45.42940773712754" lon="9.36036091535049"><ele>99.4</ele><time>2026-04-11T08:58:02.999Z</time></trkpt><trkpt lat="45.42943441819434" lon="9.360265434847044"><ele>99.2</ele><time>2026-04-11T08:58:03.999Z</time></trkpt><trkpt lat="45.42946225422663" lon="9.36008668326141"><ele>99.0</ele><time>2026-04-11T08:58:05.999Z</time></trkpt><trkpt lat="45.42949590586206" lon="9.359991259372734"><ele>99.0</ele><time>2026-04-11T08:58:06.999Z</time></trkpt><trkpt lat="45.4295270027835" lon="9.359810764863248"><ele>99.0</ele><time>2026-04-11T08:58:08.999Z</time></trkpt><trkpt lat="45.429543773076304" lon="9.359722095675025"><ele>99.0</ele><time>2026-04-11T08:58:09.999Z</time></trkpt><trkpt lat="45.42955924580563" lon="9.359635088332055"><ele>99.0</ele><time>2026-04-11T08:58:10.999Z</time></trkpt><trkpt lat="45.42957783971506" lon="9.359545036039467"><ele>99.0</ele><time>2026-04-11T08:58:11.999Z</time></trkpt><trkpt lat="45.429595651647" lon="9.359448488918952"><ele>99.0</ele><time>2026-04-11T08:58:12.999Z</time></trkpt><trkpt lat="45.42963542671759" lon="9.359271019208872"><ele>99.0</ele><time>2026-04-11T08:58:14.999Z</time></trkpt><trkpt lat="45.429658784048186" lon="9.359182913124018"><ele>99.0</ele><time>2026-04-11T08:58:15.999Z</time></trkpt><trkpt lat="45.429685005283396" lon="9.359010890406367"><ele>99.0</ele><time>2026-04-11T08:58:17.999Z</time></trkpt><trkpt lat="45.429714947049185" lon="9.358837776568741"><ele>99.0</ele><time>2026-04-11T08:58:19.999Z</time></trkpt><trkpt lat="45.42973339977314" lon="9.358750401364722"><ele>99.0</ele><time>2026-04-11T08:58:20.999Z</time></trkpt><trkpt lat="45.42976332417545" lon="9.3585870703186"><ele>99.0</ele><time>2026-04-11T08:58:22.999Z</time></trkpt><trkpt lat="45.42977402365778" lon="9.358496633376157"><ele>99.0</ele><time>2026-04-11T08:58:23.999Z</time></trkpt><trkpt lat="45.42980199023061" lon="9.358322911250724"><ele>99.0</ele><time>2026-04-11T08:58:25.999Z</time></trkpt><trkpt lat="45.42983589732427" lon="9.358153335180821"><ele>99.0</ele><time>2026-04-11T08:58:27.999Z</time></trkpt><trkpt lat="45.42986631980736" lon="9.357994584210644"><ele>99.0</ele><time>2026-04-11T08:58:29.999Z</time></trkpt><trkpt lat="45.42988916938882" lon="9.35783657782789"><ele>99.0</ele><time>2026-04-11T08:58:31.999Z</time></trkpt><trkpt lat="45.42991400556066" lon="9.357671964019552"><ele>99.0</ele><time>2026-04-11T08:58:33.999Z</time></trkpt><trkpt lat="45.429933081517845" lon="9.357505021507553"><ele>99.0</ele><time>2026-04-11T08:58:35.999Z</time></trkpt><trkpt lat="45.42994552229792" lon="9.357412880063839"><ele>99.0</ele><time>2026-04-11T08:58:36.999Z</time></trkpt><trkpt lat="45.429970291846956" lon="9.357242425067186"><ele>99.0</ele><time>2026-04-11T08:58:38.999Z</time></trkpt><trkpt lat="45.42998392852589" lon="9.357148068929765"><ele>98.80000000000001</ele><time>2026-04-11T08:58:39.999Z</time></trkpt><trkpt lat="45.430012393764365" lon="9.356973565931414"><ele>98.60000000000001</ele><time>2026-04-11T08:58:41.999Z</time></trkpt><trkpt lat="45.43004505133251" lon="9.35680198541953"><ele>98.4</ele><time>2026-04-11T08:58:43.999Z</time></trkpt><trkpt lat="45.43007567562208" lon="9.356631013121625"><ele>98.2</ele><time>2026-04-11T08:58:45.999Z</time></trkpt><trkpt lat="45.4300942644397" lon="9.356541425784702"><ele>98.0</ele><time>2026-04-11T08:58:46.999Z</time></trkpt><trkpt lat="45.43011627475238" lon="9.356377600299204"><ele>98.0</ele><time>2026-04-11T08:58:48.999Z</time></trkpt><trkpt lat="45.430142329810316" lon="9.356211015065488"><ele>98.0</ele><time>2026-04-11T08:58:50.999Z</time></trkpt><trkpt lat="45.430168804998054" lon="9.356044804899762"><ele>98.0</ele><time>2026-04-11T08:58:52.999Z</time></trkpt><trkpt lat="45.430199101476035" lon="9.355887716435188"><ele>98.0</ele><time>2026-04-11T08:58:54.999Z</time></trkpt><trkpt lat="45.43022791870105" lon="9.3557207008804"><ele>98.0</ele><time>2026-04-11T08:58:56.999Z</time></trkpt><trkpt lat="45.43026041891105" lon="9.355571492173507"><ele>98.0</ele><time>2026-04-11T08:58:58.999Z</time></trkpt><trkpt lat="45.430289376918296" lon="9.355412941925769"><ele>98.0</ele><time>2026-04-11T08:59:00.999Z</time></trkpt><trkpt lat="45.430302240000074" lon="9.355264266469938"><ele>98.0</ele><time>2026-04-11T08:59:02.999Z</time></trkpt><trkpt lat="45.43031851683445" lon="9.35512672700075"><ele>98.0</ele><time>2026-04-11T08:59:04.999Z</time></trkpt><trkpt lat="45.430322454275014" lon="9.35499552302373"><ele>98.33333333333333</ele><time>2026-04-11T08:59:06.999Z</time></trkpt><trkpt lat="45.43031176464695" lon="9.354880857523098"><ele>98.66666666666666</ele><time>2026-04-11T08:59:08.999Z</time></trkpt><trkpt lat="45.4303006501105" lon="9.354786661422686"><ele>99.0</ele><time>2026-04-11T08:59:10.999Z</time></trkpt><trkpt lat="45.43024695901297" lon="9.354697450046594"><ele>99.33333333333334</ele><time>2026-04-11T08:59:15.999Z</time></trkpt><trkpt lat="45.43018092947171" lon="9.354709761583164"><ele>99.66666666666667</ele><time>2026-04-11T08:59:17.999Z</time></trkpt><trkpt lat="45.43011239381828" lon="9.354694020890559"><ele>100.0</ele><time>2026-04-11T08:59:20.999Z</time></trkpt><trkpt lat="45.430078819540654" lon="9.354577254608683"><ele>100.16666666666667</ele><time>2026-04-11T08:59:23.999Z</time></trkpt><trkpt lat="45.43003655436396" lon="9.354493676206076"><ele>100.33333333333334</ele><time>2026-04-11T08:59:25.999Z</time></trkpt><trkpt lat="45.42998641319489" lon="9.35439246239564"><ele>100.5</ele><time>2026-04-11T08:59:27.999Z</time></trkpt><trkpt lat="45.429931900268144" lon="9.354288978757333"><ele>100.66666666666666</ele><time>2026-04-11T08:59:29.999Z</time></trkpt><trkpt lat="45.429891458549115" lon="9.354165145593406"><ele>100.83333333333333</ele><time>2026-04-11T08:59:31.999Z</time></trkpt><trkpt lat="45.42988990096825" lon="9.354018814537573"><ele>101.0</ele><time>2026-04-11T08:59:33.999Z</time></trkpt><trkpt lat="45.42992225258185" lon="9.353891284205643"><ele>101.0</ele><time>2026-04-11T08:59:35.999Z</time></trkpt><trkpt lat="45.43000272421418" lon="9.353791416862245"><ele>101.0</ele><time>2026-04-11T08:59:37.999Z</time></trkpt><trkpt lat="45.43009265967545" lon="9.353717309746566"><ele>101.0</ele><time>2026-04-11T08:59:39.999Z</time></trkpt><trkpt lat="45.43016766090089" lon="9.353626528418797"><ele>101.0</ele><time>2026-04-11T08:59:41.998Z</time></trkpt><trkpt lat="45.430218376046504" lon="9.35350357893538"><ele>101.0</ele><time>2026-04-11T08:59:43.998Z</time></trkpt><trkpt lat="45.43026970664768" lon="9.353403772242576"><ele>100.99999999999999</ele><time>2026-04-11T08:59:45.999Z</time></trkpt><trkpt lat="45.43032979094798" lon="9.353308193939625"><ele>101.0</ele><time>2026-04-11T08:59:47.999Z</time></trkpt><trkpt lat="45.43038250764044" lon="9.353225028851316"><ele>101.0</ele><time>2026-04-11T08:59:49.999Z</time></trkpt><trkpt lat="45.43040369442017" lon="9.353125940866612"><ele>101.0</ele><time>2026-04-11T08:59:51.999Z</time></trkpt><trkpt lat="45.43040872164156" lon="9.35302808200135"><ele>100.99999999999999</ele><time>2026-04-11T08:59:53.999Z</time></trkpt><trkpt lat="45.43039378005381" lon="9.352908682555022"><ele>101.0</ele><time>2026-04-11T08:59:56.999Z</time></trkpt><trkpt lat="45.4303909475998" lon="9.352785126700446"><ele>100.8</ele><time>2026-04-11T08:59:58.999Z</time></trkpt><trkpt lat="45.430383122149934" lon="9.35266195316781"><ele>100.6</ele><time>2026-04-11T09:00:00.999Z</time></trkpt><trkpt lat="45.430373059488474" lon="9.352529806011084"><ele>100.4</ele><time>2026-04-11T09:00:02.999Z</time></trkpt><trkpt lat="45.43036255314139" lon="9.352388923502374"><ele>100.2</ele><time>2026-04-11T09:00:04.999Z</time></trkpt><trkpt lat="45.43036761073403" lon="9.352234286807104"><ele>100.0</ele><time>2026-04-11T09:00:06.999Z</time></trkpt><trkpt lat="45.430365587763035" lon="9.352090373494956"><ele>100.0</ele><time>2026-04-11T09:00:08.999Z</time></trkpt><trkpt lat="45.43035997170618" lon="9.351944676017212"><ele>100.0</ele><time>2026-04-11T09:00:10.999Z</time></trkpt><trkpt lat="45.430355331479674" lon="9.351783589698568"><ele>100.0</ele><time>2026-04-11T09:00:12.999Z</time></trkpt><trkpt lat="45.43034763133257" lon="9.351648829132849"><ele>100.0</ele><time>2026-04-11T09:00:14.999Z</time></trkpt><trkpt lat="45.43033820640477" lon="9.351515465908257"><ele>100.0</ele><time>2026-04-11T09:00:16.999Z</time></trkpt><trkpt lat="45.43032650132964" lon="9.351384558987125"><ele>99.83333333333334</ele><time>2026-04-11T09:00:18.999Z</time></trkpt><trkpt lat="45.43030896889063" lon="9.351251635743498"><ele>99.66666666666667</ele><time>2026-04-11T09:00:20.999Z</time></trkpt><trkpt lat="45.43027279171351" lon="9.351133614255094"><ele>99.5</ele><time>2026-04-11T09:00:22.999Z</time></trkpt><trkpt lat="45.43021004748945" lon="9.351076994821698"><ele>99.33333333333334</ele><time>2026-04-11T09:00:24.999Z</time></trkpt><trkpt lat="45.43014852199275" lon="9.351036030085357"><ele>99.16666666666667</ele><time>2026-04-11T09:00:26.999Z</time></trkpt><trkpt lat="45.4301069489433" lon="9.35094927141355"><ele>99.0</ele><time>2026-04-11T09:00:29.999Z</time></trkpt><trkpt lat="45.430114640324824" lon="9.350814130569512"><ele>99.0</ele><time>2026-04-11T09:00:32.999Z</time></trkpt><trkpt lat="45.43013951602743" lon="9.350695447912392"><ele>99.0</ele><time>2026-04-11T09:00:34.999Z</time></trkpt><trkpt lat="45.43015353408552" lon="9.350575639846161"><ele>99.0</ele><time>2026-04-11T09:00:36.999Z</time></trkpt><trkpt lat="45.43014400607671" lon="9.350453736554838"><ele>99.0</ele><time>2026-04-11T09:00:38.999Z</time></trkpt><trkpt lat="45.430127866535535" lon="9.350320690880459"><ele>99.0</ele><time>2026-04-11T09:00:40.999Z</time></trkpt><trkpt lat="45.43011380831856" lon="9.350190693080988"><ele>99.0</ele><time>2026-04-11T09:00:42.999Z</time></trkpt><trkpt lat="45.430103629875155" lon="9.350050138468966"><ele>99.2</ele><time>2026-04-11T09:00:44.999Z</time></trkpt><trkpt lat="45.43009353427032" lon="9.349904198319004"><ele>99.4</ele><time>2026-04-11T09:00:46.999Z</time></trkpt><trkpt lat="45.4300862908388" lon="9.34976952785499"><ele>99.6</ele><time>2026-04-11T09:00:48.999Z</time></trkpt><trkpt lat="45.43008748532849" lon="9.34963471964738"><ele>99.8</ele><time>2026-04-11T09:00:50.999Z</time></trkpt><trkpt lat="45.430101492876005" lon="9.349506603279485"><ele>100.0</ele><time>2026-04-11T09:00:52.999Z</time></trkpt><trkpt lat="45.430111496096856" lon="9.349400871579482"><ele>100.16666666666667</ele><time>2026-04-11T09:00:54.999Z</time></trkpt><trkpt lat="45.430131655223576" lon="9.34927536178081"><ele>100.33333333333334</ele><time>2026-04-11T09:00:56.999Z</time></trkpt><trkpt lat="45.43012217004025" lon="9.349156799554784"><ele>100.5</ele><time>2026-04-11T09:00:58.999Z</time></trkpt><trkpt lat="45.43011710717918" lon="9.349023925199253"><ele>100.66666666666666</ele><time>2026-04-11T09:01:00.999Z</time></trkpt><trkpt lat="45.43009986627767" lon="9.348898410630836"><ele>100.83333333333333</ele><time>2026-04-11T09:01:02.999Z</time></trkpt><trkpt lat="45.43008311891376" lon="9.348788929410164"><ele>101.0</ele><time>2026-04-11T09:01:04.999Z</time></trkpt><trkpt lat="45.43007944039273" lon="9.348680415331764"><ele>100.99999999999999</ele><time>2026-04-11T09:01:06.999Z</time></trkpt><trkpt lat="45.43008155045587" lon="9.348588474399783"><ele>101.0</ele><time>2026-04-11T09:01:09.999Z</time></trkpt><trkpt lat="45.43017728048999" lon="9.348542147122727"><ele>101.0</ele><time>2026-04-11T09:01:22.999Z</time></trkpt><trkpt lat="45.43026676665179" lon="9.348504294721566"><ele>101.0</ele><time>2026-04-11T09:01:25.999Z</time></trkpt><trkpt lat="45.43033622845131" lon="9.34845762580991"><ele>100.99999999999999</ele><time>2026-04-11T09:01:27.999Z</time></trkpt><trkpt lat="45.430416259755404" lon="9.348382363100766"><ele>101.0</ele><time>2026-04-11T09:01:29.999Z</time></trkpt><trkpt lat="45.430474323160794" lon="9.34829948354511"><ele>101.0</ele><time>2026-04-11T09:01:31.999Z</time></trkpt><trkpt lat="45.43054312092174" lon="9.348210232221804"><ele>101.0</ele><time>2026-04-11T09:01:33.999Z</time></trkpt><trkpt lat="45.430630550607894" lon="9.348144417768058"><ele>101.0</ele><time>2026-04-11T09:01:35.999Z</time></trkpt><trkpt lat="45.43073672401923" lon="9.348094734774701"><ele>101.0</ele><time>2026-04-11T09:01:37.999Z</time></trkpt><trkpt lat="45.4308323563683" lon="9.348073143790971"><ele>101.0</ele><time>2026-04-11T09:01:39.999Z</time></trkpt><trkpt lat="45.430933248803925" lon="9.348056076661909"><ele>100.99999999999999</ele><time>2026-04-11T09:01:41.999Z</time></trkpt><trkpt lat="45.43103489575348" lon="9.348032503333627"><ele>101.0</ele><time>2026-04-11T09:01:43.999Z</time></trkpt><trkpt lat="45.43112354050135" lon="9.34801268287411"><ele>101.0</ele><time>2026-04-11T09:01:45.999Z</time></trkpt><trkpt lat="45.43121347799176" lon="9.348032767881028"><ele>101.0</ele><time>2026-04-11T09:01:47.999Z</time></trkpt><trkpt lat="45.43128512967081" lon="9.348068986144064"><ele>100.99999999999999</ele><time>2026-04-11T09:01:49.999Z</time></trkpt><trkpt lat="45.43137062397472" lon="9.348106699574672"><ele>101.0</ele><time>2026-04-11T09:01:51.999Z</time></trkpt><trkpt lat="45.431463549079936" lon="9.348090475178557"><ele>100.8</ele><time>2026-04-11T09:01:53.999Z</time></trkpt><trkpt lat="45.43155233998277" lon="9.348015063922537"><ele>100.6</ele><time>2026-04-11T09:01:55.999Z</time></trkpt><trkpt lat="45.431587419590485" lon="9.347896303123592"><ele>100.4</ele><time>2026-04-11T09:01:57.999Z</time></trkpt><trkpt lat="45.43159898849378" lon="9.347761896094639"><ele>100.2</ele><time>2026-04-11T09:01:59.999Z</time></trkpt><trkpt lat="45.43160284591147" lon="9.347622244789656"><ele>100.0</ele><time>2026-04-11T09:02:01.999Z</time></trkpt><trkpt lat="45.43160870392985" lon="9.34746210694105"><ele>100.00000000000001</ele><time>2026-04-11T09:02:03.999Z</time></trkpt><trkpt lat="45.431619904418454" lon="9.34736800741165"><ele>100.0</ele><time>2026-04-11T09:02:04.999Z</time></trkpt><trkpt lat="45.43163846543004" lon="9.347275686248983"><ele>100.0</ele><time>2026-04-11T09:02:05.999Z</time></trkpt><trkpt lat="45.431652159161835" lon="9.347185852795175"><ele>100.0</ele><time>2026-04-11T09:02:06.999Z</time></trkpt><trkpt lat="45.43167283964445" lon="9.347091939055472"><ele>100.00000000000001</ele><time>2026-04-11T09:02:07.999Z</time></trkpt><trkpt lat="45.43171005977688" lon="9.346910061753846"><ele>100.0</ele><time>2026-04-11T09:02:09.999Z</time></trkpt><trkpt lat="45.43172716237785" lon="9.346819625253383"><ele>100.0</ele><time>2026-04-11T09:02:10.999Z</time></trkpt><trkpt lat="45.431752914817906" lon="9.34664887787069"><ele>100.0</ele><time>2026-04-11T09:02:12.999Z</time></trkpt><trkpt lat="45.43177140250127" lon="9.346557307000774"><ele>100.0</ele><time>2026-04-11T09:02:13.999Z</time></trkpt><trkpt lat="45.431796276546024" lon="9.346461724707538"><ele>100.0</ele><time>2026-04-11T09:02:14.999Z</time></trkpt><trkpt lat="45.43182813527078" lon="9.346284844112349"><ele>100.0</ele><time>2026-04-11T09:02:16.999Z</time></trkpt><trkpt lat="45.43185982395777" lon="9.346107255067032"><ele>100.00000000000001</ele><time>2026-04-11T09:02:18.999Z</time></trkpt><trkpt lat="45.431875725719564" lon="9.346015459469088"><ele>100.0</ele><time>2026-04-11T09:02:19.999Z</time></trkpt><trkpt lat="45.43190340039835" lon="9.345850437642472"><ele>100.0</ele><time>2026-04-11T09:02:21.999Z</time></trkpt><trkpt lat="45.43193288703026" lon="9.34575496846683"><ele>100.0</ele><time>2026-04-11T09:02:22.999Z</time></trkpt><trkpt lat="45.43196045739699" lon="9.345581937343084"><ele>100.00000000000001</ele><time>2026-04-11T09:02:24.999Z</time></trkpt><trkpt lat="45.431979799745015" lon="9.34549524081046"><ele>100.0</ele><time>2026-04-11T09:02:25.999Z</time></trkpt><trkpt lat="45.43199440842031" lon="9.34540777756506"><ele>99.83333333333334</ele><time>2026-04-11T09:02:26.999Z</time></trkpt><trkpt lat="45.432022658823065" lon="9.345238868002275"><ele>99.66666666666667</ele><time>2026-04-11T09:02:28.999Z</time></trkpt><trkpt lat="45.43204854586179" lon="9.345066979031303"><ele>99.5</ele><time>2026-04-11T09:02:30.999Z</time></trkpt><trkpt lat="45.43206842218803" lon="9.34497495393205"><ele>99.33333333333334</ele><time>2026-04-11T09:02:31.999Z</time></trkpt><trkpt lat="45.432082476946775" lon="9.344886368084898"><ele>99.16666666666667</ele><time>2026-04-11T09:02:32.999Z</time></trkpt><trkpt lat="45.432101824354795" lon="9.344796713669988"><ele>99.0</ele><time>2026-04-11T09:02:33.999Z</time></trkpt><trkpt lat="45.43212976314363" lon="9.344634342915397"><ele>99.4</ele><time>2026-04-11T09:02:35.999Z</time></trkpt><trkpt lat="45.43215050696674" lon="9.344471609581657"><ele>99.80000000000001</ele><time>2026-04-11T09:02:37.999Z</time></trkpt><trkpt lat="45.43216944880668" lon="9.344380010303144"><ele>100.19999999999999</ele><time>2026-04-11T09:02:38.999Z</time></trkpt><trkpt lat="45.43219782909642" lon="9.344217316874696"><ele>100.6</ele><time>2026-04-11T09:02:40.999Z</time></trkpt><trkpt lat="45.43221934518139" lon="9.344046728797519"><ele>101.0</ele><time>2026-04-11T09:02:42.999Z</time></trkpt><trkpt lat="45.43224032511376" lon="9.343949549472526"><ele>100.8</ele><time>2026-04-11T09:02:43.999Z</time></trkpt><trkpt lat="45.43226697976371" lon="9.343784732479143"><ele>100.6</ele><time>2026-04-11T09:02:45.999Z</time></trkpt><trkpt lat="45.432284263214484" lon="9.343689245536456"><ele>100.4</ele><time>2026-04-11T09:02:46.999Z</time></trkpt><trkpt lat="45.432311261336864" lon="9.34352020326272"><ele>100.2</ele><time>2026-04-11T09:02:48.999Z</time></trkpt><trkpt lat="45.432321288621004" lon="9.343430537091672"><ele>100.0</ele><time>2026-04-11T09:02:49.999Z</time></trkpt><trkpt lat="45.43235081317261" lon="9.343258921636105"><ele>100.00000000000001</ele><time>2026-04-11T09:02:51.999Z</time></trkpt><trkpt lat="45.432372593752376" lon="9.34317205217196"><ele>100.0</ele><time>2026-04-11T09:02:52.999Z</time></trkpt><trkpt lat="45.43239067450672" lon="9.343084856381454"><ele>100.0</ele><time>2026-04-11T09:02:53.999Z</time></trkpt><trkpt lat="45.4324206017943" lon="9.342906879312284"><ele>100.0</ele><time>2026-04-11T09:02:55.999Z</time></trkpt><trkpt lat="45.43245458120833" lon="9.342740761190205"><ele>100.00000000000001</ele><time>2026-04-11T09:02:57.999Z</time></trkpt><trkpt lat="45.432468913694606" lon="9.342651399213963"><ele>100.0</ele><time>2026-04-11T09:02:58.999Z</time></trkpt><trkpt lat="45.43248034403703" lon="9.342562736370585"><ele>100.2</ele><time>2026-04-11T09:02:59.999Z</time></trkpt><trkpt lat="45.43249949157417" lon="9.342467701668797"><ele>100.4</ele><time>2026-04-11T09:03:00.999Z</time></trkpt><trkpt lat="45.432539922634" lon="9.34228705077718"><ele>100.6</ele><time>2026-04-11T09:03:02.999Z</time></trkpt><trkpt lat="45.432559517316776" lon="9.342122199685244"><ele>100.8</ele><time>2026-04-11T09:03:04.999Z</time></trkpt><trkpt lat="45.43259369203042" lon="9.341955551032207"><ele>101.0</ele><time>2026-04-11T09:03:06.999Z</time></trkpt><trkpt lat="45.432655773435535" lon="9.34179272904417"><ele>101.0</ele><time>2026-04-11T09:03:08.999Z</time></trkpt><trkpt lat="45.43274029867904" lon="9.341680666189745"><ele>101.0</ele><time>2026-04-11T09:03:10.999Z</time></trkpt><trkpt lat="45.432795609121605" lon="9.341637440592503"><ele>101.0</ele><time>2026-04-11T09:03:11.999Z</time></trkpt><trkpt lat="45.432847782863185" lon="9.341584870934419"><ele>101.0</ele><time>2026-04-11T09:03:12.999Z</time></trkpt><trkpt lat="45.432932769605756" lon="9.34146110095347"><ele>101.0</ele><time>2026-04-11T09:03:14.999Z</time></trkpt><trkpt lat="45.43299957369658" lon="9.341326601707769"><ele>101.19999999999999</ele><time>2026-04-11T09:03:16.999Z</time></trkpt><trkpt lat="45.43304079497371" lon="9.34116418141187"><ele>101.39999999999999</ele><time>2026-04-11T09:03:18.999Z</time></trkpt><trkpt lat="45.43307598683159" lon="9.341005880058493"><ele>101.6</ele><time>2026-04-11T09:03:20.999Z</time></trkpt><trkpt lat="45.43311554101863" lon="9.3408696014409"><ele>101.8</ele><time>2026-04-11T09:03:22.999Z</time></trkpt><trkpt lat="45.433149541832606" lon="9.340748829661154"><ele>102.0</ele><time>2026-04-11T09:03:24.999Z</time></trkpt><trkpt lat="45.433174279440514" lon="9.34064493910414"><ele>102.0</ele><time>2026-04-11T09:03:26.999Z</time></trkpt><trkpt lat="45.43310888808054" lon="9.340556740924184"><ele>102.0</ele><time>2026-04-11T09:03:29.999Z</time></trkpt><trkpt lat="45.433070386190046" lon="9.340436091151709"><ele>102.0</ele><time>2026-04-11T09:03:31.999Z</time></trkpt><trkpt lat="45.43304846399809" lon="9.340301500352021"><ele>102.0</ele><time>2026-04-11T09:03:33.999Z</time></trkpt><trkpt lat="45.43303576139701" lon="9.340160676872378"><ele>102.0</ele><time>2026-04-11T09:03:35.999Z</time></trkpt><trkpt lat="45.43302073410799" lon="9.340028952760356"><ele>102.19999999999999</ele><time>2026-04-11T09:03:37.999Z</time></trkpt><trkpt lat="45.433031339028034" lon="9.339885012310617"><ele>102.4</ele><time>2026-04-11T09:03:39.999Z</time></trkpt><trkpt lat="45.43305831219881" lon="9.339741321523128"><ele>102.6</ele><time>2026-04-11T09:03:41.999Z</time></trkpt><trkpt lat="45.433093753725494" lon="9.339588670991855"><ele>102.80000000000001</ele><time>2026-04-11T09:03:43.999Z</time></trkpt><trkpt lat="45.433125152134004" lon="9.339444701817104"><ele>103.0</ele><time>2026-04-11T09:03:45.999Z</time></trkpt><trkpt lat="45.4331436321226" lon="9.339293104129911"><ele>103.0</ele><time>2026-04-11T09:03:47.999Z</time></trkpt><trkpt lat="45.43316201890095" lon="9.339151016151721"><ele>103.0</ele><time>2026-04-11T09:03:49.999Z</time></trkpt><trkpt lat="45.433174737902114" lon="9.338999449940538"><ele>103.0</ele><time>2026-04-11T09:03:51.999Z</time></trkpt><trkpt lat="45.43319899005" lon="9.338868403153825"><ele>103.0</ele><time>2026-04-11T09:03:53.999Z</time></trkpt><trkpt lat="45.433211069221976" lon="9.33874664373259"><ele>103.0</ele><time>2026-04-11T09:03:55.999Z</time></trkpt><trkpt lat="45.43323208803214" lon="9.338617775935301"><ele>103.0</ele><time>2026-04-11T09:03:57.999Z</time></trkpt><trkpt lat="45.43325758236382" lon="9.338485630830075"><ele>103.0</ele><time>2026-04-11T09:03:59.999Z</time></trkpt><trkpt lat="45.43327802185366" lon="9.338343216162865"><ele>103.0</ele><time>2026-04-11T09:04:01.999Z</time></trkpt><trkpt lat="45.43329582506447" lon="9.338196387550191"><ele>103.0</ele><time>2026-04-11T09:04:03.999Z</time></trkpt><trkpt lat="45.43332195619637" lon="9.338040082606462"><ele>103.0</ele><time>2026-04-11T09:04:05.999Z</time></trkpt><trkpt lat="45.43334464657626" lon="9.337882274055193"><ele>102.66666666666667</ele><time>2026-04-11T09:04:07.999Z</time></trkpt><trkpt lat="45.43335453646015" lon="9.337793063037068"><ele>102.33333333333334</ele><time>2026-04-11T09:04:08.999Z</time></trkpt><trkpt lat="45.43338174778678" lon="9.3376557627541"><ele>102.0</ele><time>2026-04-11T09:04:10.999Z</time></trkpt><trkpt lat="45.43340526601084" lon="9.337520915688442"><ele>101.66666666666666</ele><time>2026-04-11T09:04:12.999Z</time></trkpt><trkpt lat="45.43343250730044" lon="9.337401115143026"><ele>101.33333333333333</ele><time>2026-04-11T09:04:14.999Z</time></trkpt><trkpt lat="45.433459780026126" lon="9.33728966973983"><ele>101.0</ele><time>2026-04-11T09:04:16.999Z</time></trkpt><trkpt lat="45.43348232977949" lon="9.337179588621835"><ele>100.8</ele><time>2026-04-11T09:04:18.999Z</time></trkpt><trkpt lat="45.433506158311644" lon="9.337057072901588"><ele>100.6</ele><time>2026-04-11T09:04:20.999Z</time></trkpt><trkpt lat="45.43351512534576" lon="9.336946091410885"><ele>100.4</ele><time>2026-04-11T09:04:22.999Z</time></trkpt><trkpt lat="45.43351814336197" lon="9.33680822779389"><ele>100.2</ele><time>2026-04-11T09:04:24.999Z</time></trkpt><trkpt lat="45.433515608662674" lon="9.336670226270966"><ele>100.0</ele><time>2026-04-11T09:04:26.999Z</time></trkpt><trkpt lat="45.43353708131554" lon="9.336527008406742"><ele>100.0</ele><time>2026-04-11T09:04:28.999Z</time></trkpt><trkpt lat="45.433562364699576" lon="9.336388457986882"><ele>100.0</ele><time>2026-04-11T09:04:30.999Z</time></trkpt><trkpt lat="45.43358752441631" lon="9.336239956520048"><ele>100.0</ele><time>2026-04-11T09:04:32.999Z</time></trkpt><trkpt lat="45.43360478091916" lon="9.336122901433527"><ele>100.0</ele><time>2026-04-11T09:04:34.999Z</time></trkpt><trkpt lat="45.43363652190452" lon="9.335985854609602"><ele>100.0</ele><time>2026-04-11T09:04:36.999Z</time></trkpt><trkpt lat="45.43367354616816" lon="9.335838111065385"><ele>100.0</ele><time>2026-04-11T09:04:38.999Z</time></trkpt><trkpt lat="45.43369983693003" lon="9.335684722258158"><ele>100.0</ele><time>2026-04-11T09:04:40.999Z</time></trkpt><trkpt lat="45.43373059522114" lon="9.335534409686286"><ele>100.0</ele><time>2026-04-11T09:04:42.999Z</time></trkpt><trkpt lat="45.433759980299605" lon="9.335390774351607"><ele>100.0</ele><time>2026-04-11T09:04:44.999Z</time></trkpt><trkpt lat="45.43379384087281" lon="9.335232607767034"><ele>100.0</ele><time>2026-04-11T09:04:46.999Z</time></trkpt><trkpt lat="45.433819372701585" lon="9.335077532336104"><ele>100.0</ele><time>2026-04-11T09:04:48.999Z</time></trkpt><trkpt lat="45.43383428551424" lon="9.334921219008383"><ele>100.0</ele><time>2026-04-11T09:04:50.999Z</time></trkpt><trkpt lat="45.43386495115309" lon="9.33483332407302"><ele>100.0</ele><time>2026-04-11T09:04:51.999Z</time></trkpt><trkpt lat="45.43389418214349" lon="9.334675542078825"><ele>100.0</ele><time>2026-04-11T09:04:53.999Z</time></trkpt><trkpt lat="45.433912466573766" lon="9.334520204599858"><ele>100.0</ele><time>2026-04-11T09:04:55.999Z</time></trkpt><trkpt lat="45.43394275957364" lon="9.33436038315115"><ele>99.6</ele><time>2026-04-11T09:04:57.999Z</time></trkpt><trkpt lat="45.433966073934414" lon="9.334203188143581"><ele>99.2</ele><time>2026-04-11T09:04:59.999Z</time></trkpt><trkpt lat="45.433978689001435" lon="9.334048488823214"><ele>98.80000000000001</ele><time>2026-04-11T09:05:01.999Z</time></trkpt><trkpt lat="45.433998432984644" lon="9.333896358219974"><ele>98.4</ele><time>2026-04-11T09:05:03.999Z</time></trkpt><trkpt lat="45.43402631752232" lon="9.333744780996009"><ele>98.0</ele><time>2026-04-11T09:05:05.999Z</time></trkpt><trkpt lat="45.43405703516255" lon="9.333586910474102"><ele>98.0</ele><time>2026-04-11T09:05:07.999Z</time></trkpt><trkpt lat="45.434085175678284" lon="9.333432184777902"><ele>98.0</ele><time>2026-04-11T09:05:09.999Z</time></trkpt><trkpt lat="45.434118202381335" lon="9.333280603761306"><ele>98.0</ele><time>2026-04-11T09:05:11.999Z</time></trkpt><trkpt lat="45.434139370883656" lon="9.33312860666924"><ele>98.0</ele><time>2026-04-11T09:05:13.999Z</time></trkpt><trkpt lat="45.434161623289576" lon="9.332972032619653"><ele>98.0</ele><time>2026-04-11T09:05:15.999Z</time></trkpt><trkpt lat="45.43419854718575" lon="9.332808735449056"><ele>98.2</ele><time>2026-04-11T09:05:17.999Z</time></trkpt><trkpt lat="45.434220640283954" lon="9.332662275619338"><ele>98.4</ele><time>2026-04-11T09:05:19.999Z</time></trkpt><trkpt lat="45.4342513834721" lon="9.33257932670229"><ele>98.60000000000001</ele><time>2026-04-11T09:05:20.999Z</time></trkpt><trkpt lat="45.43426837462408" lon="9.332434419576257"><ele>98.80000000000001</ele><time>2026-04-11T09:05:22.999Z</time></trkpt><trkpt lat="45.434284689380966" lon="9.332288220379487"><ele>99.0</ele><time>2026-04-11T09:05:24.999Z</time></trkpt><trkpt lat="45.43431077441702" lon="9.332147026875681"><ele>99.2</ele><time>2026-04-11T09:05:26.999Z</time></trkpt><trkpt lat="45.434316831453174" lon="9.332014074815223"><ele>99.4</ele><time>2026-04-11T09:05:28.999Z</time></trkpt><trkpt lat="45.43434319546455" lon="9.331875909309902"><ele>99.6</ele><time>2026-04-11T09:05:30.999Z</time></trkpt><trkpt lat="45.434363612523065" lon="9.331756400094083"><ele>99.8</ele><time>2026-04-11T09:05:32.999Z</time></trkpt><trkpt lat="45.43439031853796" lon="9.331612764140964"><ele>100.0</ele><time>2026-04-11T09:05:34.999Z</time></trkpt><trkpt lat="45.434429112704414" lon="9.331487123404209"><ele>100.0</ele><time>2026-04-11T09:05:36.999Z</time></trkpt><trkpt lat="45.43450480850541" lon="9.33138061853893"><ele>100.0</ele><time>2026-04-11T09:05:38.999Z</time></trkpt><trkpt lat="45.434594653818635" lon="9.331323511338194"><ele>100.0</ele><time>2026-04-11T09:05:40.999Z</time></trkpt><trkpt lat="45.43467761422179" lon="9.331306653953407"><ele>100.0</ele><time>2026-04-11T09:05:42.999Z</time></trkpt><trkpt lat="45.43478294140582" lon="9.331307518319335"><ele>100.0</ele><time>2026-04-11T09:05:44.999Z</time></trkpt><trkpt lat="45.43489848876571" lon="9.331300226103592"><ele>100.2</ele><time>2026-04-11T09:05:46.999Z</time></trkpt><trkpt lat="45.43500534491702" lon="9.331280487751057"><ele>100.4</ele><time>2026-04-11T09:05:48.999Z</time></trkpt><trkpt lat="45.43509957875086" lon="9.331264940104596"><ele>100.6</ele><time>2026-04-11T09:05:50.999Z</time></trkpt><trkpt lat="45.43520483762964" lon="9.33125695209069"><ele>100.8</ele><time>2026-04-11T09:05:52.999Z</time></trkpt><trkpt lat="45.43531498375247" lon="9.331244630474998"><ele>101.0</ele><time>2026-04-11T09:05:54.999Z</time></trkpt><trkpt lat="45.43541043071201" lon="9.331228868459116"><ele>101.6</ele><time>2026-04-11T09:05:56.999Z</time></trkpt><trkpt lat="45.435517244880444" lon="9.331221084665643"><ele>102.19999999999999</ele><time>2026-04-11T09:05:58.999Z</time></trkpt><trkpt lat="45.43562778248856" lon="9.331209528502445"><ele>102.80000000000001</ele><time>2026-04-11T09:06:00.999Z</time></trkpt><trkpt lat="45.435736120429276" lon="9.331203447728573"><ele>103.4</ele><time>2026-04-11T09:06:02.999Z</time></trkpt><trkpt lat="45.43583829417605" lon="9.331174706946948"><ele>104.0</ele><time>2026-04-11T09:06:04.999Z</time></trkpt><trkpt lat="45.435940716148565" lon="9.331142167913178"><ele>104.0</ele><time>2026-04-11T09:06:06.999Z</time></trkpt><trkpt lat="45.43604072871463" lon="9.331140155254012"><ele>104.0</ele><time>2026-04-11T09:06:08.999Z</time></trkpt><trkpt lat="45.436129280707924" lon="9.331130061818717"><ele>104.0</ele><time>2026-04-11T09:06:10.999Z</time></trkpt><trkpt lat="45.43623911972137" lon="9.331106556051676"><ele>104.0</ele><time>2026-04-11T09:06:12.999Z</time></trkpt><trkpt lat="45.43633389802651" lon="9.331098161328365"><ele>104.0</ele><time>2026-04-11T09:06:14.999Z</time></trkpt><trkpt lat="45.43641637149456" lon="9.33110802017234"><ele>104.4</ele><time>2026-04-11T09:06:17.999Z</time></trkpt><trkpt lat="45.43651857538818" lon="9.33110756481388"><ele>104.80000000000001</ele><time>2026-04-11T09:06:19.999Z</time></trkpt><trkpt lat="45.436605064966415" lon="9.331087450723354"><ele>105.19999999999999</ele><time>2026-04-11T09:06:22.999Z</time></trkpt><trkpt lat="45.43666390617491" lon="9.3310362443098"><ele>105.6</ele><time>2026-04-11T09:06:24.999Z</time></trkpt><trkpt lat="45.436730613147105" lon="9.33101052709251"><ele>106.0</ele><time>2026-04-11T09:06:27.999Z</time></trkpt><trkpt lat="45.43691817623204" lon="9.33099035732823"><ele>106.0</ele><time>2026-04-11T09:06:32.999Z</time></trkpt><trkpt lat="45.437039223104726" lon="9.330919120965419"><ele>106.0</ele><time>2026-04-11T09:06:34.999Z</time></trkpt><trkpt lat="45.43714589653897" lon="9.330831804792712"><ele>106.0</ele><time>2026-04-11T09:06:36.999Z</time></trkpt><trkpt lat="45.43723084439583" lon="9.330732905679756"><ele>106.0</ele><time>2026-04-11T09:06:38.999Z</time></trkpt><trkpt lat="45.43726590121307" lon="9.330629461239159"><ele>106.0</ele><time>2026-04-11T09:06:40.999Z</time></trkpt><trkpt lat="45.437271117116765" lon="9.33050709822183"><ele>106.0</ele><time>2026-04-11T09:06:42.999Z</time></trkpt><trkpt lat="45.43725889701692" lon="9.33036730416553"><ele>106.0</ele><time>2026-04-11T09:06:44.999Z</time></trkpt><trkpt lat="45.437270470914804" lon="9.330206663321265"><ele>106.0</ele><time>2026-04-11T09:06:46.999Z</time></trkpt><trkpt lat="45.4372780410025" lon="9.330112703751293"><ele>106.0</ele><time>2026-04-11T09:06:47.999Z</time></trkpt><trkpt lat="45.437290644952995" lon="9.329944328169216"><ele>106.0</ele><time>2026-04-11T09:06:49.999Z</time></trkpt><trkpt lat="45.43728129408238" lon="9.329782811507883"><ele>105.6</ele><time>2026-04-11T09:06:51.999Z</time></trkpt><trkpt lat="45.4372606281312" lon="9.329623313099871"><ele>105.19999999999999</ele><time>2026-04-11T09:06:53.999Z</time></trkpt><trkpt lat="45.43723094547115" lon="9.32947146206098"><ele>104.80000000000001</ele><time>2026-04-11T09:06:55.999Z</time></trkpt><trkpt lat="45.437206176374005" lon="9.329382070983227"><ele>104.4</ele><time>2026-04-11T09:06:56.999Z</time></trkpt><trkpt lat="45.43719496005107" lon="9.32928920797854"><ele>104.0</ele><time>2026-04-11T09:06:57.999Z</time></trkpt><trkpt lat="45.437179701174394" lon="9.329129503371442"><ele>104.0</ele><time>2026-04-11T09:06:59.999Z</time></trkpt><trkpt lat="45.43716106834819" lon="9.328977924139974"><ele>104.0</ele><time>2026-04-11T09:07:01.999Z</time></trkpt><trkpt lat="45.43715550809316" lon="9.328822005969059"><ele>104.0</ele><time>2026-04-11T09:07:03.999Z</time></trkpt><trkpt lat="45.43714312496807" lon="9.32866688468253"><ele>104.0</ele><time>2026-04-11T09:07:05.999Z</time></trkpt><trkpt lat="45.43713774172332" lon="9.328513466635101"><ele>104.0</ele><time>2026-04-11T09:07:07.999Z</time></trkpt><trkpt lat="45.437128513480026" lon="9.328365910413057"><ele>103.80000000000001</ele><time>2026-04-11T09:07:09.999Z</time></trkpt><trkpt lat="45.43710280791626" lon="9.328229909755358"><ele>103.60000000000001</ele><time>2026-04-11T09:07:11.999Z</time></trkpt><trkpt lat="45.43709135078192" lon="9.328072758701145"><ele>103.4</ele><time>2026-04-11T09:07:13.999Z</time></trkpt><trkpt lat="45.43707387937064" lon="9.327918745030459"><ele>103.2</ele><time>2026-04-11T09:07:15.999Z</time></trkpt><trkpt lat="45.43703869779035" lon="9.327781327050344"><ele>103.0</ele><time>2026-04-11T09:07:17.999Z</time></trkpt><trkpt lat="45.43702158330035" lon="9.327616517031567"><ele>102.80000000000001</ele><time>2026-04-11T09:07:19.999Z</time></trkpt><trkpt lat="45.437015484141774" lon="9.327480118281995"><ele>102.6</ele><time>2026-04-11T09:07:21.999Z</time></trkpt><trkpt lat="45.4369981636202" lon="9.32732757066771"><ele>102.4</ele><time>2026-04-11T09:07:23.999Z</time></trkpt><trkpt lat="45.436979020784364" lon="9.327189683582837"><ele>102.19999999999999</ele><time>2026-04-11T09:07:25.999Z</time></trkpt><trkpt lat="45.436957297041886" lon="9.327077547597366"><ele>102.0</ele><time>2026-04-11T09:07:27.999Z</time></trkpt><trkpt lat="45.43694863507328" lon="9.326942198289311"><ele>103.0</ele><time>2026-04-11T09:07:29.999Z</time></trkpt><trkpt lat="45.436930344465075" lon="9.32678462517972"><ele>104.0</ele><time>2026-04-11T09:07:31.999Z</time></trkpt><trkpt lat="45.436906230826814" lon="9.326611460905358"><ele>105.0</ele><time>2026-04-11T09:07:33.999Z</time></trkpt><trkpt lat="45.43688962960043" lon="9.326436050070166"><ele>106.0</ele><time>2026-04-11T09:07:35.999Z</time></trkpt><trkpt lat="45.43687235623673" lon="9.326286845363319"><ele>106.50000000000001</ele><time>2026-04-11T09:07:37.999Z</time></trkpt><trkpt lat="45.43685771456266" lon="9.326138575487386"><ele>107.0</ele><time>2026-04-11T09:07:39.999Z</time></trkpt><trkpt lat="45.43683313385718" lon="9.32601641252199"><ele>107.5</ele><time>2026-04-11T09:07:41.999Z</time></trkpt><trkpt lat="45.436808273894194" lon="9.325883967085412"><ele>108.0</ele><time>2026-04-11T09:07:43.999Z</time></trkpt><trkpt lat="45.43679429465879" lon="9.32579601738297"><ele>108.50000000000001</ele><time>2026-04-11T09:07:44.999Z</time></trkpt><trkpt lat="45.436773397457586" lon="9.325694185777559"><ele>109.0</ele><time>2026-04-11T09:07:46.999Z</time></trkpt><trkpt lat="45.43674705363157" lon="9.325599892308531"><ele>108.6</ele><time>2026-04-11T09:07:49.999Z</time></trkpt><trkpt lat="45.43671144954526" lon="9.325449957452523"><ele>108.2</ele><time>2026-04-11T09:07:51.999Z</time></trkpt><trkpt lat="45.43669498208647" lon="9.325339556326218"><ele>107.79999999999998</ele><time>2026-04-11T09:07:53.999Z</time></trkpt><trkpt lat="45.436678320115114" lon="9.325211143474641"><ele>107.39999999999999</ele><time>2026-04-11T09:07:55.999Z</time></trkpt><trkpt lat="45.43666648280231" lon="9.325078830634181"><ele>107.0</ele><time>2026-04-11T09:07:57.999Z</time></trkpt><trkpt lat="45.43665023865934" lon="9.32495868412619"><ele>106.99999999999999</ele><time>2026-04-11T09:07:59.999Z</time></trkpt><trkpt lat="45.436633463678604" lon="9.32487154064831"><ele>107.0</ele><time>2026-04-11T09:08:01.999Z</time></trkpt><trkpt lat="45.43661969271709" lon="9.3247494474342"><ele>107.0</ele><time>2026-04-11T09:08:03.999Z</time></trkpt><trkpt lat="45.436597873244594" lon="9.324604824626242"><ele>107.0</ele><time>2026-04-11T09:08:05.999Z</time></trkpt><trkpt lat="45.43659165414826" lon="9.324489013577718"><ele>106.99999999999999</ele><time>2026-04-11T09:08:07.999Z</time></trkpt><trkpt lat="45.436620141210355" lon="9.324359757096335"><ele>107.0</ele><time>2026-04-11T09:08:09.999Z</time></trkpt><trkpt lat="45.436704994058985" lon="9.324271951245834"><ele>106.8</ele><time>2026-04-11T09:08:11.999Z</time></trkpt><trkpt lat="45.43680227276695" lon="9.324202400688726"><ele>106.6</ele><time>2026-04-11T09:08:13.999Z</time></trkpt><trkpt lat="45.43685800402618" lon="9.32415132796262"><ele>106.39999999999999</ele><time>2026-04-11T09:08:14.999Z</time></trkpt><trkpt lat="45.43691159653574" lon="9.324007084251944"><ele>106.19999999999999</ele><time>2026-04-11T09:08:16.999Z</time></trkpt><trkpt lat="45.4369196499604" lon="9.323838496238347"><ele>106.0</ele><time>2026-04-11T09:08:18.999Z</time></trkpt><trkpt lat="45.436946923841354" lon="9.323689915156006"><ele>106.0</ele><time>2026-04-11T09:08:20.999Z</time></trkpt><trkpt lat="45.4370022314769" lon="9.32360692185526"><ele>106.0</ele><time>2026-04-11T09:08:23Z</time></trkpt><trkpt lat="45.43707987654144" lon="9.323562726574334"><ele>106.0</ele><time>2026-04-11T09:08:25Z</time></trkpt><trkpt lat="45.43718028409077" lon="9.323533642693297"><ele>106.0</ele><time>2026-04-11T09:08:27Z</time></trkpt><trkpt lat="45.437239418100866" lon="9.323414841026532"><ele>106.0</ele><time>2026-04-11T09:08:29Z</time></trkpt><trkpt lat="45.43723875643738" lon="9.323297912056633"><ele>105.19999999999999</ele><time>2026-04-11T09:08:30.999Z</time></trkpt><trkpt lat="45.437225341602684" lon="9.323183120328256"><ele>104.39999999999999</ele><time>2026-04-11T09:08:32.999Z</time></trkpt><trkpt lat="45.43720157611367" lon="9.323052451810423"><ele>103.6</ele><time>2026-04-11T09:08:34.999Z</time></trkpt><trkpt lat="45.437207512411305" lon="9.32292076909014"><ele>102.8</ele><time>2026-04-11T09:08:36.999Z</time></trkpt><trkpt lat="45.43719691568637" lon="9.322767787862217"><ele>102.0</ele><time>2026-04-11T09:08:38.999Z</time></trkpt><trkpt lat="45.43715863264024" lon="9.322673065652605"><ele>101.8</ele><time>2026-04-11T09:08:40.999Z</time></trkpt><trkpt lat="45.43713988627995" lon="9.32252775111131"><ele>101.6</ele><time>2026-04-11T09:08:42.999Z</time></trkpt><trkpt lat="45.437131908247736" lon="9.322390769680116"><ele>101.39999999999999</ele><time>2026-04-11T09:08:44.999Z</time></trkpt><trkpt lat="45.43711207856166" lon="9.322230712117229"><ele>101.19999999999999</ele><time>2026-04-11T09:08:46.999Z</time></trkpt><trkpt lat="45.43717919153819" lon="9.322070063389068"><ele>101.0</ele><time>2026-04-11T09:08:48.999Z</time></trkpt><trkpt lat="45.43718424490212" lon="9.321905177258111"><ele>101.0</ele><time>2026-04-11T09:08:50.999Z</time></trkpt><trkpt lat="45.43715659527132" lon="9.321816686225937"><ele>101.0</ele><time>2026-04-11T09:08:51.999Z</time></trkpt><trkpt lat="45.437160778089954" lon="9.321653610849266"><ele>101.0</ele><time>2026-04-11T09:08:53.999Z</time></trkpt><trkpt lat="45.43716817243713" lon="9.321498723895905"><ele>101.0</ele><time>2026-04-11T09:08:55.999Z</time></trkpt><trkpt lat="45.437177126244556" lon="9.321402102868324"><ele>101.0</ele><time>2026-04-11T09:08:56.999Z</time></trkpt><trkpt lat="45.43719612775565" lon="9.32123343295845"><ele>101.0</ele><time>2026-04-11T09:08:58.999Z</time></trkpt><trkpt lat="45.437192491768336" lon="9.321082802739028"><ele>101.0</ele><time>2026-04-11T09:09:00.999Z</time></trkpt><trkpt lat="45.43721254648362" lon="9.32093909609239"><ele>101.0</ele><time>2026-04-11T09:09:02.999Z</time></trkpt><trkpt lat="45.43721809014016" lon="9.320809748084367"><ele>101.0</ele><time>2026-04-11T09:09:04.999Z</time></trkpt><trkpt lat="45.437230345805894" lon="9.320651288577785"><ele>101.0</ele><time>2026-04-11T09:09:06.999Z</time></trkpt><trkpt lat="45.43725079384775" lon="9.320476502013028"><ele>101.0</ele><time>2026-04-11T09:09:08.999Z</time></trkpt><trkpt lat="45.437250561235125" lon="9.32032114594297"><ele>101.0</ele><time>2026-04-11T09:09:10.999Z</time></trkpt><trkpt lat="45.43724826366391" lon="9.320181032184156"><ele>101.0</ele><time>2026-04-11T09:09:12.999Z</time></trkpt><trkpt lat="45.437270125606524" lon="9.320035848379483"><ele>101.0</ele><time>2026-04-11T09:09:14.999Z</time></trkpt><trkpt lat="45.43728571139355" lon="9.319873724076649"><ele>101.0</ele><time>2026-04-11T09:09:16.999Z</time></trkpt><trkpt lat="45.437281954488824" lon="9.319724681881764"><ele>101.0</ele><time>2026-04-11T09:09:18.999Z</time></trkpt><trkpt lat="45.437286374380534" lon="9.319560616854043"><ele>101.0</ele><time>2026-04-11T09:09:20.999Z</time></trkpt><trkpt lat="45.43730746390892" lon="9.319400426903618"><ele>101.0</ele><time>2026-04-11T09:09:22.999Z</time></trkpt><trkpt lat="45.43735575920132" lon="9.319284193201696"><ele>101.0</ele><time>2026-04-11T09:09:24.999Z</time></trkpt><trkpt lat="45.437440264932405" lon="9.319244923499872"><ele>101.0</ele><time>2026-04-11T09:09:26.999Z</time></trkpt><trkpt lat="45.43755717269975" lon="9.319220361527288"><ele>101.0</ele><time>2026-04-11T09:09:28.999Z</time></trkpt><trkpt lat="45.437621172199236" lon="9.319210873391727"><ele>101.0</ele><time>2026-04-11T09:09:29.999Z</time></trkpt><trkpt lat="45.43772967864284" lon="9.319183787601178"><ele>101.0</ele><time>2026-04-11T09:09:31.999Z</time></trkpt><trkpt lat="45.43784250452414" lon="9.319131596816476"><ele>101.0</ele><time>2026-04-11T09:09:33.999Z</time></trkpt><trkpt lat="45.437952405404495" lon="9.319072187177062"><ele>101.0</ele><time>2026-04-11T09:09:35.999Z</time></trkpt><trkpt lat="45.438055925969735" lon="9.318993472174883"><ele>101.0</ele><time>2026-04-11T09:09:37.999Z</time></trkpt><trkpt lat="45.43816204415669" lon="9.318924719095453"><ele>101.0</ele><time>2026-04-11T09:09:39.999Z</time></trkpt><trkpt lat="45.43826728100589" lon="9.318856929208865"><ele>101.0</ele><time>2026-04-11T09:09:41.999Z</time></trkpt><trkpt lat="45.438372360034954" lon="9.318788532901044"><ele>101.0</ele><time>2026-04-11T09:09:43.999Z</time></trkpt><trkpt lat="45.43847310610496" lon="9.318725632741945"><ele>101.0</ele><time>2026-04-11T09:09:45.999Z</time></trkpt><trkpt lat="45.43857698052549" lon="9.318669343163334"><ele>101.0</ele><time>2026-04-11T09:09:47.999Z</time></trkpt><trkpt lat="45.43863588818749" lon="9.318635571018412"><ele>101.0</ele><time>2026-04-11T09:09:48.999Z</time></trkpt><trkpt lat="45.43873935706391" lon="9.318581356122504"><ele>101.0</ele><time>2026-04-11T09:09:50.999Z</time></trkpt><trkpt lat="45.43884581890753" lon="9.318518655688072"><ele>101.0</ele><time>2026-04-11T09:09:52.999Z</time></trkpt><trkpt lat="45.43895489866097" lon="9.318458039868352"><ele>101.0</ele><time>2026-04-11T09:09:54.999Z</time></trkpt><trkpt lat="45.43906054629052" lon="9.318396497958268"><ele>101.0</ele><time>2026-04-11T09:09:56.999Z</time></trkpt><trkpt lat="45.43916547280014" lon="9.318332826079372"><ele>101.0</ele><time>2026-04-11T09:09:58.999Z</time></trkpt><trkpt lat="45.43927052967511" lon="9.318271191049533"><ele>101.0</ele><time>2026-04-11T09:10:00.999Z</time></trkpt><trkpt lat="45.439377730700855" lon="9.318219310452937"><ele>101.0</ele><time>2026-04-11T09:10:02.999Z</time></trkpt><trkpt lat="45.43948789716239" lon="9.318156961218936"><ele>101.0</ele><time>2026-04-11T09:10:04.999Z</time></trkpt><trkpt lat="45.439600656827146" lon="9.318097924469368"><ele>101.0</ele><time>2026-04-11T09:10:06.999Z</time></trkpt><trkpt lat="45.4397126498384" lon="9.318036646633267"><ele>101.0</ele><time>2026-04-11T09:10:08.999Z</time></trkpt><trkpt lat="45.439773873643794" lon="9.318004326420203"><ele>101.0</ele><time>2026-04-11T09:10:09.999Z</time></trkpt><trkpt lat="45.43987741578371" lon="9.317949204671423"><ele>101.0</ele><time>2026-04-11T09:10:11.999Z</time></trkpt><trkpt lat="45.43999312484118" lon="9.317883839578673"><ele>101.0</ele><time>2026-04-11T09:10:13.999Z</time></trkpt><trkpt lat="45.440103504887475" lon="9.317826521719734"><ele>101.0</ele><time>2026-04-11T09:10:16Z</time></trkpt><trkpt lat="45.44021491616889" lon="9.31776464478727"><ele>101.0</ele><time>2026-04-11T09:10:18Z</time></trkpt><trkpt lat="45.440327725469736" lon="9.31770004792222"><ele>101.0</ele><time>2026-04-11T09:10:20Z</time></trkpt><trkpt lat="45.44043188041593" lon="9.3176419184815"><ele>101.0</ele><time>2026-04-11T09:10:22Z</time></trkpt><trkpt lat="45.4405412015152" lon="9.31758682826372"><ele>101.0</ele><time>2026-04-11T09:10:24Z</time></trkpt><trkpt lat="45.44064961916543" lon="9.317524697131287"><ele>101.0</ele><time>2026-04-11T09:10:26Z</time></trkpt><trkpt lat="45.4407563768872" lon="9.31746618785764"><ele>101.0</ele><time>2026-04-11T09:10:28Z</time></trkpt><trkpt lat="45.44086648981447" lon="9.317406970420853"><ele>101.0</ele><time>2026-04-11T09:10:30Z</time></trkpt><trkpt lat="45.44097233375182" lon="9.317347187544215"><ele>101.0</ele><time>2026-04-11T09:10:32Z</time></trkpt><trkpt lat="45.44108863890783" lon="9.317280392334162"><ele>101.0</ele><time>2026-04-11T09:10:34Z</time></trkpt><trkpt lat="45.441203965732136" lon="9.31721469135591"><ele>100.83333333333333</ele><time>2026-04-11T09:10:36Z</time></trkpt><trkpt lat="45.441261568845505" lon="9.317177851570849"><ele>100.66666666666666</ele><time>2026-04-11T09:10:37Z</time></trkpt><trkpt lat="45.44132117296751" lon="9.317147991151371"><ele>100.5</ele><time>2026-04-11T09:10:38Z</time></trkpt><trkpt lat="45.44138247291899" lon="9.317119450337872"><ele>100.33333333333334</ele><time>2026-04-11T09:10:39Z</time></trkpt><trkpt lat="45.44149832511508" lon="9.317055959788663"><ele>100.16666666666667</ele><time>2026-04-11T09:10:41Z</time></trkpt><trkpt lat="45.44161243890249" lon="9.3169976093023"><ele>100.0</ele><time>2026-04-11T09:10:43Z</time></trkpt><trkpt lat="45.441724592327425" lon="9.316929302492252"><ele>100.5</ele><time>2026-04-11T09:10:45Z</time></trkpt><trkpt lat="45.44183816823511" lon="9.316861066642387"><ele>101.0</ele><time>2026-04-11T09:10:47Z</time></trkpt><trkpt lat="45.44194053108681" lon="9.316796847388382"><ele>101.5</ele><time>2026-04-11T09:10:49Z</time></trkpt><trkpt lat="45.4420449976909" lon="9.3167275418351"><ele>102.0</ele><time>2026-04-11T09:10:51Z</time></trkpt><trkpt lat="45.44215320791057" lon="9.316664290586193"><ele>102.39999999999999</ele><time>2026-04-11T09:10:53Z</time></trkpt><trkpt lat="45.442261710273186" lon="9.31659398922514"><ele>102.8</ele><time>2026-04-11T09:10:55Z</time></trkpt><trkpt lat="45.4423663217702" lon="9.316532614689068"><ele>103.2</ele><time>2026-04-11T09:10:57Z</time></trkpt><trkpt lat="45.442425152909415" lon="9.316498360607802"><ele>103.6</ele><time>2026-04-11T09:10:58Z</time></trkpt><trkpt lat="45.442533003528766" lon="9.316430771492941"><ele>104.0</ele><time>2026-04-11T09:11:00Z</time></trkpt><trkpt lat="45.44264216186705" lon="9.316365607176582"><ele>104.0</ele><time>2026-04-11T09:11:02Z</time></trkpt><trkpt lat="45.442734064865625" lon="9.316298632354378"><ele>104.0</ele><time>2026-04-11T09:11:04Z</time></trkpt><trkpt lat="45.44284338851088" lon="9.316237636571268"><ele>104.0</ele><time>2026-04-11T09:11:06Z</time></trkpt><trkpt lat="45.44295475885113" lon="9.316178998718664"><ele>104.0</ele><time>2026-04-11T09:11:08Z</time></trkpt><trkpt lat="45.443067585602456" lon="9.316111426247401"><ele>104.0</ele><time>2026-04-11T09:11:10Z</time></trkpt><trkpt lat="45.443171235867084" lon="9.316046717568371"><ele>104.0</ele><time>2026-04-11T09:11:12Z</time></trkpt><trkpt lat="45.44323216485558" lon="9.316010795270174"><ele>104.0</ele><time>2026-04-11T09:11:13Z</time></trkpt><trkpt lat="45.44333298630084" lon="9.31594807478867"><ele>104.0</ele><time>2026-04-11T09:11:15Z</time></trkpt><trkpt lat="45.443448522979494" lon="9.31588431255115"><ele>104.0</ele><time>2026-04-11T09:11:17Z</time></trkpt><trkpt lat="45.44355505166421" lon="9.315827151400912"><ele>104.0</ele><time>2026-04-11T09:11:18.999Z</time></trkpt><trkpt lat="45.44365934907778" lon="9.315762617042205"><ele>104.0</ele><time>2026-04-11T09:11:20.999Z</time></trkpt><trkpt lat="45.44376442157296" lon="9.315691358268671"><ele>104.0</ele><time>2026-04-11T09:11:22.999Z</time></trkpt><trkpt lat="45.443822463606146" lon="9.315655066702487"><ele>104.0</ele><time>2026-04-11T09:11:23.999Z</time></trkpt><trkpt lat="45.44393758244231" lon="9.31559851777342"><ele>104.0</ele><time>2026-04-11T09:11:25.999Z</time></trkpt><trkpt lat="45.44404470192867" lon="9.315530651012942"><ele>103.6</ele><time>2026-04-11T09:11:27.999Z</time></trkpt><trkpt lat="45.44414152544967" lon="9.31545951965863"><ele>103.2</ele><time>2026-04-11T09:11:29.999Z</time></trkpt><trkpt lat="45.4442489448348" lon="9.315389800589783"><ele>102.8</ele><time>2026-04-11T09:11:31.999Z</time></trkpt><trkpt lat="45.444351219306625" lon="9.315340520094008"><ele>102.39999999999999</ele><time>2026-04-11T09:11:33.999Z</time></trkpt><trkpt lat="45.44444850534161" lon="9.315278797956516"><ele>102.0</ele><time>2026-04-11T09:11:35.999Z</time></trkpt><trkpt lat="45.444553238668796" lon="9.315215673440504"><ele>101.75</ele><time>2026-04-11T09:11:37.999Z</time></trkpt><trkpt lat="45.444661302453845" lon="9.315148022936492"><ele>101.5</ele><time>2026-04-11T09:11:39.999Z</time></trkpt><trkpt lat="45.44476830267341" lon="9.315082718346416"><ele>101.25</ele><time>2026-04-11T09:11:41.999Z</time></trkpt><trkpt lat="45.44487227697863" lon="9.31501478498727"><ele>101.0</ele><time>2026-04-11T09:11:43.999Z</time></trkpt><trkpt lat="45.44497210072254" lon="9.31495059013204"><ele>101.0</ele><time>2026-04-11T09:11:45.999Z</time></trkpt><trkpt lat="45.445077435611324" lon="9.3148821487253"><ele>101.0</ele><time>2026-04-11T09:11:47.999Z</time></trkpt><trkpt lat="45.44518237926006" lon="9.314814032806314"><ele>101.0</ele><time>2026-04-11T09:11:49.999Z</time></trkpt><trkpt lat="45.44528809759889" lon="9.314745502058143"><ele>101.0</ele><time>2026-04-11T09:11:51.999Z</time></trkpt><trkpt lat="45.44538721894576" lon="9.314677123685643"><ele>101.19999999999999</ele><time>2026-04-11T09:11:53.999Z</time></trkpt><trkpt lat="45.445488048240826" lon="9.314608994144102"><ele>101.39999999999999</ele><time>2026-04-11T09:11:55.999Z</time></trkpt><trkpt lat="45.44558567368898" lon="9.314544232123342"><ele>101.6</ele><time>2026-04-11T09:11:57.999Z</time></trkpt><trkpt lat="45.44568754186976" lon="9.314478407528242"><ele>101.8</ele><time>2026-04-11T09:11:59.999Z</time></trkpt><trkpt lat="45.445781168798206" lon="9.314415615728466"><ele>102.0</ele><time>2026-04-11T09:12:01.999Z</time></trkpt><trkpt lat="45.44587708232948" lon="9.314358563960038"><ele>102.0</ele><time>2026-04-11T09:12:03.999Z</time></trkpt><trkpt lat="45.445954508021025" lon="9.31429186300019"><ele>102.0</ele><time>2026-04-11T09:12:05.999Z</time></trkpt><trkpt lat="45.44604156125026" lon="9.314248311620432"><ele>102.0</ele><time>2026-04-11T09:12:07.999Z</time></trkpt><trkpt lat="45.44613364084924" lon="9.314189367747497"><ele>102.0</ele><time>2026-04-11T09:12:09.999Z</time></trkpt><trkpt lat="45.446227545930405" lon="9.314119860941874"><ele>102.0</ele><time>2026-04-11T09:12:11.999Z</time></trkpt><trkpt lat="45.44632745916998" lon="9.314058675866205"><ele>102.33333333333333</ele><time>2026-04-11T09:12:13.999Z</time></trkpt><trkpt lat="45.446427248383216" lon="9.313991421555565"><ele>102.66666666666666</ele><time>2026-04-11T09:12:15.999Z</time></trkpt><trkpt lat="45.44651719504231" lon="9.31393447973743"><ele>103.0</ele><time>2026-04-11T09:12:17.999Z</time></trkpt><trkpt lat="45.446606639449584" lon="9.31388664845013"><ele>103.33333333333333</ele><time>2026-04-11T09:12:19.999Z</time></trkpt><trkpt lat="45.44666494362273" lon="9.313833671396036"><ele>103.66666666666666</ele><time>2026-04-11T09:12:23Z</time></trkpt><trkpt lat="45.446622696749934" lon="9.313766088746016"><ele>104.0</ele><time>2026-04-11T09:12:41Z</time></trkpt><trkpt lat="45.44660341813824" lon="9.313671775884236"><ele>103.99999999999999</ele><time>2026-04-11T09:12:45Z</time></trkpt><trkpt lat="45.446552026619166" lon="9.313556075578456"><ele>104.0</ele><time>2026-04-11T09:12:48Z</time></trkpt><trkpt lat="45.4465205749571" lon="9.313459592207398"><ele>104.0</ele><time>2026-04-11T09:12:50Z</time></trkpt><trkpt lat="45.4464847992983" lon="9.313344859565342"><ele>104.0</ele><time>2026-04-11T09:12:52Z</time></trkpt><trkpt lat="45.44645081605167" lon="9.313229818068741"><ele>103.99999999999999</ele><time>2026-04-11T09:12:54Z</time></trkpt><trkpt lat="45.44642413032861" lon="9.313116752661072"><ele>104.0</ele><time>2026-04-11T09:12:56Z</time></trkpt><trkpt lat="45.446395236576265" lon="9.313010756720432"><ele>104.0</ele><time>2026-04-11T09:12:58Z</time></trkpt><trkpt lat="45.44635980062154" lon="9.31288589841279"><ele>104.0</ele><time>2026-04-11T09:13:00Z</time></trkpt><trkpt lat="45.4463284450351" lon="9.312766017234042"><ele>104.0</ele><time>2026-04-11T09:13:02Z</time></trkpt><trkpt lat="45.446285220460815" lon="9.312639257384884"><ele>104.0</ele><time>2026-04-11T09:13:04Z</time></trkpt><trkpt lat="45.44625086003097" lon="9.312508956432069"><ele>104.0</ele><time>2026-04-11T09:13:06Z</time></trkpt><trkpt lat="45.446228177847175" lon="9.312388443789454"><ele>103.99999999999999</ele><time>2026-04-11T09:13:08Z</time></trkpt><trkpt lat="45.446202390695966" lon="9.31226746961522"><ele>104.0</ele><time>2026-04-11T09:13:10Z</time></trkpt><trkpt lat="45.44616816659401" lon="9.312151115019914"><ele>104.0</ele><time>2026-04-11T09:13:12Z</time></trkpt><trkpt lat="45.446140678789625" lon="9.31203716636396"><ele>104.0</ele><time>2026-04-11T09:13:14Z</time></trkpt><trkpt lat="45.44611540551661" lon="9.311917317838544"><ele>103.99999999999999</ele><time>2026-04-11T09:13:16Z</time></trkpt><trkpt lat="45.44608172090836" lon="9.311792048421891"><ele>104.0</ele><time>2026-04-11T09:13:18Z</time></trkpt><trkpt lat="45.44606476529116" lon="9.311664675388476"><ele>103.6</ele><time>2026-04-11T09:13:20Z</time></trkpt><trkpt lat="45.44605395318326" lon="9.31155085239489"><ele>103.2</ele><time>2026-04-11T09:13:22Z</time></trkpt><trkpt lat="45.4460293862111" lon="9.311427247978925"><ele>102.8</ele><time>2026-04-11T09:13:24Z</time></trkpt><trkpt lat="45.446008577262276" lon="9.31130724649404"><ele>102.39999999999999</ele><time>2026-04-11T09:13:26Z</time></trkpt><trkpt lat="45.44600159512124" lon="9.311157947564066"><ele>102.0</ele><time>2026-04-11T09:13:28.999Z</time></trkpt><trkpt lat="45.44598145609368" lon="9.311021370019622"><ele>101.8</ele><time>2026-04-11T09:13:30.999Z</time></trkpt><trkpt lat="45.445970951350304" lon="9.310926939761432"><ele>101.6</ele><time>2026-04-11T09:13:32.999Z</time></trkpt><trkpt lat="45.4459377887862" lon="9.31079275285563"><ele>101.39999999999999</ele><time>2026-04-11T09:13:34.999Z</time></trkpt><trkpt lat="45.44589052657769" lon="9.310658604836414"><ele>101.19999999999999</ele><time>2026-04-11T09:13:36.999Z</time></trkpt><trkpt lat="45.445877466692004" lon="9.31049997098298"><ele>101.0</ele><time>2026-04-11T09:13:38.999Z</time></trkpt><trkpt lat="45.44585480832858" lon="9.310346007273841"><ele>101.6</ele><time>2026-04-11T09:13:40.999Z</time></trkpt><trkpt lat="45.44583233995454" lon="9.310189546044759"><ele>102.19999999999999</ele><time>2026-04-11T09:13:42.999Z</time></trkpt><trkpt lat="45.44581866993241" lon="9.310027249258487"><ele>102.80000000000001</ele><time>2026-04-11T09:13:44.999Z</time></trkpt><trkpt lat="45.44578364093065" lon="9.30988217207057"><ele>103.4</ele><time>2026-04-11T09:13:46.999Z</time></trkpt><trkpt lat="45.44574710379858" lon="9.309737479703028"><ele>104.0</ele><time>2026-04-11T09:13:48.999Z</time></trkpt><trkpt lat="45.44573062716759" lon="9.309600323115177"><ele>104.2</ele><time>2026-04-11T09:13:50.999Z</time></trkpt><trkpt lat="45.445715117734075" lon="9.309467058559685"><ele>104.4</ele><time>2026-04-11T09:13:52.999Z</time></trkpt><trkpt lat="45.44568917174206" lon="9.309346737350088"><ele>104.6</ele><time>2026-04-11T09:13:54.999Z</time></trkpt><trkpt lat="45.44566829855521" lon="9.309212161012681"><ele>104.8</ele><time>2026-04-11T09:13:56.999Z</time></trkpt><trkpt lat="45.44565007116887" lon="9.309066744850641"><ele>105.0</ele><time>2026-04-11T09:13:58.999Z</time></trkpt><trkpt lat="45.44562453533245" lon="9.30895738343543"><ele>104.8</ele><time>2026-04-11T09:14:00.999Z</time></trkpt><trkpt lat="45.445608990343466" lon="9.308844016811948"><ele>104.6</ele><time>2026-04-11T09:14:02.999Z</time></trkpt><trkpt lat="45.445586637284" lon="9.308719966479218"><ele>104.4</ele><time>2026-04-11T09:14:04.999Z</time></trkpt><trkpt lat="45.445560300554966" lon="9.308569416614363"><ele>104.2</ele><time>2026-04-11T09:14:06.999Z</time></trkpt><trkpt lat="45.44552955835277" lon="9.308437547436142"><ele>104.0</ele><time>2026-04-11T09:14:08.999Z</time></trkpt><trkpt lat="45.445510858845964" lon="9.308321617756137"><ele>103.99999999999999</ele><time>2026-04-11T09:14:10.999Z</time></trkpt><trkpt lat="45.44548443920433" lon="9.308201392064953"><ele>104.0</ele><time>2026-04-11T09:14:12.999Z</time></trkpt><trkpt lat="45.44546475277232" lon="9.308093819989349"><ele>104.0</ele><time>2026-04-11T09:14:14.999Z</time></trkpt><trkpt lat="45.44545466996749" lon="9.307967855152901"><ele>104.0</ele><time>2026-04-11T09:14:16.999Z</time></trkpt><trkpt lat="45.445458481906996" lon="9.307830625961131"><ele>103.99999999999999</ele><time>2026-04-11T09:14:18.999Z</time></trkpt><trkpt lat="45.44546645695535" lon="9.307726937622208"><ele>104.0</ele><time>2026-04-11T09:14:20.999Z</time></trkpt><trkpt lat="45.44544268948516" lon="9.30760023610732"><ele>103.80000000000001</ele><time>2026-04-11T09:14:23.999Z</time></trkpt><trkpt lat="45.44547798059678" lon="9.307515835211346"><ele>103.60000000000001</ele><time>2026-04-11T09:14:25.999Z</time></trkpt><trkpt lat="45.44557730175354" lon="9.307399451367782"><ele>103.4</ele><time>2026-04-11T09:14:28Z</time></trkpt><trkpt lat="45.44565628202576" lon="9.307332734641406"><ele>103.2</ele><time>2026-04-11T09:14:30Z</time></trkpt><trkpt lat="45.445732133285155" lon="9.30728263211708"><ele>103.0</ele><time>2026-04-11T09:14:33Z</time></trkpt><trkpt lat="45.44582869498363" lon="9.307226050851495"><ele>102.80000000000001</ele><time>2026-04-11T09:14:35Z</time></trkpt><trkpt lat="45.44592184476702" lon="9.307176975656816"><ele>102.6</ele><time>2026-04-11T09:14:37Z</time></trkpt><trkpt lat="45.44601245026963" lon="9.307136607394288"><ele>102.4</ele><time>2026-04-11T09:14:39Z</time></trkpt><trkpt lat="45.446127374491105" lon="9.307128991174098"><ele>102.19999999999999</ele><time>2026-04-11T09:14:42Z</time></trkpt><trkpt lat="45.44620044432557" lon="9.307087901726876"><ele>102.0</ele><time>2026-04-11T09:14:44Z</time></trkpt><trkpt lat="45.446269872108424" lon="9.307076697922609"><ele>102.6</ele><time>2026-04-11T09:14:46Z</time></trkpt><trkpt lat="45.44629547587341" lon="9.306975497289608"><ele>103.19999999999999</ele><time>2026-04-11T09:14:49Z</time></trkpt><trkpt lat="45.446302578988764" lon="9.306870944264093"><ele>103.8</ele><time>2026-04-11T09:14:51Z</time></trkpt><trkpt lat="45.446297193038575" lon="9.30674350575656"><ele>104.4</ele><time>2026-04-11T09:14:53Z</time></trkpt><trkpt lat="45.44629627639475" lon="9.306584366211148"><ele>105.0</ele><time>2026-04-11T09:14:55Z</time></trkpt><trkpt lat="45.446328597355986" lon="9.30643423228595"><ele>104.6</ele><time>2026-04-11T09:14:57Z</time></trkpt><trkpt lat="45.44634184138098" lon="9.306298592066808"><ele>104.2</ele><time>2026-04-11T09:14:59Z</time></trkpt><trkpt lat="45.44636426527878" lon="9.306173818187249"><ele>103.80000000000001</ele><time>2026-04-11T09:15:01Z</time></trkpt><trkpt lat="45.44637673022836" lon="9.306047872041022"><ele>103.4</ele><time>2026-04-11T09:15:03Z</time></trkpt><trkpt lat="45.44638383252294" lon="9.305915517313522"><ele>103.0</ele><time>2026-04-11T09:15:05Z</time></trkpt><trkpt lat="45.446391279883656" lon="9.305783682583018"><ele>103.0</ele><time>2026-04-11T09:15:07Z</time></trkpt><trkpt lat="45.44639755870412" lon="9.305637688706561"><ele>103.0</ele><time>2026-04-11T09:15:09Z</time></trkpt><trkpt lat="45.44637966638922" lon="9.305511037560478"><ele>103.0</ele><time>2026-04-11T09:15:11Z</time></trkpt><trkpt lat="45.44637095288918" lon="9.30538330023978"><ele>103.0</ele><time>2026-04-11T09:15:13Z</time></trkpt><trkpt lat="45.446358304399794" lon="9.305256616970924"><ele>103.0</ele><time>2026-04-11T09:15:15Z</time></trkpt><trkpt lat="45.446341642531415" lon="9.305119725140411"><ele>102.83333333333334</ele><time>2026-04-11T09:15:17Z</time></trkpt><trkpt lat="45.446326678703095" lon="9.304993579596758"><ele>102.66666666666667</ele><time>2026-04-11T09:15:19Z</time></trkpt><trkpt lat="45.44630837269311" lon="9.304878203264064"><ele>102.5</ele><time>2026-04-11T09:15:21Z</time></trkpt><trkpt lat="45.44629156236858" lon="9.304766963443083"><ele>102.33333333333334</ele><time>2026-04-11T09:15:23Z</time></trkpt><trkpt lat="45.44627183365038" lon="9.304643627481978"><ele>102.16666666666667</ele><time>2026-04-11T09:15:25Z</time></trkpt><trkpt lat="45.44627857249947" lon="9.304524009868054"><ele>102.0</ele><time>2026-04-11T09:15:27Z</time></trkpt><trkpt lat="45.44627593752471" lon="9.30439977397182"><ele>102.19999999999999</ele><time>2026-04-11T09:15:29Z</time></trkpt><trkpt lat="45.446259152250335" lon="9.30426213031505"><ele>102.4</ele><time>2026-04-11T09:15:31Z</time></trkpt><trkpt lat="45.44623662451431" lon="9.304127245095302"><ele>102.6</ele><time>2026-04-11T09:15:33Z</time></trkpt><trkpt lat="45.44620724330884" lon="9.303986139467698"><ele>102.80000000000001</ele><time>2026-04-11T09:15:35Z</time></trkpt><trkpt lat="45.44617321650223" lon="9.303839308769687"><ele>103.0</ele><time>2026-04-11T09:15:37Z</time></trkpt><trkpt lat="45.44614344913285" lon="9.303705625101614"><ele>103.0</ele><time>2026-04-11T09:15:39Z</time></trkpt><trkpt lat="45.44611270121185" lon="9.30357308620971"><ele>103.0</ele><time>2026-04-11T09:15:41Z</time></trkpt><trkpt lat="45.446082670705685" lon="9.303441657778333"><ele>103.0</ele><time>2026-04-11T09:15:43Z</time></trkpt><trkpt lat="45.44605204876536" lon="9.303307212765146"><ele>103.0</ele><time>2026-04-11T09:15:45Z</time></trkpt><trkpt lat="45.446023776728694" lon="9.303164061569584"><ele>103.0</ele><time>2026-04-11T09:15:46.999Z</time></trkpt><trkpt lat="45.445988661035024" lon="9.30302345080398"><ele>103.2</ele><time>2026-04-11T09:15:49Z</time></trkpt><trkpt lat="45.445956230763194" lon="9.302873191047249"><ele>103.4</ele><time>2026-04-11T09:15:50.999Z</time></trkpt><trkpt lat="45.44592876227689" lon="9.302727964021175"><ele>103.60000000000001</ele><time>2026-04-11T09:15:52.999Z</time></trkpt><trkpt lat="45.44590800817614" lon="9.302576213202807"><ele>103.80000000000001</ele><time>2026-04-11T09:15:54.999Z</time></trkpt><trkpt lat="45.44588786865745" lon="9.302425014059427"><ele>104.0</ele><time>2026-04-11T09:15:56.999Z</time></trkpt><trkpt lat="45.44586612282859" lon="9.302292539418918"><ele>103.80000000000001</ele><time>2026-04-11T09:15:58.999Z</time></trkpt><trkpt lat="45.44585868539455" lon="9.302156855445592"><ele>103.60000000000001</ele><time>2026-04-11T09:16:00.999Z</time></trkpt><trkpt lat="45.4458478868667" lon="9.30203142604929"><ele>103.4</ele><time>2026-04-11T09:16:02.999Z</time></trkpt><trkpt lat="45.445830604588224" lon="9.30190483950134"><ele>103.2</ele><time>2026-04-11T09:16:04.999Z</time></trkpt><trkpt lat="45.44579955702598" lon="9.30177720771818"><ele>103.0</ele><time>2026-04-11T09:16:06.999Z</time></trkpt><trkpt lat="45.44575910039376" lon="9.301649495713662"><ele>103.0</ele><time>2026-04-11T09:16:08.999Z</time></trkpt><trkpt lat="45.44570813665343" lon="9.301526814580994"><ele>103.0</ele><time>2026-04-11T09:16:10.999Z</time></trkpt><trkpt lat="45.445659247987834" lon="9.30139916384954"><ele>103.0</ele><time>2026-04-11T09:16:12.999Z</time></trkpt><trkpt lat="45.44561725922694" lon="9.30127430331785"><ele>103.0</ele><time>2026-04-11T09:16:14.999Z</time></trkpt><trkpt lat="45.44558203869657" lon="9.301144060479283"><ele>103.0</ele><time>2026-04-11T09:16:16.999Z</time></trkpt><trkpt lat="45.44555090878222" lon="9.301010565059189"><ele>103.4</ele><time>2026-04-11T09:16:18.999Z</time></trkpt><trkpt lat="45.44553706617956" lon="9.300862709700308"><ele>103.80000000000001</ele><time>2026-04-11T09:16:20.999Z</time></trkpt><trkpt lat="45.445531427364195" lon="9.300723410051992"><ele>104.2</ele><time>2026-04-11T09:16:22.999Z</time></trkpt><trkpt lat="45.44553446846351" lon="9.300572600929195"><ele>104.6</ele><time>2026-04-11T09:16:24.999Z</time></trkpt><trkpt lat="45.4455419411244" lon="9.300432825437532"><ele>105.0</ele><time>2026-04-11T09:16:26.999Z</time></trkpt><trkpt lat="45.445557106786396" lon="9.300302582162539"><ele>105.2</ele><time>2026-04-11T09:16:28.999Z</time></trkpt><trkpt lat="45.44557006835896" lon="9.300172509850293"><ele>105.4</ele><time>2026-04-11T09:16:30.999Z</time></trkpt><trkpt lat="45.44558108173043" lon="9.300044037091446"><ele>105.6</ele><time>2026-04-11T09:16:32.999Z</time></trkpt><trkpt lat="45.44559651174365" lon="9.299902146821573"><ele>105.8</ele><time>2026-04-11T09:16:35Z</time></trkpt><trkpt lat="45.44561067874544" lon="9.29976047873107"><ele>106.0</ele><time>2026-04-11T09:16:37Z</time></trkpt><trkpt lat="45.44562974224188" lon="9.299609353663822"><ele>106.19999999999999</ele><time>2026-04-11T09:16:39Z</time></trkpt><trkpt lat="45.445622167271296" lon="9.299463981059333"><ele>106.39999999999999</ele><time>2026-04-11T09:16:41Z</time></trkpt><trkpt lat="45.44560098532554" lon="9.299319294632344"><ele>106.6</ele><time>2026-04-11T09:16:43Z</time></trkpt><trkpt lat="45.445576440523865" lon="9.299197826168266"><ele>106.8</ele><time>2026-04-11T09:16:45Z</time></trkpt><trkpt lat="45.44555176042317" lon="9.29907576983138"><ele>107.0</ele><time>2026-04-11T09:16:47Z</time></trkpt><trkpt lat="45.44552995428384" lon="9.298979821307311"><ele>106.71428571428572</ele><time>2026-04-11T09:16:49Z</time></trkpt><trkpt lat="45.445504965342565" lon="9.298880760156612"><ele>106.42857142857143</ele><time>2026-04-11T09:16:51Z</time></trkpt><trkpt lat="45.44549401548519" lon="9.298775188959661"><ele>106.14285714285714</ele><time>2026-04-11T09:16:53Z</time></trkpt><trkpt lat="45.44548281066963" lon="9.29868508711596"><ele>105.85714285714286</ele><time>2026-04-11T09:16:55Z</time></trkpt><trkpt lat="45.445458768386025" lon="9.298599085784241"><ele>105.57142857142857</ele><time>2026-04-11T09:16:57Z</time></trkpt><trkpt lat="45.44544735654662" lon="9.298488372002595"><ele>105.28571428571429</ele><time>2026-04-11T09:16:59Z</time></trkpt><trkpt lat="45.44542708919634" lon="9.298363824590016"><ele>105.0</ele><time>2026-04-11T09:17:01Z</time></trkpt><trkpt lat="45.44541266570309" lon="9.298231784007795"><ele>105.0</ele><time>2026-04-11T09:17:03Z</time></trkpt><trkpt lat="45.44540416660485" lon="9.29809826018578"><ele>105.0</ele><time>2026-04-11T09:17:05Z</time></trkpt><trkpt lat="45.44538800692574" lon="9.297982385301696"><ele>105.0</ele><time>2026-04-11T09:17:07Z</time></trkpt><trkpt lat="45.44537553211927" lon="9.297866980830399"><ele>105.0</ele><time>2026-04-11T09:17:09Z</time></trkpt><trkpt lat="45.44538793596999" lon="9.297759401474076"><ele>105.0</ele><time>2026-04-11T09:17:12Z</time></trkpt><trkpt lat="45.44546137572125" lon="9.297739925113692"><ele>105.0</ele><time>2026-04-11T09:17:15Z</time></trkpt><trkpt lat="45.44554690876522" lon="9.29769379124652"><ele>105.6</ele><time>2026-04-11T09:17:17Z</time></trkpt><trkpt lat="45.445627992433934" lon="9.297628276677525"><ele>106.2</ele><time>2026-04-11T09:17:19Z</time></trkpt><trkpt lat="45.44570236571714" lon="9.297566576373132"><ele>106.80000000000001</ele><time>2026-04-11T09:17:21Z</time></trkpt><trkpt lat="45.44577687757096" lon="9.297482781102898"><ele>107.4</ele><time>2026-04-11T09:17:23Z</time></trkpt><trkpt lat="45.445861652673024" lon="9.297414355307057"><ele>108.0</ele><time>2026-04-11T09:17:25Z</time></trkpt><trkpt lat="45.445950489917266" lon="9.297342457215723"><ele>108.0</ele><time>2026-04-11T09:17:27Z</time></trkpt><trkpt lat="45.44604507911077" lon="9.297273854789287"><ele>108.00000000000001</ele><time>2026-04-11T09:17:29Z</time></trkpt><trkpt lat="45.446136705635055" lon="9.297186681483149"><ele>108.00000000000001</ele><time>2026-04-11T09:17:31Z</time></trkpt><trkpt lat="45.446177085168266" lon="9.29706393256777"><ele>108.0</ele><time>2026-04-11T09:17:33Z</time></trkpt><trkpt lat="45.4461914480941" lon="9.29691997630721"><ele>108.0</ele><time>2026-04-11T09:17:35Z</time></trkpt><trkpt lat="45.446200432550164" lon="9.296778229727078"><ele>108.0</ele><time>2026-04-11T09:17:37Z</time></trkpt><trkpt lat="45.446205940028186" lon="9.296638639951976"><ele>108.0</ele><time>2026-04-11T09:17:39Z</time></trkpt><trkpt lat="45.44621126702554" lon="9.296511700262313"><ele>108.0</ele><time>2026-04-11T09:17:41Z</time></trkpt><trkpt lat="45.446225700654324" lon="9.296390318827068"><ele>108.0</ele><time>2026-04-11T09:17:43Z</time></trkpt><trkpt lat="45.446229785331724" lon="9.296274912448805"><ele>108.0</ele><time>2026-04-11T09:17:45Z</time></trkpt><trkpt lat="45.44629050572145" lon="9.296177830774587"><ele>108.0</ele><time>2026-04-11T09:17:48Z</time></trkpt><trkpt lat="45.44635854712089" lon="9.296152753863737"><ele>107.80000000000001</ele><time>2026-04-11T09:17:50Z</time></trkpt><trkpt lat="45.446439118074444" lon="9.29614455391373"><ele>107.60000000000001</ele><time>2026-04-11T09:17:52Z</time></trkpt><trkpt lat="45.446537288272474" lon="9.296128963191478"><ele>107.39999999999999</ele><time>2026-04-11T09:17:53.999Z</time></trkpt><trkpt lat="45.446630647938335" lon="9.29610786201471"><ele>107.19999999999999</ele><time>2026-04-11T09:17:55.999Z</time></trkpt><trkpt lat="45.44673033111149" lon="9.29607907398921"><ele>107.0</ele><time>2026-04-11T09:17:57.999Z</time></trkpt><trkpt lat="45.44682634394466" lon="9.296060235458956"><ele>107.0</ele><time>2026-04-11T09:17:59.999Z</time></trkpt><trkpt lat="45.44691563223425" lon="9.29603538117667"><ele>106.99999999999999</ele><time>2026-04-11T09:18:01.999Z</time></trkpt><trkpt lat="45.447007756625936" lon="9.296011740302673"><ele>106.99999999999999</ele><time>2026-04-11T09:18:03.999Z</time></trkpt><trkpt lat="45.44710379695671" lon="9.295986894490776"><ele>107.0</ele><time>2026-04-11T09:18:05.999Z</time></trkpt><trkpt lat="45.44719474969423" lon="9.295969201763628"><ele>107.0</ele><time>2026-04-11T09:18:07.999Z</time></trkpt><trkpt lat="45.44728529590407" lon="9.295951022024566"><ele>106.99999999999999</ele><time>2026-04-11T09:18:09.999Z</time></trkpt><trkpt lat="45.44736879719155" lon="9.29590958629771"><ele>107.0</ele><time>2026-04-11T09:18:11.999Z</time></trkpt><trkpt lat="45.447402828981815" lon="9.29582044183918"><ele>107.0</ele><time>2026-04-11T09:18:13.999Z</time></trkpt><trkpt lat="45.44737971175535" lon="9.295706438750901"><ele>107.0</ele><time>2026-04-11T09:18:15.999Z</time></trkpt><trkpt lat="45.44736226098149" lon="9.295574069019866"><ele>106.99999999999999</ele><time>2026-04-11T09:18:17.999Z</time></trkpt><trkpt lat="45.44733683602538" lon="9.29544994807475"><ele>107.0</ele><time>2026-04-11T09:18:19.999Z</time></trkpt><trkpt lat="45.44734809703527" lon="9.295312739483837"><ele>107.19999999999999</ele><time>2026-04-11T09:18:21.999Z</time></trkpt><trkpt lat="45.44742785531047" lon="9.295242742252551"><ele>107.39999999999999</ele><time>2026-04-11T09:18:23.999Z</time></trkpt><trkpt lat="45.4475392394211" lon="9.295233128891685"><ele>107.60000000000001</ele><time>2026-04-11T09:18:25.999Z</time></trkpt><trkpt lat="45.447630146802375" lon="9.29520997045756"><ele>107.80000000000001</ele><time>2026-04-11T09:18:27.999Z</time></trkpt><trkpt lat="45.447706792567594" lon="9.295183483249128"><ele>108.0</ele><time>2026-04-11T09:18:29.999Z</time></trkpt><trkpt lat="45.447779159580065" lon="9.295156787653873"><ele>108.0</ele><time>2026-04-11T09:18:31.999Z</time></trkpt><trkpt lat="45.44783952477712" lon="9.295120765554403"><ele>108.0</ele><time>2026-04-11T09:18:33.999Z</time></trkpt><trkpt lat="45.44788572943433" lon="9.295003824533"><ele>108.0</ele><time>2026-04-11T09:18:36.999Z</time></trkpt><trkpt lat="45.44788748963096" lon="9.29489008244208"><ele>108.0</ele><time>2026-04-11T09:18:38.999Z</time></trkpt><trkpt lat="45.44787301574126" lon="9.294762970454057"><ele>108.0</ele><time>2026-04-11T09:18:41Z</time></trkpt><trkpt lat="45.44785954560231" lon="9.294638526314325"><ele>108.0</ele><time>2026-04-11T09:18:43Z</time></trkpt><trkpt lat="45.447842545702756" lon="9.294514676434787"><ele>107.80000000000001</ele><time>2026-04-11T09:18:45Z</time></trkpt><trkpt lat="45.44782775738579" lon="9.294384651402583"><ele>107.60000000000001</ele><time>2026-04-11T09:18:47Z</time></trkpt><trkpt lat="45.44779738920101" lon="9.294259138535601"><ele>107.39999999999999</ele><time>2026-04-11T09:18:49Z</time></trkpt><trkpt lat="45.44778820247372" lon="9.294128776422244"><ele>107.19999999999999</ele><time>2026-04-11T09:18:51Z</time></trkpt><trkpt lat="45.44777118773577" lon="9.293987109751829"><ele>107.0</ele><time>2026-04-11T09:18:53Z</time></trkpt><trkpt lat="45.44775808145836" lon="9.293852550368046"><ele>106.83333333333333</ele><time>2026-04-11T09:18:55Z</time></trkpt><trkpt lat="45.447736934086464" lon="9.29372378049846"><ele>106.66666666666666</ele><time>2026-04-11T09:18:57Z</time></trkpt><trkpt lat="45.44772930158717" lon="9.29360382496044"><ele>106.5</ele><time>2026-04-11T09:18:59Z</time></trkpt><trkpt lat="45.44772255895003" lon="9.293498692219377"><ele>106.33333333333334</ele><time>2026-04-11T09:19:01Z</time></trkpt><trkpt lat="45.44772607703947" lon="9.293401922259287"><ele>106.16666666666667</ele><time>2026-04-11T09:19:03Z</time></trkpt><trkpt lat="45.44779059936289" lon="9.293321011932695"><ele>106.0</ele><time>2026-04-11T09:19:06Z</time></trkpt><trkpt lat="45.44786023172824" lon="9.293317284566767"><ele>106.00000000000001</ele><time>2026-04-11T09:19:08Z</time></trkpt><trkpt lat="45.447940300822914" lon="9.293330191151448"><ele>106.0</ele><time>2026-04-11T09:19:10Z</time></trkpt><trkpt lat="45.44801493793289" lon="9.293362427590715"><ele>106.0</ele><time>2026-04-11T09:19:12Z</time></trkpt><trkpt lat="45.44810055627888" lon="9.293387006630146"><ele>106.0</ele><time>2026-04-11T09:19:14Z</time></trkpt><trkpt lat="45.44819425200115" lon="9.293406000002275"><ele>106.00000000000001</ele><time>2026-04-11T09:19:16Z</time></trkpt><trkpt lat="45.44827898353059" lon="9.293434924731706"><ele>106.0</ele><time>2026-04-11T09:19:18Z</time></trkpt><trkpt lat="45.448354847076416" lon="9.293454435148226"><ele>105.83333333333334</ele><time>2026-04-11T09:19:20Z</time></trkpt><trkpt lat="45.44842842658163" lon="9.293442180541938"><ele>105.66666666666667</ele><time>2026-04-11T09:19:22Z</time></trkpt><trkpt lat="45.448479819371315" lon="9.293355017088468"><ele>105.5</ele><time>2026-04-11T09:19:25Z</time></trkpt><trkpt lat="45.44848446013455" lon="9.293245450526435"><ele>105.33333333333334</ele><time>2026-04-11T09:19:28Z</time></trkpt><trkpt lat="45.44843807780789" lon="9.293155838394028"><ele>105.16666666666667</ele><time>2026-04-11T09:19:31Z</time></trkpt><trkpt lat="45.448372821325414" lon="9.293130823711834"><ele>105.0</ele><time>2026-04-11T09:19:33Z</time></trkpt><trkpt lat="45.448293409657396" lon="9.293156603297234"><ele>105.0</ele><time>2026-04-11T09:19:35Z</time></trkpt><trkpt lat="45.44820815864322" lon="9.29318621256029"><ele>105.0</ele><time>2026-04-11T09:19:37Z</time></trkpt><trkpt lat="45.448111727715585" lon="9.293217413526099"><ele>105.0</ele><time>2026-04-11T09:19:39Z</time></trkpt><trkpt lat="45.44801456695941" lon="9.293241165378257"><ele>105.0</ele><time>2026-04-11T09:19:41Z</time></trkpt><trkpt lat="45.44791239895434" lon="9.29328085706488"><ele>105.0</ele><time>2026-04-11T09:19:43Z</time></trkpt><trkpt lat="45.4478231431464" lon="9.293318720825146"><ele>105.2</ele><time>2026-04-11T09:19:44.999Z</time></trkpt><trkpt lat="45.44772751784591" lon="9.293341978888467"><ele>105.4</ele><time>2026-04-11T09:19:46.999Z</time></trkpt><trkpt lat="45.447628594527096" lon="9.293374980165362"><ele>105.6</ele><time>2026-04-11T09:19:48.999Z</time></trkpt><trkpt lat="45.44753742521258" lon="9.293417468997657"><ele>105.8</ele><time>2026-04-11T09:19:50.999Z</time></trkpt><trkpt lat="45.447439264188844" lon="9.293445948193998"><ele>106.0</ele><time>2026-04-11T09:19:52.999Z</time></trkpt><trkpt lat="45.447340098374504" lon="9.293475398784345"><ele>106.00000000000001</ele><time>2026-04-11T09:19:54.999Z</time></trkpt><trkpt lat="45.44723334172832" lon="9.293506594505212"><ele>106.0</ele><time>2026-04-11T09:19:56.999Z</time></trkpt><trkpt lat="45.44714932071178" lon="9.293544526573879"><ele>106.0</ele><time>2026-04-11T09:19:58.999Z</time></trkpt><trkpt lat="45.4470740768058" lon="9.293581472993415"><ele>106.0</ele><time>2026-04-11T09:20:00.999Z</time></trkpt><trkpt lat="45.446992812009995" lon="9.293611202216224"><ele>106.00000000000001</ele><time>2026-04-11T09:20:02.999Z</time></trkpt><trkpt lat="45.446921320504075" lon="9.293622917434593"><ele>106.0</ele><time>2026-04-11T09:20:04.999Z</time></trkpt><trkpt lat="45.44685848304271" lon="9.29355399614838"><ele>105.8</ele><time>2026-04-11T09:20:06.999Z</time></trkpt><trkpt lat="45.44684564445498" lon="9.29343237265873"><ele>105.6</ele><time>2026-04-11T09:20:08.999Z</time></trkpt><trkpt lat="45.44682862791139" lon="9.293306084328828"><ele>105.4</ele><time>2026-04-11T09:20:10.999Z</time></trkpt><trkpt lat="45.44679926850701" lon="9.29317677315871"><ele>105.2</ele><time>2026-04-11T09:20:12.999Z</time></trkpt><trkpt lat="45.4467687722801" lon="9.293039380092026"><ele>105.0</ele><time>2026-04-11T09:20:14.999Z</time></trkpt><trkpt lat="45.44675001054203" lon="9.292898049927727"><ele>105.0</ele><time>2026-04-11T09:20:16.999Z</time></trkpt><trkpt lat="45.446741643237964" lon="9.29276482574419"><ele>105.0</ele><time>2026-04-11T09:20:18.999Z</time></trkpt><trkpt lat="45.44672167336785" lon="9.292644818417921"><ele>105.0</ele><time>2026-04-11T09:20:20.999Z</time></trkpt><trkpt lat="45.44671181959587" lon="9.292518420161686"><ele>105.0</ele><time>2026-04-11T09:20:22.999Z</time></trkpt><trkpt lat="45.44669657677103" lon="9.292396998234814"><ele>105.0</ele><time>2026-04-11T09:20:24.999Z</time></trkpt><trkpt lat="45.44667924834263" lon="9.292288235794455"><ele>105.0</ele><time>2026-04-11T09:20:26.999Z</time></trkpt><trkpt lat="45.44666524426298" lon="9.292174625257545"><ele>104.83333333333333</ele><time>2026-04-11T09:20:28.999Z</time></trkpt><trkpt lat="45.44664993535783" lon="9.292050029900022"><ele>104.66666666666666</ele><time>2026-04-11T09:20:30.999Z</time></trkpt><trkpt lat="45.446628604138844" lon="9.2919396199862"><ele>104.5</ele><time>2026-04-11T09:20:32.999Z</time></trkpt><trkpt lat="45.44661393070506" lon="9.29183936730538"><ele>104.33333333333333</ele><time>2026-04-11T09:20:34.999Z</time></trkpt><trkpt lat="45.44660109481685" lon="9.291724256780155"><ele>104.16666666666666</ele><time>2026-04-11T09:20:36.999Z</time></trkpt><trkpt lat="45.446574919415944" lon="9.291632675336682"><ele>104.0</ele><time>2026-04-11T09:20:38.999Z</time></trkpt><trkpt lat="45.44654424602423" lon="9.29153217555057"><ele>103.99999999999999</ele><time>2026-04-11T09:20:40.999Z</time></trkpt><trkpt lat="45.44653187253668" lon="9.291426428859381"><ele>104.0</ele><time>2026-04-11T09:20:42.999Z</time></trkpt><trkpt lat="45.44652391870724" lon="9.291319414260483"><ele>104.0</ele><time>2026-04-11T09:20:44.999Z</time></trkpt><trkpt lat="45.446521477240175" lon="9.291203116051554"><ele>104.0</ele><time>2026-04-11T09:20:48Z</time></trkpt><trkpt lat="45.44653257207069" lon="9.291087119193127"><ele>103.99999999999999</ele><time>2026-04-11T09:20:51Z</time></trkpt><trkpt lat="45.44652826489927" lon="9.290977319311619"><ele>104.0</ele><time>2026-04-11T09:20:54Z</time></trkpt><trkpt lat="45.446513798565256" lon="9.290885046709832"><ele>104.16666666666666</ele><time>2026-04-11T09:20:56Z</time></trkpt><trkpt lat="45.446511571520965" lon="9.290760395743225"><ele>104.33333333333333</ele><time>2026-04-11T09:20:59Z</time></trkpt><trkpt lat="45.446496197348345" lon="9.29066925724022"><ele>104.5</ele><time>2026-04-11T09:21:01Z</time></trkpt><trkpt lat="45.4464971900063" lon="9.290559690929086"><ele>104.66666666666666</ele><time>2026-04-11T09:21:03Z</time></trkpt><trkpt lat="45.44650525654922" lon="9.290469653648676"><ele>104.83333333333333</ele><time>2026-04-11T09:21:04Z</time></trkpt><trkpt lat="45.446506289587624" lon="9.29035309192963"><ele>105.0</ele><time>2026-04-11T09:21:06Z</time></trkpt><trkpt lat="45.44651252727661" lon="9.290219644048442"><ele>105.0</ele><time>2026-04-11T09:21:08Z</time></trkpt><trkpt lat="45.44652290874667" lon="9.290126369516454"><ele>105.0</ele><time>2026-04-11T09:21:10Z</time></trkpt><trkpt lat="45.44653355733123" lon="9.289986048399541"><ele>105.0</ele><time>2026-04-11T09:21:13Z</time></trkpt><trkpt lat="45.44653289857351" lon="9.289887166740453"><ele>105.0</ele><time>2026-04-11T09:21:15Z</time></trkpt><trkpt lat="45.44652507705139" lon="9.28977642380282"><ele>105.0</ele><time>2026-04-11T09:21:17Z</time></trkpt><trkpt lat="45.44652051435806" lon="9.28967129483726"><ele>105.0</ele><time>2026-04-11T09:21:19Z</time></trkpt><trkpt lat="45.44653231465876" lon="9.289538225255114"><ele>105.16666666666667</ele><time>2026-04-11T09:21:21Z</time></trkpt><trkpt lat="45.44653574756249" lon="9.289437670958371"><ele>105.33333333333334</ele><time>2026-04-11T09:21:23Z</time></trkpt><trkpt lat="45.44654248907455" lon="9.289315243893771"><ele>105.5</ele><time>2026-04-11T09:21:26Z</time></trkpt><trkpt lat="45.44653101163969" lon="9.289215475604772"><ele>105.66666666666667</ele><time>2026-04-11T09:21:29Z</time></trkpt><trkpt lat="45.446541490624604" lon="9.289124043455583"><ele>105.83333333333334</ele><time>2026-04-11T09:21:31Z</time></trkpt><trkpt lat="45.44655453667016" lon="9.289012524120178"><ele>106.0</ele><time>2026-04-11T09:21:34Z</time></trkpt><trkpt lat="45.44654451136992" lon="9.288888358355857"><ele>106.00000000000001</ele><time>2026-04-11T09:21:37Z</time></trkpt><trkpt lat="45.44652309246751" lon="9.288787595510211"><ele>106.0</ele><time>2026-04-11T09:21:40Z</time></trkpt><trkpt lat="45.446514693582735" lon="9.288644253869357"><ele>106.0</ele><time>2026-04-11T09:21:43Z</time></trkpt><trkpt lat="45.446508060190546" lon="9.288544105084135"><ele>106.0</ele><time>2026-04-11T09:21:45Z</time></trkpt><trkpt lat="45.446511259409384" lon="9.288410462111601"><ele>106.00000000000001</ele><time>2026-04-11T09:21:47Z</time></trkpt><trkpt lat="45.44650785958315" lon="9.288283910727998"><ele>106.0</ele><time>2026-04-11T09:21:49Z</time></trkpt><trkpt lat="45.44651085096561" lon="9.288159976277667"><ele>106.16666666666667</ele><time>2026-04-11T09:21:50.999Z</time></trkpt><trkpt lat="45.44650948459332" lon="9.28802888168915"><ele>106.33333333333334</ele><time>2026-04-11T09:21:52.999Z</time></trkpt><trkpt lat="45.44652114914618" lon="9.28791866072556"><ele>106.5</ele><time>2026-04-11T09:21:54.999Z</time></trkpt><trkpt lat="45.44655643547408" lon="9.287837210341943"><ele>106.66666666666666</ele><time>2026-04-11T09:21:56.999Z</time></trkpt><trkpt lat="45.446616062637524" lon="9.287782780383836"><ele>106.83333333333333</ele><time>2026-04-11T09:21:58.999Z</time></trkpt><trkpt lat="45.44674068585755" lon="9.287773082178663"><ele>107.0</ele><time>2026-04-11T09:22:01.999Z</time></trkpt><trkpt lat="45.446825020282375" lon="9.287706119519875"><ele>106.99999999999999</ele><time>2026-04-11T09:22:03.999Z</time></trkpt><trkpt lat="45.44691165335225" lon="9.287664145468456"><ele>107.0</ele><time>2026-04-11T09:22:05.999Z</time></trkpt><trkpt lat="45.44698670553915" lon="9.287620074758754"><ele>107.0</ele><time>2026-04-11T09:22:07.999Z</time></trkpt><trkpt lat="45.447067204570374" lon="9.287623790167103"><ele>107.0</ele><time>2026-04-11T09:22:09.999Z</time></trkpt><trkpt lat="45.44715649015754" lon="9.287641312664316"><ele>106.99999999999999</ele><time>2026-04-11T09:22:11.999Z</time></trkpt><trkpt lat="45.447247042364836" lon="9.28764035094261"><ele>107.0</ele><time>2026-04-11T09:22:13.999Z</time></trkpt><trkpt lat="45.44741543907076" lon="9.287661446559879"><ele>106.75</ele><time>2026-04-11T09:22:18.999Z</time></trkpt><trkpt lat="45.44749250125044" lon="9.287679858607547"><ele>106.5</ele><time>2026-04-11T09:22:20.999Z</time></trkpt><trkpt lat="45.44768275291054" lon="9.287711708234085"><ele>106.25</ele><time>2026-04-11T09:22:24.999Z</time></trkpt><trkpt lat="45.44778249938594" lon="9.287728443596652"><ele>106.0</ele><time>2026-04-11T09:22:26.999Z</time></trkpt><trkpt lat="45.447880352657435" lon="9.287738064404682"><ele>104.66666666666667</ele><time>2026-04-11T09:22:28.999Z</time></trkpt><trkpt lat="45.44810175992829" lon="9.28773747835108"><ele>103.33333333333334</ele><time>2026-04-11T09:22:33.999Z</time></trkpt><trkpt lat="45.44826156558565" lon="9.287748985039897"><ele>102.0</ele><time>2026-04-11T09:22:36.999Z</time></trkpt><trkpt lat="45.44839712065365" lon="9.287750993182087"><ele>102.0</ele><time>2026-04-11T09:22:39.999Z</time></trkpt><trkpt lat="45.448490271729526" lon="9.287764697654088"><ele>102.0</ele><time>2026-04-11T09:22:41.999Z</time></trkpt><trkpt lat="45.44855590776477" lon="9.287789833735133"><ele>102.0</ele><time>2026-04-11T09:22:43.999Z</time></trkpt><trkpt lat="45.448681056324524" lon="9.287805066470483"><ele>102.0</ele><time>2026-04-11T09:22:45.999Z</time></trkpt><trkpt lat="45.44879065809265" lon="9.287807247885306"><ele>102.0</ele><time>2026-04-11T09:22:47.999Z</time></trkpt><trkpt lat="45.44887864762304" lon="9.287828377815286"><ele>102.5</ele><time>2026-04-11T09:22:49.999Z</time></trkpt><trkpt lat="45.44898515614339" lon="9.287838612874419"><ele>103.0</ele><time>2026-04-11T09:22:52Z</time></trkpt><trkpt lat="45.4491056868663" lon="9.287845757351606"><ele>103.5</ele><time>2026-04-11T09:22:54Z</time></trkpt><trkpt lat="45.44929053956545" lon="9.28784719726169"><ele>104.0</ele><time>2026-04-11T09:22:58Z</time></trkpt><trkpt lat="45.44938533663323" lon="9.28786085380036"><ele>103.99999999999999</ele><time>2026-04-11T09:23:00Z</time></trkpt><trkpt lat="45.44947332141931" lon="9.287852082971277"><ele>104.0</ele><time>2026-04-11T09:23:02Z</time></trkpt><trkpt lat="45.449557276061356" lon="9.287839633986978"><ele>104.0</ele><time>2026-04-11T09:23:04Z</time></trkpt><trkpt lat="45.44962935758596" lon="9.28783351072549"><ele>104.0</ele><time>2026-04-11T09:23:06Z</time></trkpt><trkpt lat="45.44969315806911" lon="9.287813919023353"><ele>103.99999999999999</ele><time>2026-04-11T09:23:08Z</time></trkpt><trkpt lat="45.44975491035888" lon="9.28779585393321"><ele>104.0</ele><time>2026-04-11T09:23:10Z</time></trkpt><trkpt lat="45.449835825883014" lon="9.287785242249123"><ele>104.33333333333333</ele><time>2026-04-11T09:23:12Z</time></trkpt><trkpt lat="45.44992658245891" lon="9.287767962731309"><ele>104.66666666666666</ele><time>2026-04-11T09:23:14Z</time></trkpt><trkpt lat="45.44999807985383" lon="9.287741478510902"><ele>105.0</ele><time>2026-04-11T09:23:16Z</time></trkpt><trkpt lat="45.450068493921776" lon="9.287718867895647"><ele>105.33333333333334</ele><time>2026-04-11T09:23:18Z</time></trkpt><trkpt lat="45.4501352172893" lon="9.28770133079316"><ele>105.66666666666667</ele><time>2026-04-11T09:23:20Z</time></trkpt><trkpt lat="45.45020295702715" lon="9.287678449585114"><ele>106.0</ele><time>2026-04-11T09:23:22Z</time></trkpt><trkpt lat="45.45028169314592" lon="9.287656440356995"><ele>106.0</ele><time>2026-04-11T09:23:25Z</time></trkpt><trkpt lat="45.45036015698465" lon="9.287636563675044"><ele>106.0</ele><time>2026-04-11T09:23:27Z</time></trkpt><trkpt lat="45.450557561118316" lon="9.287639948624602"><ele>106.0</ele><time>2026-04-11T09:23:31Z</time></trkpt><trkpt lat="45.45063304185875" lon="9.287667638922722"><ele>106.0</ele><time>2026-04-11T09:23:33Z</time></trkpt><trkpt lat="45.45069653755688" lon="9.287699253007204"><ele>106.0</ele><time>2026-04-11T09:23:35Z</time></trkpt><trkpt lat="45.450759182564795" lon="9.287742901195017"><ele>106.6</ele><time>2026-04-11T09:23:37Z</time></trkpt><trkpt lat="45.450850034310186" lon="9.287775435299883"><ele>107.19999999999999</ele><time>2026-04-11T09:23:39Z</time></trkpt><trkpt lat="45.450947784723816" lon="9.287775537924523"><ele>107.80000000000001</ele><time>2026-04-11T09:23:41Z</time></trkpt><trkpt lat="45.4510298238404" lon="9.28769056821215"><ele>108.4</ele><time>2026-04-11T09:23:43Z</time></trkpt><trkpt lat="45.45106683601116" lon="9.287602955440779"><ele>109.0</ele><time>2026-04-11T09:23:45Z</time></trkpt><trkpt lat="45.45107752259816" lon="9.287477148202273"><ele>109.00000000000001</ele><time>2026-04-11T09:23:48Z</time></trkpt><trkpt lat="45.45108197543993" lon="9.287380562967515"><ele>109.0</ele><time>2026-04-11T09:23:50Z</time></trkpt><trkpt lat="45.451074537725596" lon="9.287259268510525"><ele>109.0</ele><time>2026-04-11T09:23:53Z</time></trkpt><trkpt lat="45.451129189748634" lon="9.287179994398306"><ele>109.0</ele><time>2026-04-11T09:23:56Z</time></trkpt><trkpt lat="45.45120075197456" lon="9.287145454704211"><ele>109.00000000000001</ele><time>2026-04-11T09:23:58Z</time></trkpt><trkpt lat="45.451294660202834" lon="9.287107317729342"><ele>109.0</ele><time>2026-04-11T09:24:00.999Z</time></trkpt><trkpt lat="45.45136459146385" lon="9.287111274452107"><ele>109.0</ele><time>2026-04-11T09:24:02.999Z</time></trkpt><trkpt lat="45.45143680192049" lon="9.28712788903211"><ele>109.0</ele><time>2026-04-11T09:24:04.999Z</time></trkpt><trkpt lat="45.451631872258304" lon="9.287138215850769"><ele>109.0</ele><time>2026-04-11T09:24:09.999Z</time></trkpt><trkpt lat="45.45171954745665" lon="9.287135051606285"><ele>109.0</ele><time>2026-04-11T09:24:11.999Z</time></trkpt><trkpt lat="45.45183851786658" lon="9.287133226988079"><ele>109.00000000000001</ele><time>2026-04-11T09:24:15.999Z</time></trkpt><trkpt lat="45.45191314003228" lon="9.287126064526925"><ele>109.0</ele><time>2026-04-11T09:24:17.999Z</time></trkpt><trkpt lat="45.45199886792159" lon="9.28717151363"><ele>109.0</ele><time>2026-04-11T09:24:20.999Z</time></trkpt><trkpt lat="45.45203064449146" lon="9.287261917176624"><ele>109.0</ele><time>2026-04-11T09:24:23.999Z</time></trkpt><trkpt lat="45.45205795569452" lon="9.28736148496748"><ele>109.00000000000001</ele><time>2026-04-11T09:24:26.999Z</time></trkpt><trkpt lat="45.45207307394519" lon="9.28747668330529"><ele>109.0</ele><time>2026-04-11T09:24:29.999Z</time></trkpt><trkpt lat="45.452084805623244" lon="9.287566279507821"><ele>109.0</ele><time>2026-04-11T09:24:31.999Z</time></trkpt><trkpt lat="45.452122999495536" lon="9.28764345325707"><ele>109.0</ele><time>2026-04-11T09:24:33.999Z</time></trkpt><trkpt lat="45.45212193611127" lon="9.287753219457258"><ele>109.0</ele><time>2026-04-11T09:24:37.999Z</time></trkpt><trkpt lat="45.45214322757887" lon="9.287845880304756"><ele>109.0</ele><time>2026-04-11T09:24:39.999Z</time></trkpt><trkpt lat="45.45220860824399" lon="9.287903683248869"><ele>109.0</ele><time>2026-04-11T09:24:44.999Z</time></trkpt><trkpt lat="45.4522619471277" lon="9.287955704280375"><ele>109.0</ele><time>2026-04-11T09:24:49.999Z</time></trkpt><trkpt lat="45.452326433794525" lon="9.287996678115105"><ele>109.0</ele><time>2026-04-11T09:24:53.999Z</time></trkpt><trkpt lat="45.45246248030989" lon="9.287882872432764"><ele>109.00000000000001</ele><time>2026-04-11T09:25:05Z</time></trkpt><trkpt lat="45.45247903805214" lon="9.287753308238155"><ele>109.0</ele><time>2026-04-11T09:25:07Z</time></trkpt><trkpt lat="45.452487493132416" lon="9.287663756755837"><ele>109.0</ele><time>2026-04-11T09:25:11Z</time></trkpt><trkpt lat="45.45248369133902" lon="9.28753052825695"><ele>109.0</ele><time>2026-04-11T09:25:14Z</time></trkpt><trkpt lat="45.45248877838987" lon="9.287425761554307"><ele>109.00000000000001</ele><time>2026-04-11T09:25:15Z</time></trkpt><trkpt lat="45.452498825056196" lon="9.287326158752816"><ele>109.0</ele><time>2026-04-11T09:25:16Z</time></trkpt><trkpt lat="45.45251433742798" lon="9.28722810063573"><ele>109.33333333333334</ele><time>2026-04-11T09:25:17Z</time></trkpt><trkpt lat="45.45253446013907" lon="9.287135629801046"><ele>109.66666666666667</ele><time>2026-04-11T09:25:18Z</time></trkpt><trkpt lat="45.45257448603324" lon="9.286992712500814"><ele>110.0</ele><time>2026-04-11T09:25:20Z</time></trkpt><trkpt lat="45.45258908609495" lon="9.286901998633502"><ele>110.33333333333334</ele><time>2026-04-11T09:25:22Z</time></trkpt><trkpt lat="45.452612968729674" lon="9.286801324268046"><ele>110.66666666666667</ele><time>2026-04-11T09:25:24Z</time></trkpt><trkpt lat="45.45264596199928" lon="9.286694935320286"><ele>111.0</ele><time>2026-04-11T09:25:25Z</time></trkpt><trkpt lat="45.45269311707403" lon="9.286580933190752"><ele>111.0</ele><time>2026-04-11T09:25:27Z</time></trkpt><trkpt lat="45.45272018284987" lon="9.286498667245759"><ele>111.0</ele><time>2026-04-11T09:25:28Z</time></trkpt><trkpt lat="45.45274852045808" lon="9.286379608951826"><ele>111.0</ele><time>2026-04-11T09:25:30Z</time></trkpt><trkpt lat="45.45280063568476" lon="9.286269344990917"><ele>111.0</ele><time>2026-04-11T09:25:32Z</time></trkpt><trkpt lat="45.452856819831965" lon="9.286159789550007"><ele>111.0</ele><time>2026-04-11T09:25:34Z</time></trkpt><trkpt lat="45.45292985690532" lon="9.28602884884222"><ele>110.4</ele><time>2026-04-11T09:25:36Z</time></trkpt><trkpt lat="45.45299424496956" lon="9.285907114821443"><ele>109.8</ele><time>2026-04-11T09:25:38Z</time></trkpt><trkpt lat="45.45306345186577" lon="9.285818723197595"><ele>109.20000000000002</ele><time>2026-04-11T09:25:40Z</time></trkpt><trkpt lat="45.453145579891874" lon="9.28575646002752"><ele>108.60000000000001</ele><time>2026-04-11T09:25:42Z</time></trkpt><trkpt lat="45.453227941352665" lon="9.285671644342091"><ele>108.0</ele><time>2026-04-11T09:25:44Z</time></trkpt><trkpt lat="45.453331351436695" lon="9.285594688174895"><ele>107.83333333333333</ele><time>2026-04-11T09:25:46Z</time></trkpt><trkpt lat="45.45341883738198" lon="9.285559193146078"><ele>107.66666666666666</ele><time>2026-04-11T09:25:48Z</time></trkpt><trkpt lat="45.45350508991163" lon="9.285529613311809"><ele>107.5</ele><time>2026-04-11T09:25:50Z</time></trkpt><trkpt lat="45.45357863289748" lon="9.285507890608105"><ele>107.33333333333333</ele><time>2026-04-11T09:25:52Z</time></trkpt><trkpt lat="45.45364304734865" lon="9.285501181444447"><ele>107.16666666666666</ele><time>2026-04-11T09:25:53Z</time></trkpt><trkpt lat="45.45375992718611" lon="9.285502569562846"><ele>107.0</ele><time>2026-04-11T09:25:55Z</time></trkpt><trkpt lat="45.4538707517629" lon="9.285513627683926"><ele>107.0</ele><time>2026-04-11T09:25:57Z</time></trkpt><trkpt lat="45.45398980056714" lon="9.285518986011695"><ele>107.0</ele><time>2026-04-11T09:25:59Z</time></trkpt><trkpt lat="45.45410871605728" lon="9.285548404273962"><ele>107.0</ele><time>2026-04-11T09:26:01Z</time></trkpt><trkpt lat="45.45421144339509" lon="9.28555392132298"><ele>107.0</ele><time>2026-04-11T09:26:03Z</time></trkpt><trkpt lat="45.45437772542172" lon="9.285573559202906"><ele>107.0</ele><time>2026-04-11T09:26:06Z</time></trkpt><trkpt lat="45.45447845593725" lon="9.28556376553701"><ele>106.99999999999999</ele><time>2026-04-11T09:26:08Z</time></trkpt><trkpt lat="45.45454494428227" lon="9.285577338603433"><ele>106.99999999999999</ele><time>2026-04-11T09:26:09Z</time></trkpt><trkpt lat="45.45460892760147" lon="9.285582216582009"><ele>107.0</ele><time>2026-04-11T09:26:10Z</time></trkpt><trkpt lat="45.45472535686287" lon="9.285622305757052"><ele>107.0</ele><time>2026-04-11T09:26:12Z</time></trkpt><trkpt lat="45.454835547973005" lon="9.28563607241078"><ele>107.39999999999999</ele><time>2026-04-11T09:26:14Z</time></trkpt><trkpt lat="45.454948740426296" lon="9.285654157411784"><ele>107.79999999999998</ele><time>2026-04-11T09:26:16Z</time></trkpt><trkpt lat="45.455061236280365" lon="9.285670222058902"><ele>108.2</ele><time>2026-04-11T09:26:17.999Z</time></trkpt><trkpt lat="45.45512675725253" lon="9.285694072893463"><ele>108.6</ele><time>2026-04-11T09:26:18.999Z</time></trkpt><trkpt lat="45.45523763367049" lon="9.28572547631917"><ele>109.0</ele><time>2026-04-11T09:26:20.999Z</time></trkpt><trkpt lat="45.45533084482571" lon="9.285733996105723"><ele>109.0</ele><time>2026-04-11T09:26:22.999Z</time></trkpt><trkpt lat="45.455435980562086" lon="9.285759270694086"><ele>109.0</ele><time>2026-04-11T09:26:24.999Z</time></trkpt><trkpt lat="45.455554293862605" lon="9.285790496382297"><ele>109.0</ele><time>2026-04-11T09:26:26.999Z</time></trkpt><trkpt lat="45.45566660297782" lon="9.285806327105615"><ele>109.0</ele><time>2026-04-11T09:26:28.999Z</time></trkpt><trkpt lat="45.45577791144801" lon="9.285826992048827"><ele>108.80000000000001</ele><time>2026-04-11T09:26:30.999Z</time></trkpt><trkpt lat="45.45587824559157" lon="9.28584800964811"><ele>108.60000000000001</ele><time>2026-04-11T09:26:32.999Z</time></trkpt><trkpt lat="45.45598518437203" lon="9.285851492654375"><ele>108.4</ele><time>2026-04-11T09:26:34.999Z</time></trkpt><trkpt lat="45.456077443321284" lon="9.285859842502525"><ele>108.2</ele><time>2026-04-11T09:26:36.999Z</time></trkpt><trkpt lat="45.456187498535506" lon="9.285861863062086"><ele>108.0</ele><time>2026-04-11T09:26:38.999Z</time></trkpt><trkpt lat="45.45630429673431" lon="9.28590019141845"><ele>108.0</ele><time>2026-04-11T09:26:40.999Z</time></trkpt><trkpt lat="45.45641654402461" lon="9.285924141874403"><ele>108.0</ele><time>2026-04-11T09:26:42.999Z</time></trkpt><trkpt lat="45.45652831003137" lon="9.285938922423062"><ele>108.0</ele><time>2026-04-11T09:26:44.999Z</time></trkpt><trkpt lat="45.45663668993216" lon="9.285968285673416"><ele>108.0</ele><time>2026-04-11T09:26:46.999Z</time></trkpt><trkpt lat="45.45675260081984" lon="9.285989073461215"><ele>108.0</ele><time>2026-04-11T09:26:48.999Z</time></trkpt><trkpt lat="45.456865575064505" lon="9.286016725261904"><ele>108.00000000000001</ele><time>2026-04-11T09:26:50.999Z</time></trkpt><trkpt lat="45.45697457369088" lon="9.286040086065796"><ele>108.00000000000001</ele><time>2026-04-11T09:26:52.999Z</time></trkpt><trkpt lat="45.45708423486623" lon="9.286043914323637"><ele>108.0</ele><time>2026-04-11T09:26:54.999Z</time></trkpt><trkpt lat="45.45718106768386" lon="9.28607594932058"><ele>108.0</ele><time>2026-04-11T09:26:56.999Z</time></trkpt><trkpt lat="45.45729147141919" lon="9.286102040628686"><ele>108.4</ele><time>2026-04-11T09:26:58.999Z</time></trkpt><trkpt lat="45.457409504847334" lon="9.286116287516155"><ele>108.80000000000001</ele><time>2026-04-11T09:27:00.999Z</time></trkpt><trkpt lat="45.4575237186776" lon="9.286136082736595"><ele>109.2</ele><time>2026-04-11T09:27:02.999Z</time></trkpt><trkpt lat="45.45761909560236" lon="9.286172085393892"><ele>109.6</ele><time>2026-04-11T09:27:05Z</time></trkpt><trkpt lat="45.45773020701564" lon="9.286163955246725"><ele>110.0</ele><time>2026-04-11T09:27:07Z</time></trkpt><trkpt lat="45.45779502277515" lon="9.28617533149851"><ele>110.0</ele><time>2026-04-11T09:27:08Z</time></trkpt><trkpt lat="45.45789837334513" lon="9.28619101712054"><ele>110.0</ele><time>2026-04-11T09:27:10Z</time></trkpt><trkpt lat="45.45802257963485" lon="9.286219942441646"><ele>110.0</ele><time>2026-04-11T09:27:12Z</time></trkpt><trkpt lat="45.45811516992983" lon="9.286248150396805"><ele>110.0</ele><time>2026-04-11T09:27:14Z</time></trkpt><trkpt lat="45.4581964675584" lon="9.28626479822143"><ele>110.0</ele><time>2026-04-11T09:27:16Z</time></trkpt><trkpt lat="45.45846750517121" lon="9.286273133378945"><ele>110.0</ele><time>2026-04-11T09:27:21Z</time></trkpt><trkpt lat="45.45853477903239" lon="9.286272536908807"><ele>110.0</ele><time>2026-04-11T09:27:22Z</time></trkpt><trkpt lat="45.458799162226356" lon="9.286257241118717"><ele>110.0</ele><time>2026-04-11T09:27:27Z</time></trkpt><trkpt lat="45.45890993478636" lon="9.286245378213366"><ele>110.0</ele><time>2026-04-11T09:27:29Z</time></trkpt><trkpt lat="45.45901175390098" lon="9.286200298114137"><ele>110.0</ele><time>2026-04-11T09:27:31Z</time></trkpt><trkpt lat="45.45911561184261" lon="9.286136956410047"><ele>110.0</ele><time>2026-04-11T09:27:33Z</time></trkpt><trkpt lat="45.459210335435" lon="9.28606336198153"><ele>110.0</ele><time>2026-04-11T09:27:35Z</time></trkpt><trkpt lat="45.45926558624113" lon="9.28601515321989"><ele>110.0</ele><time>2026-04-11T09:27:36Z</time></trkpt><trkpt lat="45.459309234067895" lon="9.285946089302957"><ele>110.0</ele><time>2026-04-11T09:27:37Z</time></trkpt><trkpt lat="45.459374225995" lon="9.2858231041004"><ele>110.0</ele><time>2026-04-11T09:27:39Z</time></trkpt><trkpt lat="45.459464980062464" lon="9.285736521897125"><ele>110.0</ele><time>2026-04-11T09:27:41Z</time></trkpt><trkpt lat="45.45957448284732" lon="9.285771189236288"><ele>110.0</ele><time>2026-04-11T09:27:43Z</time></trkpt><trkpt lat="45.45965784317499" lon="9.28581367078256"><ele>110.0</ele><time>2026-04-11T09:27:45Z</time></trkpt><trkpt lat="45.459727441233944" lon="9.285862087699845"><ele>110.0</ele><time>2026-04-11T09:27:48Z</time></trkpt><trkpt lat="45.459798892809644" lon="9.285922010382038"><ele>109.4</ele><time>2026-04-11T09:27:50Z</time></trkpt><trkpt lat="45.45986031123445" lon="9.28597080582038"><ele>108.8</ele><time>2026-04-11T09:27:52Z</time></trkpt><trkpt lat="45.459930535803046" lon="9.286021411132865"><ele>108.19999999999999</ele><time>2026-04-11T09:27:54Z</time></trkpt><trkpt lat="45.46001995364356" lon="9.286082609714544"><ele>107.6</ele><time>2026-04-11T09:27:56Z</time></trkpt><trkpt lat="45.46012129566778" lon="9.286130548560507"><ele>107.0</ele><time>2026-04-11T09:27:58Z</time></trkpt><trkpt lat="45.4602159690825" lon="9.286180955532382"><ele>106.99999999999999</ele><time>2026-04-11T09:28:00Z</time></trkpt><trkpt lat="45.46030016569192" lon="9.286212589340709"><ele>107.0</ele><time>2026-04-11T09:28:02Z</time></trkpt><trkpt lat="45.460388333879564" lon="9.28623514751455"><ele>107.0</ele><time>2026-04-11T09:28:04Z</time></trkpt><trkpt lat="45.46048761011586" lon="9.286262148282928"><ele>107.0</ele><time>2026-04-11T09:28:06Z</time></trkpt><trkpt lat="45.46056862025799" lon="9.286288728159935"><ele>106.99999999999999</ele><time>2026-04-11T09:28:08Z</time></trkpt><trkpt lat="45.46061894869887" lon="9.286386875903531"><ele>107.0</ele><time>2026-04-11T09:28:11Z</time></trkpt><trkpt lat="45.46068543008316" lon="9.28647611448221"><ele>107.25</ele><time>2026-04-11T09:28:13.999Z</time></trkpt><trkpt lat="45.460752846713255" lon="9.286551839559182"><ele>107.5</ele><time>2026-04-11T09:28:16.999Z</time></trkpt><trkpt lat="45.460822166868965" lon="9.286618299651998"><ele>107.75</ele><time>2026-04-11T09:28:19.999Z</time></trkpt><trkpt lat="45.4608923270203" lon="9.286635129618697"><ele>108.0</ele><time>2026-04-11T09:28:21.999Z</time></trkpt><trkpt lat="45.46111161057332" lon="9.286632720253458"><ele>108.0</ele><time>2026-04-11T09:28:26.999Z</time></trkpt><trkpt lat="45.46119580113838" lon="9.286615164080427"><ele>108.0</ele><time>2026-04-11T09:28:28.999Z</time></trkpt><trkpt lat="45.461277358918935" lon="9.286595509244005"><ele>108.0</ele><time>2026-04-11T09:28:30.999Z</time></trkpt><trkpt lat="45.46136166185093" lon="9.286573641768051"><ele>108.0</ele><time>2026-04-11T09:28:32.999Z</time></trkpt><trkpt lat="45.46145993093602" lon="9.28656774425414"><ele>108.0</ele><time>2026-04-11T09:28:34.999Z</time></trkpt><trkpt lat="45.4615311788384" lon="9.286530172919049"><ele>108.0</ele><time>2026-04-11T09:28:37.999Z</time></trkpt><trkpt lat="45.46159547110931" lon="9.28650934307799"><ele>108.33333333333333</ele><time>2026-04-11T09:28:39.999Z</time></trkpt><trkpt lat="45.46165860045497" lon="9.286476107371547"><ele>108.66666666666666</ele><time>2026-04-11T09:28:41.999Z</time></trkpt><trkpt lat="45.46173499278548" lon="9.286436320134518"><ele>109.0</ele><time>2026-04-11T09:28:44.999Z</time></trkpt><trkpt lat="45.46179641118185" lon="9.286380160181718"><ele>109.33333333333333</ele><time>2026-04-11T09:28:46.999Z</time></trkpt><trkpt lat="45.46188136238957" lon="9.286347200041027"><ele>109.66666666666666</ele><time>2026-04-11T09:28:48.999Z</time></trkpt><trkpt lat="45.461976700687" lon="9.286349431935474"><ele>110.0</ele><time>2026-04-11T09:28:50.999Z</time></trkpt><trkpt lat="45.46205598515957" lon="9.286371171703333"><ele>111.4</ele><time>2026-04-11T09:28:52.999Z</time></trkpt><trkpt lat="45.46213109867737" lon="9.28634702148145"><ele>112.8</ele><time>2026-04-11T09:28:54.999Z</time></trkpt><trkpt lat="45.46221329919124" lon="9.286352879738867"><ele>114.19999999999999</ele><time>2026-04-11T09:28:57.999Z</time></trkpt><trkpt lat="45.462326134340266" lon="9.28635820671238"><ele>115.6</ele><time>2026-04-11T09:29:01.999Z</time></trkpt><trkpt lat="45.46250221018291" lon="9.286356627067676"><ele>117.0</ele><time>2026-04-11T09:29:05.999Z</time></trkpt><trkpt lat="45.462596510841124" lon="9.286349400682255"><ele>117.0</ele><time>2026-04-11T09:29:07.999Z</time></trkpt><trkpt lat="45.462678421942826" lon="9.286352008256236"><ele>117.0</ele><time>2026-04-11T09:29:10Z</time></trkpt><trkpt lat="45.462752161516924" lon="9.286360177176078"><ele>117.0</ele><time>2026-04-11T09:29:12Z</time></trkpt><trkpt lat="45.46285236393596" lon="9.286374444789029"><ele>117.0</ele><time>2026-04-11T09:29:15Z</time></trkpt><trkpt lat="45.4629200855803" lon="9.286416551042564"><ele>117.0</ele><time>2026-04-11T09:29:17Z</time></trkpt><trkpt lat="45.46298279762078" lon="9.286482797815935"><ele>117.0</ele><time>2026-04-11T09:29:19Z</time></trkpt><trkpt lat="45.46302878183285" lon="9.286554921971241"><ele>116.5</ele><time>2026-04-11T09:29:21Z</time></trkpt><trkpt lat="45.463081982569875" lon="9.286654201172057"><ele>116.0</ele><time>2026-04-11T09:29:23Z</time></trkpt><trkpt lat="45.46314592764695" lon="9.28673627281849"><ele>115.5</ele><time>2026-04-11T09:29:25Z</time></trkpt><trkpt lat="45.4632238983025" lon="9.28681588049076"><ele>115.0</ele><time>2026-04-11T09:29:27Z</time></trkpt><trkpt lat="45.463292950558035" lon="9.286895220974426"><ele>114.5</ele><time>2026-04-11T09:29:29Z</time></trkpt><trkpt lat="45.46334882119925" lon="9.286950887273814"><ele>114.0</ele><time>2026-04-11T09:29:31Z</time></trkpt><trkpt lat="45.463451988349526" lon="9.287020464718314"><ele>114.0</ele><time>2026-04-11T09:29:33Z</time></trkpt><trkpt lat="45.463512738858846" lon="9.287054255600637"><ele>114.0</ele><time>2026-04-11T09:29:34Z</time></trkpt><trkpt lat="45.46362691573293" lon="9.287096525438953"><ele>114.0</ele><time>2026-04-11T09:29:36Z</time></trkpt><trkpt lat="45.46370474710488" lon="9.287116496600918"><ele>114.0</ele><time>2026-04-11T09:29:38Z</time></trkpt><trkpt lat="45.463957860313734" lon="9.28713871424616"><ele>114.0</ele><time>2026-04-11T09:29:44Z</time></trkpt><trkpt lat="45.464037656576835" lon="9.287166540620513"><ele>114.0</ele><time>2026-04-11T09:29:45Z</time></trkpt><trkpt lat="45.46416481254664" lon="9.287200904405498"><ele>114.0</ele><time>2026-04-11T09:29:47Z</time></trkpt><trkpt lat="45.46428294014475" lon="9.287240018013058"><ele>114.0</ele><time>2026-04-11T09:29:49Z</time></trkpt><trkpt lat="45.46437440580529" lon="9.287277661252391"><ele>114.0</ele><time>2026-04-11T09:29:51Z</time></trkpt><trkpt lat="45.46453418909928" lon="9.287296229373503"><ele>113.80000000000001</ele><time>2026-04-11T09:29:54Z</time></trkpt><trkpt lat="45.46462457287712" lon="9.287313429449362"><ele>113.60000000000001</ele><time>2026-04-11T09:29:57Z</time></trkpt><trkpt lat="45.46470837248806" lon="9.287335323189497"><ele>113.4</ele><time>2026-04-11T09:29:59Z</time></trkpt><trkpt lat="45.46478151034871" lon="9.287346669677902"><ele>113.2</ele><time>2026-04-11T09:30:01Z</time></trkpt><trkpt lat="45.46487668305199" lon="9.287339306867274"><ele>113.0</ele><time>2026-04-11T09:30:03Z</time></trkpt><trkpt lat="45.46498388415434" lon="9.287365232861177"><ele>113.0</ele><time>2026-04-11T09:30:05Z</time></trkpt><trkpt lat="45.465095279278614" lon="9.287383245526149"><ele>113.00000000000001</ele><time>2026-04-11T09:30:07Z</time></trkpt><trkpt lat="45.46519857859879" lon="9.287404972961333"><ele>113.00000000000001</ele><time>2026-04-11T09:30:09Z</time></trkpt><trkpt lat="45.465304828717265" lon="9.28744005970028"><ele>113.0</ele><time>2026-04-11T09:30:11Z</time></trkpt><trkpt lat="45.4653988761341" lon="9.287463332293445"><ele>113.0</ele><time>2026-04-11T09:30:13Z</time></trkpt><trkpt lat="45.46548754941862" lon="9.287479123267607"><ele>113.25</ele><time>2026-04-11T09:30:14.999Z</time></trkpt><trkpt lat="45.465635796588934" lon="9.287493940409709"><ele>113.5</ele><time>2026-04-11T09:30:17.999Z</time></trkpt><trkpt lat="45.46574620275077" lon="9.287520930056997"><ele>113.75</ele><time>2026-04-11T09:30:19.999Z</time></trkpt><trkpt lat="45.46584877605718" lon="9.287550432471663"><ele>114.0</ele><time>2026-04-11T09:30:21.999Z</time></trkpt><trkpt lat="45.465954042048956" lon="9.28757454460147"><ele>114.0</ele><time>2026-04-11T09:30:23.999Z</time></trkpt><trkpt lat="45.46606417233935" lon="9.287578323194502"><ele>114.0</ele><time>2026-04-11T09:30:25.999Z</time></trkpt><trkpt lat="45.466150211734885" lon="9.28759205242476"><ele>114.0</ele><time>2026-04-11T09:30:27.999Z</time></trkpt><trkpt lat="45.46623516505838" lon="9.287631232763955"><ele>114.0</ele><time>2026-04-11T09:30:29.999Z</time></trkpt><trkpt lat="45.46636775666892" lon="9.287639643008347"><ele>114.0</ele><time>2026-04-11T09:30:32.999Z</time></trkpt><trkpt lat="45.466471074802506" lon="9.287659902474966"><ele>114.2</ele><time>2026-04-11T09:30:34.999Z</time></trkpt><trkpt lat="45.466585856662384" lon="9.28769351415881"><ele>114.4</ele><time>2026-04-11T09:30:36.999Z</time></trkpt><trkpt lat="45.4666943093429" lon="9.28771003095607"><ele>114.6</ele><time>2026-04-11T09:30:38.999Z</time></trkpt><trkpt lat="45.46675902977505" lon="9.287720644167788"><ele>114.8</ele><time>2026-04-11T09:30:39.999Z</time></trkpt><trkpt lat="45.46687793709357" lon="9.28773549771928"><ele>115.0</ele><time>2026-04-11T09:30:41.999Z</time></trkpt><trkpt lat="45.466993275120615" lon="9.287745554498333"><ele>115.8</ele><time>2026-04-11T09:30:43.999Z</time></trkpt><trkpt lat="45.467111435465604" lon="9.287760748306154"><ele>116.6</ele><time>2026-04-11T09:30:45.999Z</time></trkpt><trkpt lat="45.467210211779836" lon="9.28777694203231"><ele>117.4</ele><time>2026-04-11T09:30:47.999Z</time></trkpt><trkpt lat="45.4673303757259" lon="9.287796985913536"><ele>118.2</ele><time>2026-04-11T09:30:49.999Z</time></trkpt><trkpt lat="45.467395586175684" lon="9.287799397148296"><ele>119.0</ele><time>2026-04-11T09:30:50.999Z</time></trkpt><trkpt lat="45.46749808692098" lon="9.287827942575174"><ele>119.0</ele><time>2026-04-11T09:30:52.999Z</time></trkpt><trkpt lat="45.46759518598485" lon="9.287861643514573"><ele>119.0</ele><time>2026-04-11T09:30:54.999Z</time></trkpt><trkpt lat="45.467715811239806" lon="9.287872797279492"><ele>119.0</ele><time>2026-04-11T09:30:56.999Z</time></trkpt><trkpt lat="45.467795451581715" lon="9.287871186920599"><ele>119.0</ele><time>2026-04-11T09:30:58.999Z</time></trkpt><trkpt lat="45.467913143276085" lon="9.287889770959637"><ele>119.0</ele><time>2026-04-11T09:31:00.999Z</time></trkpt><trkpt lat="45.46799959561291" lon="9.287902578736299"><ele>118.49999999999999</ele><time>2026-04-11T09:31:02.999Z</time></trkpt><trkpt lat="45.4680837267061" lon="9.287922522231481"><ele>118.0</ele><time>2026-04-11T09:31:04.999Z</time></trkpt><trkpt lat="45.46817128477796" lon="9.287928759613536"><ele>117.5</ele><time>2026-04-11T09:31:06.999Z</time></trkpt><trkpt lat="45.468259721325836" lon="9.287953181361937"><ele>117.0</ele><time>2026-04-11T09:31:08.999Z</time></trkpt><trkpt lat="45.46832316104942" lon="9.287978238280068"><ele>116.49999999999999</ele><time>2026-04-11T09:31:10.999Z</time></trkpt><trkpt lat="45.468385976393186" lon="9.28799728419223"><ele>116.0</ele><time>2026-04-11T09:31:12.999Z</time></trkpt><trkpt lat="45.46847512794738" lon="9.288021095973885"><ele>115.99999999999999</ele><time>2026-04-11T09:31:16Z</time></trkpt><trkpt lat="45.468547069492644" lon="9.288030531479386"><ele>116.0</ele><time>2026-04-11T09:31:18Z</time></trkpt><trkpt lat="45.46861714588091" lon="9.288047478625716"><ele>116.0</ele><time>2026-04-11T09:31:20Z</time></trkpt><trkpt lat="45.46870164236297" lon="9.288071451392199"><ele>116.0</ele><time>2026-04-11T09:31:22Z</time></trkpt><trkpt lat="45.46876791486202" lon="9.288078599698787"><ele>115.99999999999999</ele><time>2026-04-11T09:31:24Z</time></trkpt><trkpt lat="45.468849882347065" lon="9.288101933681475"><ele>116.0</ele><time>2026-04-11T09:31:26Z</time></trkpt><trkpt lat="45.46893256341441" lon="9.288114549039244"><ele>116.0</ele><time>2026-04-11T09:31:29Z</time></trkpt><trkpt lat="45.469076259347744" lon="9.288123116212278"><ele>116.0</ele><time>2026-04-11T09:31:35Z</time></trkpt><trkpt lat="45.46918365563399" lon="9.288127227792051"><ele>116.0</ele><time>2026-04-11T09:31:41Z</time></trkpt><trkpt lat="45.46926100754923" lon="9.288084866149338"><ele>116.0</ele><time>2026-04-11T09:31:44Z</time></trkpt><trkpt lat="45.46928428047437" lon="9.28798734675682"><ele>116.0</ele><time>2026-04-11T09:31:47Z</time></trkpt><trkpt lat="45.46930896491036" lon="9.287879929375046"><ele>116.00000000000001</ele><time>2026-04-11T09:31:52Z</time></trkpt><trkpt lat="45.46930545540865" lon="9.287778387464119"><ele>116.0</ele><time>2026-04-11T09:31:54Z</time></trkpt><trkpt lat="45.46931145663998" lon="9.28768350465142"><ele>116.00000000000001</ele><time>2026-04-11T09:31:56Z</time></trkpt><trkpt lat="45.469312250022014" lon="9.287573744756546"><ele>116.00000000000001</ele><time>2026-04-11T09:31:59Z</time></trkpt><trkpt lat="45.469313760085356" lon="9.287478548648204"><ele>116.0</ele><time>2026-04-11T09:32:01Z</time></trkpt><trkpt lat="45.46935405698178" lon="9.287373028406165"><ele>116.00000000000001</ele><time>2026-04-11T09:32:04Z</time></trkpt><trkpt lat="45.46941164050194" lon="9.28732417723228"><ele>116.00000000000001</ele><time>2026-04-11T09:32:09Z</time></trkpt><trkpt lat="45.46948348835339" lon="9.287310551583143"><ele>115.99999999999999</ele><time>2026-04-11T09:32:12Z</time></trkpt><trkpt lat="45.46956085437085" lon="9.28733421643335"><ele>116.0</ele><time>2026-04-11T09:32:15Z</time></trkpt><trkpt lat="45.46964059913043" lon="9.287337775670307"><ele>116.0</ele><time>2026-04-11T09:32:17Z</time></trkpt><trkpt lat="45.46971280678401" lon="9.287333091441532"><ele>116.0</ele><time>2026-04-11T09:32:19Z</time></trkpt><trkpt lat="45.46980617567119" lon="9.28731312916097"><ele>115.99999999999999</ele><time>2026-04-11T09:32:22Z</time></trkpt><trkpt lat="45.46986854048087" lon="9.28729140589638"><ele>116.0</ele><time>2026-04-11T09:32:24Z</time></trkpt><trkpt lat="45.46993845726525" lon="9.287284609535803"><ele>115.99999999999999</ele><time>2026-04-11T09:32:27.999Z</time></trkpt><trkpt lat="45.47002861250392" lon="9.287272870705793"><ele>116.0</ele><time>2026-04-11T09:32:31.999Z</time></trkpt><trkpt lat="45.470125651979885" lon="9.287271966057608"><ele>116.0</ele><time>2026-04-11T09:32:34.999Z</time></trkpt><trkpt lat="45.47019305767337" lon="9.287277261483586"><ele>116.0</ele><time>2026-04-11T09:32:36.999Z</time></trkpt><trkpt lat="45.470268856663424" lon="9.287282779829015"><ele>115.99999999999999</ele><time>2026-04-11T09:32:38.999Z</time></trkpt><trkpt lat="45.47034284400219" lon="9.287287331489921"><ele>116.0</ele><time>2026-04-11T09:32:40.999Z</time></trkpt><trkpt lat="45.47042305559226" lon="9.287319574764519"><ele>115.83333333333333</ele><time>2026-04-11T09:32:43.999Z</time></trkpt><trkpt lat="45.470505774933756" lon="9.287380097711734"><ele>115.66666666666666</ele><time>2026-04-11T09:32:46.999Z</time></trkpt><trkpt lat="45.470581099814" lon="9.287405735656852"><ele>115.5</ele><time>2026-04-11T09:32:49.999Z</time></trkpt><trkpt lat="45.47064902172474" lon="9.287460288832015"><ele>115.33333333333334</ele><time>2026-04-11T09:32:52.999Z</time></trkpt><trkpt lat="45.470692113980036" lon="9.28753750638941"><ele>115.16666666666667</ele><time>2026-04-11T09:32:56.999Z</time></trkpt><trkpt lat="45.470747217175" lon="9.287612665590892"><ele>115.0</ele><time>2026-04-11T09:33:00.999Z</time></trkpt><trkpt lat="45.47080320009854" lon="9.287670810974717"><ele>115.0</ele><time>2026-04-11T09:33:04.999Z</time></trkpt><trkpt lat="45.4708714590713" lon="9.287674487036925"><ele>115.0</ele><time>2026-04-11T09:33:07.999Z</time></trkpt><trkpt lat="45.47095827551024" lon="9.28769118451759"><ele>115.0</ele><time>2026-04-11T09:33:10.999Z</time></trkpt><trkpt lat="45.471049707857894" lon="9.287728377180805"><ele>115.0</ele><time>2026-04-11T09:33:14.999Z</time></trkpt><trkpt lat="45.471189154866366" lon="9.287742660029151"><ele>115.0</ele><time>2026-04-11T09:33:26Z</time></trkpt><trkpt lat="45.47113017609486" lon="9.287793421004867"><ele>114.99999999999999</ele><time>2026-04-11T09:33:35Z</time></trkpt><trkpt lat="45.47106676430267" lon="9.287775259669997"><ele>115.0</ele><time>2026-04-11T09:33:38Z</time></trkpt><trkpt lat="45.471002180163794" lon="9.287769305050517"><ele>114.99999999999999</ele><time>2026-04-11T09:33:40Z</time></trkpt><trkpt lat="45.470929639576624" lon="9.287782520644138"><ele>114.99999999999999</ele><time>2026-04-11T09:33:42Z</time></trkpt><trkpt lat="45.470864779900296" lon="9.287792550295189"><ele>115.0</ele><time>2026-04-11T09:33:44Z</time></trkpt><trkpt lat="45.47079607014622" lon="9.287806311295137"><ele>114.99999999999999</ele><time>2026-04-11T09:33:46Z</time></trkpt><trkpt lat="45.470727595581515" lon="9.287867775314886"><ele>114.99999999999999</ele><time>2026-04-11T09:33:49Z</time></trkpt><trkpt lat="45.470671246720315" lon="9.287936717604213"><ele>114.99999999999999</ele><time>2026-04-11T09:33:52Z</time></trkpt><trkpt lat="45.47060315794134" lon="9.287967833619453"><ele>115.0</ele><time>2026-04-11T09:33:56Z</time></trkpt><trkpt lat="45.47051539676104" lon="9.288000390814402"><ele>114.99999999999999</ele><time>2026-04-11T09:33:59Z</time></trkpt><trkpt lat="45.47045408014812" lon="9.288031613120854"><ele>114.99999999999999</ele><time>2026-04-11T09:34:01Z</time></trkpt><trkpt lat="45.47040194170792" lon="9.28808814739128"><ele>115.0</ele><time>2026-04-11T09:34:05Z</time></trkpt><trkpt lat="45.47033284146865" lon="9.288106981809747"><ele>114.99999999999999</ele><time>2026-04-11T09:34:08Z</time></trkpt><trkpt lat="45.470268642187925" lon="9.288124014977797"><ele>114.99999999999999</ele><time>2026-04-11T09:34:10Z</time></trkpt><trkpt lat="45.4701688830246" lon="9.288118334993895"><ele>114.83333333333334</ele><time>2026-04-11T09:34:13Z</time></trkpt><trkpt lat="45.47010636854857" lon="9.288099490913558"><ele>114.66666666666667</ele><time>2026-04-11T09:34:15Z</time></trkpt><trkpt lat="45.47004192848735" lon="9.288066463059245"><ele>114.5</ele><time>2026-04-11T09:34:18Z</time></trkpt><trkpt lat="45.46997252324178" lon="9.28803796383752"><ele>114.33333333333334</ele><time>2026-04-11T09:34:20Z</time></trkpt><trkpt lat="45.469897908291266" lon="9.287999792324994"><ele>114.16666666666667</ele><time>2026-04-11T09:34:24.999Z</time></trkpt><trkpt lat="45.46982253028499" lon="9.287990343244784"><ele>114.0</ele><time>2026-04-11T09:34:26.999Z</time></trkpt><trkpt lat="45.46972911804971" lon="9.28800238923876"><ele>114.33333333333333</ele><time>2026-04-11T09:34:29.999Z</time></trkpt><trkpt lat="45.469664752218755" lon="9.28801421945393"><ele>114.66666666666666</ele><time>2026-04-11T09:34:31.999Z</time></trkpt><trkpt lat="45.46959556999752" lon="9.288006910213335"><ele>115.0</ele><time>2026-04-11T09:34:33.999Z</time></trkpt><trkpt lat="45.46951671578802" lon="9.287985551594474"><ele>115.33333333333333</ele><time>2026-04-11T09:34:36.999Z</time></trkpt><trkpt lat="45.46946955282143" lon="9.287909058797368"><ele>115.66666666666666</ele><time>2026-04-11T09:34:39.999Z</time></trkpt><trkpt lat="45.469435881879875" lon="9.287801458008353"><ele>116.0</ele><time>2026-04-11T09:34:41.999Z</time></trkpt><trkpt lat="45.46940428849779" lon="9.28768350640203"><ele>116.00000000000001</ele><time>2026-04-11T09:34:43.999Z</time></trkpt><trkpt lat="45.469378261940655" lon="9.28756963598475"><ele>116.0</ele><time>2026-04-11T09:34:45.999Z</time></trkpt><trkpt lat="45.46935471243618" lon="9.287481791829672"><ele>116.00000000000001</ele><time>2026-04-11T09:34:47.999Z</time></trkpt><trkpt lat="45.4693409982339" lon="9.287388559002158"><ele>116.00000000000001</ele><time>2026-04-11T09:34:49.999Z</time></trkpt><trkpt lat="45.469318849130666" lon="9.287303221339183"><ele>116.0</ele><time>2026-04-11T09:34:51.999Z</time></trkpt><trkpt lat="45.46931017157116" lon="9.287206265981045"><ele>116.00000000000001</ele><time>2026-04-11T09:34:54.999Z</time></trkpt><trkpt lat="45.46931953448207" lon="9.287101510470622"><ele>116.00000000000001</ele><time>2026-04-11T09:34:56.999Z</time></trkpt><trkpt lat="45.469313660003166" lon="9.28699475990084"><ele>115.85714285714288</ele><time>2026-04-11T09:34:58.999Z</time></trkpt><trkpt lat="45.46930542012504" lon="9.286903597881622"><ele>115.71428571428572</ele><time>2026-04-11T09:35:00.999Z</time></trkpt><trkpt lat="45.469291116877024" lon="9.286806253947136"><ele>115.57142857142857</ele><time>2026-04-11T09:35:02.999Z</time></trkpt><trkpt lat="45.469248311649054" lon="9.286711433322731"><ele>115.42857142857143</ele><time>2026-04-11T09:35:05.999Z</time></trkpt><trkpt lat="45.46917670969723" lon="9.286680383873923"><ele>115.28571428571428</ele><time>2026-04-11T09:35:08.999Z</time></trkpt><trkpt lat="45.4691109113023" lon="9.286662883568972"><ele>115.14285714285712</ele><time>2026-04-11T09:35:10.999Z</time></trkpt><trkpt lat="45.46902779170769" lon="9.286646389875626"><ele>114.99999999999999</ele><time>2026-04-11T09:35:13.999Z</time></trkpt><trkpt lat="45.46895245441711" lon="9.286613941026093"><ele>114.99999999999999</ele><time>2026-04-11T09:35:16.999Z</time></trkpt><trkpt lat="45.46888665839501" lon="9.286595167682503"><ele>115.0</ele><time>2026-04-11T09:35:19.999Z</time></trkpt><trkpt lat="45.46880376404486" lon="9.28660790823231"><ele>114.99999999999999</ele><time>2026-04-11T09:35:23.999Z</time></trkpt><trkpt lat="45.46874958834401" lon="9.286682041706188"><ele>114.99999999999999</ele><time>2026-04-11T09:35:28Z</time></trkpt><trkpt lat="45.46867232585682" lon="9.286661680101917"><ele>115.0</ele><time>2026-04-11T09:35:47Z</time></trkpt><trkpt lat="45.46862323416148" lon="9.286599186313127"><ele>114.99999999999999</ele><time>2026-04-11T09:35:50Z</time></trkpt><trkpt lat="45.468615512052374" lon="9.286497465064253"><ele>114.99999999999999</ele><time>2026-04-11T09:35:52Z</time></trkpt><trkpt lat="45.46855974847165" lon="9.286400455988595"><ele>115.28571428571428</ele><time>2026-04-11T09:35:55Z</time></trkpt><trkpt lat="45.46848589529136" lon="9.286378758979541"><ele>115.57142857142857</ele><time>2026-04-11T09:35:57Z</time></trkpt><trkpt lat="45.46841420426098" lon="9.286372498377787"><ele>115.85714285714286</ele><time>2026-04-11T09:35:59Z</time></trkpt><trkpt lat="45.46834870643868" lon="9.286360898824404"><ele>116.14285714285714</ele><time>2026-04-11T09:36:01Z</time></trkpt><trkpt lat="45.46827942343605" lon="9.28634038743229"><ele>116.42857142857144</ele><time>2026-04-11T09:36:03Z</time></trkpt><trkpt lat="45.46818983920974" lon="9.286321420318073"><ele>116.71428571428572</ele><time>2026-04-11T09:36:06Z</time></trkpt><trkpt lat="45.46812367674049" lon="9.286331712330819"><ele>117.0</ele><time>2026-04-11T09:36:08Z</time></trkpt><trkpt lat="45.4680418378467" lon="9.286344572883428"><ele>117.0</ele><time>2026-04-11T09:36:11Z</time></trkpt><trkpt lat="45.467989846895286" lon="9.286409608957348"><ele>117.00000000000001</ele><time>2026-04-11T09:36:13Z</time></trkpt><trkpt lat="45.46791332510952" lon="9.286405990226529"><ele>117.0</ele><time>2026-04-11T09:36:15Z</time></trkpt><trkpt lat="45.46783068508104" lon="9.286387852775922"><ele>117.0</ele><time>2026-04-11T09:36:17Z</time></trkpt><trkpt lat="45.46776465921126" lon="9.286362705844487"><ele>117.00000000000001</ele><time>2026-04-11T09:36:19Z</time></trkpt><trkpt lat="45.46770153223824" lon="9.28628378313641"><ele>117.0</ele><time>2026-04-11T09:36:22Z</time></trkpt><trkpt lat="45.46764440315121" lon="9.286237714662342"><ele>117.0</ele><time>2026-04-11T09:36:24Z</time></trkpt><trkpt lat="45.46757311708825" lon="9.286183732447103"><ele>116.66666666666667</ele><time>2026-04-11T09:36:26Z</time></trkpt><trkpt lat="45.46750927382967" lon="9.286169911602478"><ele>116.33333333333334</ele><time>2026-04-11T09:36:27.999Z</time></trkpt><trkpt lat="45.467452454856605" lon="9.286128783485012"><ele>116.0</ele><time>2026-04-11T09:36:29.999Z</time></trkpt><trkpt lat="45.46738116145554" lon="9.286118095955711"><ele>115.66666666666667</ele><time>2026-04-11T09:36:31.999Z</time></trkpt><trkpt lat="45.46728261137392" lon="9.286104884472355"><ele>115.33333333333334</ele><time>2026-04-11T09:36:33.999Z</time></trkpt><trkpt lat="45.46717938752383" lon="9.286074931597074"><ele>115.0</ele><time>2026-04-11T09:36:35.999Z</time></trkpt><trkpt lat="45.467072561610856" lon="9.28604568816957"><ele>114.8</ele><time>2026-04-11T09:36:37.999Z</time></trkpt><trkpt lat="45.466970564328996" lon="9.28601775585187"><ele>114.6</ele><time>2026-04-11T09:36:39.999Z</time></trkpt><trkpt lat="45.46687397742705" lon="9.286009094704594"><ele>114.4</ele><time>2026-04-11T09:36:41.999Z</time></trkpt><trkpt lat="45.46678896087123" lon="9.285995698027401"><ele>114.2</ele><time>2026-04-11T09:36:43.999Z</time></trkpt><trkpt lat="45.46670269957513" lon="9.285977394245469"><ele>114.0</ele><time>2026-04-11T09:36:45.999Z</time></trkpt><trkpt lat="45.46661715408749" lon="9.285976445158523"><ele>114.0</ele><time>2026-04-11T09:36:47.999Z</time></trkpt><trkpt lat="45.46651045147968" lon="9.285951842578072"><ele>114.0</ele><time>2026-04-11T09:36:49.999Z</time></trkpt><trkpt lat="45.46641507387199" lon="9.285895591477283"><ele>114.0</ele><time>2026-04-11T09:36:51.999Z</time></trkpt><trkpt lat="45.466606099065956" lon="9.285852037583838"><ele>114.0</ele><time>2026-04-11T09:37:04.999Z</time></trkpt><trkpt lat="45.46668881280496" lon="9.285883415253764"><ele>114.0</ele><time>2026-04-11T09:37:06.999Z</time></trkpt><trkpt lat="45.46677409982912" lon="9.285922391072033"><ele>114.0</ele><time>2026-04-11T09:37:08.999Z</time></trkpt><trkpt lat="45.466845687733816" lon="9.285952917254622"><ele>114.0</ele><time>2026-04-11T09:37:10.999Z</time></trkpt><trkpt lat="45.46702288359602" lon="9.285954667408943"><ele>114.0</ele><time>2026-04-11T09:37:14.999Z</time></trkpt><trkpt lat="45.46711141449597" lon="9.285983313122044"><ele>114.0</ele><time>2026-04-11T09:37:16.999Z</time></trkpt><trkpt lat="45.46721638073992" lon="9.285991874816883"><ele>114.2</ele><time>2026-04-11T09:37:18.999Z</time></trkpt><trkpt lat="45.46729566656881" lon="9.286000675330726"><ele>114.4</ele><time>2026-04-11T09:37:20.999Z</time></trkpt><trkpt lat="45.467424877187106" lon="9.286005974064212"><ele>114.6</ele><time>2026-04-11T09:37:23.999Z</time></trkpt><trkpt lat="45.46750322304274" lon="9.28603642687718"><ele>114.8</ele><time>2026-04-11T09:37:25.999Z</time></trkpt><trkpt lat="45.467588259903486" lon="9.286050839799152"><ele>115.0</ele><time>2026-04-11T09:37:27.999Z</time></trkpt><trkpt lat="45.4676946349428" lon="9.286056557237803"><ele>115.00000000000001</ele><time>2026-04-11T09:37:29.999Z</time></trkpt><trkpt lat="45.46778100800082" lon="9.286062751055587"><ele>115.0</ele><time>2026-04-11T09:37:31.999Z</time></trkpt><trkpt lat="45.467884425959575" lon="9.286091873043375"><ele>115.0</ele><time>2026-04-11T09:37:34Z</time></trkpt><trkpt lat="45.46795527812718" lon="9.286106823727666"><ele>115.0</ele><time>2026-04-11T09:37:35Z</time></trkpt><trkpt lat="45.468073288480596" lon="9.286131897102912"><ele>115.00000000000001</ele><time>2026-04-11T09:37:37Z</time></trkpt><trkpt lat="45.4681370552182" lon="9.286133522017346"><ele>115.0</ele><time>2026-04-11T09:37:38Z</time></trkpt><trkpt lat="45.468233132709415" lon="9.28617026062641"><ele>115.5</ele><time>2026-04-11T09:37:40Z</time></trkpt><trkpt lat="45.46829884433229" lon="9.286174947352329"><ele>116.0</ele><time>2026-04-11T09:37:41Z</time></trkpt><trkpt lat="45.46841424137121" lon="9.286193489724619"><ele>116.5</ele><time>2026-04-11T09:37:43Z</time></trkpt><trkpt lat="45.46866538247879" lon="9.286219990145927"><ele>117.0</ele><time>2026-04-11T09:37:48Z</time></trkpt><trkpt lat="45.46877353692951" lon="9.286251598163924"><ele>116.75</ele><time>2026-04-11T09:37:50Z</time></trkpt><trkpt lat="45.46889868686005" lon="9.286260591038696"><ele>116.5</ele><time>2026-04-11T09:37:52Z</time></trkpt><trkpt lat="45.46900183537697" lon="9.286293997048979"><ele>116.25</ele><time>2026-04-11T09:37:54Z</time></trkpt><trkpt lat="45.46911861152889" lon="9.286298172754666"><ele>116.0</ele><time>2026-04-11T09:37:56Z</time></trkpt><trkpt lat="45.46924574620477" lon="9.286314637763029"><ele>116.0</ele><time>2026-04-11T09:37:58Z</time></trkpt><trkpt lat="45.469369643890715" lon="9.286328493844199"><ele>116.0</ele><time>2026-04-11T09:38:00Z</time></trkpt><trkpt lat="45.46947807690872" lon="9.28634836877783"><ele>116.0</ele><time>2026-04-11T09:38:02Z</time></trkpt><trkpt lat="45.46960274257316" lon="9.286357507541926"><ele>116.0</ele><time>2026-04-11T09:38:04Z</time></trkpt><trkpt lat="45.46971306324307" lon="9.28637325407097"><ele>116.0</ele><time>2026-04-11T09:38:06Z</time></trkpt><trkpt lat="45.46982045128139" lon="9.286399755509386"><ele>116.0</ele><time>2026-04-11T09:38:08Z</time></trkpt><trkpt lat="45.46992786988805" lon="9.286421330320275"><ele>116.0</ele><time>2026-04-11T09:38:10Z</time></trkpt><trkpt lat="45.47004362506847" lon="9.286440606260363"><ele>116.0</ele><time>2026-04-11T09:38:12Z</time></trkpt><trkpt lat="45.470152047677885" lon="9.286450506488555"><ele>116.0</ele><time>2026-04-11T09:38:14Z</time></trkpt><trkpt lat="45.47023729540831" lon="9.286474368314929"><ele>116.0</ele><time>2026-04-11T09:38:16Z</time></trkpt><trkpt lat="45.47033022991853" lon="9.286496060157686"><ele>116.0</ele><time>2026-04-11T09:38:18Z</time></trkpt><trkpt lat="45.47042421234693" lon="9.286532326760923"><ele>116.0</ele><time>2026-04-11T09:38:20Z</time></trkpt><trkpt lat="45.470543818797324" lon="9.286554008351706"><ele>116.0</ele><time>2026-04-11T09:38:22Z</time></trkpt><trkpt lat="45.47065483911032" lon="9.28656180417539"><ele>116.0</ele><time>2026-04-11T09:38:24Z</time></trkpt><trkpt lat="45.470775808352464" lon="9.286572666968572"><ele>116.0</ele><time>2026-04-11T09:38:26Z</time></trkpt><trkpt lat="45.47084239437317" lon="9.2865850812252"><ele>116.0</ele><time>2026-04-11T09:38:27Z</time></trkpt><trkpt lat="45.470945166915094" lon="9.28662109142896"><ele>116.0</ele><time>2026-04-11T09:38:29Z</time></trkpt><trkpt lat="45.471127362161134" lon="9.286628048240273"><ele>116.0</ele><time>2026-04-11T09:38:34Z</time></trkpt><trkpt lat="45.47123532546346" lon="9.286636555769334"><ele>115.66666666666666</ele><time>2026-04-11T09:38:36Z</time></trkpt><trkpt lat="45.471306520596684" lon="9.28664833946691"><ele>115.33333333333333</ele><time>2026-04-11T09:38:38Z</time></trkpt><trkpt lat="45.47138109888118" lon="9.286659664106187"><ele>115.0</ele><time>2026-04-11T09:38:41Z</time></trkpt><trkpt lat="45.47147376438496" lon="9.286675399871505"><ele>114.66666666666666</ele><time>2026-04-11T09:38:44Z</time></trkpt><trkpt lat="45.471536739009025" lon="9.286693652946816"><ele>114.33333333333333</ele><time>2026-04-11T09:38:46Z</time></trkpt><trkpt lat="45.47161612251986" lon="9.286704266706966"><ele>114.0</ele><time>2026-04-11T09:38:47.999Z</time></trkpt><trkpt lat="45.471687256858765" lon="9.286720293871669"><ele>114.0</ele><time>2026-04-11T09:38:49.999Z</time></trkpt><trkpt lat="45.47176300944563" lon="9.286738855921016"><ele>114.0</ele><time>2026-04-11T09:38:51.999Z</time></trkpt><trkpt lat="45.47183189921675" lon="9.286748920631378"><ele>114.0</ele><time>2026-04-11T09:38:53.999Z</time></trkpt><trkpt lat="45.47205074112632" lon="9.286766425967054"><ele>114.0</ele><time>2026-04-11T09:38:58.999Z</time></trkpt><trkpt lat="45.47215165778447" lon="9.286792294768937"><ele>114.0</ele><time>2026-04-11T09:39:00.999Z</time></trkpt><trkpt lat="45.4722531162505" lon="9.286800463958908"><ele>114.0</ele><time>2026-04-11T09:39:02.999Z</time></trkpt><trkpt lat="45.47234662862527" lon="9.286827633926903"><ele>114.0</ele><time>2026-04-11T09:39:04.999Z</time></trkpt><trkpt lat="45.47243111610386" lon="9.28682669807624"><ele>114.0</ele><time>2026-04-11T09:39:06.999Z</time></trkpt><trkpt lat="45.47251514820125" lon="9.286860763117565"><ele>114.0</ele><time>2026-04-11T09:39:08.999Z</time></trkpt><trkpt lat="45.47265201024672" lon="9.2868637124989"><ele>114.0</ele><time>2026-04-11T09:39:11.999Z</time></trkpt><trkpt lat="45.472728449301094" lon="9.286872989548245"><ele>113.99999999999999</ele><time>2026-04-11T09:39:13.999Z</time></trkpt><trkpt lat="45.47280091718102" lon="9.286887554260725"><ele>114.0</ele><time>2026-04-11T09:39:15.999Z</time></trkpt><trkpt lat="45.47288088679075" lon="9.28690188420381"><ele>114.0</ele><time>2026-04-11T09:39:17.999Z</time></trkpt><trkpt lat="45.472949461578104" lon="9.286907591876782"><ele>113.99999999999999</ele><time>2026-04-11T09:39:19.999Z</time></trkpt><trkpt lat="45.47301675242035" lon="9.286928465092046"><ele>114.0</ele><time>2026-04-11T09:39:21.999Z</time></trkpt><trkpt lat="45.473094677394975" lon="9.286937591294526"><ele>114.0</ele><time>2026-04-11T09:39:23.999Z</time></trkpt><trkpt lat="45.473182570760784" lon="9.286930486731345"><ele>114.16666666666667</ele><time>2026-04-11T09:39:25.999Z</time></trkpt><trkpt lat="45.4732755809108" lon="9.286967046960251"><ele>114.33333333333334</ele><time>2026-04-11T09:39:27.999Z</time></trkpt><trkpt lat="45.47338348546784" lon="9.286994085695865"><ele>114.5</ele><time>2026-04-11T09:39:30.999Z</time></trkpt><trkpt lat="45.473467799252035" lon="9.28702306404741"><ele>114.66666666666667</ele><time>2026-04-11T09:39:32.999Z</time></trkpt><trkpt lat="45.473543391098424" lon="9.28705155088435"><ele>114.83333333333334</ele><time>2026-04-11T09:39:34.999Z</time></trkpt><trkpt lat="45.47360536668482" lon="9.28707531317765"><ele>115.0</ele><time>2026-04-11T09:39:35.999Z</time></trkpt><trkpt lat="45.473664389121005" lon="9.287112432876437"><ele>115.0</ele><time>2026-04-11T09:39:36.999Z</time></trkpt><trkpt lat="45.47375014533594" lon="9.287197738101556"><ele>115.0</ele><time>2026-04-11T09:39:38.999Z</time></trkpt><trkpt lat="45.47382515943628" lon="9.287266633057735"><ele>115.0</ele><time>2026-04-11T09:39:41Z</time></trkpt><trkpt lat="45.47391827702863" lon="9.287343121492897"><ele>115.0</ele><time>2026-04-11T09:39:43Z</time></trkpt><trkpt lat="45.47400562316001" lon="9.287436277418047"><ele>115.0</ele><time>2026-04-11T09:39:45Z</time></trkpt><trkpt lat="45.474074917202785" lon="9.287527893306997"><ele>115.00000000000001</ele><time>2026-04-11T09:39:47Z</time></trkpt><trkpt lat="45.47415596359761" lon="9.287618838511593"><ele>115.0</ele><time>2026-04-11T09:39:49Z</time></trkpt><trkpt lat="45.47422179051544" lon="9.287689372662623"><ele>115.0</ele><time>2026-04-11T09:39:52Z</time></trkpt><trkpt lat="45.47427058284498" lon="9.287770549492988"><ele>115.0</ele><time>2026-04-11T09:39:54Z</time></trkpt><trkpt lat="45.47432669952619" lon="9.287860664597252"><ele>115.00000000000001</ele><time>2026-04-11T09:39:57Z</time></trkpt><trkpt lat="45.47438726213265" lon="9.287974139616711"><ele>115.0</ele><time>2026-04-11T09:40:00Z</time></trkpt><trkpt lat="45.474441538585175" lon="9.28804697040667"><ele>115.00000000000001</ele><time>2026-04-11T09:40:03Z</time></trkpt><trkpt lat="45.47448085505557" lon="9.288136301776758"><ele>115.0</ele><time>2026-04-11T09:40:05Z</time></trkpt><trkpt lat="45.474530557134116" lon="9.288217832049964"><ele>115.0</ele><time>2026-04-11T09:40:07Z</time></trkpt><trkpt lat="45.4745531394114" lon="9.288313787523307"><ele>115.0</ele><time>2026-04-11T09:40:09Z</time></trkpt><trkpt lat="45.47461055196753" lon="9.288388193576228"><ele>115.00000000000001</ele><time>2026-04-11T09:40:11Z</time></trkpt><trkpt lat="45.47467235337881" lon="9.288440693421805"><ele>115.0</ele><time>2026-04-11T09:40:13Z</time></trkpt><trkpt lat="45.47474137382627" lon="9.28854752956085"><ele>115.00000000000001</ele><time>2026-04-11T09:40:16Z</time></trkpt><trkpt lat="45.47480051938563" lon="9.288634644246658"><ele>115.0</ele><time>2026-04-11T09:40:19Z</time></trkpt><trkpt lat="45.47486379555549" lon="9.288645159110256"><ele>115.0</ele><time>2026-04-11T09:40:22Z</time></trkpt><trkpt lat="45.47492298768266" lon="9.288596348264345"><ele>115.0</ele><time>2026-04-11T09:40:25Z</time></trkpt><trkpt lat="45.47488777442304" lon="9.288495293247793"><ele>115.00000000000001</ele><time>2026-04-11T09:40:28Z</time></trkpt><trkpt lat="45.47485226355759" lon="9.288417553600095"><ele>115.0</ele><time>2026-04-11T09:40:30Z</time></trkpt><trkpt lat="45.47478492455368" lon="9.288313682339368"><ele>115.0</ele><time>2026-04-11T09:40:32Z</time></trkpt><trkpt lat="45.4746967417649" lon="9.288187204057783"><ele>115.0</ele><time>2026-04-11T09:40:34Z</time></trkpt><trkpt lat="45.47463785948917" lon="9.288078495435746"><ele>115.0</ele><time>2026-04-11T09:40:36Z</time></trkpt><trkpt lat="45.474585897192135" lon="9.287991654626227"><ele>115.0</ele><time>2026-04-11T09:40:38Z</time></trkpt><trkpt lat="45.474552479190976" lon="9.287914478931897"><ele>115.0</ele><time>2026-04-11T09:40:45Z</time></trkpt><trkpt lat="45.47451473190947" lon="9.287594567852926"><ele>115.00000000000001</ele><time>2026-04-11T09:40:50Z</time></trkpt><trkpt lat="45.47451255968984" lon="9.287495970746628"><ele>115.0</ele><time>2026-04-11T09:40:52Z</time></trkpt><trkpt lat="45.474494094917205" lon="9.287375953779174"><ele>115.0</ele><time>2026-04-11T09:40:53.999Z</time></trkpt><trkpt lat="45.47447390191886" lon="9.287249819480639"><ele>115.0</ele><time>2026-04-11T09:40:55.999Z</time></trkpt><trkpt lat="45.47447900343541" lon="9.287122607166706"><ele>115.00000000000001</ele><time>2026-04-11T09:40:57.999Z</time></trkpt><trkpt lat="45.474467136046094" lon="9.287017635895701"><ele>115.0</ele><time>2026-04-11T09:41:00.999Z</time></trkpt><trkpt lat="45.474446186163775" lon="9.286918268076102"><ele>114.33333333333334</ele><time>2026-04-11T09:41:02.999Z</time></trkpt><trkpt lat="45.474398722862865" lon="9.286831764131936"><ele>113.66666666666667</ele><time>2026-04-11T09:41:05.999Z</time></trkpt><trkpt lat="45.474389799367074" lon="9.286723690428678"><ele>113.0</ele><time>2026-04-11T09:41:07.999Z</time></trkpt><trkpt lat="45.47433840730174" lon="9.286628483737122"><ele>112.33333333333334</ele><time>2026-04-11T09:41:09.999Z</time></trkpt><trkpt lat="45.47428311727266" lon="9.286573411927582"><ele>111.66666666666667</ele><time>2026-04-11T09:41:11.999Z</time></trkpt><trkpt lat="45.474246396632395" lon="9.286480005415548"><ele>111.0</ele><time>2026-04-11T09:41:13.999Z</time></trkpt><trkpt lat="45.47421892510117" lon="9.28637690869652"><ele>111.0</ele><time>2026-04-11T09:41:15.999Z</time></trkpt><trkpt lat="45.474156365679015" lon="9.286298606024966"><ele>111.0</ele><time>2026-04-11T09:41:17.999Z</time></trkpt><trkpt lat="45.47408627341716" lon="9.28620250168026"><ele>111.0</ele><time>2026-04-11T09:41:19.999Z</time></trkpt><trkpt lat="45.47404988937399" lon="9.286101528327519"><ele>111.0</ele><time>2026-04-11T09:41:21.999Z</time></trkpt><trkpt lat="45.474015693044855" lon="9.285955414428269"><ele>111.0</ele><time>2026-04-11T09:41:23.999Z</time></trkpt><trkpt lat="45.47399338811649" lon="9.285817511679234"><ele>111.0</ele><time>2026-04-11T09:41:25.999Z</time></trkpt><trkpt lat="45.47396778584139" lon="9.285698466819795"><ele>111.0</ele><time>2026-04-11T09:41:27.999Z</time></trkpt><trkpt lat="45.47396531460197" lon="9.28557992026476"><ele>111.0</ele><time>2026-04-11T09:41:29.999Z</time></trkpt><trkpt lat="45.47396299334198" lon="9.285441709430279"><ele>111.0</ele><time>2026-04-11T09:41:31.999Z</time></trkpt><trkpt lat="45.473964825205634" lon="9.285295695978652"><ele>111.0</ele><time>2026-04-11T09:41:33.999Z</time></trkpt><trkpt lat="45.47396895118839" lon="9.285151458297838"><ele>111.19999999999999</ele><time>2026-04-11T09:41:35.999Z</time></trkpt><trkpt lat="45.473971456736976" lon="9.285016843918646"><ele>111.39999999999999</ele><time>2026-04-11T09:41:37.999Z</time></trkpt><trkpt lat="45.47396840016785" lon="9.284862160278326"><ele>111.6</ele><time>2026-04-11T09:41:39.999Z</time></trkpt><trkpt lat="45.473978599719366" lon="9.284714021296317"><ele>111.8</ele><time>2026-04-11T09:41:41.999Z</time></trkpt><trkpt lat="45.47398699687869" lon="9.284548506357838"><ele>112.0</ele><time>2026-04-11T09:41:43.999Z</time></trkpt><trkpt lat="45.47399079117126" lon="9.284382312361192"><ele>112.39999999999999</ele><time>2026-04-11T09:41:46Z</time></trkpt><trkpt lat="45.47398294622027" lon="9.284240807690944"><ele>112.79999999999998</ele><time>2026-04-11T09:41:48Z</time></trkpt><trkpt lat="45.47399178243026" lon="9.284097333011092"><ele>113.2</ele><time>2026-04-11T09:41:50Z</time></trkpt><trkpt lat="45.473992442099345" lon="9.283948331566712"><ele>113.6</ele><time>2026-04-11T09:41:52Z</time></trkpt><trkpt lat="45.474005197175615" lon="9.283805449051696"><ele>114.0</ele><time>2026-04-11T09:41:54Z</time></trkpt><trkpt lat="45.47404415066134" lon="9.283663441711393"><ele>114.2</ele><time>2026-04-11T09:41:56Z</time></trkpt><trkpt lat="45.47408863316573" lon="9.283517093789536"><ele>114.4</ele><time>2026-04-11T09:41:58Z</time></trkpt><trkpt lat="45.47411929084016" lon="9.283376080056655"><ele>114.6</ele><time>2026-04-11T09:42:00Z</time></trkpt><trkpt lat="45.47415430660317" lon="9.28326236313164"><ele>114.8</ele><time>2026-04-11T09:42:02Z</time></trkpt><trkpt lat="45.47418699374769" lon="9.283149122903824"><ele>115.0</ele><time>2026-04-11T09:42:04Z</time></trkpt><trkpt lat="45.47421204157594" lon="9.283043377203006"><ele>114.4</ele><time>2026-04-11T09:42:06Z</time></trkpt><trkpt lat="45.474238425479705" lon="9.282906111136377"><ele>113.8</ele><time>2026-04-11T09:42:08Z</time></trkpt><trkpt lat="45.47424749631524" lon="9.282780752354892"><ele>113.19999999999999</ele><time>2026-04-11T09:42:10Z</time></trkpt><trkpt lat="45.474272096607855" lon="9.282655866137155"><ele>112.6</ele><time>2026-04-11T09:42:12Z</time></trkpt><trkpt lat="45.4742782927798" lon="9.282498966711186"><ele>112.0</ele><time>2026-04-11T09:42:14Z</time></trkpt><trkpt lat="45.47430719100549" lon="9.282328169308963"><ele>112.0</ele><time>2026-04-11T09:42:16Z</time></trkpt><trkpt lat="45.47433372788713" lon="9.282165836735475"><ele>111.99999999999999</ele><time>2026-04-11T09:42:18Z</time></trkpt><trkpt lat="45.474333742555224" lon="9.282010937571563"><ele>111.99999999999999</ele><time>2026-04-11T09:42:20Z</time></trkpt><trkpt lat="45.47432565311429" lon="9.281872232249667"><ele>112.0</ele><time>2026-04-11T09:42:22Z</time></trkpt><trkpt lat="45.47432073754582" lon="9.28174876619252"><ele>112.0</ele><time>2026-04-11T09:42:24Z</time></trkpt><trkpt lat="45.474284323776935" lon="9.281606097903174"><ele>112.0</ele><time>2026-04-11T09:42:26Z</time></trkpt><trkpt lat="45.47425024983305" lon="9.281473076774075"><ele>111.99999999999999</ele><time>2026-04-11T09:42:28Z</time></trkpt><trkpt lat="45.4742104866594" lon="9.281337035127128"><ele>111.99999999999999</ele><time>2026-04-11T09:42:30Z</time></trkpt><trkpt lat="45.474171091285065" lon="9.281186295469752"><ele>112.0</ele><time>2026-04-11T09:42:32Z</time></trkpt><trkpt lat="45.47412606732824" lon="9.281040067412592"><ele>112.0</ele><time>2026-04-11T09:42:34Z</time></trkpt><trkpt lat="45.47408076225583" lon="9.280896315896914"><ele>112.25</ele><time>2026-04-11T09:42:36Z</time></trkpt><trkpt lat="45.47403192494193" lon="9.280756456896944"><ele>112.5</ele><time>2026-04-11T09:42:38Z</time></trkpt><trkpt lat="45.47398017300867" lon="9.280608750835496"><ele>112.75</ele><time>2026-04-11T09:42:40Z</time></trkpt><trkpt lat="45.47392889374357" lon="9.2804673456143"><ele>113.0</ele><time>2026-04-11T09:42:42Z</time></trkpt><trkpt lat="45.47388082704969" lon="9.280319881211101"><ele>113.0</ele><time>2026-04-11T09:42:44Z</time></trkpt><trkpt lat="45.47383301384321" lon="9.280180310644372"><ele>113.00000000000001</ele><time>2026-04-11T09:42:46Z</time></trkpt><trkpt lat="45.47378622150598" lon="9.280046444738662"><ele>113.00000000000001</ele><time>2026-04-11T09:42:48Z</time></trkpt><trkpt lat="45.47373680605893" lon="9.279907936890519"><ele>113.0</ele><time>2026-04-11T09:42:50Z</time></trkpt><trkpt lat="45.473688460704444" lon="9.279766459014834"><ele>113.0</ele><time>2026-04-11T09:42:52Z</time></trkpt><trkpt lat="45.47364258491413" lon="9.279618220472932"><ele>112.80000000000001</ele><time>2026-04-11T09:42:54Z</time></trkpt><trkpt lat="45.473604995141415" lon="9.279476872814355"><ele>112.60000000000001</ele><time>2026-04-11T09:42:56Z</time></trkpt><trkpt lat="45.47356469044197" lon="9.279332058580083"><ele>112.39999999999999</ele><time>2026-04-11T09:42:58Z</time></trkpt><trkpt lat="45.473537195388495" lon="9.279179571788758"><ele>112.19999999999999</ele><time>2026-04-11T09:43:00Z</time></trkpt><trkpt lat="45.47350572254117" lon="9.279028224824453"><ele>112.0</ele><time>2026-04-11T09:43:01.999Z</time></trkpt><trkpt lat="45.47345600124545" lon="9.278885989828462"><ele>112.39999999999999</ele><time>2026-04-11T09:43:03.999Z</time></trkpt><trkpt lat="45.473405466856434" lon="9.278741857723526"><ele>112.79999999999998</ele><time>2026-04-11T09:43:05.999Z</time></trkpt><trkpt lat="45.473355812257594" lon="9.278587055102648"><ele>113.2</ele><time>2026-04-11T09:43:07.999Z</time></trkpt><trkpt lat="45.47329874999454" lon="9.278462794709114"><ele>113.6</ele><time>2026-04-11T09:43:09.999Z</time></trkpt><trkpt lat="45.473246689998696" lon="9.278345036686554"><ele>114.0</ele><time>2026-04-11T09:43:11.999Z</time></trkpt><trkpt lat="45.47320044893822" lon="9.278242630318479"><ele>114.0</ele><time>2026-04-11T09:43:13.999Z</time></trkpt><trkpt lat="45.47316654259379" lon="9.278132191035178"><ele>114.0</ele><time>2026-04-11T09:43:15.999Z</time></trkpt><trkpt lat="45.47308869513729" lon="9.278161129336581"><ele>114.0</ele><time>2026-04-11T09:43:20.999Z</time></trkpt><trkpt lat="45.47303825774235" lon="9.278254474176533"><ele>114.0</ele><time>2026-04-11T09:43:22.999Z</time></trkpt><trkpt lat="45.47296563653" lon="9.278312306758169"><ele>114.0</ele><time>2026-04-11T09:43:24.999Z</time></trkpt><trkpt lat="45.47289373037516" lon="9.27829583223209"><ele>114.0</ele><time>2026-04-11T09:43:26.999Z</time></trkpt><trkpt lat="45.47282870120453" lon="9.278261354162945"><ele>111.0</ele><time>2026-04-11T09:43:28.999Z</time></trkpt><trkpt lat="45.47276194474958" lon="9.278232441281009"><ele>111.0</ele><time>2026-04-11T09:43:30.999Z</time></trkpt><trkpt lat="45.4726973506508" lon="9.278197557595876"><ele>111.0</ele><time>2026-04-11T09:43:32.999Z</time></trkpt><trkpt lat="45.472626711967855" lon="9.27818268190391"><ele>111.0</ele><time>2026-04-11T09:43:35.999Z</time></trkpt></trkseg></trk></gpx>